GFSMW_sfc_wetblb_000.txt.gz
Wetbulb
51.36 52.95 53.23 53.28 52.98 52.86 52.69 53.24 53.94 54.84 51.87 50.44 50.22 51.32 49.10 49.77 49.46 49.42 50.67 51.03 51.29 51.01 49.65 48.73 48.95 48.43 47.01 46.10 45.95 45.81 45.41 45.51 45.63 44.15 45.63 44.72 46.04 46.40 46.70 48.18 47.81 48.79 48.24
50.15 51.11 51.08 51.38 50.80 50.63 51.63 51.85 51.04 50.57 50.87 51.67 50.98 50.75 48.90 48.65 49.14 51.84 51.49 50.53 50.07 49.49 49.14 47.05 46.10 46.62 45.48 44.70 44.34 44.82 43.90 44.30 44.63 42.80 42.35 39.75 43.39 42.53 45.00 45.40 45.28 44.76 46.05
49.12 50.01 50.25 48.63 47.87 47.94 48.94 49.26 48.73 48.90 49.89 50.70 49.02 48.97 49.07 49.21 48.88 48.09 47.51 48.47 47.71 47.24 46.31 45.58 45.52 45.03 44.76 43.64 43.45 43.86 43.34 42.22 43.11 43.49 42.10 38.46 36.57 38.92 42.29 42.25 41.10 41.23 41.82
50.08 49.84 48.71 47.94 48.08 47.25 47.51 48.14 48.81 48.64 48.84 48.70 47.65 47.89 46.72 45.67 46.66 46.09 45.01 44.19 45.30 45.66 45.57 44.85 44.60 44.36 44.10 42.69 43.01 44.99 42.88 42.40 40.88 42.02 43.78 41.20 39.86 37.80 36.65 38.56 40.69 40.45 40.96
48.18 48.19 48.38 48.78 48.14 47.75 47.56 47.51 48.51 48.54 48.24 48.06 47.22 46.78 45.05 44.23 44.40 44.08 42.36 42.47 43.34 44.30 43.95 43.71 43.36 43.27 43.04 42.15 41.89 42.42 41.64 41.71 40.72 40.24 40.04 39.30 38.79 40.81 36.96 33.47 35.47 38.51 38.97
47.23 48.18 48.95 49.20 48.25 47.46 46.89 46.39 47.08 47.91 47.86 46.89 46.58 46.60 43.85 42.98 42.24 40.89 40.27 40.89 42.00 42.43 42.69 43.07 41.49 40.59 40.69 40.27 39.94 39.18 39.49 38.78 38.52 38.09 38.47 38.17 36.80 35.76 35.22 35.37 35.14 34.63 36.73
46.85 47.55 47.87 47.56 47.36 47.23 47.32 47.24 47.72 48.10 47.73 46.54 44.93 43.75 42.53 41.64 40.32 40.21 41.25 41.13 41.99 41.89 41.40 41.04 40.43 39.92 39.91 39.39 38.79 38.06 37.41 38.05 37.47 37.33 38.03 38.20 37.58 37.51 36.87 36.19 35.45 34.18 35.72
46.84 46.78 46.74 46.42 46.48 47.15 47.03 46.61 45.53 43.68 44.54 43.80 42.85 42.83 43.29 44.06 43.75 43.18 40.02 41.82 41.13 40.34 40.72 40.37 39.93 39.48 39.37 38.48 37.69 36.77 36.38 36.40 35.57 34.69 35.25 35.63 35.86 35.83 35.44 36.66 34.89 32.38 33.84
44.61 45.69 45.63 46.20 46.33 46.29 45.55 46.32 45.53 43.73 43.09 43.38 43.27 44.44 45.36 44.99 44.51 44.44 41.74 42.19 40.16 41.49 39.59 39.25 38.09 38.02 37.61 37.53 37.23 35.35 34.82 34.32 33.94 33.67 33.88 34.25 35.18 35.44 36.64 38.21 35.54 32.54 28.84
44.60 44.95 45.09 45.01 45.11 45.54 46.71 47.15 45.82 43.35 42.39 42.81 44.38 45.73 45.39 44.52 42.84 40.85 39.73 39.01 38.94 39.63 38.78 37.49 36.79 36.89 36.67 36.17 36.15 34.92 34.37 33.85 33.49 34.53 33.43 33.33 34.19 34.60 35.45 36.19 36.63 34.63 32.72
43.16 43.80 43.85 44.16 43.51 43.54 43.33 43.25 42.98 43.71 42.68 42.45 42.72 42.04 41.79 41.35 40.58 39.48 39.42 38.63 38.62 39.58 39.68 38.45 36.60 35.39 34.70 34.04 33.00 33.54 34.18 33.81 32.24 31.31 30.21 29.75 30.06 29.43 29.98 30.89 32.46 33.84 34.75
43.96 43.52 42.82 42.57 41.81 40.97 40.83 40.02 41.26 41.80 41.71 42.03 42.36 41.92 41.61 40.71 39.34 38.45 37.55 37.86 37.58 37.67 37.42 37.71 36.31 34.15 33.01 32.29 31.41 31.86 31.36 29.72 28.74 28.39 27.76 27.82 29.79 27.16 27.57 28.07 28.21 29.48 30.65
42.22 41.71 41.34 40.82 40.23 39.32 38.72 37.54 37.45 36.93 37.76 38.84 40.12 40.87 41.39 41.22 37.95 36.90 37.41 36.94 35.76 36.11 36.31 35.41 33.83 32.67 32.82 32.15 30.97 29.94 28.73 27.16 27.04 26.80 26.42 26.22 26.32 25.30 26.02 26.61 27.54 28.47 30.63
41.14 40.63 40.11 39.16 37.83 36.99 36.48 36.41 36.59 36.46 36.38 36.17 36.18 36.00 37.21 39.18 36.43 35.60 35.91 37.60 37.93 38.12 34.82 33.52 33.48 33.45 32.10 31.27 29.61 28.34 26.33 26.17 26.51 27.02 26.22 25.79 25.14 24.68 25.49 26.88 27.28 28.24 26.69
40.52 40.71 39.48 37.29 35.32 35.53 35.43 35.70 35.68 36.08 36.34 35.53 34.94 36.59 38.14 37.28 37.17 38.24 37.44 37.94 37.79 37.97 34.11 32.92 32.30 31.09 31.10 29.68 26.87 26.93 25.99 25.25 25.44 25.66 25.58 25.35 26.79 29.06 29.18 28.78 29.25 27.42 25.09
39.67 39.33 38.44 36.06 36.03 35.67 34.34 35.18 34.95 35.37 35.78 34.66 35.98 38.35 38.38 38.00 37.28 36.62 37.27 36.46 36.78 32.67 32.16 31.11 30.33 29.20 30.68 30.72 30.47 27.77 24.77 25.06 24.35 23.11 23.92 24.51 26.79 26.96 28.53 29.33 29.90 29.18 26.90
38.81 38.16 36.37 35.62 35.01 34.03 34.65 33.61 34.20 35.07 34.82 34.39 36.84 36.96 37.63 37.00 36.76 37.25 36.77 36.23 32.33 32.16 30.22 29.48 28.94 27.35 27.26 30.82 31.11 30.12 25.26 24.18 23.27 23.94 23.53 24.23 26.05 26.33 26.24 27.67 28.38 28.03 29.21
38.68 36.95 34.76 34.49 34.21 33.72 33.63 34.16 34.09 33.72 33.90 35.20 35.65 36.19 35.84 35.57 35.72 36.38 35.11 34.33 32.84 30.79 28.32 27.30 27.85 27.19 28.55 31.25 31.79 29.73 26.16 25.31 24.90 24.50 23.95 23.43 23.75 24.54 24.96 24.93 26.35 26.25 26.34
36.75 35.71 34.77 34.54 33.41 33.33 33.56 33.23 33.16 32.96 33.22 35.03 34.82 35.27 34.98 34.66 34.46 35.24 34.85 34.88 30.76 26.81 27.91 27.93 27.36 26.60 26.88 30.79 30.29 27.98 23.30 23.64 22.98 24.47 24.45 24.06 23.45 26.05 28.21 26.30 23.87 23.44 24.35
36.51 35.49 34.47 33.74 32.41 33.54 33.49 32.75 32.36 32.26 32.42 34.72 35.07 35.45 35.25 34.81 34.31 33.99 32.76 31.21 27.70 28.69 28.07 26.77 25.91 27.74 24.40 28.59 27.67 25.97 20.83 17.33 21.07 22.46 23.29 24.62 24.26 25.72 27.24 25.80 24.35 21.68 22.25
35.37 35.64 33.91 32.72 33.42 33.30 33.37 32.47 32.12 31.82 33.39 34.90 34.72 34.96 34.82 34.16 33.84 33.09 30.00 27.86 27.50 27.10 24.89 24.56 24.29 24.53 24.51 23.94 25.95 25.33 21.38 20.22 20.86 20.19 21.20 22.63 25.33 25.97 25.92 26.11 24.23 24.03 25.25
33.82 34.06 33.15 32.70 33.07 33.58 33.54 32.23 31.15 32.92 33.28 33.11 32.83 32.45 32.12 32.22 32.06 29.25 28.04 27.40 25.99 24.17 21.48 15.12 17.64 19.77 20.89 24.37 23.71 24.30 24.17 23.89 17.24 20.00 21.71 22.96 24.57 25.21 25.57 25.30 26.07 25.80 24.49
31.89 33.10 31.67 32.29 33.19 33.62 33.31 31.56 32.12 33.01 32.73 31.59 30.85 30.49 30.35 30.41 29.80 27.09 25.25 24.33 23.26 20.31 20.39 21.85 14.62 18.14 20.22 17.84 23.34 23.32 23.97 23.62 20.48 21.71 22.95 23.18 23.40 23.73 24.03 24.22 24.82 24.13 22.43
30.91 31.62 31.58 31.31 31.41 32.79 33.21 32.49 32.95 32.82 31.27 30.24 29.95 29.35 28.69 28.89 28.10 26.62 26.40 24.14 19.26 18.00 22.67 19.98 17.30 14.93 16.38 14.92 17.44 18.51 15.42 20.75 22.46 21.58 20.96 20.97 22.33 21.25 21.59 21.94 22.69 22.42 22.27
31.51 31.66 31.10 31.17 31.50 32.55 32.70 33.08 32.96 32.12 29.64 30.28 29.91 28.60 26.86 26.97 26.80 25.20 25.44 24.52 24.26 23.21 19.59 17.97 17.60 5.49 5.25 14.06 22.58 22.60 18.85 17.93 19.01 16.14 15.11 17.27 17.42 17.05 17.36 17.78 19.44 20.45 21.51
31.15 30.68 31.15 31.26 31.75 32.05 31.55 32.21 32.24 31.16 30.76 29.41 28.65 27.03 25.30 23.57 26.46 27.91 28.09 29.05 29.02 27.53 28.32 25.89 17.67 11.26 19.76 23.97 25.54 24.57 23.47 22.47 21.93 14.55 12.35 9.82 10.63 14.62 15.57 13.92 15.09 17.25 18.92

GFSMW_sfc_wetblb_003.txt.gz
Wetbulb
48.79 50.46 50.78 51.30 51.41 51.79 52.82 54.31 53.81 53.30 53.21 52.23 51.51 50.54 49.54 49.57 49.56 49.05 49.55 48.70 48.06 48.34 46.60 45.94 45.85 45.44 44.24 43.27 43.91 43.77 43.18 42.81 43.52 41.70 43.43 41.92 41.57 43.54 44.60 45.69 45.30 45.28 45.58
48.28 49.41 49.55 49.57 49.15 49.93 50.99 51.36 51.42 50.24 50.51 50.71 49.80 51.08 50.00 49.08 50.68 49.88 48.44 47.29 46.52 45.53 46.03 44.84 44.43 43.83 43.17 42.62 42.27 42.02 41.82 42.11 42.82 41.31 40.46 37.61 40.48 41.33 43.29 42.45 42.91 41.38 43.77
47.51 48.81 48.29 46.00 46.16 46.96 47.56 48.07 48.11 49.06 49.43 51.41 50.52 48.13 47.45 47.37 45.87 44.67 44.46 43.93 45.76 44.84 44.30 44.09 43.71 43.02 42.28 41.31 41.37 41.82 41.22 40.28 41.52 41.59 40.05 36.68 34.49 37.12 40.08 40.74 39.72 39.27 39.63
47.61 47.21 46.25 45.36 45.50 44.96 45.64 46.25 47.18 47.13 47.72 47.52 46.92 46.46 45.95 44.75 44.30 43.72 41.47 41.92 43.85 43.27 43.47 42.94 42.36 41.68 41.18 40.32 41.53 41.72 39.84 39.86 38.27 39.81 41.81 39.15 37.48 34.42 33.17 36.88 38.76 38.68 39.31
46.64 46.42 46.52 46.79 45.93 45.72 45.31 45.66 46.96 47.43 47.02 46.51 46.32 45.61 43.71 42.01 42.82 41.02 40.16 40.66 41.93 42.07 42.55 41.39 41.84 40.98 40.09 39.05 38.37 38.31 37.50 37.71 36.78 36.57 36.82 36.85 36.96 36.50 34.98 32.24 33.52 36.63 37.30
45.31 46.43 47.35 47.48 46.44 44.77 44.35 43.94 45.52 46.19 46.43 45.76 44.79 43.96 41.44 41.10 39.36 38.73 39.09 39.30 40.69 41.22 41.68 42.28 40.73 39.45 38.72 37.96 37.35 36.58 36.14 35.77 35.63 35.99 37.42 37.15 36.27 35.06 35.09 33.79 32.70 33.29 35.66
46.38 47.93 47.25 45.00 44.65 44.05 44.20 45.81 45.19 43.94 43.24 42.44 41.85 41.56 40.44 39.42 39.51 39.68 39.53 41.04 41.65 41.49 40.43 39.56 38.65 38.29 38.19 37.45 36.80 35.50 34.61 34.76 33.44 33.12 33.70 34.56 33.62 34.82 33.82 33.28 32.02 32.43 33.40
45.53 43.74 43.65 43.69 43.58 43.88 42.63 42.09 42.33 41.83 41.89 41.90 41.39 41.57 41.76 41.59 41.77 43.28 42.85 40.71 39.41 39.15 39.40 38.61 38.05 37.76 37.62 36.73 36.15 34.70 34.13 33.29 31.87 31.38 31.58 31.84 32.41 33.09 33.14 32.43 32.09 27.33 28.36
42.62 43.22 43.48 43.54 43.05 43.19 43.28 42.11 41.09 40.87 41.47 42.01 41.91 42.28 43.36 42.89 42.02 41.55 39.91 38.54 38.56 40.18 39.02 38.41 38.90 39.34 37.88 36.55 35.70 34.58 32.68 32.83 32.05 31.29 31.09 31.14 31.58 30.80 31.26 32.10 32.70 31.50 24.92
42.15 42.49 42.18 41.66 41.88 42.17 42.09 42.18 41.92 40.85 40.91 40.68 41.18 42.16 41.11 40.86 40.28 39.66 39.13 38.46 38.25 40.87 40.08 40.02 39.08 37.15 36.96 36.50 34.59 33.15 32.89 32.76 31.80 32.58 30.72 29.11 30.24 28.86 29.29 27.80 29.48 30.30 30.08
41.17 41.62 41.36 41.52 40.72 39.96 39.68 39.04 39.44 38.34 37.15 37.88 39.18 39.32 39.47 39.66 39.23 38.53 38.37 37.71 38.31 38.04 37.89 38.51 36.94 36.65 35.17 33.85 32.30 31.34 32.88 32.74 30.29 28.32 27.72 27.46 27.94 26.51 26.46 26.67 26.60 26.96 27.81
40.81 41.23 40.74 40.69 40.03 37.27 36.06 36.19 35.39 35.06 35.33 36.36 36.99 37.12 37.43 37.30 37.12 37.39 36.43 37.40 37.44 35.33 35.15 35.79 36.90 34.50 33.03 32.11 31.95 31.47 30.65 28.33 27.21 26.76 26.49 26.46 28.27 24.84 24.66 24.56 24.53 25.36 26.96
39.72 39.96 39.04 38.94 36.73 36.34 36.57 35.14 34.84 33.72 33.76 33.64 33.42 33.84 34.90 35.11 35.43 34.27 34.37 35.68 36.14 37.26 36.96 36.38 32.98 32.19 33.14 32.31 31.14 30.04 28.02 26.63 26.63 26.25 25.75 25.47 24.99 23.22 23.32 23.81 24.35 25.49 27.82
39.62 39.07 37.98 37.33 36.58 35.80 34.86 34.14 34.22 34.32 34.07 33.18 33.26 34.87 35.45 35.00 33.87 33.45 34.26 35.49 36.67 35.89 34.20 34.33 32.37 32.62 31.98 30.94 29.82 27.70 26.24 26.20 26.60 26.44 26.00 25.04 24.47 23.06 23.38 24.19 27.06 28.65 27.81
39.04 38.90 36.82 35.73 35.00 33.84 33.74 33.59 33.91 34.36 34.33 33.48 33.74 34.79 35.43 35.64 35.23 34.61 34.81 34.94 35.56 35.03 34.68 32.21 30.88 30.74 30.48 29.53 27.06 27.01 26.42 25.43 24.89 25.57 25.56 25.04 26.33 28.94 27.33 25.81 24.54 25.79 26.83
39.76 39.36 37.75 35.21 34.22 33.65 32.81 33.70 33.55 33.71 34.33 33.12 34.06 35.67 35.38 35.37 35.54 35.30 34.99 37.39 35.53 34.82 29.97 28.94 28.86 28.33 29.69 31.56 31.33 29.44 25.18 25.34 24.60 23.56 24.32 24.60 26.66 26.36 27.22 27.68 28.19 27.18 25.52
38.27 37.27 35.02 33.60 33.44 32.91 33.31 32.16 32.72 33.58 33.32 32.86 34.84 35.28 35.26 34.73 34.42 34.94 35.47 34.11 32.92 28.66 28.65 27.60 27.56 27.06 26.88 31.30 31.88 32.26 27.87 26.35 23.92 25.00 24.43 23.94 25.19 24.61 24.31 25.57 26.55 26.63 27.95
37.09 36.41 33.51 32.59 32.63 32.35 32.07 32.53 32.52 32.39 32.34 32.32 34.12 34.23 34.26 33.50 33.72 34.04 33.80 33.07 34.92 32.40 26.03 26.77 27.16 26.87 29.14 31.45 30.79 29.06 24.71 24.33 23.46 23.09 22.68 22.52 22.67 24.18 24.48 25.59 25.20 25.55 24.82
36.49 34.98 32.95 32.11 31.53 31.70 32.28 31.50 31.34 31.12 31.74 32.11 33.21 33.70 33.67 33.41 33.05 32.94 32.51 32.32 31.19 26.64 26.81 27.50 26.82 25.89 24.50 28.92 27.91 25.80 21.53 21.88 21.14 22.51 22.30 22.87 22.61 24.63 27.44 25.58 24.21 24.23 24.45
34.29 33.29 32.38 31.87 31.18 31.41 31.35 30.63 31.04 31.24 31.07 31.73 32.96 33.49 33.34 33.21 32.85 32.31 31.37 31.02 25.74 27.31 26.78 26.28 24.40 25.50 22.48 26.45 26.03 24.59 20.09 15.11 19.90 20.69 21.67 23.35 23.65 25.86 25.70 23.68 22.96 21.42 22.05
32.71 32.95 32.02 31.07 31.05 31.73 32.52 31.69 31.10 30.47 32.01 32.47 32.51 32.23 32.34 31.65 31.06 30.63 28.57 26.26 26.60 25.84 24.12 24.75 22.73 22.69 23.13 21.87 24.66 24.46 18.46 18.60 20.65 19.89 19.99 21.83 24.24 24.94 25.50 25.40 23.71 23.96 25.32
31.71 31.63 31.07 30.80 31.87 32.21 31.34 30.29 29.46 31.63 31.67 31.54 31.24 30.62 30.54 30.09 29.99 26.75 25.19 25.64 24.05 22.86 21.31 14.51 16.64 19.18 20.02 23.09 23.00 24.01 23.73 23.67 15.88 19.17 20.68 21.39 23.66 23.93 24.26 23.69 25.16 24.56 23.44
30.23 31.16 30.28 30.88 31.51 31.34 31.01 29.38 30.48 31.27 31.19 30.35 29.77 29.63 29.06 28.74 27.84 25.42 23.89 23.36 22.35 19.24 19.89 20.78 14.23 17.33 20.38 17.56 22.55 23.12 23.58 23.15 16.24 18.99 21.49 22.41 22.24 21.89 21.71 22.62 23.27 22.15 21.05
29.41 30.01 30.04 29.16 29.40 30.82 31.35 31.31 31.52 31.67 30.08 29.70 29.59 30.01 28.98 28.41 27.08 25.57 25.59 23.39 19.51 19.14 22.25 19.36 17.17 14.53 15.57 14.17 16.01 17.60 13.11 19.32 19.05 17.05 16.57 18.07 20.31 17.97 17.87 17.99 19.83 20.45 20.06
30.08 29.72 28.65 28.89 29.61 30.46 30.72 30.55 30.48 30.44 29.23 29.09 30.34 28.92 28.27 26.56 24.79 24.77 24.71 24.18 23.83 23.60 20.18 18.13 17.32 5.37 3.66 13.05 20.61 20.42 15.18 10.86 15.33 9.14 8.76 13.24 13.38 14.56 15.75 14.38 15.60 17.66 18.32
29.26 28.43 28.97 29.25 29.80 30.36 29.48 29.51 30.25 30.40 29.67 30.61 29.74 28.58 30.66 26.53 25.63 26.38 25.20 28.85 28.47 28.38 28.82 27.36 17.81 11.61 19.35 23.37 24.95 24.54 23.22 22.21 20.59 9.51 6.04 8.17 6.19 9.51 13.88 12.75 11.58 12.60 14.21

GFSMW_sfc_wetblb_006.txt.gz
Wetbulb
48.71 49.81 50.72 52.13 52.41 53.06 53.28 54.43 54.41 54.94 53.53 51.21 50.53 49.68 49.48 50.86 52.15 48.12 47.48 47.01 47.58 45.47 44.49 44.00 43.77 43.48 42.35 41.61 42.58 42.02 41.75 41.77 42.69 40.91 41.04 41.11 41.67 42.91 44.45 44.22 43.19 43.50 44.56
46.95 48.59 48.12 48.52 49.98 51.51 52.78 52.96 51.91 50.69 51.16 50.28 49.30 51.58 51.34 49.49 46.69 45.91 44.32 44.58 44.50 44.07 44.62 43.29 42.67 42.15 41.63 41.30 41.26 40.99 40.65 40.71 41.83 40.20 39.39 36.71 38.99 40.86 41.85 41.50 41.99 40.22 41.90
46.15 46.61 45.83 44.80 45.92 47.37 47.45 47.61 47.83 48.12 48.77 50.18 49.60 46.65 46.43 46.20 43.88 43.39 41.33 42.48 43.29 43.03 42.68 42.78 42.11 41.19 40.81 40.61 40.10 40.07 39.70 38.82 39.70 39.78 38.62 35.20 33.26 35.94 38.85 38.93 38.96 38.66 38.91
45.39 45.06 44.39 44.27 44.00 43.26 44.32 45.52 46.54 46.34 46.72 46.33 45.82 45.12 43.95 42.84 42.38 40.68 39.71 40.79 42.19 42.33 42.55 41.89 41.07 40.35 39.90 40.08 40.05 39.60 38.35 38.68 35.26 38.10 39.30 37.85 36.93 34.10 33.18 37.19 37.51 37.69 38.23
44.41 45.81 45.13 45.26 44.48 45.20 44.36 44.08 45.59 45.70 45.49 45.12 45.23 43.93 41.20 41.42 40.72 39.31 39.63 39.77 41.08 41.65 41.28 40.76 40.22 39.62 38.87 37.94 37.58 36.33 35.48 36.08 34.99 34.98 35.27 35.55 35.51 35.86 33.56 30.25 32.35 35.67 36.54
43.53 44.93 45.78 46.44 45.43 43.79 43.44 43.71 44.54 43.32 43.78 42.99 42.74 41.99 40.83 39.62 38.72 39.40 39.65 40.16 39.94 40.25 40.32 40.38 38.91 38.40 37.65 36.91 36.21 35.37 34.87 34.45 34.27 34.33 34.40 34.32 33.02 31.89 32.19 29.97 29.85 30.21 34.01
43.64 44.59 45.12 44.26 41.95 41.50 41.81 43.01 41.82 41.06 41.74 41.50 41.38 41.15 40.68 39.23 39.82 39.68 39.09 39.30 40.10 39.71 38.94 38.46 37.90 37.38 37.42 37.60 35.91 34.55 33.82 32.93 31.73 31.70 32.10 32.78 32.28 33.63 32.69 31.41 29.39 28.95 29.86
43.74 42.83 41.81 41.73 42.11 41.99 40.49 40.08 40.14 39.87 40.55 40.71 40.29 40.39 40.31 39.85 40.55 40.60 39.88 40.23 38.33 37.88 38.23 38.08 36.94 36.88 39.33 37.31 38.32 36.31 33.43 33.16 31.37 30.84 30.23 31.05 31.51 32.02 31.87 31.32 29.11 24.54 26.22
40.84 41.32 41.46 41.30 41.23 41.29 40.62 39.68 39.82 39.65 39.77 39.72 39.93 39.80 39.69 39.28 38.87 39.18 38.80 38.25 38.25 39.16 38.11 36.90 39.00 38.89 38.10 37.03 36.07 33.85 34.23 33.05 32.27 31.73 31.56 30.54 31.31 30.19 28.83 30.32 28.93 26.76 21.75
40.72 40.58 39.82 39.64 39.64 39.37 40.13 40.18 38.61 36.38 36.50 36.24 37.12 36.97 36.48 36.77 36.76 36.62 36.49 37.18 37.38 38.31 39.34 38.06 38.89 37.69 37.05 36.38 35.72 32.91 32.64 32.40 31.87 32.30 30.87 28.60 29.04 28.44 28.25 26.94 27.55 27.32 24.37
39.08 38.95 38.67 38.28 37.62 38.89 38.57 37.80 35.40 35.35 35.21 35.15 35.40 35.33 35.48 35.66 35.50 35.16 35.79 36.03 36.19 37.59 37.15 37.16 37.34 34.98 34.87 34.20 31.50 30.57 30.51 31.43 30.94 28.34 27.91 27.69 27.32 26.56 26.49 26.16 25.64 24.96 25.15
38.82 38.73 38.47 38.69 37.65 36.16 36.52 34.64 34.62 34.97 34.48 34.22 34.58 34.32 34.70 34.81 34.16 34.14 34.19 34.77 34.98 34.78 35.85 35.60 35.25 34.94 33.43 31.26 29.82 29.70 30.22 28.82 27.61 27.35 26.83 26.43 28.18 25.06 24.57 24.23 23.65 24.09 24.92
38.25 38.10 37.61 37.24 36.40 35.49 34.68 35.67 35.71 33.97 32.93 32.54 32.19 33.20 33.82 33.77 33.44 32.87 32.93 33.47 33.10 33.89 34.55 35.88 34.00 32.32 31.07 30.29 29.75 29.57 28.62 27.04 26.60 26.58 26.04 25.70 25.39 23.78 23.41 23.35 23.65 24.26 26.52
38.43 37.26 36.78 35.99 34.32 35.43 36.30 35.28 33.59 33.40 33.04 32.10 32.06 32.96 33.22 33.56 33.22 33.55 32.97 33.01 34.00 34.71 35.89 33.61 33.20 31.48 30.31 29.97 29.39 28.12 26.64 26.22 26.64 26.74 26.03 25.54 24.94 23.85 23.42 24.41 23.92 25.27 24.15
37.39 37.21 35.88 33.31 35.60 35.47 33.74 33.32 32.86 33.18 33.21 32.40 32.12 32.98 33.87 33.79 33.90 33.92 34.09 34.05 34.24 36.43 33.80 33.39 30.46 28.92 29.58 29.31 27.38 27.12 26.54 25.75 25.40 25.61 26.12 26.01 27.15 29.49 28.02 25.77 24.09 23.69 24.47
38.01 38.81 37.08 36.03 34.90 33.70 32.71 32.39 32.36 32.75 32.93 32.24 31.90 33.86 34.21 34.33 33.86 33.87 33.90 34.18 36.84 34.58 29.42 26.93 27.81 27.87 29.07 32.04 32.18 31.23 28.04 26.39 25.49 26.16 25.80 25.60 26.27 25.95 26.76 26.32 26.69 26.18 23.74
38.49 38.07 37.28 35.65 34.42 32.77 32.53 31.50 31.75 32.09 32.03 31.82 32.59 33.52 33.77 33.46 32.93 33.21 32.90 33.02 32.17 30.41 29.06 27.48 27.85 26.60 28.58 32.15 31.71 30.08 26.17 24.90 24.24 23.04 22.17 22.33 24.05 23.70 23.70 24.92 26.13 26.72 27.55
37.91 37.15 36.20 33.36 32.13 31.47 31.39 31.36 30.93 30.95 30.89 31.11 31.67 32.84 32.84 32.16 32.19 32.15 32.10 31.81 32.01 31.34 26.35 26.49 26.42 27.12 27.56 29.52 29.19 27.73 23.77 22.96 22.36 21.79 21.75 21.24 21.55 23.15 23.91 24.81 25.26 24.58 25.76
36.43 36.69 35.20 31.85 30.58 30.69 30.87 30.15 29.97 30.22 30.38 30.71 30.72 31.77 32.19 31.56 31.54 31.51 31.07 30.89 30.65 28.55 26.88 26.81 25.62 23.85 23.84 27.86 27.05 25.29 22.21 21.72 21.07 22.21 22.14 22.11 21.79 24.24 26.88 24.15 23.21 23.14 24.05
35.62 33.79 31.74 31.09 30.03 30.07 30.31 30.27 30.22 30.07 29.76 30.84 30.83 31.58 31.55 30.93 30.76 30.08 29.56 29.27 26.15 26.92 26.48 25.31 23.51 24.91 22.13 25.28 25.57 24.58 20.07 16.21 19.83 21.59 21.89 22.77 23.11 25.02 25.57 24.38 22.25 20.61 22.77
32.48 32.47 31.78 30.62 30.34 30.94 31.20 29.73 29.26 29.24 30.71 30.92 30.89 30.86 30.73 29.92 29.45 28.26 27.53 25.78 25.01 24.57 23.67 23.98 22.40 22.52 23.02 21.61 24.54 24.69 18.64 18.91 20.76 20.14 20.12 21.47 23.68 24.52 24.59 24.90 22.58 23.49 23.73
32.02 31.62 30.73 30.55 30.87 30.59 29.80 28.99 28.36 30.21 30.45 30.36 29.96 29.87 29.58 29.72 29.33 26.73 24.78 25.33 23.76 22.36 20.88 14.41 17.55 19.60 20.33 22.58 22.82 24.43 23.94 23.21 13.87 18.39 19.76 19.74 23.39 22.88 22.56 22.20 23.81 23.75 22.08
31.56 31.05 30.88 30.52 30.56 30.12 29.55 28.63 29.64 30.14 29.86 29.33 29.49 29.53 29.10 28.84 28.28 25.71 23.77 23.14 21.77 18.63 18.90 21.13 15.29 17.42 20.47 18.24 22.21 23.42 23.49 22.53 15.01 17.78 19.32 21.50 21.23 20.87 20.38 20.47 21.40 21.15 20.04
30.71 30.38 29.68 28.48 28.59 29.97 30.03 29.82 29.77 29.43 28.99 29.43 29.02 28.51 27.82 28.61 28.17 26.22 25.84 23.85 18.83 17.59 21.04 19.64 18.42 15.07 16.07 14.71 15.73 17.51 13.76 17.34 18.65 15.34 14.08 15.36 19.25 15.24 17.26 17.47 17.09 17.45 18.59
30.55 29.94 29.05 28.20 28.88 29.68 29.86 29.77 29.07 28.82 28.87 29.92 29.60 28.67 27.08 27.61 27.41 25.46 25.32 24.82 23.65 22.66 19.80 19.05 18.07 7.80 4.58 13.15 18.61 20.13 14.61 10.00 14.81 7.75 5.61 9.78 13.12 13.49 15.04 15.50 14.95 14.51 14.80
29.73 29.37 29.05 28.73 29.03 29.09 28.57 28.56 28.80 28.87 28.27 29.85 29.90 29.06 29.47 31.02 27.99 26.18 26.43 29.03 28.63 28.24 28.95 28.13 18.89 11.99 19.88 23.23 25.02 25.78 24.38 22.61 20.85 9.39 3.50 -0.43 0.98 9.69 12.83 13.50 12.95 12.19 11.11

GFSMW_sfc_wetblb_009.txt.gz
Wetbulb
52.47 54.59 56.30 58.44 58.82 60.15 59.85 59.46 59.03 58.72 58.43 55.94 55.43 55.51 55.26 54.53 51.75 51.97 51.76 51.56 51.63 51.47 51.77 50.98 50.86 50.84 50.03 49.81 49.86 49.25 46.82 46.58 48.07 45.76 45.30 45.74 49.69 50.35 49.82 49.82 48.74 47.12 47.00
51.64 52.48 55.03 57.59 58.66 58.56 58.48 58.33 57.62 56.72 56.64 56.81 56.73 57.45 56.53 53.54 51.04 50.42 50.10 50.16 50.31 50.10 50.12 50.66 50.43 50.49 49.89 49.34 48.63 47.55 45.90 46.64 47.40 43.05 42.69 40.57 43.37 46.40 47.86 47.24 46.56 45.79 45.85
50.65 51.34 52.80 54.79 56.17 55.13 55.41 55.59 55.44 55.62 55.25 55.61 55.21 53.66 53.46 52.61 50.99 49.34 49.18 49.41 49.82 49.92 50.24 50.32 50.57 49.98 49.52 48.37 47.66 46.87 45.64 43.61 45.25 45.88 41.95 38.18 37.13 40.56 44.19 44.29 44.92 44.44 43.59
49.89 49.41 49.11 49.57 50.52 50.46 52.10 52.68 52.66 52.61 52.00 52.38 52.61 52.33 51.93 50.95 49.52 48.45 49.28 49.96 49.67 49.58 48.81 48.85 48.89 48.68 48.27 47.02 46.31 45.32 44.55 43.77 40.57 42.45 43.84 42.83 41.52 36.17 34.79 40.66 41.27 41.92 40.33
49.11 48.68 49.27 50.07 50.06 50.58 50.85 50.91 50.85 50.34 50.50 51.34 51.52 50.62 49.45 49.04 48.42 49.06 47.90 48.18 48.74 48.41 47.65 47.18 47.22 46.82 46.35 45.39 44.69 43.47 42.46 42.36 40.41 39.74 39.26 39.06 38.43 38.64 35.05 31.42 34.68 37.60 38.94
49.19 49.41 49.76 50.20 49.32 49.84 50.33 49.69 48.72 48.09 49.09 49.60 49.69 49.90 49.02 47.55 47.53 47.42 47.20 47.65 48.20 48.60 47.89 46.30 46.40 45.70 45.11 44.02 43.48 42.96 41.25 41.15 40.65 40.19 39.03 36.52 34.37 33.68 33.69 32.21 32.89 32.87 35.41
48.90 48.74 48.91 48.17 48.11 48.25 48.12 47.48 47.43 46.40 47.66 47.65 47.30 47.07 46.62 46.93 46.77 46.37 45.97 45.76 45.95 46.24 47.04 45.97 45.16 44.35 43.34 42.79 43.42 42.18 41.19 40.47 39.38 38.61 37.63 38.13 36.73 37.04 35.68 33.86 32.41 31.82 34.39
49.00 48.50 47.26 46.95 46.48 46.05 46.32 46.77 46.62 45.82 46.32 46.59 46.07 45.99 44.83 43.75 43.17 42.89 42.84 42.58 42.85 43.56 45.74 45.38 43.96 43.59 43.76 43.21 42.17 41.85 41.00 40.90 39.83 38.93 38.50 37.85 37.87 38.45 37.43 34.40 32.66 29.74 31.28
47.72 47.14 46.54 46.19 46.07 45.85 45.92 45.53 43.73 43.02 43.14 43.34 43.12 42.60 42.54 42.16 41.66 41.93 42.29 41.79 42.96 43.63 44.82 43.95 43.57 44.04 43.02 42.42 41.85 41.04 40.59 40.11 39.93 39.35 39.13 38.27 38.23 37.91 36.73 35.31 34.14 30.87 26.51
45.96 45.52 44.76 45.06 45.76 45.73 43.95 43.22 42.98 41.93 41.39 42.06 42.16 41.52 41.44 41.80 42.06 41.91 41.12 41.40 42.50 43.62 44.33 43.47 43.24 42.24 43.31 41.88 41.19 40.33 40.16 38.73 39.04 38.50 38.31 37.52 36.44 35.64 35.53 34.47 33.64 32.34 29.18
44.97 43.51 43.51 43.60 44.56 43.24 42.36 41.52 41.01 41.71 41.04 41.23 41.19 41.35 41.36 41.57 41.57 41.03 40.89 41.03 41.88 42.87 43.33 43.24 41.96 42.21 41.13 40.81 39.76 39.20 38.10 37.21 38.01 38.04 36.06 34.96 35.01 34.12 33.80 33.21 32.17 30.66 29.88
43.61 43.22 42.48 41.68 41.40 41.28 40.87 39.83 41.46 41.18 40.48 40.54 40.78 40.57 40.80 40.95 40.50 40.22 40.33 40.84 40.46 41.40 41.19 40.29 40.39 40.00 40.19 40.44 38.60 37.34 37.35 36.79 36.01 35.45 34.20 33.69 33.32 32.76 32.95 31.93 30.40 29.72 30.02
42.49 42.36 41.18 40.39 40.25 40.13 40.11 40.88 40.24 39.56 39.68 39.46 39.73 39.88 39.82 39.78 39.96 39.92 40.09 40.30 39.98 39.61 39.88 39.97 38.47 38.53 38.89 37.87 37.01 36.37 36.05 34.96 34.25 33.69 32.71 32.40 31.94 31.42 31.38 30.43 29.19 28.64 28.38
42.13 42.53 41.45 40.09 40.21 40.01 40.55 39.59 40.11 39.92 39.46 38.85 38.80 38.81 39.59 39.79 39.72 39.76 39.81 39.89 40.05 40.02 40.18 38.97 38.74 39.33 37.25 35.96 35.95 35.10 34.16 33.33 33.02 32.69 32.43 31.74 30.95 29.89 29.63 28.64 28.12 27.26 26.26
41.27 41.15 40.69 39.64 39.69 38.70 39.92 40.40 39.86 39.52 39.51 38.60 38.39 38.57 39.50 39.97 39.73 39.42 39.17 39.42 39.92 40.46 39.15 36.80 35.42 35.08 35.19 34.27 34.20 33.61 33.17 33.06 32.43 32.08 30.99 30.23 29.26 28.47 28.09 27.12 26.61 25.72 24.70
41.62 41.62 41.12 40.04 38.72 39.73 40.74 39.33 38.87 38.75 38.57 38.17 38.07 38.63 38.56 39.19 39.16 38.69 38.51 38.82 39.29 39.11 36.72 35.85 34.59 33.65 33.31 33.02 32.91 32.28 31.82 30.43 29.04 27.70 27.93 27.79 26.60 27.06 26.19 25.91 26.29 26.59 25.38
42.06 41.59 41.28 40.99 40.46 40.25 39.60 38.99 38.49 38.03 37.08 36.86 37.32 37.61 37.67 38.06 38.21 37.70 37.37 37.67 38.21 38.73 38.17 34.77 34.23 33.90 33.47 30.87 30.11 28.43 29.43 28.24 27.45 26.61 25.89 25.58 26.13 25.86 26.33 26.21 26.67 27.44 27.09
42.08 41.71 41.99 41.64 40.93 39.50 38.35 37.79 36.97 36.24 35.85 36.27 36.47 37.02 37.33 36.91 37.33 36.74 36.60 37.36 37.63 37.13 37.11 34.42 33.45 32.61 30.91 28.75 27.98 27.03 28.33 27.56 26.47 25.86 25.63 25.19 25.40 25.91 25.27 26.35 26.07 25.90 26.40
43.06 42.61 42.56 41.09 37.66 37.37 36.94 36.14 35.87 35.72 35.72 35.92 35.97 36.55 36.53 36.12 36.19 35.94 36.32 36.18 36.00 36.10 34.97 33.35 31.46 29.51 29.30 26.86 26.72 26.84 27.06 25.99 25.28 25.68 26.02 25.44 24.89 24.94 26.39 25.31 24.33 24.21 24.87
41.45 40.17 37.91 36.14 36.21 35.62 36.25 35.80 35.14 34.78 34.70 35.28 35.67 36.13 36.30 35.85 35.46 35.71 35.40 35.35 35.17 32.47 32.85 30.36 29.45 26.19 27.45 25.39 25.77 26.23 26.80 24.95 24.89 25.46 25.37 23.81 23.84 24.79 25.20 24.21 23.74 21.63 23.97
36.24 35.26 36.09 35.89 35.89 35.96 35.88 34.27 33.99 34.13 35.11 35.33 35.32 35.60 36.31 35.70 35.69 35.27 34.73 33.89 32.95 31.67 30.62 28.61 28.29 27.30 26.65 26.60 24.66 25.19 26.56 25.37 24.35 23.42 23.24 24.53 23.36 24.10 23.91 23.34 23.28 23.30 24.33
35.37 35.72 35.37 35.22 35.17 35.38 34.74 33.78 33.68 34.77 34.84 34.51 34.56 35.32 35.12 34.78 34.16 33.84 33.94 32.11 31.61 30.24 28.66 27.81 27.57 27.78 26.52 23.71 24.47 24.89 24.91 24.69 24.05 22.86 23.20 23.69 22.95 22.64 22.10 22.22 22.05 22.14 22.62
34.60 35.30 35.21 34.53 34.15 34.21 34.39 33.33 34.10 34.11 33.39 33.78 34.15 34.21 34.59 34.09 33.86 33.25 32.92 31.06 30.42 29.39 28.59 27.63 27.92 27.80 27.59 27.10 23.53 24.28 24.52 24.20 23.77 24.40 22.76 21.57 21.49 20.70 20.72 20.50 20.33 19.94 21.62
34.54 34.48 33.71 32.27 32.38 33.66 33.43 33.76 33.83 33.25 32.84 32.82 33.42 34.29 33.10 32.94 33.89 33.29 32.18 30.60 29.74 29.40 28.65 28.93 28.05 28.07 27.13 27.14 26.65 26.28 27.25 24.04 24.08 22.47 22.45 20.07 20.04 18.78 19.22 20.46 20.54 20.03 19.54
33.77 33.51 32.22 31.89 32.17 33.07 33.06 33.42 33.05 32.42 32.01 32.28 32.52 31.57 31.62 31.85 32.51 33.13 31.81 30.30 30.89 30.94 30.32 29.62 29.00 28.52 27.54 27.56 26.02 25.76 26.97 26.45 24.02 20.66 21.65 20.95 20.11 19.73 19.67 19.91 19.30 18.86 18.11
32.98 32.06 31.99 32.12 31.95 32.19 32.41 32.40 32.48 32.39 31.79 31.60 32.23 31.69 31.62 31.34 32.14 32.40 31.66 30.09 30.12 28.34 29.17 29.02 28.44 29.66 26.65 24.82 25.34 25.98 26.37 24.85 22.40 21.94 20.75 19.53 18.52 18.20 18.47 18.35 17.88 18.37 16.00

GFSMW_sfc_wetblb_015.txt.gz
Wetbulb
62.07 63.12 64.12 65.25 65.34 66.52 66.80 64.62 64.06 64.19 64.32 64.23 63.22 61.08 59.99 60.53 60.29 59.32 58.18 57.74 57.20 56.54 56.47 56.35 56.16 55.95 54.64 54.11 54.13 53.09 51.40 49.43 50.68 48.46 48.74 48.77 50.24 51.73 50.94 51.14 51.64 51.26 51.24
60.77 62.28 63.85 65.12 65.38 65.60 65.83 63.94 64.62 64.40 64.97 63.92 62.19 61.49 61.32 60.76 58.82 57.96 57.35 56.68 56.38 56.01 55.47 55.35 54.73 54.59 53.23 53.00 52.17 51.12 49.24 48.78 49.28 46.29 45.90 42.34 44.51 47.42 48.67 48.94 48.89 50.49 49.04
60.21 61.53 63.02 64.12 64.52 64.23 64.63 64.65 64.48 64.34 63.17 62.21 61.91 61.63 60.41 58.27 57.06 56.67 56.23 55.86 55.70 55.15 54.84 54.59 54.07 53.61 52.46 50.14 50.89 50.22 49.26 46.22 47.54 48.22 44.54 40.16 38.85 41.78 45.03 45.99 46.52 48.77 46.57
60.87 61.95 62.40 62.73 63.22 63.41 63.86 62.89 62.07 61.16 61.14 60.79 59.28 58.49 58.41 56.19 56.09 55.98 55.79 55.55 55.35 54.78 54.08 53.04 52.68 52.04 51.07 49.94 49.53 49.45 48.38 47.16 44.37 45.98 46.18 45.85 43.76 38.83 37.51 42.34 43.19 44.23 43.89
60.77 59.87 59.99 60.12 60.53 60.82 60.64 60.48 59.30 58.11 58.49 58.89 58.84 57.77 56.06 55.52 55.05 55.52 53.27 53.62 52.67 51.00 49.66 49.06 48.97 49.40 50.06 50.09 49.74 49.01 47.90 47.09 45.31 44.12 43.16 42.71 42.03 41.73 38.10 34.99 37.80 40.85 41.95
58.53 58.07 58.35 58.11 57.85 58.69 58.48 58.14 57.42 57.09 57.54 57.30 56.80 55.65 53.96 52.63 51.51 49.52 48.03 47.48 47.26 47.45 47.78 47.40 48.04 48.23 48.94 49.31 49.07 48.51 47.45 46.15 44.87 43.89 42.64 40.64 38.55 37.56 37.24 35.60 36.21 37.21 39.20
56.55 55.77 55.45 55.71 56.36 56.74 57.12 56.87 56.28 55.12 55.66 54.82 53.53 52.44 50.36 48.89 47.20 46.67 45.97 45.71 45.51 45.70 46.31 46.82 47.46 47.68 48.15 48.68 48.02 46.66 45.51 45.20 43.29 42.60 41.18 41.25 40.23 40.20 38.57 36.73 35.55 35.56 37.50
55.51 55.10 55.54 56.01 56.01 56.10 56.11 55.75 55.23 54.08 53.10 51.37 50.00 49.02 47.63 46.04 46.90 46.62 46.39 45.79 45.23 45.47 46.19 46.50 47.69 48.25 48.10 47.29 46.48 45.91 45.65 44.64 43.36 42.19 41.61 40.85 40.60 40.48 39.37 37.10 35.30 33.96 34.77
55.11 55.25 55.78 56.33 56.15 55.60 55.24 55.44 54.35 52.11 50.54 49.67 48.73 47.62 47.61 46.82 47.00 46.59 46.72 45.53 45.64 44.88 45.51 46.17 46.56 47.24 47.04 45.92 46.25 44.66 44.27 44.06 43.12 41.96 41.47 40.52 40.29 40.22 39.43 38.81 37.59 35.35 30.65
55.14 55.38 55.70 55.48 55.66 55.41 55.35 54.56 52.77 50.52 50.21 48.19 47.58 46.99 46.84 47.43 47.59 47.31 45.51 45.00 45.20 45.15 44.95 44.76 45.09 46.01 46.00 46.39 45.08 44.36 43.95 42.24 42.19 41.11 40.55 40.21 40.28 39.86 39.21 38.09 38.20 37.38 34.72
55.18 55.46 55.14 55.00 54.95 55.15 53.54 52.16 50.93 50.32 48.17 47.79 47.11 47.37 46.93 47.07 47.21 46.38 45.60 45.07 44.90 44.61 44.09 44.18 43.91 44.15 44.52 44.61 43.93 42.80 42.54 41.49 40.83 40.57 39.79 39.51 39.66 38.55 38.28 38.98 37.94 36.91 36.25
55.98 56.05 55.13 54.53 54.02 53.01 51.87 50.61 50.82 49.11 48.43 47.71 47.06 47.19 47.32 46.67 45.99 45.53 45.21 45.20 44.20 44.25 43.81 43.72 43.50 43.22 42.93 42.93 42.08 41.43 41.65 40.74 39.49 39.24 39.15 38.26 38.27 37.54 37.91 37.15 35.70 35.54 35.40
56.23 56.00 54.71 53.57 52.91 51.92 50.91 50.05 49.49 48.94 47.70 46.57 46.74 46.93 46.36 46.05 45.67 45.10 45.24 44.73 43.93 43.47 43.62 43.64 42.94 42.60 42.32 41.74 42.17 41.76 40.71 39.84 39.35 39.15 38.17 37.70 37.13 35.79 35.50 34.84 33.70 33.33 33.11
55.71 55.64 54.18 52.79 52.64 51.71 50.41 49.30 49.20 48.95 48.39 46.39 46.12 45.74 45.78 45.73 45.35 45.16 44.81 44.24 43.45 42.81 42.96 43.42 42.10 41.91 41.41 40.88 40.75 40.13 39.40 39.17 38.80 38.66 37.78 36.63 35.39 33.92 32.49 30.94 30.84 31.09 29.96
54.40 54.41 53.07 52.12 52.04 51.02 49.62 49.08 49.48 49.20 47.43 45.97 45.30 45.53 45.85 45.53 45.03 44.39 44.21 43.61 43.05 42.71 42.82 42.50 41.71 41.82 41.00 39.49 38.56 38.69 38.33 37.89 37.32 37.02 36.58 35.61 32.85 29.81 29.43 29.08 28.97 28.38 27.24
53.50 53.48 52.54 51.97 51.04 50.08 49.04 49.03 48.77 47.68 46.89 45.52 44.76 45.26 44.81 44.44 43.43 43.17 43.16 42.90 42.70 42.40 42.40 41.86 41.50 40.50 40.23 32.62 31.68 31.51 36.02 36.53 35.80 34.61 34.59 34.27 33.73 32.53 30.46 29.78 28.91 28.38 26.53
52.70 52.51 52.04 51.90 51.44 50.66 49.21 48.31 47.57 47.26 45.70 44.95 44.40 44.01 43.72 42.49 42.25 42.12 41.70 41.79 41.90 42.11 41.39 41.26 40.98 40.61 39.84 32.09 29.81 29.02 33.72 35.55 34.97 33.88 32.87 32.37 32.63 31.40 31.48 30.10 29.55 29.46 30.11
52.43 52.79 52.73 52.28 52.59 51.52 48.89 48.02 47.82 46.07 44.62 43.54 42.84 43.00 42.03 40.65 40.93 41.16 41.10 41.59 42.07 41.34 40.69 40.28 40.26 39.83 35.18 30.39 28.55 28.24 33.17 35.07 34.22 33.20 32.54 31.72 31.18 29.61 27.39 27.08 27.11 28.07 29.11
53.41 53.67 53.63 53.28 52.68 50.22 49.09 46.55 45.26 43.54 42.37 41.86 41.83 40.71 40.59 40.25 40.40 40.10 40.44 41.19 41.11 40.82 40.34 40.12 39.38 38.48 35.53 29.60 28.08 27.70 33.45 33.45 32.38 32.49 32.35 30.67 29.26 26.90 25.89 25.46 25.11 26.11 27.33
53.88 53.59 53.97 53.23 51.48 49.47 47.66 44.79 43.39 43.46 41.76 41.02 39.83 40.17 40.42 40.02 39.58 40.22 40.41 40.81 40.87 40.10 39.98 38.65 38.54 32.40 36.34 29.03 28.02 27.86 32.39 31.39 31.30 31.54 31.59 28.10 26.56 24.90 25.00 24.68 23.94 22.96 25.16
53.44 53.88 53.36 51.40 49.67 46.74 43.99 43.93 41.63 40.68 39.87 39.92 39.81 39.79 40.14 40.08 40.28 39.77 39.93 40.08 39.66 39.49 38.94 37.05 37.39 36.96 35.03 33.51 28.30 27.41 29.63 30.79 29.49 29.18 29.67 30.67 26.72 25.35 24.82 24.69 24.24 23.68 23.66
52.29 51.19 48.80 46.27 44.29 44.07 42.84 39.56 37.93 39.32 39.57 39.49 38.99 39.31 39.74 39.35 39.17 38.84 39.14 39.52 39.12 38.23 37.32 36.01 36.05 36.70 35.69 29.88 28.41 27.51 26.83 27.56 28.04 28.17 29.62 29.46 26.14 24.90 24.32 24.66 24.23 23.49 23.61
48.65 46.77 43.03 41.01 41.40 39.27 37.38 36.50 38.52 39.21 38.95 38.59 38.25 38.46 38.76 38.49 38.44 37.75 37.64 37.81 38.48 37.26 36.00 34.64 34.56 34.63 36.44 35.66 29.94 28.19 27.05 26.41 27.50 29.53 28.84 26.18 26.25 25.35 25.89 26.05 24.54 23.75 26.13
43.00 42.43 41.04 38.14 35.94 37.76 37.84 38.55 37.90 38.18 37.68 36.73 36.18 36.92 36.68 35.93 35.74 36.26 37.55 37.90 37.39 36.14 34.79 34.46 33.64 34.59 35.01 35.30 34.48 30.88 30.23 27.42 28.00 29.26 29.79 28.19 26.88 26.51 25.25 26.26 27.85 27.22 26.41
40.60 39.34 36.46 35.59 35.89 37.29 37.43 38.07 37.72 37.20 35.50 35.17 35.67 35.94 36.28 36.12 36.30 36.57 36.14 35.56 37.21 35.86 35.27 35.50 35.32 36.18 33.91 33.49 33.03 32.65 32.26 32.06 29.88 27.57 28.60 28.41 28.49 27.01 27.21 27.44 27.28 27.08 26.46
37.02 36.07 35.79 36.37 36.32 36.56 36.68 37.07 37.64 36.51 34.91 34.59 35.00 35.87 36.14 36.40 36.77 35.69 34.84 34.14 33.71 33.53 31.94 31.05 32.34 36.46 32.77 30.85 29.83 29.79 28.76 27.26 27.20 26.99 26.91 27.47 27.81 26.99 26.11 26.19 25.85 26.40 25.53

GFSMW_sfc_wetblb_018.txt.gz
Wetbulb
60.96 62.57 63.87 64.50 65.50 65.83 65.45 64.71 63.04 63.19 63.26 62.36 61.77 61.37 59.14 58.99 58.73 56.90 56.91 56.32 55.34 55.13 54.03 53.59 53.55 52.93 51.06 50.88 50.11 48.31 46.45 45.98 46.26 43.54 43.38 43.78 44.64 44.62 44.09 44.44 44.42 45.63 47.04
60.24 61.55 63.04 64.28 65.15 65.16 65.08 64.16 63.14 62.63 63.60 63.67 61.71 60.02 59.22 58.96 56.88 56.14 55.37 55.24 54.95 54.08 53.73 52.88 51.71 51.54 50.19 49.22 48.33 46.54 45.37 44.93 45.06 41.42 40.57 37.67 39.64 41.95 43.19 42.34 43.36 42.00 45.37
59.19 60.87 62.13 63.39 64.61 62.74 63.83 62.97 63.23 63.49 64.12 61.62 60.70 60.02 57.84 56.30 54.68 54.61 53.84 53.71 54.01 53.39 52.69 52.19 50.98 49.99 48.73 46.90 46.56 45.67 45.18 42.49 42.85 43.47 39.50 36.01 33.77 37.48 40.19 40.43 40.81 40.17 40.22
59.89 61.02 61.95 62.07 62.23 62.08 63.94 63.93 63.74 62.89 60.82 60.73 59.23 57.81 55.26 53.28 54.15 53.94 53.52 53.07 53.64 52.27 49.44 48.52 47.74 47.01 48.03 46.74 46.40 46.43 44.46 43.34 40.31 41.17 43.76 40.33 38.21 33.10 32.51 36.48 37.28 38.09 38.79
59.78 60.40 61.82 62.31 62.94 63.21 62.68 61.24 60.06 59.39 59.07 58.41 58.22 56.40 54.23 53.75 53.20 51.85 50.42 49.30 47.75 47.88 46.98 46.24 45.94 45.30 45.12 45.72 46.08 45.69 43.74 42.56 41.42 40.03 38.73 37.32 36.78 36.21 32.07 30.29 32.03 35.95 37.01
59.70 60.67 61.13 60.82 59.85 60.08 59.30 58.41 56.71 56.61 57.47 56.56 55.09 53.60 51.01 49.50 47.16 46.13 44.95 45.71 45.71 45.13 45.78 45.87 44.78 45.46 45.18 44.91 45.54 44.84 43.69 42.29 41.71 40.57 39.49 36.80 34.38 33.06 32.00 30.19 30.66 31.36 34.10
58.71 58.13 57.11 56.73 57.44 56.89 56.63 56.55 55.82 54.90 55.18 53.94 52.29 50.18 48.27 47.42 45.43 44.47 45.13 44.64 44.08 43.15 43.74 43.82 43.92 44.33 45.18 45.66 44.97 43.45 42.24 42.12 40.81 39.26 37.68 38.09 36.33 36.03 34.56 33.05 31.66 30.27 33.02
57.28 56.25 55.71 55.55 55.48 55.60 55.67 55.50 54.56 53.68 53.11 50.80 48.77 48.35 47.69 45.76 45.77 45.67 44.46 43.84 43.27 42.62 43.28 43.29 43.62 44.39 45.42 44.62 43.42 42.65 42.19 41.92 40.40 39.22 38.87 36.78 36.72 37.89 35.24 32.74 30.50 28.64 30.17
55.55 54.88 54.88 55.44 55.28 55.29 55.15 54.77 54.04 52.75 50.59 49.24 48.30 47.13 46.55 46.28 46.00 45.84 44.61 43.36 43.23 43.17 42.74 42.96 42.71 43.20 43.80 43.94 43.27 41.91 41.49 41.38 40.53 38.62 39.34 36.74 36.61 35.91 35.74 34.40 32.89 29.46 26.13
55.06 54.60 54.67 55.31 55.54 55.43 55.03 55.24 54.26 50.80 49.11 48.35 47.34 46.93 46.68 47.13 46.61 45.10 43.80 42.76 42.86 42.93 42.79 42.46 42.28 41.93 42.32 43.81 43.10 41.71 41.46 40.21 38.69 38.22 38.14 36.84 36.11 36.21 35.13 34.59 33.80 32.65 30.82
54.76 54.59 54.78 55.54 55.58 55.18 54.46 54.36 52.24 49.42 48.48 47.39 46.97 46.38 46.69 46.93 46.17 44.65 43.95 42.88 42.81 42.60 42.23 42.16 41.88 41.50 41.13 41.27 40.26 39.76 39.45 38.68 38.28 38.93 36.87 36.52 36.35 35.90 33.64 33.42 33.12 32.20 30.80
55.49 55.00 55.17 54.88 54.17 53.99 53.89 52.21 50.49 49.25 48.16 47.47 46.90 46.44 47.19 46.72 44.94 44.33 43.66 43.28 42.35 42.69 41.99 41.71 41.67 41.79 41.00 41.12 39.69 39.02 39.22 38.43 37.07 37.60 36.23 35.38 37.35 33.55 32.95 32.24 30.02 29.68 29.44
55.55 55.27 54.86 53.94 53.55 53.42 52.46 50.78 49.98 49.46 48.16 47.59 46.44 46.00 46.08 44.94 44.41 43.81 43.69 43.46 42.57 41.76 41.41 41.44 41.32 40.33 39.69 38.95 39.43 39.18 38.74 37.26 36.66 35.75 34.94 34.60 34.05 30.74 29.63 28.23 27.06 27.52 29.51
55.25 55.32 54.66 53.96 53.52 53.15 51.45 50.61 49.69 49.39 48.16 47.01 45.81 45.20 45.34 44.94 44.12 43.64 43.32 43.21 42.58 40.87 40.80 41.12 41.40 40.36 39.66 39.64 38.80 37.98 36.18 35.70 35.77 35.98 34.75 33.86 31.91 28.12 26.43 26.66 24.98 25.98 24.35
54.32 54.82 55.11 54.13 53.11 52.46 51.40 50.68 49.42 49.06 48.84 47.40 44.99 45.58 45.58 44.64 44.07 43.63 43.34 42.82 41.80 41.10 41.17 40.50 40.57 40.48 39.66 38.80 35.45 34.77 33.70 33.56 33.21 33.68 34.07 32.01 31.49 30.65 28.17 26.55 24.33 23.99 22.95
52.53 54.42 55.02 54.62 52.94 52.40 51.61 50.37 48.84 48.58 48.83 46.01 44.80 45.49 44.49 43.89 42.86 42.16 42.55 42.05 41.65 41.14 40.42 39.49 39.82 38.99 40.16 33.75 32.80 31.65 29.96 32.47 32.01 30.58 30.37 30.50 32.86 31.41 30.33 31.40 30.93 27.87 23.00
51.86 53.17 53.96 54.14 53.18 52.24 51.51 49.26 48.67 49.12 47.25 45.35 45.18 44.73 44.13 42.34 41.75 41.92 41.30 40.14 39.96 40.02 39.77 39.11 39.17 38.31 34.36 33.01 31.50 29.90 28.86 30.67 30.70 29.72 28.52 29.28 31.61 29.15 26.51 27.91 27.97 27.22 29.13
52.16 53.12 53.48 53.56 53.16 52.72 51.45 49.56 49.06 47.75 45.41 44.22 43.69 42.93 42.79 41.10 40.46 40.20 39.85 39.90 39.79 39.46 38.51 38.16 38.47 37.61 34.05 32.45 30.98 29.11 27.12 29.92 29.90 28.91 28.20 27.27 26.25 24.28 24.79 23.63 23.14 24.01 24.85
52.24 52.62 53.54 53.64 53.11 52.41 51.37 48.25 47.09 45.64 44.33 42.12 42.06 41.66 40.42 39.59 39.51 38.90 38.73 39.27 38.99 38.46 38.20 38.30 37.18 36.39 31.11 31.47 29.96 28.01 27.36 29.31 28.74 29.84 29.30 27.99 25.59 26.20 26.78 23.26 22.46 22.10 22.95
52.74 52.58 53.29 53.28 52.56 51.75 49.48 46.85 44.09 42.05 41.08 40.86 39.91 39.74 39.52 38.67 38.24 38.45 38.51 38.59 38.07 38.20 38.10 36.96 36.37 33.19 30.41 30.89 29.79 27.94 26.94 27.29 27.47 27.70 27.76 27.91 25.26 25.75 25.66 22.20 21.36 19.79 21.54
52.76 53.64 52.35 47.51 47.64 44.72 44.08 42.38 40.96 39.62 39.13 39.58 39.52 39.25 39.32 38.97 38.64 38.09 37.63 37.13 36.63 36.83 34.66 33.03 33.41 33.35 32.30 28.94 30.21 29.47 26.29 26.68 26.59 25.77 25.47 26.31 26.78 26.50 26.53 25.36 22.32 21.26 22.53
51.81 48.82 41.27 40.54 41.73 42.51 41.39 38.75 37.66 38.87 39.25 39.40 38.78 38.57 38.49 38.46 38.34 37.29 36.94 36.82 35.98 34.41 33.85 32.57 32.17 32.10 31.70 31.90 30.54 29.74 28.28 28.15 23.28 25.41 25.63 26.07 27.95 27.47 26.56 25.12 25.59 25.81 23.87
44.53 42.63 40.67 39.28 38.46 38.25 38.46 37.03 37.69 38.73 39.18 37.90 36.99 36.99 37.66 37.66 37.33 34.93 33.73 33.82 34.68 33.51 32.78 31.69 30.72 30.47 31.36 30.89 30.62 30.20 29.21 28.07 23.24 25.37 27.63 28.38 27.94 28.18 26.35 28.02 26.53 22.69 20.72
41.42 40.46 38.52 36.62 36.25 37.20 37.22 37.57 37.71 37.94 37.29 35.96 35.82 36.04 35.66 35.54 35.11 35.02 35.07 33.16 32.10 33.02 32.10 31.07 30.53 31.40 30.71 32.07 28.83 27.73 26.86 26.80 26.16 26.03 26.79 24.96 24.89 22.41 23.17 22.41 25.49 24.13 22.28
38.45 37.57 36.67 36.05 35.99 37.05 37.20 37.75 37.47 37.07 35.35 34.97 35.04 35.19 33.71 34.19 34.50 35.36 34.27 32.03 32.56 32.15 30.88 31.34 32.32 31.66 30.62 30.72 31.60 30.27 29.79 29.64 28.00 22.72 21.49 21.10 23.02 23.50 23.14 22.59 22.81 23.14 22.88
36.78 36.20 36.40 36.17 36.29 36.89 37.07 37.70 37.88 37.08 35.29 33.88 33.78 33.94 33.81 33.82 34.04 34.29 33.66 34.16 33.24 33.23 33.70 33.05 30.31 31.78 33.33 31.73 31.32 30.94 30.69 29.58 27.23 21.75 19.10 17.90 19.59 20.23 21.64 19.25 19.93 19.98 19.69

GFSMW_sfc_wetblb_021.txt.gz
Wetbulb
56.63 57.55 58.07 57.80 61.80 61.82 61.84 62.30 60.92 60.63 60.34 58.62 58.33 57.95 55.46 55.01 52.23 51.82 52.07 51.65 51.55 51.67 50.06 49.35 49.02 48.54 47.44 46.15 46.23 44.22 43.05 42.64 42.73 40.33 39.91 40.22 41.03 40.79 40.24 40.57 40.87 41.41 42.65
56.27 58.07 58.81 59.18 62.38 61.81 61.39 61.36 61.45 60.80 60.29 60.01 60.27 57.32 54.81 53.35 51.50 51.48 50.88 51.07 50.65 50.21 50.65 48.75 48.00 47.36 46.35 45.19 43.92 42.85 41.51 42.01 41.19 38.04 37.18 34.44 36.79 38.62 39.77 38.51 39.88 37.61 39.66
56.17 57.56 58.95 58.66 61.17 61.02 60.91 60.78 60.58 60.79 60.72 60.59 56.06 54.15 52.16 50.82 49.82 49.04 48.79 49.94 50.87 50.12 47.88 46.17 44.41 44.16 44.81 43.59 42.68 42.31 41.42 39.31 39.87 40.01 37.16 33.25 30.94 33.14 36.41 36.96 36.61 35.78 35.73
57.30 58.36 58.72 58.77 60.13 60.16 59.87 61.00 61.11 61.05 61.54 58.06 54.86 52.68 50.34 48.52 49.00 49.54 49.04 46.73 45.57 44.63 44.46 44.00 43.16 41.99 41.85 41.05 42.65 44.49 41.56 40.00 37.67 38.88 40.83 36.51 35.14 29.96 28.67 32.79 33.84 34.90 35.93
56.68 57.36 58.17 59.43 60.10 60.79 60.74 60.30 60.08 57.74 55.51 54.85 54.13 51.53 49.48 48.26 46.15 44.50 42.63 42.33 43.14 43.46 43.14 43.24 41.70 41.10 41.98 41.43 41.65 41.98 40.95 40.35 38.91 37.63 36.48 34.84 33.85 32.65 29.42 26.40 29.21 32.45 33.73
55.51 56.90 59.28 60.10 59.98 58.50 57.33 55.86 53.24 52.35 51.49 50.74 49.38 48.09 46.47 42.43 41.63 40.69 40.31 40.64 41.34 41.58 41.53 41.76 41.13 41.28 41.71 41.51 41.89 40.66 40.18 39.69 39.28 38.55 36.72 34.48 32.53 31.18 29.78 27.72 27.86 28.06 30.94
55.43 56.03 55.26 54.05 53.36 52.88 52.98 51.20 51.43 50.48 49.62 47.11 44.63 43.47 42.93 41.72 40.37 39.62 40.03 39.93 39.50 39.27 38.94 40.32 39.72 39.89 41.53 42.57 41.70 40.34 40.06 39.41 38.19 37.33 36.03 35.75 34.57 34.14 32.45 30.20 28.13 27.24 29.26
54.47 53.62 53.01 52.43 51.70 51.15 50.69 50.25 50.38 49.12 48.27 45.59 44.00 42.79 42.13 41.15 41.20 40.89 40.49 40.10 39.30 38.73 39.25 39.53 39.68 40.08 40.88 41.92 41.10 40.43 39.82 39.76 38.29 36.90 36.35 35.10 34.42 34.42 33.20 31.11 28.22 24.99 25.99
51.17 51.72 51.32 51.67 50.90 50.59 50.74 49.37 49.21 47.84 45.32 43.51 42.47 42.35 42.28 42.00 41.64 41.51 41.07 39.58 39.36 40.74 39.47 39.08 39.17 39.43 39.11 40.69 40.88 39.68 39.36 38.94 38.47 37.39 35.64 35.56 35.24 34.88 33.59 32.61 31.07 28.85 22.13
50.62 51.21 51.12 51.26 51.80 51.56 50.99 49.48 48.53 46.52 44.67 43.28 42.83 42.60 41.90 42.46 42.07 41.54 40.82 40.05 39.47 39.41 39.09 38.66 38.86 38.68 38.68 38.60 40.38 39.60 39.63 37.65 36.28 38.24 35.39 36.30 36.14 35.27 33.75 31.29 31.48 30.39 26.67
50.60 50.52 50.34 51.82 52.06 51.56 50.22 49.56 46.86 44.48 43.03 42.79 42.65 42.15 41.96 43.64 42.91 43.36 40.00 40.98 39.30 39.83 38.88 39.27 38.67 38.60 38.66 38.02 36.85 36.36 37.18 36.28 36.19 37.13 35.76 34.74 35.84 32.99 31.45 31.03 29.68 27.81 26.07
51.21 50.49 50.57 51.18 51.14 50.69 50.19 49.34 45.00 44.43 43.66 43.05 43.17 42.33 43.14 44.42 43.12 41.64 41.61 39.45 39.11 39.53 39.07 39.05 38.99 39.12 38.33 36.79 36.16 36.48 37.09 36.93 35.95 35.21 34.65 33.41 35.56 31.50 29.71 27.32 25.26 24.59 24.67
50.44 50.58 50.07 50.86 50.91 50.11 50.11 48.46 45.85 44.71 43.75 43.37 42.62 42.70 44.58 44.32 43.14 42.15 40.98 40.07 39.33 38.76 39.01 39.60 39.63 38.91 37.91 36.84 37.05 36.30 36.42 34.85 35.34 34.73 33.70 33.38 31.99 27.07 25.63 24.97 23.71 23.48 26.34
51.70 50.62 50.08 50.46 50.51 50.47 49.49 47.98 45.69 45.18 44.35 43.31 42.04 43.12 43.94 43.67 42.38 41.36 41.31 41.15 39.81 38.87 38.40 38.84 39.14 38.90 37.94 38.42 37.13 35.92 33.82 33.50 33.96 33.86 32.64 31.41 28.22 26.23 24.76 24.95 23.20 24.06 22.22
49.30 49.95 49.97 49.43 50.02 49.90 48.41 48.35 46.69 45.27 44.05 42.88 42.80 43.30 44.22 43.20 42.09 41.36 40.71 40.57 40.24 39.44 38.92 38.72 38.61 38.97 38.52 37.96 34.88 34.11 32.63 31.09 30.61 30.88 31.07 29.58 30.17 32.10 27.70 25.61 22.70 22.60 21.75
47.39 49.57 50.68 50.03 49.84 49.24 48.14 48.00 46.18 44.78 44.78 43.71 43.52 43.87 43.10 42.12 40.81 40.12 39.33 39.50 39.78 39.62 38.91 38.02 38.37 37.63 38.55 34.52 34.34 32.37 29.28 30.59 29.98 28.66 28.07 27.82 29.92 30.65 30.89 29.73 29.04 26.90 22.17
47.66 49.00 50.06 50.28 49.18 48.88 48.63 45.97 45.43 45.50 44.46 43.41 43.40 43.32 41.31 40.41 39.72 39.82 39.00 38.56 37.81 37.59 37.89 37.89 37.58 36.17 34.55 34.35 33.39 31.58 28.02 28.45 28.08 27.34 26.29 27.41 29.23 26.53 24.74 25.56 26.08 25.43 27.05
47.89 47.99 48.55 49.41 48.82 48.03 47.35 45.11 45.58 44.84 43.36 42.50 40.43 39.94 38.90 38.36 38.94 38.53 37.89 37.51 37.92 37.22 36.92 36.73 36.81 35.69 33.93 33.87 32.78 30.50 26.74 27.49 27.88 26.95 26.52 25.45 23.71 24.38 24.47 22.89 22.04 22.16 22.77
46.55 47.37 48.18 48.83 48.09 46.87 45.53 44.41 43.10 42.09 41.05 38.90 38.09 38.44 38.98 37.99 37.96 37.26 36.77 37.24 36.75 36.30 36.11 37.01 35.79 33.97 31.89 33.09 31.49 28.41 26.22 27.56 27.20 28.22 27.77 27.06 24.06 26.68 26.63 23.27 21.87 21.09 21.91
44.32 41.90 42.02 40.64 41.65 42.33 43.07 40.14 38.30 38.05 37.46 37.99 37.83 38.07 38.66 38.25 37.13 36.97 36.69 36.62 35.94 35.39 35.71 35.19 34.15 33.35 29.53 32.47 31.25 28.85 25.01 26.02 25.98 26.29 26.07 28.41 24.39 26.33 26.37 22.40 20.25 18.89 20.34
40.02 39.66 38.86 38.30 37.80 39.50 39.05 37.14 36.66 36.65 38.18 38.31 38.17 38.48 38.65 37.99 37.58 36.81 36.14 35.41 34.58 34.31 32.49 31.54 30.70 30.61 29.16 29.20 31.67 31.02 26.02 25.26 25.54 25.14 24.30 24.54 27.11 26.99 28.11 27.40 21.79 20.28 22.58
38.48 37.56 35.70 35.75 37.84 38.38 37.97 36.61 36.11 37.84 38.80 38.97 38.67 38.02 37.86 37.36 37.33 35.34 34.61 33.82 32.62 30.96 31.08 29.98 30.10 28.35 29.15 30.27 31.87 31.80 29.13 28.15 22.42 24.38 24.64 24.22 29.23 28.79 28.49 27.11 26.83 26.84 25.28
35.35 36.62 36.09 36.73 37.67 38.00 38.13 36.35 37.03 38.35 37.95 37.32 36.67 36.16 36.11 35.97 35.74 33.79 31.84 30.74 30.67 27.98 29.03 29.36 26.02 28.39 29.80 28.19 31.68 31.78 30.75 29.65 23.00 23.84 25.12 28.20 29.30 28.75 27.56 28.80 28.40 24.36 20.04
35.62 37.43 36.53 35.29 35.01 36.46 36.72 37.01 36.73 36.46 35.44 34.10 33.79 34.11 33.55 33.69 33.11 32.69 32.55 30.99 27.24 25.85 28.46 27.74 28.60 29.14 29.48 27.23 26.62 27.74 28.39 27.75 25.61 24.36 24.51 23.23 24.23 21.23 22.21 22.17 24.41 23.14 20.87
36.59 36.68 35.79 35.02 35.34 36.19 35.04 35.20 35.14 34.63 33.02 32.85 32.99 32.43 30.35 31.11 31.35 31.94 31.27 29.94 29.84 29.40 27.28 26.86 27.41 26.36 29.65 32.00 29.40 27.50 26.03 23.80 25.05 18.28 18.99 19.47 18.28 19.87 22.05 20.71 21.01 20.42 19.83
35.35 35.17 34.18 33.85 34.82 35.03 34.25 34.77 34.85 33.91 32.24 31.36 29.85 29.27 29.05 29.19 30.79 30.59 30.26 32.94 32.46 32.28 33.30 32.88 29.23 27.38 31.22 33.28 32.93 33.05 31.32 30.18 29.11 25.22 18.66 14.32 12.67 15.19 19.63 18.43 18.60 16.08 16.76

GFSMW_sfc_wetblb_024.txt.gz
Wetbulb
56.36 58.20 60.85 60.80 60.05 60.04 60.07 60.72 59.48 59.27 58.60 58.04 57.65 55.81 54.35 54.06 52.62 50.34 50.68 50.23 50.05 49.64 48.54 48.02 47.44 46.65 45.60 44.35 44.02 42.09 41.05 40.59 40.43 38.47 38.45 38.45 38.45 38.17 37.97 38.34 37.32 38.02 39.49
54.23 55.31 57.13 59.45 59.62 59.64 59.81 60.32 59.97 59.39 58.71 58.14 58.03 56.76 54.23 51.47 49.90 49.39 49.13 49.34 49.28 49.09 48.97 47.23 46.14 45.40 44.39 43.26 42.71 41.46 40.27 40.42 39.28 37.04 35.59 33.09 35.44 36.57 37.31 36.14 37.03 34.41 36.49
54.08 55.81 56.88 58.66 59.23 59.08 59.97 60.05 59.65 59.65 58.84 58.25 57.18 52.89 50.99 49.28 47.94 47.05 47.37 48.24 49.04 46.84 45.04 43.47 42.16 41.76 41.77 40.90 40.53 40.63 40.03 38.22 38.45 37.64 36.11 31.72 29.89 31.28 34.46 34.11 33.36 33.48 33.68
55.28 56.56 57.48 58.87 59.13 59.38 59.41 60.05 60.26 59.77 59.32 57.83 55.14 53.81 51.91 49.15 47.38 47.11 47.07 45.12 43.83 43.31 43.24 42.35 41.32 40.70 40.40 39.60 39.73 42.81 39.84 38.65 36.85 37.40 38.98 35.30 34.29 28.98 27.35 31.48 32.21 33.25 34.32
55.35 56.31 58.46 59.64 60.00 59.67 59.76 59.96 59.44 59.25 59.48 55.04 53.95 51.94 48.27 47.27 47.20 45.21 41.49 41.15 41.34 42.12 41.98 41.21 40.23 40.11 40.40 39.98 40.86 39.88 39.53 39.05 37.83 36.96 35.78 33.76 32.16 30.67 28.39 25.62 28.36 31.01 32.43
54.34 56.18 59.05 60.21 59.43 59.76 59.41 57.76 57.40 54.21 54.22 53.45 50.82 49.13 45.85 43.62 42.45 39.82 39.15 39.68 40.59 40.40 40.01 40.53 39.15 39.56 40.11 41.01 39.94 39.34 39.27 38.35 37.89 37.39 35.84 33.53 31.75 30.52 28.79 26.45 26.98 27.00 29.74
54.64 56.58 57.15 58.16 58.58 57.87 57.02 56.04 52.42 48.08 47.45 46.63 45.83 45.07 43.25 42.92 41.03 39.50 39.43 39.42 40.15 39.84 38.28 38.53 38.21 38.15 40.26 41.29 40.27 39.35 38.96 38.15 36.83 36.13 35.22 34.69 33.92 33.00 31.26 29.05 26.85 25.99 28.17
55.57 56.50 55.53 54.08 53.81 53.11 52.10 51.56 50.59 46.51 44.23 43.83 42.90 42.93 41.87 40.97 40.60 41.26 41.12 40.23 39.77 39.34 40.10 39.72 39.26 38.68 38.64 40.13 40.04 39.19 38.75 38.00 37.04 36.27 35.63 34.73 34.25 33.86 32.99 30.27 27.63 24.61 25.44
53.32 53.50 52.56 52.35 51.52 49.31 49.56 49.74 48.98 47.06 44.94 42.54 41.97 41.75 41.24 41.74 41.63 41.53 41.01 40.77 41.00 41.28 38.33 38.10 38.14 38.06 38.31 37.12 38.57 38.62 38.47 37.72 37.30 36.25 35.85 34.79 33.88 33.85 32.84 32.92 30.94 28.57 20.74
51.47 52.26 52.40 51.26 50.85 50.18 49.31 48.45 47.78 45.70 43.61 42.43 42.08 42.96 42.79 42.33 41.86 41.73 41.21 41.14 40.79 40.98 38.87 39.08 38.02 37.35 37.34 37.68 37.87 38.38 38.46 37.35 35.28 36.20 35.53 34.68 36.29 34.68 33.40 31.41 31.19 29.82 27.23
51.38 51.81 52.05 51.63 51.11 50.49 49.27 48.50 46.61 43.65 42.19 41.85 41.44 41.35 42.32 42.81 42.72 41.95 41.66 41.31 40.53 40.52 39.94 38.99 37.57 38.07 38.34 37.76 36.19 35.45 35.57 35.46 35.81 35.70 34.78 35.06 34.24 32.43 31.31 29.86 29.28 27.25 26.86
51.32 51.75 51.51 51.17 50.30 50.12 49.08 48.05 46.22 44.31 43.04 42.62 41.76 41.51 42.06 43.01 42.97 42.07 41.28 40.53 40.67 39.72 39.10 38.75 37.90 37.95 38.00 36.61 35.29 35.22 35.75 35.39 33.77 33.91 33.72 33.26 35.31 31.10 29.22 26.10 24.80 24.14 23.46
49.89 50.29 49.53 50.10 50.18 50.30 49.88 48.30 46.17 44.23 42.97 42.67 41.83 41.10 41.48 41.78 41.78 40.69 39.79 39.32 39.51 37.93 37.47 37.77 37.97 37.87 37.63 36.85 36.88 35.95 35.21 35.08 34.96 34.32 33.79 33.23 31.23 27.82 25.65 24.89 23.61 23.13 25.79
49.56 48.62 48.64 49.73 50.43 50.77 50.16 47.76 44.89 44.14 43.41 42.66 41.68 41.11 41.86 41.96 40.64 39.60 39.13 38.62 38.11 37.39 36.86 37.88 38.29 38.55 37.99 37.28 37.56 35.57 33.61 32.82 32.80 32.98 31.68 30.48 28.26 26.45 24.96 24.25 22.75 23.37 21.73
48.32 47.53 47.14 48.61 49.23 48.71 48.19 46.22 45.05 44.70 43.80 42.24 41.53 41.24 42.00 41.33 39.56 38.64 38.31 38.67 38.85 38.52 38.05 37.74 37.63 37.83 37.81 38.16 36.02 34.38 32.23 31.02 29.99 30.02 29.95 28.50 29.51 32.10 27.48 24.73 22.78 22.25 21.29
46.09 48.42 48.03 47.92 47.91 48.14 47.62 48.00 45.47 44.05 43.73 42.09 41.66 42.31 41.59 40.15 39.91 38.87 37.63 37.69 38.42 39.34 38.65 37.82 37.12 36.62 37.57 36.34 36.06 33.26 30.26 30.66 29.20 28.53 27.67 27.23 30.18 30.96 31.09 29.80 28.57 25.61 20.98
45.90 47.74 47.65 48.18 48.21 47.80 48.28 47.52 45.97 44.04 42.67 42.78 43.45 41.46 40.77 39.70 38.94 37.48 36.76 37.01 37.22 37.15 37.06 36.38 36.48 35.86 35.93 35.22 35.40 33.54 28.99 28.66 28.03 27.61 26.52 26.93 28.76 27.33 25.18 26.34 25.85 24.53 25.69
45.37 46.06 47.50 47.85 47.29 46.94 47.60 45.22 43.74 42.68 42.61 41.82 40.04 39.69 38.93 37.56 37.72 37.26 37.46 37.42 37.48 36.52 34.68 35.15 36.07 35.26 35.21 34.76 34.42 32.20 27.39 27.46 27.51 26.76 26.01 25.53 24.51 24.26 24.43 23.17 22.34 22.02 22.36
40.77 39.63 39.29 41.67 43.32 44.75 43.10 42.60 41.09 39.17 37.41 36.81 37.83 38.08 37.52 37.34 36.95 37.37 36.74 37.17 36.17 35.39 34.85 35.32 34.60 34.20 32.99 34.50 33.35 29.65 25.91 26.77 27.24 27.95 27.52 26.28 24.63 26.31 28.27 23.64 22.30 21.39 21.56
38.29 37.88 37.94 38.04 37.41 37.74 38.73 37.42 36.83 36.64 35.90 36.92 36.78 37.41 38.04 37.94 37.11 37.40 37.04 36.22 35.64 34.41 34.35 34.10 33.87 34.10 31.41 33.77 33.19 29.86 25.28 26.08 26.00 26.35 26.27 28.96 25.47 27.94 27.31 22.97 21.36 18.76 20.52
36.90 37.59 36.83 35.89 36.04 37.69 38.31 36.56 36.19 35.44 37.12 38.16 38.72 39.05 38.74 38.23 38.22 36.52 36.00 34.76 33.22 31.96 30.60 31.11 31.07 30.05 29.76 29.50 33.15 32.57 26.85 26.30 25.72 26.01 24.70 25.02 28.46 28.17 28.24 28.50 22.78 20.23 22.44
36.15 36.71 35.94 35.83 37.16 37.74 37.70 36.41 36.19 38.37 39.20 39.34 39.02 38.81 38.45 37.48 36.80 34.13 33.07 32.29 30.62 28.93 28.92 26.42 28.34 27.67 28.83 30.70 32.47 32.94 30.55 28.08 24.79 25.57 25.54 24.89 28.71 29.02 29.33 27.80 27.95 28.40 25.64
35.17 36.33 35.90 35.37 37.64 38.33 37.86 36.30 37.12 38.52 38.61 38.07 36.03 34.88 34.79 34.38 33.76 31.99 31.18 29.53 28.70 25.35 27.35 27.02 24.27 26.89 27.59 28.34 31.81 32.48 32.12 30.45 24.94 25.29 25.43 27.05 28.59 29.43 28.00 29.02 28.64 24.74 21.24
35.19 35.30 35.79 34.90 34.55 36.00 35.96 35.29 35.29 34.58 33.91 32.74 32.59 32.54 31.70 31.80 31.76 31.37 30.26 29.14 26.07 25.41 27.72 27.56 26.66 25.79 26.98 28.56 29.70 29.93 30.53 30.04 26.94 24.83 26.06 23.41 24.42 20.79 21.24 21.20 24.24 23.11 21.09
34.66 34.35 33.56 34.12 34.33 33.71 33.67 34.20 34.15 33.50 31.71 31.36 31.25 31.04 28.32 29.49 29.86 30.01 29.79 29.57 29.32 29.04 28.37 27.85 26.94 24.08 23.74 27.43 30.82 28.83 27.30 28.85 27.91 23.93 19.26 18.10 18.18 20.52 21.14 20.36 21.28 20.62 19.28
32.77 32.33 32.60 32.55 33.00 33.16 32.92 33.41 33.81 32.74 31.27 30.70 29.52 28.39 27.56 27.40 28.93 29.48 29.89 32.16 32.58 32.63 32.34 32.31 30.32 29.65 31.15 31.68 32.75 33.63 32.26 31.07 29.23 24.46 20.23 20.16 18.55 19.39 19.94 17.68 18.10 16.49 16.49

GFSMW_sfc_wetblb_027.txt.gz
Wetbulb
58.46 59.56 60.44 60.88 60.19 59.48 59.40 59.79 58.08 57.42 57.55 56.96 55.87 53.78 52.84 52.98 51.64 50.64 49.77 49.71 49.26 48.53 47.36 46.48 45.96 45.31 44.11 42.72 42.51 40.74 40.14 39.92 38.56 37.58 37.56 36.72 36.66 36.57 35.64 35.72 35.10 36.32 36.73
56.03 58.74 59.48 59.26 58.07 59.00 59.22 59.32 58.57 57.60 57.58 57.95 56.49 55.37 53.54 51.43 49.05 48.86 48.49 48.55 48.18 47.57 47.41 45.66 44.42 43.55 42.49 41.39 41.12 40.37 39.46 39.17 38.12 36.27 34.36 32.31 34.59 35.21 35.42 33.76 34.61 32.82 34.69
53.27 55.35 58.14 58.16 57.34 57.76 58.50 59.38 58.96 58.37 57.82 57.86 56.65 52.28 49.64 48.26 47.05 46.19 46.17 46.84 47.62 45.46 43.51 42.17 41.10 40.41 40.10 39.14 38.94 39.85 39.24 37.32 37.31 36.48 35.70 30.91 29.44 30.81 33.26 32.42 32.35 32.12 32.46
53.86 54.47 56.53 57.31 57.47 57.54 58.84 59.46 59.49 58.87 58.34 57.43 56.57 54.01 51.99 48.81 46.36 45.99 45.98 42.01 42.82 42.16 41.71 41.05 40.86 40.43 40.11 39.30 39.30 41.26 38.99 37.59 36.05 36.68 37.93 34.71 33.13 29.31 27.76 30.92 31.40 32.22 33.55
53.32 53.73 54.78 57.59 58.26 58.39 58.75 59.20 59.23 59.09 58.78 57.27 56.11 53.18 50.42 47.30 46.71 44.67 40.38 39.87 40.87 41.72 41.29 41.08 40.16 39.77 40.03 39.96 39.85 39.20 38.50 38.07 37.10 36.20 35.24 33.22 31.33 29.96 28.01 25.69 28.12 30.80 32.08
51.16 54.29 55.87 57.67 58.14 58.57 58.27 58.61 58.54 58.38 58.04 57.12 54.78 51.86 47.46 45.70 43.82 39.57 39.00 39.49 39.46 39.32 40.29 39.76 40.13 41.45 42.37 39.92 39.30 38.57 38.34 37.49 36.90 36.53 35.31 33.01 31.17 30.01 27.94 25.87 26.40 26.80 29.62
51.57 55.11 57.17 57.77 57.69 57.59 58.45 58.27 57.19 54.00 55.25 53.95 51.02 48.51 46.84 46.52 44.10 40.17 39.37 38.60 38.20 38.42 38.76 40.64 40.76 40.81 42.60 40.69 39.85 39.63 37.80 37.18 36.11 35.79 35.11 34.33 33.43 32.58 30.54 28.38 26.63 25.98 27.30
52.92 55.69 57.57 58.10 57.92 58.14 57.73 57.58 54.17 50.19 48.95 47.87 46.14 43.36 43.51 44.56 43.10 41.61 39.71 40.09 40.32 40.25 40.52 40.41 40.64 39.31 38.62 39.21 39.74 38.88 37.81 37.06 36.16 35.41 34.87 35.34 33.75 32.90 32.09 29.49 27.42 24.99 25.84
52.96 55.56 57.22 58.04 57.05 56.05 53.53 51.64 49.29 46.11 46.02 44.96 43.48 42.39 42.52 43.44 42.35 41.88 41.71 41.10 40.99 41.04 40.68 40.13 39.72 38.16 37.55 36.34 37.13 37.61 37.37 37.16 36.26 35.76 34.54 34.27 33.65 32.96 32.23 31.74 30.33 29.04 22.60
52.61 53.31 54.17 53.63 53.60 52.63 50.83 47.63 46.82 45.76 45.09 44.39 44.60 44.24 43.56 43.11 41.89 40.96 40.79 40.91 41.26 41.62 40.17 39.62 39.43 37.44 36.50 37.22 37.02 37.68 38.59 36.51 35.15 34.97 34.41 33.45 33.15 33.62 32.62 30.47 30.19 29.08 27.61
51.72 52.96 53.45 52.77 52.02 50.93 49.38 47.87 45.63 43.41 42.60 43.44 42.23 41.42 41.08 41.55 41.04 41.33 41.35 41.20 41.22 40.40 40.29 39.68 38.58 36.75 36.60 36.90 36.14 35.09 34.87 34.51 34.35 34.25 33.95 33.70 33.87 32.46 30.92 30.19 28.83 26.62 24.93
51.62 52.80 52.90 51.10 49.40 49.14 49.07 47.94 46.69 44.49 43.70 43.35 42.94 41.59 41.07 41.42 40.65 40.29 41.28 41.04 40.35 39.86 38.08 37.92 36.98 36.86 37.73 37.14 35.59 34.07 34.65 33.98 33.55 32.83 32.87 32.85 34.24 30.75 29.29 27.28 25.54 24.20 23.20
49.76 50.40 50.03 50.01 49.32 49.16 48.86 48.32 46.59 43.72 41.40 42.69 42.00 40.84 40.92 40.88 40.75 39.58 39.04 38.34 37.85 37.34 36.97 36.75 36.48 37.26 37.49 36.40 34.78 34.26 34.46 34.23 33.53 33.26 32.35 32.53 32.06 29.07 26.36 25.04 23.86 22.85 24.97
49.10 48.64 48.09 49.25 49.99 50.09 48.81 48.18 45.69 43.92 44.13 44.37 42.25 41.53 41.34 41.92 41.59 41.02 38.13 37.94 37.46 36.41 35.88 36.55 37.20 38.10 36.31 36.23 36.02 34.79 33.07 32.56 32.63 32.34 32.01 31.58 29.73 27.32 25.26 24.65 23.11 22.86 21.38
47.15 46.83 46.58 47.76 48.79 48.65 47.76 47.13 45.20 45.30 44.34 42.84 41.77 41.38 43.44 42.71 41.96 40.31 38.56 37.25 37.00 37.00 36.75 37.15 37.86 36.46 36.20 36.66 35.14 34.09 32.09 31.04 30.51 30.30 29.83 28.67 29.32 31.38 27.86 24.56 22.42 21.85 21.12
46.64 46.79 46.63 47.35 47.38 47.97 47.09 45.30 45.50 44.49 43.01 41.95 41.80 43.24 43.47 41.68 39.43 38.74 38.06 37.18 37.86 38.40 37.68 37.54 36.77 35.35 36.68 36.44 36.94 34.01 30.88 30.59 29.60 28.85 28.18 27.39 31.24 31.86 32.36 31.46 29.31 25.03 20.72
45.76 46.41 45.71 46.24 46.74 46.69 47.18 45.82 45.16 44.08 42.29 41.66 42.85 42.63 40.57 38.68 37.74 37.55 37.55 37.45 37.11 37.54 37.31 36.66 36.16 35.71 34.87 35.99 36.85 35.35 29.85 28.93 28.32 27.72 27.43 26.82 27.84 28.71 27.29 29.57 28.29 26.61 26.61
41.52 40.59 40.06 44.23 45.61 45.58 45.77 43.88 42.02 40.93 40.40 39.17 38.82 38.95 38.26 37.70 38.08 37.89 37.43 37.42 38.05 37.42 36.42 35.34 35.11 34.18 34.66 35.55 35.90 34.22 28.64 27.69 27.06 27.29 26.38 25.56 25.31 25.38 24.85 23.40 22.66 22.26 22.87
37.37 36.76 36.59 36.93 37.99 39.99 40.71 38.65 36.94 37.06 37.01 36.43 37.38 38.32 37.99 37.27 37.61 37.19 37.35 38.02 37.56 35.91 34.95 34.30 33.35 32.93 32.52 35.01 35.15 32.11 26.31 26.10 26.44 27.76 27.07 26.39 25.29 27.65 29.85 24.31 22.77 22.19 22.65
35.99 35.79 35.87 36.74 36.83 36.69 37.27 36.06 35.46 35.33 34.94 35.73 36.97 38.36 38.69 38.28 37.68 37.74 37.71 37.69 36.05 34.38 33.44 32.17 31.82 32.67 30.57 33.23 34.86 31.85 25.38 25.67 26.28 26.39 27.05 31.14 27.16 28.59 29.23 23.88 21.69 20.03 21.93
35.85 36.43 36.08 35.41 35.69 36.56 36.80 35.33 35.47 35.75 37.73 39.19 40.18 40.68 40.39 39.63 38.69 37.96 37.35 36.08 33.51 31.37 28.93 29.10 29.28 29.63 30.02 29.98 34.17 34.22 26.71 26.88 26.69 26.30 25.72 26.12 29.78 29.45 29.80 28.70 23.14 21.65 22.91
35.28 35.88 35.18 35.06 35.46 36.41 36.78 35.90 36.97 39.47 40.56 40.44 39.97 39.87 39.26 38.49 38.07 35.82 33.04 31.69 30.31 28.26 28.09 25.91 27.97 27.70 28.86 31.12 31.41 33.96 32.36 29.51 26.33 25.96 26.61 26.27 29.54 30.17 29.55 28.42 28.39 28.67 25.35
34.02 34.47 34.17 33.79 35.08 36.36 37.20 35.95 36.78 39.08 38.64 37.57 36.26 35.04 34.16 33.57 32.90 31.20 30.37 29.30 28.37 25.66 26.86 27.26 26.89 27.60 28.28 26.61 31.13 32.16 32.81 32.32 27.09 27.49 27.45 28.43 29.34 29.83 28.99 29.89 29.96 25.26 19.48
33.14 33.62 33.56 33.05 32.94 34.98 34.83 34.90 34.76 33.51 32.90 31.94 31.49 31.43 30.98 30.94 30.52 30.51 30.37 28.96 26.37 25.81 27.56 27.53 27.80 27.77 26.85 26.39 25.80 26.92 27.64 29.84 30.37 27.29 28.19 27.59 27.23 24.81 25.20 22.86 25.59 22.70 20.79
33.30 33.09 32.36 31.74 31.48 32.24 32.25 32.54 32.54 32.19 30.87 30.81 30.84 30.57 28.43 28.89 29.13 29.44 29.39 29.28 29.43 29.62 29.33 28.76 28.73 26.89 25.59 27.14 29.57 28.72 26.76 27.06 28.66 28.80 26.00 24.98 23.67 23.15 23.80 22.79 21.54 20.24 18.93
32.16 31.33 31.14 31.21 30.95 30.60 30.89 31.74 32.27 31.07 29.96 29.83 29.10 28.19 27.81 27.52 28.61 28.69 29.39 32.17 32.42 32.44 32.84 32.56 31.05 29.46 30.70 31.83 32.76 32.85 32.83 32.22 30.42 27.12 22.74 22.55 23.43 22.56 23.11 21.98 20.74 17.14 16.48

GFSMW_sfc_wetblb_030.txt.gz
Wetbulb
57.52 57.09 56.99 58.26 59.70 59.21 59.00 59.07 57.38 56.60 56.73 55.70 54.12 52.49 52.30 52.50 50.64 49.87 49.83 50.54 48.86 47.84 46.50 45.64 44.86 44.18 42.74 41.96 41.94 40.50 39.77 38.70 38.26 38.08 37.59 36.94 36.75 35.96 35.46 35.56 35.59 36.46 37.04
56.10 56.84 56.63 58.12 59.50 59.68 59.64 58.81 58.11 57.00 57.29 57.10 54.71 53.90 52.89 51.41 49.41 48.56 48.30 48.30 47.51 46.67 46.37 44.45 43.23 42.56 41.55 40.64 40.65 40.28 39.08 38.67 37.63 36.30 34.45 32.64 35.06 35.79 35.33 34.43 35.14 34.28 35.39
54.89 56.46 57.63 58.12 58.67 59.04 59.01 58.96 58.09 57.33 57.46 57.10 54.93 50.62 50.95 47.99 46.67 45.71 45.77 46.35 46.70 45.48 43.43 41.80 40.32 39.70 39.47 39.07 39.38 39.59 39.14 37.21 36.87 36.45 35.81 32.29 30.40 31.62 34.20 33.77 33.53 33.61 34.04
54.12 55.55 57.14 57.46 57.58 58.35 58.86 59.30 58.45 57.44 57.37 57.42 55.45 52.76 51.89 49.12 47.47 45.38 44.89 42.12 42.27 41.24 40.75 40.74 40.37 40.11 40.24 39.48 40.65 40.87 39.68 37.84 36.27 37.01 37.44 34.96 34.23 31.45 30.19 32.57 32.61 33.18 34.09
51.68 53.38 55.03 57.67 57.92 56.73 57.63 58.53 58.19 57.93 57.35 57.46 56.43 53.60 51.61 50.61 47.94 44.55 40.01 40.16 39.80 40.38 40.83 40.73 40.61 39.77 40.63 41.98 41.77 39.61 38.14 38.07 37.01 36.58 35.96 33.97 32.23 30.69 29.33 27.58 29.67 31.85 33.13
50.24 51.55 52.80 55.41 56.16 55.92 56.62 57.80 58.82 58.07 57.55 56.77 54.66 52.95 49.72 48.99 46.33 42.58 39.26 40.47 38.25 39.27 39.56 39.63 39.21 40.97 42.84 41.04 40.26 38.90 38.25 37.60 36.96 37.15 35.66 34.33 32.24 30.80 28.92 27.16 27.54 27.86 30.86
49.39 51.30 52.78 54.22 55.92 55.76 56.94 57.96 59.14 57.64 57.62 56.30 54.70 52.28 51.50 49.30 46.64 41.87 39.74 37.88 38.01 38.86 38.33 39.23 39.63 40.83 42.53 42.03 39.73 38.51 38.06 37.10 36.45 35.77 35.52 34.74 33.93 33.38 31.45 29.13 28.38 27.50 28.77
49.96 52.51 54.71 55.29 56.07 56.44 56.84 58.13 58.17 57.63 55.88 55.80 53.87 52.45 50.43 48.91 47.38 41.50 40.46 40.16 39.92 39.88 40.33 40.81 39.50 40.49 41.36 39.92 40.30 39.25 37.50 37.37 36.50 35.39 34.92 34.86 34.52 33.50 32.09 30.66 28.70 26.77 27.30
48.56 52.17 55.19 56.23 56.30 56.46 56.82 57.83 56.82 56.62 53.98 52.93 50.87 49.06 47.91 46.71 43.34 43.52 41.26 40.36 41.23 40.73 40.86 40.84 41.17 40.44 38.58 38.82 39.10 39.16 38.04 37.57 36.16 35.62 35.18 34.27 34.49 33.68 33.00 31.79 30.54 28.95 27.47
49.68 52.04 54.85 56.10 56.64 57.15 57.79 56.38 54.78 52.65 51.49 49.64 47.55 46.16 45.73 45.68 44.46 41.91 40.72 41.27 41.81 40.96 41.00 40.96 39.99 39.10 38.59 38.48 38.29 37.50 37.71 36.94 36.04 35.58 34.13 33.73 33.60 32.87 32.45 31.41 31.56 30.34 28.26
49.89 51.96 53.89 55.12 54.90 54.56 51.78 52.03 49.28 47.16 45.53 45.72 44.43 43.21 43.30 43.18 43.84 42.97 42.70 41.04 41.15 41.46 41.22 39.95 39.24 38.40 37.93 37.92 36.91 37.12 36.55 34.76 33.76 34.09 33.91 33.63 33.38 32.66 31.79 30.71 30.16 28.74 27.68
49.86 51.02 51.85 51.58 51.15 51.49 50.33 50.11 46.57 44.36 43.68 42.86 43.08 43.21 43.16 43.62 42.00 41.15 41.14 41.35 40.94 40.61 40.06 39.57 38.25 37.97 38.09 37.48 36.05 34.39 34.44 33.65 33.36 33.36 32.88 33.18 34.64 32.00 30.84 29.38 27.90 26.14 25.16
49.05 50.14 50.24 49.81 50.33 50.08 49.32 48.89 46.17 44.11 44.05 43.12 43.97 42.60 41.27 39.82 39.66 41.22 41.14 40.89 40.09 39.35 38.52 38.31 37.76 37.44 37.62 36.60 35.10 34.42 34.12 33.46 33.17 32.92 32.16 32.16 31.59 30.15 28.66 27.31 25.91 24.79 25.78
48.74 48.67 48.87 48.88 48.14 47.94 48.79 47.61 45.81 43.26 43.83 42.81 42.29 41.25 39.72 39.95 40.36 41.22 40.11 39.95 39.37 38.46 37.87 38.18 37.81 37.80 37.79 36.93 36.15 34.85 33.39 32.99 32.69 32.82 32.05 31.60 30.90 29.78 28.03 26.49 25.13 24.41 22.87
46.91 47.18 47.31 47.24 47.85 48.37 48.04 47.12 44.63 44.18 44.16 43.48 41.89 40.09 39.82 40.46 40.64 41.39 39.72 39.10 38.78 38.52 38.21 37.93 37.90 38.12 37.81 36.66 35.25 34.21 32.81 31.56 30.91 31.21 30.99 31.09 31.26 32.95 28.81 25.97 24.42 22.89 21.95
45.47 45.66 45.43 46.06 47.44 48.11 47.37 47.02 44.96 43.99 43.80 42.62 40.92 42.51 42.21 41.75 39.79 39.27 39.16 38.68 38.24 38.03 37.81 37.18 37.27 37.36 37.27 36.25 36.88 35.34 31.89 31.05 30.17 29.26 29.04 28.44 32.23 32.57 34.13 33.38 29.85 25.49 22.65
40.97 41.81 43.42 44.73 45.17 45.90 46.80 44.90 44.19 43.58 42.11 40.74 41.61 41.93 41.99 40.30 38.54 38.63 37.97 37.45 37.12 37.59 37.69 38.09 37.74 36.90 36.21 36.13 36.47 36.24 31.72 30.12 29.76 28.87 28.41 27.71 27.79 29.52 27.90 31.38 31.26 29.32 28.59
37.87 36.88 37.10 38.72 39.81 43.30 42.80 41.43 40.82 39.79 39.31 39.23 39.51 40.27 38.89 38.18 38.98 38.16 37.61 37.84 38.35 38.43 38.23 37.40 36.52 35.45 34.78 35.35 35.78 35.16 31.87 29.38 28.75 28.01 27.61 26.81 26.54 26.19 26.13 25.54 24.64 23.90 23.98
35.10 34.40 35.48 36.05 35.94 36.07 36.47 36.37 35.76 36.18 36.53 36.28 37.03 37.92 38.98 38.57 38.63 37.77 38.12 38.48 38.27 37.69 36.77 36.36 35.40 33.51 32.16 34.29 34.65 34.00 29.50 27.97 27.58 27.91 27.69 27.00 26.08 28.52 31.10 25.17 23.50 23.22 23.40
34.76 34.95 35.60 35.50 35.21 34.92 35.75 34.92 34.34 34.74 34.76 36.26 37.49 38.89 39.37 38.68 38.26 38.48 38.15 38.41 37.49 36.08 35.58 33.20 32.27 31.97 30.30 32.75 34.13 34.11 27.06 26.47 27.05 26.81 27.81 31.37 27.57 29.63 30.40 26.78 23.69 21.42 22.89
34.87 35.40 34.91 34.01 33.95 34.94 35.77 35.37 36.32 36.47 37.92 38.77 39.11 40.14 40.67 39.88 39.02 38.26 38.00 37.48 36.43 33.36 30.24 29.47 29.20 29.20 30.03 30.08 33.29 34.24 28.42 27.64 27.19 28.02 27.92 27.85 30.67 31.80 31.36 30.38 24.26 22.79 23.91
34.34 34.95 34.43 34.20 35.09 35.62 37.00 36.10 36.40 37.84 38.73 39.75 40.23 39.76 39.38 38.90 38.35 35.98 33.89 31.54 30.34 29.24 28.50 26.28 28.44 28.43 29.10 30.87 31.53 33.32 33.41 30.74 27.01 27.14 27.58 28.10 30.19 31.28 31.67 30.29 28.82 27.97 25.66
32.47 33.12 33.68 33.96 34.96 35.47 35.89 35.09 36.13 36.80 35.25 33.99 32.76 32.28 32.66 32.20 31.68 30.70 30.17 29.47 28.40 25.51 26.96 27.52 27.64 28.44 29.31 28.55 31.32 32.32 32.74 32.51 29.25 28.13 27.94 29.07 29.98 31.04 30.60 31.12 29.87 27.82 25.44
31.67 32.32 32.54 31.71 31.31 32.59 32.75 32.23 32.19 31.41 31.01 30.19 29.88 29.92 29.69 29.93 29.54 29.36 29.44 28.19 26.06 26.01 28.12 28.03 28.12 28.52 29.06 27.09 27.88 27.61 27.95 29.09 29.67 28.77 29.66 27.10 27.19 28.51 29.36 27.85 29.27 28.40 25.68
32.08 31.94 31.51 31.15 30.05 31.14 31.06 31.26 30.69 30.39 29.96 30.03 29.78 29.16 27.85 27.92 28.22 28.62 28.35 28.40 28.61 29.03 28.83 28.92 28.51 28.29 28.47 30.15 30.90 30.01 27.52 26.59 27.60 23.17 26.54 27.35 26.13 25.56 25.36 25.68 25.98 26.10 23.81
31.75 31.97 30.97 30.44 30.11 30.23 29.84 30.09 29.85 29.35 28.62 28.48 27.98 26.72 26.24 25.36 27.26 27.55 27.07 30.48 31.62 32.04 32.59 32.74 31.48 31.31 32.39 32.85 32.89 32.84 33.12 32.76 30.92 27.15 26.63 26.00 25.52 24.08 23.89 24.08 24.59 24.94 23.97

GFSMW_sfc_wetblb_033.txt.gz
Wetbulb
58.26 59.56 59.87 59.96 60.48 61.13 61.22 62.35 62.66 62.92 61.70 60.21 59.84 59.65 58.18 58.35 57.80 58.09 57.55 56.34 55.38 54.62 54.00 52.78 52.23 52.19 51.61 50.73 50.66 49.32 48.48 48.24 48.81 47.86 47.14 45.51 45.68 45.60 45.46 46.35 46.30 44.87 45.50
58.53 59.03 59.54 59.27 59.99 60.69 61.77 62.38 62.75 62.29 61.85 61.53 60.93 60.21 58.35 58.09 56.97 55.73 56.37 55.23 54.56 53.71 52.97 52.50 51.77 51.32 50.11 49.88 49.63 48.96 47.73 48.24 47.96 46.51 45.24 42.87 43.09 44.47 43.90 44.85 44.53 44.35 45.22
57.98 59.07 58.41 59.01 59.93 60.58 61.80 62.55 62.82 62.05 61.98 61.65 60.13 57.33 56.01 55.08 53.91 53.28 53.94 53.53 53.35 53.09 52.38 51.89 50.69 49.22 48.76 47.72 48.45 48.61 47.39 45.31 45.54 45.70 45.44 41.38 40.54 42.53 44.14 42.92 43.76 43.85 44.33
57.45 59.43 59.72 59.30 59.68 61.14 62.59 63.01 62.63 61.86 61.75 61.03 59.79 57.48 57.37 55.44 55.00 53.37 53.27 52.58 52.21 51.01 50.18 48.92 48.65 48.27 48.14 47.71 47.76 47.09 45.98 46.80 44.72 45.57 45.23 45.63 44.42 40.37 38.75 43.39 43.70 43.18 42.40
56.45 57.78 59.61 60.55 61.20 61.58 62.14 62.78 62.54 61.61 61.31 59.81 60.03 58.82 58.01 56.91 53.86 51.91 50.54 49.16 48.94 48.75 47.67 48.18 48.12 47.88 47.69 47.91 48.03 46.82 46.05 46.78 45.95 45.68 45.03 44.72 43.94 42.60 39.45 36.98 39.55 42.04 43.14
55.46 56.74 59.12 60.68 61.41 61.79 61.83 62.36 61.03 60.86 60.22 59.68 59.84 58.42 57.31 53.71 51.57 48.14 46.88 46.84 47.09 46.39 47.28 47.22 47.55 47.96 47.86 47.36 46.81 44.45 44.81 45.87 45.77 45.46 44.75 43.46 41.73 40.42 39.24 37.56 38.18 37.88 40.17
55.27 55.94 56.07 57.40 60.01 59.89 60.50 61.31 60.23 59.60 58.65 58.80 58.90 58.05 55.46 53.51 51.91 47.07 45.85 45.33 45.40 45.36 45.77 46.52 46.55 46.87 46.45 45.32 43.59 44.36 46.27 45.79 45.23 44.51 44.03 44.18 42.97 42.65 41.15 39.28 38.01 36.82 39.44
55.44 56.01 56.63 57.65 58.76 59.31 60.21 60.88 60.68 59.70 58.58 58.78 58.69 57.63 55.74 55.17 51.95 48.31 47.50 46.67 46.63 45.79 46.16 46.07 46.70 46.93 45.75 45.02 46.39 46.24 46.06 45.94 45.47 44.51 43.96 43.85 43.47 43.06 41.74 39.81 38.43 35.98 36.90
52.68 54.32 56.16 57.29 57.90 59.28 59.52 60.92 60.86 60.61 60.11 58.73 58.79 57.20 56.77 55.20 52.01 49.77 49.92 48.31 47.16 45.40 45.34 45.80 43.13 45.37 45.26 43.48 44.44 45.18 45.19 45.61 45.76 44.86 44.54 43.28 43.54 42.94 42.16 41.37 40.24 37.71 33.18
51.66 53.12 55.30 57.46 58.43 59.38 60.04 60.86 61.28 60.53 60.85 59.49 58.88 58.39 57.26 55.16 54.06 51.26 48.93 46.65 46.27 45.68 45.32 44.84 44.90 44.32 41.81 44.03 43.52 44.33 44.28 44.57 45.06 44.67 43.47 42.78 42.35 42.18 42.02 41.40 40.57 39.42 36.96
53.60 53.98 55.51 57.96 59.04 59.80 59.92 60.21 60.37 60.31 59.11 58.86 58.29 57.01 55.81 54.73 52.33 49.58 48.07 47.25 46.76 45.93 44.54 43.35 44.20 40.89 41.67 42.26 42.34 42.85 43.20 43.07 44.20 43.47 41.79 41.63 42.01 41.26 41.16 40.62 40.05 38.74 37.84
53.78 55.20 56.55 57.61 58.13 58.64 58.79 58.75 58.63 58.12 57.43 55.65 54.19 54.38 53.26 51.45 49.93 49.00 48.45 48.09 45.90 45.11 43.73 42.97 40.80 41.52 41.02 41.72 41.18 40.75 41.93 42.58 41.96 41.37 40.94 40.60 40.58 40.78 41.13 40.35 39.21 38.11 38.04
52.94 54.46 55.46 56.09 56.59 56.45 55.60 55.26 54.70 54.53 52.01 51.08 52.34 51.88 50.35 49.99 49.26 48.93 48.63 46.18 44.94 43.45 42.72 42.05 40.55 40.23 41.42 41.29 41.15 40.66 41.32 41.05 41.07 41.10 40.62 40.62 40.70 40.14 39.88 38.83 37.76 37.43 35.38
51.32 53.66 54.00 54.30 54.09 54.05 54.89 55.47 52.58 51.41 50.26 50.16 50.24 49.78 49.02 49.02 48.85 47.85 44.84 44.13 44.28 40.65 40.99 41.64 42.38 42.52 42.09 41.08 40.41 41.51 40.43 40.27 40.16 40.19 40.15 40.49 39.92 39.65 39.56 38.20 37.23 35.79 33.96
50.25 51.31 52.44 53.32 53.18 53.08 52.95 52.75 51.84 49.36 49.27 47.96 47.91 48.06 46.78 46.27 45.71 44.27 42.88 42.19 42.47 41.54 40.83 41.88 40.73 40.94 40.43 40.88 41.46 41.57 40.63 40.27 39.78 39.90 39.58 40.03 39.65 38.26 38.15 36.99 36.54 34.48 32.83
47.95 48.76 49.86 50.70 51.20 52.04 52.50 51.00 50.02 48.22 48.44 48.19 47.25 45.79 45.59 44.86 43.59 42.82 41.27 40.69 39.84 39.57 41.47 41.03 40.52 40.31 40.76 38.61 37.40 37.46 39.97 39.89 39.03 39.41 39.55 39.31 36.78 36.56 34.90 33.40 32.99 33.59 32.81
43.65 44.70 45.87 46.62 47.99 49.34 50.20 50.01 49.02 48.19 47.12 46.20 45.68 45.18 44.59 42.50 41.78 40.94 39.74 38.54 38.74 40.15 40.50 40.84 41.28 40.50 40.67 37.20 36.81 36.24 38.71 39.68 39.94 39.29 38.99 37.96 35.89 34.26 35.82 33.94 33.85 31.53 29.71
40.76 41.10 42.48 43.11 43.94 45.32 44.92 45.04 45.35 44.69 44.55 44.16 43.67 43.49 42.59 40.41 39.35 39.18 39.14 39.75 41.35 40.74 40.86 41.55 41.23 39.97 39.21 36.60 35.98 34.80 38.52 38.88 38.82 38.82 38.56 37.80 37.44 35.74 34.76 33.78 33.30 33.41 32.97
39.48 39.64 40.30 40.59 41.08 41.23 41.73 41.76 41.25 41.34 41.12 40.46 40.64 41.00 41.16 40.57 40.34 39.54 39.45 39.75 40.06 40.90 40.99 39.96 38.27 37.47 39.40 36.31 34.86 34.66 37.34 37.03 37.31 37.62 37.14 36.82 36.44 34.86 32.01 32.02 31.26 31.57 31.26
39.52 39.11 39.31 39.66 39.63 39.37 40.67 40.04 39.65 39.82 39.24 40.19 40.76 41.63 41.91 41.70 41.20 41.66 41.61 40.76 40.64 39.97 37.89 36.77 37.86 37.83 36.79 35.17 34.06 34.73 36.96 35.92 35.79 36.44 35.39 32.63 34.33 32.79 31.60 32.51 31.39 29.41 30.74
37.87 38.56 38.97 38.05 38.81 40.42 40.99 39.73 40.09 39.60 41.01 41.80 42.16 42.31 42.47 41.55 41.28 40.39 39.66 38.85 38.19 37.95 38.26 36.48 37.00 36.97 36.45 36.52 34.25 34.38 35.40 35.51 34.74 34.76 35.08 34.99 31.93 31.97 31.67 32.13 31.89 31.27 32.10
37.64 38.52 38.01 38.11 39.44 40.91 40.39 39.06 38.73 41.27 41.69 40.35 38.55 37.90 37.40 37.37 37.63 37.93 37.53 36.83 36.43 35.54 35.36 34.93 35.39 36.31 35.89 33.83 34.20 33.64 33.64 34.60 34.39 33.91 35.14 35.36 32.76 31.91 32.80 32.64 32.10 30.48 29.21
37.15 38.42 37.95 37.75 38.56 39.07 39.10 36.07 35.74 36.60 36.52 35.97 35.09 35.10 35.31 35.38 35.47 35.69 35.41 35.28 35.28 34.31 33.98 33.58 33.81 34.66 35.59 36.10 33.76 32.71 32.72 32.55 33.79 35.88 35.00 32.80 31.86 31.49 31.21 32.12 31.86 30.44 30.27
36.61 36.82 35.71 34.27 33.68 34.60 34.50 34.91 35.06 35.55 35.01 34.14 33.65 33.62 33.45 33.29 33.62 33.75 33.75 33.06 32.68 31.80 31.30 31.26 31.14 31.79 32.32 33.31 34.73 34.84 35.91 33.77 33.06 32.83 34.50 33.01 31.41 31.32 32.28 31.49 32.08 32.25 31.83
34.75 35.02 33.81 33.17 32.49 32.81 32.18 33.06 33.76 34.13 32.40 31.89 30.92 30.50 30.28 29.88 29.81 30.14 29.92 29.54 30.78 30.46 29.60 30.01 30.01 30.36 30.16 29.42 28.94 28.97 29.67 31.51 32.97 32.75 33.16 33.08 31.51 30.39 29.99 30.34 30.76 31.12 31.56
33.87 33.19 32.79 31.46 30.53 29.47 28.80 29.99 31.10 31.00 30.13 28.63 28.27 27.33 27.95 27.91 27.77 27.36 27.36 28.14 27.57 28.01 28.02 28.25 28.67 29.25 27.40 25.94 26.66 26.81 26.15 27.01 29.08 30.05 30.25 31.47 31.36 30.28 29.76 29.17 29.18 29.31 29.18

GFSMW_sfc_wetblb_036.txt.gz
Wetbulb
59.68 61.15 61.21 61.21 60.75 61.70 61.95 62.56 62.96 64.39 65.01 64.23 62.02 62.03 62.76 64.39 64.80 65.48 65.14 64.07 62.73 61.27 60.65 59.24 58.16 57.78 56.87 56.16 55.49 53.83 51.34 51.99 53.24 51.01 51.02 50.61 50.20 49.73 49.88 50.65 50.78 48.91 49.17
59.14 60.59 61.81 61.47 61.23 61.54 62.37 63.00 63.58 64.50 65.14 64.88 63.10 63.90 64.21 64.33 64.39 63.77 63.07 62.63 61.33 60.62 59.44 58.49 57.50 57.53 56.05 55.19 54.07 52.35 51.56 52.88 52.16 49.80 49.11 47.21 47.89 48.72 48.73 49.08 48.25 48.73 48.38
60.09 60.86 61.48 62.67 62.40 61.66 62.20 62.90 64.30 65.40 66.01 65.72 64.16 63.60 64.26 62.89 60.90 60.51 60.57 60.34 60.06 59.37 58.31 58.27 57.58 56.87 55.83 53.69 52.80 51.93 51.55 50.84 50.74 50.62 47.58 45.15 45.17 47.33 48.54 47.55 47.60 47.36 47.31
60.70 61.74 62.54 62.56 63.21 63.09 63.88 64.15 64.46 65.48 66.10 66.01 63.84 61.98 60.90 60.71 60.98 60.28 60.16 58.16 57.23 58.11 57.69 57.31 55.94 55.48 54.10 52.70 51.81 52.43 52.49 51.07 49.68 49.84 48.72 48.79 47.06 43.01 42.96 46.92 47.04 47.35 46.35
60.54 61.18 62.30 63.61 63.97 64.10 63.91 64.92 65.09 65.55 66.17 65.77 64.76 62.76 61.83 63.08 62.24 60.25 58.52 57.60 57.18 57.15 56.67 55.03 53.39 52.91 52.83 52.05 52.46 51.79 50.87 51.56 46.94 48.22 48.92 47.68 47.20 46.48 43.32 41.11 43.57 45.79 46.08
60.60 61.49 62.91 63.77 64.41 64.82 64.44 64.74 64.79 64.97 65.56 64.27 62.40 61.86 61.83 61.91 59.88 58.43 57.14 55.67 55.80 54.74 53.04 51.20 51.88 53.27 52.09 51.98 52.33 50.53 51.09 48.48 49.28 49.06 47.88 46.18 45.22 44.46 43.30 41.79 42.33 42.21 44.28
60.26 60.86 61.49 62.44 63.82 64.45 64.76 64.69 64.74 62.11 63.74 62.89 61.09 61.59 61.71 61.85 58.43 58.07 56.67 53.28 49.60 49.64 49.66 51.08 51.85 51.90 52.01 51.89 51.14 50.67 48.34 49.25 48.39 47.88 47.19 47.41 46.12 45.58 44.07 42.49 41.65 40.96 43.35
60.34 60.86 61.59 62.24 63.38 64.32 65.30 64.79 64.43 61.51 60.76 60.03 61.14 62.18 61.82 61.70 59.66 59.89 53.38 49.08 48.27 48.82 51.26 51.37 52.17 51.44 48.67 49.97 49.44 48.21 47.29 48.04 48.60 47.91 47.49 46.66 46.31 46.02 44.81 42.92 41.31 39.19 40.51
56.99 59.21 61.42 62.35 62.86 63.45 64.59 64.98 64.37 63.40 62.66 60.31 58.98 60.06 60.58 60.58 60.37 59.38 52.52 50.60 51.71 51.76 51.52 51.52 50.13 49.34 49.41 48.69 48.79 47.02 47.88 48.17 49.04 48.33 47.29 46.25 46.04 45.86 45.35 44.45 43.33 40.49 36.53
56.12 57.11 58.54 60.28 62.33 63.10 64.31 64.87 65.21 64.67 63.99 60.66 60.24 60.53 60.64 60.63 60.57 59.76 55.11 53.82 53.41 53.64 51.11 50.38 49.24 47.46 46.81 47.67 47.32 44.76 47.77 48.24 48.26 46.83 46.32 45.69 45.27 44.71 44.71 43.93 43.47 42.78 39.95
57.51 57.88 58.97 60.20 61.36 62.38 63.35 63.78 64.25 64.63 64.79 62.83 62.02 61.65 61.84 61.31 60.77 59.57 56.43 54.84 54.05 52.73 48.70 49.78 48.32 45.88 46.89 45.70 45.18 46.70 46.99 45.38 45.49 46.38 45.13 44.40 44.84 44.08 44.04 43.96 43.22 41.97 41.25
56.59 59.35 59.77 60.74 61.66 61.88 62.56 63.03 63.63 63.81 64.63 64.84 63.96 62.35 61.66 60.81 59.25 57.27 55.61 54.68 52.70 51.54 50.36 50.11 47.33 44.22 45.56 45.91 44.44 44.56 43.50 43.72 43.82 44.75 44.96 43.86 43.77 43.86 44.04 43.30 42.19 41.85 41.89
56.23 58.60 59.71 60.51 61.18 61.87 62.40 62.76 63.10 63.24 63.68 63.18 62.15 60.88 58.16 57.76 56.74 54.77 53.87 52.55 52.20 51.44 50.89 49.65 46.42 43.26 44.15 44.23 45.20 43.17 41.54 42.47 43.66 44.14 43.82 43.69 43.87 43.00 42.98 42.80 41.82 41.83 40.81
53.45 57.64 59.22 59.60 60.31 60.78 60.89 60.91 60.98 61.18 59.54 58.32 58.43 57.92 56.74 54.75 53.71 53.15 52.54 52.22 51.51 51.06 49.24 44.00 43.09 43.31 44.39 43.81 43.11 43.10 43.18 43.89 42.73 43.04 43.32 43.00 43.13 42.88 42.81 42.16 41.90 41.20 40.13
53.07 55.61 57.87 59.20 59.36 59.39 59.61 59.79 58.78 57.83 57.55 56.52 56.28 55.95 55.69 55.49 54.98 54.00 52.82 51.52 49.42 46.25 43.04 41.68 42.29 41.98 42.41 42.80 43.30 43.45 41.86 42.56 42.01 42.92 43.42 43.72 43.09 40.97 41.25 41.92 42.10 41.02 39.45
53.51 54.91 56.06 57.15 57.08 57.27 57.55 56.78 55.78 55.27 55.31 54.50 53.74 52.58 51.78 51.28 50.31 48.26 46.08 43.75 42.44 41.21 40.96 40.77 42.34 42.23 41.82 39.00 38.37 39.16 40.32 42.15 41.91 41.81 43.13 43.66 41.38 40.00 37.76 36.72 36.30 37.60 39.17
51.57 51.96 52.64 53.43 54.13 54.55 55.49 54.65 53.94 53.80 53.07 51.98 50.99 50.25 49.55 48.00 47.06 44.35 42.17 40.34 39.74 41.32 41.25 41.75 42.20 42.43 43.32 39.01 38.56 37.46 38.32 40.25 41.63 41.75 41.94 41.89 41.93 39.94 41.51 36.49 34.75 33.27 32.60
49.16 49.98 50.82 51.22 51.78 52.26 52.01 52.07 51.89 51.28 50.36 49.46 48.57 48.41 47.44 46.07 45.26 43.80 41.61 41.20 42.08 41.51 41.64 41.96 43.14 43.35 42.39 38.33 37.26 36.59 40.98 41.31 41.40 41.62 41.36 41.23 41.53 41.91 40.87 40.21 39.53 38.33 38.35
48.09 48.52 49.35 49.46 49.72 49.53 49.76 49.16 48.49 48.14 47.19 46.32 46.05 46.09 45.95 44.79 44.30 43.67 43.22 43.50 44.71 44.45 43.97 42.59 42.55 41.54 39.65 37.57 37.67 36.43 39.78 39.04 39.58 40.58 40.86 40.89 40.94 38.75 37.21 38.57 37.89 37.93 37.83
47.39 47.15 47.45 47.73 47.66 47.68 48.31 47.41 46.49 46.06 44.89 44.99 45.12 45.84 45.90 45.44 44.71 44.50 44.05 44.76 45.48 42.59 40.93 39.11 38.59 38.23 41.65 37.97 36.16 36.15 38.88 38.03 38.79 39.77 39.84 36.35 37.48 35.81 34.45 37.17 36.65 35.36 36.86
45.49 46.46 46.77 45.99 46.41 47.26 47.35 45.66 45.06 44.02 44.98 45.45 45.60 45.28 45.11 44.22 43.97 42.83 42.51 41.93 42.16 41.59 41.44 40.11 40.82 40.83 39.98 40.10 36.20 35.67 37.10 37.53 38.16 37.68 38.34 39.60 35.05 33.97 33.74 33.86 36.03 36.30 37.51
44.28 45.32 44.94 44.82 45.88 46.53 46.01 44.53 43.42 44.61 44.20 42.38 39.68 38.19 39.11 39.41 40.72 40.49 40.59 40.24 40.24 39.16 38.62 39.24 38.76 40.32 40.46 36.57 36.36 34.82 34.07 34.33 35.71 35.40 37.94 39.25 36.01 34.99 34.04 33.46 32.95 33.00 32.64
44.55 44.98 44.26 43.54 44.48 45.18 44.61 42.36 41.38 41.38 40.40 40.17 39.59 39.38 39.51 39.62 39.76 39.62 39.27 39.39 39.10 37.83 36.81 35.59 35.69 35.82 36.48 36.69 33.32 32.28 31.32 31.53 33.01 34.44 34.98 33.28 33.00 34.02 33.62 32.72 32.31 31.74 34.30
43.93 43.90 42.25 40.50 39.58 40.76 40.73 40.63 40.31 40.52 39.61 38.44 37.96 38.05 36.64 37.15 36.94 37.70 36.16 35.47 34.41 33.43 32.53 32.49 32.36 33.08 33.51 33.92 30.93 30.74 31.47 29.60 30.05 30.60 33.72 32.68 31.24 32.21 33.39 34.32 34.74 34.66 35.41
42.36 42.07 40.45 38.94 38.01 38.85 38.53 39.16 39.30 39.13 37.15 36.24 35.14 34.67 34.23 33.80 33.90 33.56 33.00 31.77 32.59 29.81 29.43 30.21 30.12 29.64 28.87 26.95 26.03 26.49 27.73 28.63 27.70 27.74 30.95 31.27 32.83 31.81 33.98 34.36 34.21 34.13 33.48
40.77 39.86 38.88 37.52 36.44 36.26 35.90 35.68 36.95 37.02 35.40 33.28 32.39 31.57 32.48 32.75 32.42 31.91 32.49 26.99 26.95 26.41 26.11 25.81 27.03 27.51 25.00 23.05 23.58 24.60 24.64 24.68 25.54 27.56 30.45 31.68 32.23 31.64 32.00 33.36 33.28 33.15 32.30

GFSMW_sfc_wetblb_039.txt.gz
Wetbulb
59.00 60.40 59.83 60.32 60.13 60.77 59.97 60.61 61.25 62.84 63.44 62.45 61.50 60.85 59.87 62.23 64.34 66.10 65.53 65.88 65.32 64.12 64.20 63.21 61.85 61.07 59.49 58.76 57.76 56.36 54.43 53.51 55.21 53.31 54.16 53.43 52.48 51.53 51.30 51.35 50.55 50.03 50.05
58.40 59.59 60.47 60.09 60.37 60.64 60.93 60.81 61.28 62.30 63.66 64.09 62.58 61.67 62.22 62.92 64.12 65.47 65.67 65.74 65.35 63.90 63.48 62.87 61.06 60.29 58.92 57.93 56.87 55.60 53.57 54.95 55.05 52.37 52.29 49.80 50.39 50.67 50.74 50.93 49.89 50.11 49.76
57.80 59.12 59.92 60.94 60.90 61.25 61.94 62.35 63.16 63.08 64.52 64.87 63.79 62.54 63.48 64.08 63.56 63.71 63.79 64.63 64.57 63.26 62.55 61.72 60.56 59.72 58.81 56.64 56.49 54.98 54.68 53.67 54.35 53.59 50.68 47.72 46.46 48.93 51.01 49.75 49.69 49.51 48.61
59.67 59.58 60.67 61.07 61.46 62.06 63.87 63.64 64.18 64.27 64.74 65.53 63.65 62.24 61.38 61.15 62.81 63.37 63.40 63.29 62.71 61.82 60.54 59.73 60.06 59.36 58.19 57.06 55.89 54.66 55.26 53.84 51.80 53.25 52.32 51.35 49.32 45.08 44.19 49.12 49.13 49.13 48.24
59.77 59.98 60.91 61.95 63.15 63.42 64.03 64.75 64.23 64.40 65.62 65.58 65.93 64.02 62.43 63.11 64.13 63.17 62.60 62.37 60.24 59.99 59.08 59.50 59.29 58.40 56.69 56.88 55.97 54.54 54.15 52.72 51.45 51.39 51.01 50.36 49.63 48.88 44.98 43.24 46.11 48.17 48.06
59.42 60.19 61.73 62.83 62.81 64.19 64.95 65.62 64.18 63.88 64.97 66.33 65.51 64.70 63.39 62.88 62.99 62.37 60.97 60.13 59.73 59.10 59.19 58.32 57.93 56.59 54.54 54.74 54.16 54.35 53.07 53.27 51.85 50.20 50.51 48.37 46.87 46.52 46.11 44.27 44.37 44.18 46.13
59.31 59.71 60.09 61.04 62.86 63.71 64.68 65.16 64.19 63.94 64.98 65.42 65.42 63.37 62.04 62.78 62.52 61.99 60.26 59.27 59.42 58.64 58.11 54.43 52.30 52.51 52.60 54.36 54.66 53.52 49.92 50.80 49.75 50.68 48.48 49.22 48.42 48.07 46.00 44.06 42.84 42.29 44.53
59.56 59.74 59.93 61.80 62.95 64.16 65.14 64.81 64.39 64.15 64.89 64.56 63.95 62.42 61.24 60.78 61.91 63.13 61.16 60.15 59.76 57.45 52.70 50.57 50.94 51.62 54.03 54.22 52.53 49.64 51.39 50.71 50.42 49.27 48.70 48.77 48.49 47.60 46.23 44.25 42.45 39.80 41.10
58.90 59.76 60.31 60.86 62.73 63.93 65.45 66.66 65.14 64.76 64.79 64.49 62.26 61.81 62.08 61.82 62.52 61.94 61.69 60.35 55.73 51.38 50.27 50.59 50.41 52.32 52.92 50.26 50.34 49.90 47.51 49.22 49.71 48.85 50.00 48.49 47.68 47.39 46.74 45.87 44.07 41.19 36.92
57.44 58.63 60.32 61.35 62.32 63.80 64.96 67.43 66.73 65.36 64.82 62.94 63.68 61.76 62.10 62.91 63.00 62.48 60.61 58.22 54.41 52.98 52.07 51.69 51.60 51.69 50.47 50.11 50.37 47.35 48.76 47.86 48.72 49.53 48.22 47.30 47.34 46.58 46.03 44.66 44.27 43.12 40.64
57.51 58.48 59.40 60.69 62.00 63.59 64.48 65.33 66.23 65.96 64.53 64.07 63.95 61.37 61.58 61.76 61.80 61.27 59.86 56.67 54.56 53.75 52.90 52.79 51.80 49.38 49.11 49.69 48.39 46.92 46.02 47.16 47.77 47.16 45.97 45.88 46.53 45.05 44.94 44.98 44.38 42.76 41.95
56.49 59.24 60.49 61.14 61.44 62.20 63.24 64.27 65.24 65.65 65.81 64.98 63.30 61.91 62.88 62.04 60.98 60.42 59.24 57.60 55.97 55.31 54.29 52.12 49.64 48.61 49.30 48.13 44.83 43.02 46.06 45.11 42.91 43.54 44.44 44.40 44.79 44.49 44.81 44.47 43.31 43.17 43.00
55.86 59.03 60.85 61.51 62.20 62.61 63.05 63.82 64.48 64.88 65.51 65.47 62.79 62.37 61.51 60.89 60.16 59.16 58.01 56.59 55.58 54.20 52.48 49.85 48.91 48.76 46.74 45.17 44.30 45.02 43.74 43.77 43.80 43.76 44.54 44.39 44.45 43.86 43.23 44.48 43.65 43.33 42.35
54.81 57.34 60.07 61.54 62.59 63.11 63.43 63.64 64.12 64.93 64.90 64.60 64.11 62.23 58.94 58.08 57.39 56.01 55.09 53.69 53.07 52.22 51.23 50.38 48.30 46.02 44.69 43.62 43.13 43.69 43.71 44.47 43.08 44.34 44.37 44.07 43.95 43.07 43.77 43.94 44.01 43.44 42.46
54.01 55.84 59.12 60.83 61.59 61.91 62.25 62.72 62.43 62.45 61.80 60.57 60.45 59.36 58.05 57.15 55.37 53.75 52.99 52.85 52.30 51.00 46.05 45.30 43.67 44.03 43.36 42.96 42.55 43.20 43.75 43.80 41.76 42.68 43.83 44.76 43.73 42.00 42.05 42.98 43.54 42.94 41.59
54.96 56.48 58.59 60.23 60.32 60.59 61.00 60.31 59.63 59.36 59.59 58.68 57.98 57.15 56.84 55.99 55.15 54.48 52.78 51.68 47.04 45.70 43.34 42.73 41.98 42.60 41.37 39.48 39.80 40.46 44.47 42.50 40.91 40.72 42.91 43.98 42.20 42.49 38.74 38.63 38.20 39.47 40.87
55.31 56.54 57.77 58.62 58.87 58.84 58.83 57.42 56.78 57.12 56.41 54.96 54.12 53.46 52.76 51.39 50.20 48.56 46.70 44.79 43.81 44.40 42.43 43.08 41.85 41.72 42.04 39.17 38.88 38.02 42.57 39.74 39.24 39.55 41.18 42.70 42.89 40.83 43.10 39.84 36.93 36.37 35.76
54.52 55.12 55.53 55.61 56.21 56.43 55.81 55.51 55.09 54.27 53.33 52.35 51.58 51.47 50.43 48.76 47.57 46.64 45.27 44.32 44.19 43.48 41.85 41.98 42.00 43.43 43.54 38.79 38.52 37.00 38.70 39.67 42.06 42.38 41.86 41.89 42.11 42.26 41.33 41.99 41.45 41.86 41.46
54.16 54.19 54.44 53.97 53.94 53.68 53.73 52.92 51.88 51.39 50.49 49.49 49.15 48.95 48.55 47.49 46.73 45.68 45.24 45.09 44.68 44.35 44.05 44.57 43.54 42.52 42.97 38.43 37.79 37.84 41.51 40.01 39.81 40.64 41.01 40.82 40.78 39.08 38.08 38.96 39.21 40.09 40.53
52.42 52.17 52.41 52.39 51.96 51.79 52.01 50.60 49.61 48.97 47.95 48.08 48.06 48.41 48.25 47.47 46.28 44.87 44.20 44.47 44.29 43.26 43.72 42.64 41.82 40.15 42.81 38.57 37.72 37.51 39.35 37.72 38.27 39.22 39.96 37.26 38.19 35.88 35.68 38.33 37.62 36.34 38.32
51.21 51.53 51.40 50.74 50.74 51.28 50.81 48.91 48.27 47.06 47.71 48.08 48.07 47.61 47.20 45.85 45.23 44.92 44.68 44.43 43.65 43.41 42.53 41.33 41.98 41.42 40.40 40.20 36.15 35.26 36.73 35.45 33.57 34.31 35.69 37.52 35.36 35.29 35.12 34.79 36.71 36.33 37.65
49.33 50.45 49.67 49.36 50.28 50.52 49.50 47.78 46.82 47.82 47.63 46.81 45.42 44.35 43.83 43.09 43.85 43.11 42.22 41.42 41.53 40.68 40.46 39.85 39.96 41.22 40.95 34.68 32.48 32.53 31.43 30.95 31.61 31.35 33.54 34.11 32.21 31.30 31.90 33.18 33.91 34.30 33.47
49.35 49.80 49.01 48.14 48.79 49.18 48.75 46.62 45.71 45.45 44.42 44.00 42.62 41.74 41.65 41.53 41.97 41.30 40.75 40.55 39.92 38.55 36.84 35.82 35.69 35.96 36.75 37.02 32.23 30.85 29.60 29.62 29.81 31.41 31.07 29.68 29.73 30.49 31.31 32.54 33.19 32.84 33.75
48.80 48.97 47.59 46.56 46.25 47.19 46.50 45.41 45.05 44.47 43.07 41.39 40.89 40.67 39.98 39.15 39.27 38.97 37.65 36.89 36.05 34.73 33.60 33.03 32.81 33.07 33.24 33.41 29.71 27.92 28.37 28.25 28.82 28.63 29.54 28.13 28.29 29.58 30.00 30.60 32.85 34.24 32.86
48.29 47.55 46.24 44.71 43.51 44.04 43.31 43.45 42.99 42.51 40.31 39.41 38.50 37.74 36.92 36.81 36.03 35.41 34.40 33.52 30.96 29.72 30.17 30.35 30.20 29.30 28.24 26.72 24.07 24.08 25.21 25.96 25.61 25.53 28.01 29.82 30.28 30.26 31.13 32.14 33.23 34.17 34.31
46.64 45.53 44.43 43.04 42.20 41.75 41.33 41.53 41.60 40.75 38.52 36.39 35.88 35.51 35.21 34.96 34.80 34.16 31.65 27.51 28.14 26.52 26.08 25.21 25.92 27.11 24.34 22.61 22.32 23.24 23.53 23.63 24.54 24.86 26.64 27.57 27.46 26.39 26.57 27.11 29.04 30.68 29.86

GFSMW_sfc_wetblb_042.txt.gz
Wetbulb
57.30 59.22 57.74 57.21 56.81 57.38 55.38 55.86 54.74 55.69 57.40 58.16 58.72 59.25 57.66 59.20 60.30 62.55 63.14 64.07 63.58 63.09 62.19 61.57 60.27 59.39 57.95 56.30 55.71 53.21 50.40 48.58 50.14 48.42 49.81 48.94 48.98 47.64 46.98 47.23 46.76 46.62 46.90
56.77 57.21 57.45 57.65 58.23 57.09 56.85 58.04 57.50 59.02 60.35 60.63 59.39 59.69 59.09 59.29 60.93 63.06 63.92 63.89 63.41 62.71 62.05 61.36 59.36 58.78 57.05 56.39 54.08 52.78 50.28 50.61 50.80 47.79 47.44 45.09 44.76 46.26 47.54 46.29 46.67 44.87 45.80
56.48 57.05 57.44 57.97 58.33 56.77 57.20 58.09 59.45 60.29 61.27 61.81 61.49 60.51 60.39 59.48 60.03 61.27 62.75 63.25 63.35 62.66 61.40 61.38 59.41 58.29 57.46 54.93 54.29 52.92 50.94 48.73 49.53 49.49 46.44 42.74 40.71 42.59 45.44 45.84 45.04 45.06 44.10
57.36 58.21 58.07 57.44 58.06 58.88 59.25 59.40 59.88 60.28 61.54 62.63 62.33 59.44 58.19 57.61 60.17 61.34 61.74 62.33 63.06 62.44 60.76 60.30 59.06 58.42 57.04 54.72 54.00 54.17 52.29 50.75 48.40 49.55 51.27 48.47 44.69 39.81 38.41 43.34 44.43 45.28 44.88
57.61 57.81 58.52 59.06 59.09 60.20 60.33 60.69 60.77 61.44 62.07 62.49 62.95 61.42 59.24 60.64 62.37 61.47 61.55 61.23 61.22 60.47 60.41 58.31 57.21 57.29 56.71 56.26 53.50 52.32 52.27 51.84 47.56 49.46 48.92 47.49 45.19 44.51 40.58 37.51 40.75 43.17 43.74
58.19 58.77 59.91 60.55 60.42 60.64 61.08 61.70 61.59 62.07 62.75 63.08 62.99 62.11 59.67 60.75 60.86 60.34 59.39 59.61 58.42 57.88 57.97 57.61 57.22 57.07 56.43 54.24 52.64 51.90 52.04 49.23 47.90 47.29 46.68 46.69 44.19 41.72 41.18 39.33 39.79 39.27 41.41
57.90 58.47 58.67 59.46 60.48 60.59 60.69 61.60 62.01 61.65 62.75 63.06 63.15 62.87 62.22 61.57 60.39 59.69 59.81 58.80 57.00 56.90 57.03 57.26 56.28 54.85 53.62 52.75 51.32 51.92 51.04 49.38 46.46 46.77 47.31 45.97 46.11 45.96 43.98 40.13 38.12 37.04 40.12
58.25 58.55 58.83 59.88 60.40 61.32 61.64 61.65 61.52 61.26 62.12 63.00 63.11 63.13 63.01 61.65 61.45 61.01 60.21 58.68 57.85 57.81 57.91 57.08 53.19 51.78 51.65 51.21 51.25 51.63 49.73 48.52 47.40 47.49 45.89 45.31 46.01 46.05 43.22 40.55 38.14 35.44 36.40
58.06 58.74 59.29 59.68 61.20 61.73 62.23 62.46 62.47 62.15 62.48 62.62 63.63 62.80 62.60 61.90 61.23 60.54 61.05 59.02 58.57 57.08 54.09 52.84 51.20 50.60 51.23 50.96 49.42 48.11 48.11 47.19 46.54 46.36 45.51 45.89 46.11 45.33 43.85 42.33 41.17 37.50 32.70
56.66 58.44 58.44 59.51 60.76 62.59 63.56 63.79 63.37 61.91 63.29 63.44 64.05 62.96 62.55 60.82 60.10 60.80 60.36 59.44 57.48 53.14 52.12 51.20 50.39 50.11 49.85 49.11 48.21 48.05 47.39 46.17 45.70 45.53 45.99 45.01 45.48 45.22 43.18 42.10 41.61 40.69 37.72
57.83 58.01 58.70 59.71 60.54 61.41 62.51 63.71 63.88 63.79 63.27 63.50 63.42 62.58 62.03 61.10 61.43 61.27 60.75 59.86 53.89 53.30 51.78 50.98 50.11 49.36 48.70 48.22 47.35 46.27 45.94 44.85 45.10 44.59 44.02 44.31 45.33 44.29 42.28 42.00 41.40 39.69 38.39
56.74 58.47 59.45 59.86 59.66 60.19 61.93 64.11 64.72 64.28 63.58 63.50 63.33 62.57 61.28 60.30 59.85 59.76 59.69 56.10 54.15 53.17 52.51 51.54 50.33 49.76 48.48 48.03 46.30 45.59 43.56 43.93 42.86 43.15 43.86 44.28 45.05 43.26 41.45 40.58 38.68 38.03 37.51
55.17 57.47 59.33 59.94 60.54 60.77 61.38 62.94 63.99 64.31 63.30 63.38 62.61 61.94 59.58 60.19 59.59 59.24 57.60 55.15 53.98 53.11 52.68 51.26 48.95 47.79 47.82 46.20 43.86 43.45 43.91 43.19 43.47 43.61 43.43 43.20 42.67 41.45 40.01 39.79 39.13 38.81 41.17
54.44 55.72 58.43 60.00 61.12 61.58 61.78 62.16 63.14 63.93 63.29 63.27 62.02 60.34 58.79 58.04 56.24 55.19 54.42 53.96 53.59 51.82 50.05 48.21 47.72 46.64 44.60 44.06 43.19 43.44 42.46 41.98 42.74 43.57 42.80 43.25 42.68 40.85 39.67 39.75 38.43 39.82 39.48
53.99 54.84 57.20 59.69 61.14 61.90 62.22 62.65 62.87 61.85 62.31 62.02 59.62 57.70 57.27 56.29 54.87 53.91 53.28 52.33 51.54 50.79 47.94 45.61 43.79 43.19 42.77 43.21 43.04 42.72 41.94 41.65 41.88 42.65 42.16 42.70 42.02 42.02 40.80 40.96 39.03 37.32 37.01
53.09 54.28 56.17 59.95 60.53 61.06 61.21 61.28 59.65 60.05 60.20 59.12 56.64 57.22 56.68 55.30 54.77 53.34 52.23 50.08 47.53 44.68 43.42 42.56 42.05 41.69 41.85 39.22 40.54 41.38 41.45 41.75 41.44 40.22 40.68 41.60 40.96 40.97 39.16 38.91 38.65 38.55 37.08
54.63 56.18 57.02 59.52 60.07 60.41 59.94 58.66 58.42 58.82 57.87 55.48 55.04 55.49 54.72 53.01 50.50 48.58 46.63 44.20 43.01 42.62 41.68 41.60 41.94 40.89 41.72 39.35 39.38 38.44 40.04 40.26 39.39 37.89 39.34 39.25 41.47 40.08 39.15 38.08 36.93 35.82 36.26
55.18 56.60 57.98 58.40 58.66 58.72 57.92 56.81 56.75 55.23 53.74 52.81 52.03 51.69 50.24 48.15 46.62 45.65 43.92 43.09 42.54 41.40 41.48 40.95 41.22 40.82 41.49 38.51 38.47 37.18 38.62 39.00 39.41 39.21 38.97 37.79 36.79 37.18 36.94 36.19 34.99 35.83 36.77
55.64 56.09 56.57 56.78 56.21 55.02 54.84 53.89 52.85 52.19 51.23 50.11 49.88 49.32 48.23 46.35 45.43 43.79 42.99 42.66 42.31 41.64 41.14 41.66 42.19 42.35 40.40 38.25 38.02 37.95 37.73 37.80 35.89 37.87 37.06 36.74 35.72 36.10 36.53 33.99 32.75 33.59 34.83
55.24 54.46 54.42 54.00 53.25 52.96 52.52 51.03 49.77 49.16 48.10 48.20 47.99 48.11 47.49 46.51 45.05 44.64 44.27 44.10 44.06 43.15 42.81 41.89 41.40 40.30 40.63 38.62 37.29 36.65 33.06 32.14 30.58 32.47 33.87 34.07 34.02 34.20 32.90 28.54 27.80 27.73 30.16
53.14 53.13 52.45 51.19 51.18 51.40 50.63 48.57 47.91 46.82 47.83 48.08 47.85 47.48 46.73 44.73 44.16 43.59 43.67 43.21 42.52 41.70 39.63 39.22 38.70 39.33 35.69 33.35 33.24 32.38 29.58 27.43 27.27 27.68 28.22 28.72 32.15 31.96 30.81 30.63 26.72 26.39 28.38
51.29 51.51 50.29 49.74 50.32 50.51 49.34 47.40 46.17 47.41 47.55 46.90 45.97 45.06 44.25 44.09 44.39 43.17 41.79 41.41 39.93 37.53 36.11 35.02 34.50 35.09 32.19 32.11 31.57 29.75 28.87 29.00 26.23 26.21 27.09 27.86 29.94 29.27 30.05 29.19 29.95 30.90 30.06
49.91 50.78 49.51 48.71 49.28 49.61 48.70 46.30 46.18 46.62 45.24 43.99 43.10 42.87 42.37 42.01 41.47 39.57 38.68 37.98 37.36 34.18 31.51 30.85 31.17 31.15 31.25 29.84 28.80 27.63 27.21 27.55 25.37 26.33 27.15 27.18 27.13 27.74 27.68 30.46 31.74 29.91 29.26
49.34 49.72 48.63 47.61 47.24 48.25 48.08 46.24 45.29 44.83 43.82 41.42 40.03 39.67 38.55 38.24 38.09 36.95 36.17 34.72 31.71 30.59 29.95 29.61 28.56 28.57 28.63 24.54 23.71 23.53 23.11 25.31 24.84 24.30 23.24 23.64 25.30 25.94 26.11 26.57 26.55 27.14 28.45
48.89 48.84 47.39 46.59 46.30 46.36 45.09 44.97 44.63 43.32 40.84 39.48 38.40 36.63 35.87 35.15 33.41 29.87 30.87 28.42 26.76 27.56 28.01 26.80 27.19 24.77 23.47 21.76 22.38 22.29 22.05 21.37 22.86 20.96 22.16 23.04 23.75 22.92 22.83 22.84 23.47 23.92 24.13
48.19 47.33 46.86 45.27 44.41 43.91 42.82 42.74 42.55 41.29 38.64 36.43 34.78 33.05 32.92 32.21 33.01 29.87 27.36 29.25 27.45 26.87 26.18 25.53 25.46 24.70 23.40 22.22 22.49 22.81 23.29 23.61 24.18 21.34 20.31 17.30 17.44 19.31 20.07 19.41 19.66 20.50 20.74

GFSMW_sfc_wetblb_045.txt.gz
Wetbulb
54.06 52.84 52.89 52.78 52.45 52.61 53.19 52.92 52.51 53.20 52.72 52.86 51.66 51.88 52.61 54.69 57.28 57.94 61.30 58.98 58.83 61.50 61.04 59.97 58.20 57.18 56.15 54.43 53.00 50.63 47.96 46.03 47.19 45.93 46.32 46.22 45.60 44.75 44.56 44.72 44.31 45.06 45.13
53.86 53.00 52.24 52.55 52.04 52.27 52.75 52.53 52.09 52.38 52.87 54.02 54.29 54.69 55.33 57.62 58.13 60.29 60.30 60.35 60.37 60.99 60.49 58.89 57.38 56.56 55.91 53.86 52.19 49.75 47.51 46.78 47.46 45.55 44.79 42.58 43.13 44.24 44.46 43.57 44.04 42.69 43.73
53.59 53.84 52.35 52.04 52.95 51.79 52.32 52.50 52.81 53.06 53.34 54.72 56.90 57.34 56.41 54.80 56.03 58.07 59.53 60.40 61.93 61.54 60.78 59.36 58.03 57.14 55.63 53.44 51.30 50.72 48.69 45.79 47.04 46.85 45.11 40.62 39.12 40.76 42.84 43.13 42.72 41.88 42.01
54.74 54.59 53.65 53.93 54.23 53.82 53.63 54.14 54.03 54.30 55.05 57.79 58.12 56.39 55.82 54.71 55.57 57.07 60.05 60.91 61.50 60.98 60.30 59.09 57.76 57.68 57.37 54.08 52.47 52.65 50.91 50.64 48.68 47.72 48.31 45.92 43.14 39.19 37.62 41.56 42.47 42.17 42.42
54.54 54.25 54.23 55.32 55.50 55.15 54.75 55.60 56.44 56.28 57.97 58.74 58.95 58.17 55.86 55.96 56.41 57.26 58.96 59.60 59.80 59.71 59.41 58.31 56.99 56.04 55.19 54.03 53.44 52.47 51.76 51.15 49.34 47.95 47.12 46.60 45.03 42.62 41.20 36.68 39.36 41.50 42.04
54.99 54.89 56.10 56.44 55.86 55.36 55.13 55.50 56.19 57.34 58.71 59.16 59.38 59.21 56.97 55.98 57.12 57.47 58.38 57.61 58.72 57.36 58.78 57.44 55.73 55.22 54.95 53.93 53.45 51.93 51.08 50.29 49.89 47.86 46.72 45.91 44.20 43.80 41.69 37.77 38.12 37.76 39.58
54.90 55.02 54.66 54.94 55.51 55.92 55.39 55.72 56.11 56.41 57.86 58.20 59.31 59.34 58.86 58.01 58.19 58.46 57.75 57.40 56.72 56.40 56.34 56.51 55.17 55.37 54.11 53.48 51.61 51.06 50.88 49.95 47.76 47.03 46.35 46.02 45.29 45.31 43.94 41.07 36.86 37.56 37.48
54.84 55.35 55.99 55.89 55.57 56.18 57.08 57.08 56.94 56.85 58.06 59.12 58.96 60.01 60.17 59.72 58.61 58.87 58.50 58.48 57.96 57.58 56.70 55.56 55.01 55.11 54.38 52.24 50.59 51.44 50.22 49.76 48.63 46.47 46.27 44.89 45.30 45.12 43.59 40.70 38.13 34.20 34.54
54.12 55.03 56.62 57.02 57.08 56.78 57.09 57.97 58.38 58.68 59.49 59.54 60.38 60.36 60.71 59.67 58.89 58.21 57.81 58.09 56.94 55.79 55.17 54.93 52.85 52.04 52.16 50.76 50.17 50.05 49.69 48.19 46.89 46.50 45.08 44.77 45.62 44.39 43.52 42.39 41.18 37.02 30.93
54.39 54.91 55.48 57.35 58.22 58.74 58.79 58.46 59.29 59.19 59.75 60.11 60.68 60.69 61.06 59.22 58.74 58.19 57.14 56.16 55.43 53.80 53.54 52.44 51.62 50.06 50.30 49.84 49.21 48.18 48.13 46.87 45.98 45.82 44.55 44.60 44.39 44.73 44.99 43.88 41.55 40.18 35.52
51.21 52.76 54.89 56.81 57.01 59.72 60.08 59.51 59.44 59.77 60.00 60.01 60.61 61.01 60.42 59.44 58.11 57.94 57.14 56.92 53.20 52.10 51.80 51.17 49.56 49.63 48.94 48.69 47.85 47.76 46.56 45.21 44.43 44.60 44.13 44.22 44.85 44.36 44.13 43.12 41.76 39.18 38.13
51.53 52.56 54.09 54.83 54.95 57.76 59.33 59.91 60.52 60.38 60.38 60.44 60.82 61.32 60.14 59.09 58.47 58.29 58.12 57.28 54.17 52.71 51.64 50.95 50.17 49.33 48.66 47.63 47.20 45.99 45.46 44.98 43.46 43.63 43.63 43.49 44.88 43.37 41.60 40.54 39.73 37.36 36.88
49.95 52.96 53.79 54.55 55.02 55.05 58.55 59.94 60.68 60.73 60.97 60.71 61.23 60.07 59.30 59.15 59.00 58.47 56.46 53.52 52.55 52.38 51.84 50.78 49.76 48.70 47.82 46.73 46.22 44.20 43.55 43.41 43.49 43.32 43.36 42.95 42.65 39.99 39.18 38.34 37.17 36.91 40.14
49.96 52.15 53.30 54.79 55.80 56.53 57.14 59.91 60.58 61.17 60.98 61.12 60.78 58.94 57.75 57.87 56.36 54.96 54.07 53.09 53.25 51.63 51.03 50.03 48.80 47.99 46.65 44.96 43.97 43.54 42.79 42.70 42.82 43.39 42.94 42.90 42.49 41.27 38.50 38.43 37.44 37.88 38.19
49.26 50.67 53.12 54.48 55.82 56.34 57.36 58.82 58.70 60.16 60.58 60.45 58.13 55.70 54.24 54.44 53.66 53.67 53.15 52.92 52.12 50.57 48.64 47.21 45.97 44.58 43.51 43.31 43.16 42.75 42.14 41.54 41.42 41.92 42.77 42.25 41.51 40.71 39.96 39.83 38.60 35.77 34.78
48.99 50.07 54.93 56.69 57.76 57.92 57.58 57.32 57.18 56.95 58.77 56.96 55.90 55.11 54.20 53.53 53.27 52.64 51.44 50.46 48.11 46.48 44.92 43.08 43.02 41.99 42.47 39.47 40.46 41.22 41.09 41.04 40.73 40.45 40.45 40.87 39.86 39.62 38.65 38.59 38.41 37.82 36.56
49.35 50.28 53.31 57.08 57.68 57.20 56.73 55.43 55.85 56.21 55.16 55.05 55.27 54.71 54.36 53.28 51.33 48.39 46.05 44.27 43.10 42.31 41.59 41.43 41.32 41.00 41.34 39.28 39.54 39.18 40.53 40.23 39.34 39.34 39.02 39.56 40.19 38.12 36.54 34.75 34.41 33.90 35.21
51.24 52.10 55.13 55.36 56.05 56.05 55.57 55.49 54.35 52.31 52.44 52.05 51.75 50.86 48.34 46.07 44.86 44.34 43.04 41.90 41.19 39.94 37.90 38.63 39.43 40.33 40.55 38.60 38.37 36.88 38.60 38.61 39.22 39.23 38.13 34.71 33.09 33.34 33.20 30.90 29.25 29.94 31.25
51.45 52.37 53.20 54.18 53.34 53.44 53.05 52.13 50.96 50.00 49.32 48.23 47.49 46.31 45.06 43.07 41.82 40.49 39.68 39.41 39.36 38.89 38.45 39.14 38.62 37.86 37.30 37.75 37.85 38.30 38.64 37.30 32.60 33.92 32.51 31.94 30.81 33.92 32.77 28.50 26.58 25.65 25.41
51.39 51.20 50.98 50.88 50.71 49.14 50.03 48.79 47.40 47.11 46.45 46.24 45.51 45.13 44.27 42.67 41.30 40.32 39.83 39.60 39.14 39.13 40.12 40.33 40.59 39.54 38.94 36.76 36.77 35.39 29.64 28.35 26.55 27.92 29.63 31.21 30.51 31.71 31.37 26.89 25.02 23.74 24.48
50.11 49.76 49.67 48.63 47.22 47.79 47.75 45.40 44.41 43.89 45.08 45.67 45.50 44.84 43.99 42.68 42.33 41.66 41.40 40.88 40.46 40.87 38.74 36.77 36.27 33.47 31.74 31.01 32.20 30.51 26.14 25.68 26.05 25.86 25.38 25.70 29.29 28.99 28.76 28.86 26.03 26.00 28.17
48.52 48.17 47.01 46.46 45.99 46.42 46.00 43.63 43.18 44.84 44.88 44.36 43.14 42.39 41.94 42.50 42.24 41.17 40.26 40.02 38.11 35.67 32.52 30.81 29.30 28.66 28.57 29.84 29.29 28.87 27.75 27.09 24.78 24.58 24.62 24.77 26.91 27.52 28.48 28.23 29.39 28.28 26.51
46.56 46.92 46.09 44.87 45.27 45.47 45.40 43.05 42.43 43.62 42.79 42.19 41.54 41.46 41.82 41.87 41.09 37.79 35.60 35.33 34.68 31.28 28.99 30.20 28.52 26.39 25.77 24.12 26.04 26.02 25.93 25.71 23.42 24.38 24.21 25.06 25.98 26.77 26.15 27.46 26.62 24.55 23.81
44.72 44.90 44.88 44.15 43.02 44.57 44.44 43.35 43.00 42.77 41.83 40.58 39.56 38.00 35.72 34.88 32.99 34.01 32.54 30.04 27.75 27.22 27.42 27.49 26.58 25.97 22.51 21.19 21.05 22.16 22.34 23.75 23.06 22.77 21.50 21.77 23.65 22.96 22.82 23.45 23.59 23.01 22.34
44.64 44.88 43.40 42.67 41.77 42.97 42.35 42.50 42.42 41.89 38.67 36.86 35.24 33.78 31.22 28.93 28.37 29.00 27.18 25.22 25.84 27.26 25.60 25.34 26.32 23.56 21.09 21.51 22.22 22.32 22.69 19.42 22.83 17.74 16.58 19.34 20.54 20.64 20.88 20.88 20.91 20.06 19.35
44.07 43.78 42.60 41.62 41.17 41.07 40.70 40.47 39.83 38.40 35.31 33.01 31.70 29.76 29.20 27.75 27.46 26.88 25.34 27.78 27.46 27.53 27.85 27.57 25.10 24.11 23.57 22.64 22.84 22.99 23.41 24.04 24.81 18.56 15.11 12.48 10.65 15.48 17.79 17.26 16.97 16.66 15.99

GFSMW_sfc_wetblb_048.txt.gz
Wetbulb
51.16 51.69 52.18 52.22 51.57 52.98 53.87 54.23 54.33 53.74 54.19 53.76 52.85 52.70 52.77 54.15 54.47 54.03 55.39 57.05 58.72 60.52 59.41 58.86 58.31 56.39 55.25 54.93 53.44 49.84 47.30 45.40 46.31 45.46 45.26 45.45 44.75 43.52 43.09 43.97 43.88 46.33 48.55
50.26 51.00 51.15 50.88 51.62 51.86 52.87 52.54 52.72 52.39 53.29 53.47 53.40 53.70 53.14 53.51 53.74 54.24 55.51 58.05 57.68 58.46 60.33 59.25 58.11 56.27 54.92 53.35 51.87 49.52 46.37 45.75 46.15 44.28 44.03 42.59 43.63 43.73 43.63 42.55 43.26 42.26 44.96
50.27 50.23 50.64 50.62 50.69 51.23 51.77 52.08 52.24 51.74 51.94 52.60 51.92 51.88 51.59 52.38 52.61 54.00 55.54 57.92 58.00 57.92 59.69 59.42 58.05 56.36 55.61 54.21 53.08 49.48 48.36 47.49 48.37 47.74 45.93 41.28 41.23 40.31 41.92 42.61 42.21 41.78 40.76
52.34 51.04 50.82 50.48 50.25 51.29 52.39 52.25 52.09 51.96 52.42 53.17 52.00 51.61 51.55 51.02 53.45 54.30 56.48 57.88 58.88 59.50 59.88 59.52 57.98 56.81 56.07 54.15 53.61 51.54 48.94 48.35 47.64 48.10 48.55 46.83 43.89 40.68 38.39 41.54 41.97 41.54 41.00
53.13 51.32 50.70 51.18 51.65 51.54 51.38 52.15 52.32 52.21 52.81 53.12 53.56 53.62 54.42 55.90 54.52 54.27 55.55 58.09 58.45 59.16 59.44 58.90 57.22 56.71 57.68 55.26 52.32 50.63 50.45 50.58 50.07 48.69 47.55 46.62 44.92 44.04 40.91 38.44 39.07 40.58 41.59
53.80 53.75 52.22 52.41 52.11 52.09 51.42 51.47 51.70 52.15 52.85 53.03 53.88 55.30 55.75 55.11 53.49 54.17 55.51 56.76 58.78 59.14 58.83 58.34 58.08 57.52 57.20 55.18 52.66 51.82 50.66 50.96 48.88 48.67 47.59 47.16 45.64 43.48 40.96 39.46 39.61 40.14 39.94
52.58 54.11 52.39 52.50 52.73 52.58 51.59 52.00 52.24 52.16 53.39 53.82 54.67 56.10 56.97 55.90 54.22 54.92 55.62 56.32 57.31 56.83 58.05 57.97 57.27 56.17 55.30 53.60 53.20 52.30 50.44 50.08 49.44 48.92 47.54 47.82 46.77 45.06 44.06 42.14 39.93 38.14 39.18
52.42 53.50 53.82 53.70 54.46 53.74 53.43 52.55 53.06 53.92 54.21 54.97 55.92 56.95 57.26 58.28 57.00 56.46 57.00 57.35 57.56 57.26 58.43 57.72 56.18 54.94 55.10 53.15 51.68 51.54 50.91 49.69 49.29 48.25 47.84 47.06 45.45 45.20 43.97 41.71 39.67 35.71 36.33
52.57 53.84 54.33 54.61 54.88 54.52 53.74 53.20 53.37 54.60 55.14 55.65 56.76 57.28 58.30 58.45 58.43 57.99 57.33 57.87 57.56 56.11 55.15 56.09 54.55 53.82 53.97 52.09 50.00 50.42 50.15 49.63 48.57 47.68 46.46 44.86 45.48 44.65 43.46 42.84 41.24 37.22 35.19
52.55 54.38 54.81 54.67 55.53 55.82 55.73 54.69 54.49 54.35 55.42 56.41 57.06 57.37 57.58 58.35 58.73 57.70 57.38 57.60 57.01 55.66 54.58 54.22 53.99 52.46 51.38 51.53 49.79 49.51 49.57 48.61 47.26 46.48 44.62 44.51 45.03 45.07 44.91 44.42 44.18 41.98 38.75
52.72 53.53 55.03 55.93 55.93 56.05 56.31 56.21 56.13 56.31 56.35 57.40 57.88 58.19 58.92 58.98 59.08 58.56 58.20 57.82 56.31 55.12 54.78 54.01 52.12 51.22 50.93 50.49 49.44 48.43 48.09 46.88 45.00 44.92 44.94 44.60 44.85 44.45 44.14 43.90 43.12 41.06 39.83
50.75 53.67 53.82 55.86 56.03 56.07 56.25 56.32 57.12 57.15 57.69 58.27 58.92 58.97 59.66 58.26 58.29 58.18 58.36 57.52 56.35 54.76 54.44 52.77 51.18 50.99 49.80 49.33 48.26 47.39 47.19 45.38 43.47 44.32 44.11 43.87 45.44 43.50 43.13 42.22 40.90 39.78 38.23
49.15 50.97 52.28 54.25 55.83 56.28 57.05 57.15 57.28 57.60 58.52 59.08 59.04 59.05 58.80 58.40 58.67 59.13 59.95 60.21 55.43 53.74 53.09 52.31 50.81 49.79 49.11 47.98 47.72 47.24 45.50 44.67 44.16 44.00 43.73 43.87 43.23 41.44 40.76 39.54 38.15 36.73 38.44
47.66 50.41 51.26 54.06 54.98 54.80 56.41 57.78 58.10 58.48 58.67 59.11 59.07 58.82 59.33 58.87 59.07 59.50 59.29 57.52 54.58 52.77 51.74 51.17 50.63 49.63 48.47 47.25 46.07 44.37 43.67 43.70 43.64 43.95 43.68 42.88 42.53 41.51 40.29 39.09 36.45 37.75 34.63
47.68 49.15 51.00 52.75 53.21 53.88 55.41 56.18 57.65 57.90 59.21 59.13 59.02 59.05 59.35 59.48 58.12 56.83 54.15 53.04 52.36 52.03 50.56 49.75 48.98 47.56 46.09 44.87 43.67 43.40 43.02 42.89 42.50 42.69 42.81 42.92 42.38 41.07 39.21 37.64 36.72 34.66 34.23
48.37 48.41 52.28 53.04 54.59 56.39 57.04 57.03 57.33 58.49 59.41 59.01 59.06 59.32 57.39 56.89 54.95 54.27 53.45 51.87 50.40 49.77 48.06 47.46 45.21 43.67 43.13 39.72 40.46 42.07 42.02 41.73 41.24 40.51 41.18 41.20 40.83 39.99 37.84 35.91 35.27 33.76 30.23
47.26 47.29 51.83 54.76 55.94 56.90 56.67 55.87 56.59 58.21 58.93 59.12 57.70 55.67 55.41 54.83 53.61 52.08 50.32 48.45 47.63 46.68 43.96 43.24 42.78 42.26 41.97 39.04 39.69 39.11 40.98 40.31 39.85 39.53 39.69 39.59 38.41 35.08 32.88 33.01 32.14 31.61 32.72
47.29 47.22 52.68 54.87 55.48 55.02 54.65 54.05 55.02 54.91 55.37 55.31 54.74 54.15 52.44 50.52 49.65 48.76 46.15 45.04 45.16 44.55 42.69 41.45 41.72 41.80 41.21 38.50 38.51 37.52 38.85 38.72 38.89 38.15 34.93 33.73 30.65 32.05 30.25 28.14 26.68 26.14 26.33
48.11 49.72 53.41 54.14 54.03 54.49 54.02 52.07 52.08 52.40 51.84 50.87 50.39 49.40 48.44 46.39 45.76 44.24 44.04 42.59 41.11 40.25 39.75 40.07 39.91 39.59 38.48 37.86 37.10 38.06 37.96 35.39 33.34 32.64 31.93 30.26 28.85 31.12 31.20 27.04 25.10 24.59 25.76
51.14 51.93 51.88 52.41 52.79 51.34 50.88 49.40 48.00 47.87 46.50 46.16 46.76 46.38 45.03 43.57 40.95 39.58 38.88 39.20 39.56 38.54 38.14 37.15 36.75 37.08 36.55 36.99 37.42 36.08 32.89 28.64 26.37 27.67 27.79 29.85 28.34 29.42 28.65 25.07 23.59 24.05 24.69
51.04 50.54 51.77 51.62 49.56 49.29 49.09 46.71 46.31 45.01 45.15 44.36 43.43 42.54 41.94 40.56 39.86 38.95 38.60 38.32 38.41 38.40 37.05 34.78 33.30 32.84 33.95 33.42 33.55 31.94 26.79 26.84 26.39 25.58 25.23 25.47 27.25 27.46 28.21 29.23 25.80 25.67 24.71
48.05 48.81 48.04 46.94 45.88 47.46 46.84 44.58 43.42 44.06 44.41 43.39 42.42 41.49 40.84 40.96 40.60 39.53 39.09 39.42 38.99 35.03 32.57 30.10 27.87 27.17 27.44 29.99 29.98 29.34 27.80 26.84 25.48 24.68 24.93 24.85 26.18 27.33 27.93 26.82 26.69 25.63 24.24
46.36 46.53 45.81 43.53 43.25 44.15 45.23 42.74 41.68 42.80 42.17 41.61 40.81 40.63 40.93 40.61 40.28 38.99 37.36 37.02 35.30 32.84 29.58 28.11 25.29 23.63 23.90 24.67 26.98 26.86 26.27 25.07 23.79 24.42 23.92 24.53 25.38 25.80 25.79 25.21 24.67 22.92 21.60
44.40 44.43 43.96 42.49 41.08 42.38 42.63 42.12 42.20 42.20 41.23 39.83 39.45 38.48 36.25 32.86 32.47 32.27 32.81 32.04 29.12 29.07 29.64 27.70 25.19 23.13 22.37 21.93 22.89 22.87 23.05 23.80 23.34 23.20 22.95 22.46 23.67 22.83 23.12 23.31 22.82 21.64 20.14
43.95 44.13 43.15 41.86 40.48 41.32 41.12 41.60 41.38 40.98 38.19 36.03 32.51 29.73 29.62 28.78 26.03 25.48 26.18 26.61 27.53 27.98 27.91 27.26 26.72 22.58 21.65 22.14 23.45 23.29 22.83 22.69 23.37 21.04 18.95 20.29 20.05 19.59 19.66 19.97 19.50 18.68 17.93
43.25 42.24 41.00 40.14 39.67 40.27 39.61 38.77 38.38 37.17 33.93 30.77 28.71 27.32 27.06 26.29 25.09 24.66 24.61 28.46 28.96 29.36 28.72 27.52 25.51 24.59 24.35 24.03 23.34 23.31 23.66 24.20 24.65 20.72 16.62 13.21 10.55 14.49 17.16 16.23 15.53 15.38 14.58

GFSMW_sfc_wetblb_051.txt.gz
Wetbulb
51.02 50.99 52.19 53.29 53.18 54.09 54.15 55.59 54.99 55.08 55.63 55.01 54.47 53.97 53.97 53.92 53.95 54.20 55.78 56.45 57.28 59.36 58.76 57.92 57.42 55.42 54.44 53.64 52.79 49.51 47.73 45.62 45.15 44.63 44.21 44.06 43.62 43.25 42.74 44.01 45.82 46.88 48.25
49.21 50.32 50.21 51.80 51.88 53.11 53.47 54.43 54.60 54.70 55.13 55.64 56.10 55.45 54.78 54.16 54.28 54.23 54.63 55.80 57.17 57.21 58.08 57.66 57.22 56.11 53.90 53.12 51.85 49.20 46.00 45.47 45.79 44.07 43.56 42.20 44.09 43.45 42.92 41.79 43.57 43.07 46.51
49.24 49.54 49.95 50.54 50.26 51.47 51.25 53.14 53.20 53.35 53.61 54.32 54.98 53.35 53.23 52.70 51.26 52.74 52.70 54.39 56.61 56.42 57.85 58.35 57.42 56.15 54.58 53.65 52.36 49.91 47.87 45.86 46.71 46.34 45.15 41.90 40.93 42.46 43.37 43.53 43.46 42.21 41.48
51.74 49.88 49.53 49.07 49.34 50.38 51.84 51.88 52.03 51.79 51.69 52.72 51.79 50.80 51.45 50.76 51.89 51.72 51.95 52.97 55.39 56.59 56.35 57.58 57.80 56.43 55.57 54.13 53.53 52.91 49.92 49.46 45.12 45.93 47.04 46.77 45.18 41.65 39.71 42.75 43.99 42.78 40.95
52.09 50.04 49.64 49.88 50.01 50.76 51.12 51.50 51.86 51.94 51.63 51.48 50.95 49.28 49.43 49.78 50.66 51.24 51.66 52.96 55.38 56.89 57.94 57.86 57.40 57.04 56.11 55.22 53.97 52.08 50.65 50.82 49.43 48.11 45.47 46.17 44.41 44.62 42.40 40.81 42.28 42.03 41.34
52.58 51.69 51.12 50.80 50.14 49.82 50.41 50.96 51.08 51.29 51.65 51.64 51.56 50.73 50.38 51.26 51.49 52.22 52.77 53.87 55.23 56.64 57.25 57.77 56.90 56.41 56.33 55.75 55.04 53.79 52.20 50.59 49.82 49.55 48.47 47.31 45.96 42.09 42.15 40.54 41.06 40.54 42.14
52.63 52.04 50.15 49.73 50.30 49.62 50.02 50.42 50.75 50.68 51.54 51.29 51.56 51.85 51.62 52.50 53.35 53.39 53.37 53.99 54.65 55.76 57.38 56.85 56.03 56.13 56.86 56.85 56.53 53.80 52.06 50.67 50.20 49.25 47.36 48.36 47.43 46.11 44.60 42.20 40.05 40.00 40.34
52.52 52.70 51.87 50.57 50.51 50.71 49.83 50.08 50.62 50.72 51.31 51.25 51.31 52.15 53.30 54.56 55.42 55.26 54.67 54.07 54.70 55.69 56.91 57.84 57.84 57.70 57.46 57.53 55.77 54.62 53.62 51.89 50.58 49.18 48.96 48.35 47.76 46.12 44.35 42.32 40.67 37.45 34.74
49.67 52.76 53.63 51.75 51.38 51.56 51.36 50.15 50.55 51.01 51.47 51.59 51.81 51.95 52.80 54.01 55.26 56.52 55.71 55.38 55.44 55.79 55.45 57.97 57.22 57.23 56.19 55.23 53.16 52.56 50.91 50.51 49.94 49.18 48.30 47.33 46.14 44.96 42.46 42.47 41.38 38.98 35.10
49.52 51.06 53.71 53.26 53.11 53.17 53.18 51.97 51.68 51.56 51.92 52.26 52.54 52.84 53.74 55.25 55.95 56.83 56.91 56.06 56.87 55.83 54.65 56.03 55.47 54.63 54.20 52.72 50.68 49.51 50.40 49.81 48.97 48.38 47.06 44.91 45.03 44.69 44.96 44.55 44.07 42.88 40.59
51.06 51.10 52.75 54.35 54.28 54.71 54.18 53.46 52.06 52.46 53.35 54.07 54.03 53.60 54.38 55.73 56.48 56.91 57.31 57.33 56.74 56.75 56.01 55.41 55.19 54.36 52.51 51.53 49.88 49.30 49.51 49.08 47.71 46.32 45.40 44.67 45.27 43.75 44.40 43.14 43.45 42.07 40.72
51.10 51.82 53.06 54.15 54.05 54.22 54.90 53.89 53.75 52.82 53.13 54.20 55.05 55.01 55.44 56.36 56.48 56.78 57.72 57.90 57.64 56.75 56.69 56.23 55.31 54.34 52.76 51.63 50.05 48.52 48.65 48.19 46.12 45.20 44.62 44.02 44.82 44.00 43.61 42.63 41.43 40.47 39.62
47.24 49.73 51.69 53.62 53.69 54.31 54.74 54.84 54.61 53.95 54.18 54.28 54.43 55.12 55.77 56.53 56.93 57.85 58.46 58.59 58.26 57.68 57.23 55.19 53.91 52.68 51.83 50.89 49.15 48.89 47.58 46.43 45.52 44.88 44.29 44.11 44.12 42.50 41.04 39.86 39.04 38.60 38.95
47.06 48.04 49.65 51.78 53.93 54.43 54.61 54.87 55.25 55.70 55.59 55.57 55.19 55.16 55.87 57.17 58.39 58.62 58.37 58.41 58.39 57.66 54.10 53.17 53.10 53.04 50.61 49.87 48.73 48.60 46.24 45.02 44.38 44.61 44.43 44.44 43.27 41.40 40.38 39.92 38.90 37.96 36.89
45.61 47.55 49.18 50.81 52.38 53.93 54.60 55.49 55.53 55.73 56.42 56.24 56.22 56.19 56.77 57.76 58.07 57.84 58.23 58.63 57.66 55.93 53.80 51.37 51.62 49.64 49.50 48.21 47.79 45.47 44.19 43.87 43.25 43.54 43.58 42.87 42.74 41.31 40.30 39.33 36.79 34.20 34.73
47.37 46.91 50.62 51.07 51.98 53.08 53.88 54.92 55.87 56.20 56.65 56.03 56.28 57.31 57.49 57.52 57.36 57.56 58.35 56.11 53.82 53.49 52.28 51.63 50.44 48.28 47.67 41.30 40.98 42.97 43.36 43.29 42.59 41.65 41.72 41.85 41.57 39.00 36.82 36.15 34.91 32.22 28.46
48.51 47.39 47.70 51.54 52.27 53.05 53.55 53.84 54.77 55.42 56.19 56.58 56.79 57.15 57.56 57.61 57.42 56.27 53.43 52.87 51.45 49.76 47.94 46.32 47.07 46.19 43.50 39.39 40.22 40.02 42.48 41.81 41.31 40.80 40.49 39.39 37.06 34.92 33.31 32.34 31.10 30.30 30.89
48.05 46.93 46.21 51.00 53.71 54.01 54.29 53.48 55.09 55.75 56.11 56.30 56.29 57.08 57.44 56.75 53.78 52.29 50.65 48.19 47.38 46.12 44.79 44.32 43.87 44.29 41.87 38.68 38.69 38.04 40.37 39.89 39.20 38.56 37.62 33.50 32.10 30.94 29.32 27.15 26.05 26.00 26.20
48.86 47.87 46.16 50.62 52.92 53.61 52.75 53.08 55.26 55.21 55.29 55.28 54.46 53.94 53.34 51.01 50.31 47.98 46.53 45.22 44.13 43.52 43.66 42.86 43.75 41.82 39.60 37.80 37.35 38.59 38.30 35.35 32.86 32.59 32.00 31.32 29.42 30.73 30.26 26.40 24.84 24.98 26.30
45.87 48.18 50.84 52.10 53.17 51.37 52.65 52.44 53.25 53.58 52.71 51.74 50.62 50.19 49.53 48.92 46.70 45.44 43.59 43.46 42.80 41.46 40.26 38.58 39.29 38.63 38.57 36.80 37.10 36.45 34.25 30.43 29.07 28.83 28.72 29.65 28.30 28.27 27.78 25.29 24.71 24.51 24.67
48.44 50.09 51.72 52.38 51.92 50.40 50.97 48.92 48.24 48.99 48.41 48.90 47.24 46.24 45.76 44.37 43.03 40.59 40.46 39.70 39.51 38.64 35.39 32.56 33.10 34.49 35.90 35.76 35.66 34.42 31.67 29.63 27.58 26.40 24.34 24.75 26.72 27.10 28.36 28.43 25.95 24.21 22.85
48.93 49.97 49.19 47.23 47.57 48.37 48.55 45.66 44.16 43.94 43.90 42.50 42.08 41.48 40.89 40.65 40.22 39.75 39.36 38.84 37.09 34.17 31.21 29.52 27.98 28.40 29.47 30.93 31.13 30.53 29.32 28.69 25.90 25.05 24.48 24.60 26.21 27.49 27.77 25.56 25.37 24.04 22.96
46.17 46.91 46.44 44.00 44.26 45.50 46.26 43.51 42.15 42.49 41.38 40.73 39.84 40.21 40.22 39.12 38.43 37.32 36.80 34.62 33.33 32.80 30.33 28.52 26.13 24.70 24.89 26.97 28.18 27.36 26.68 25.94 24.49 24.78 24.38 25.02 25.93 26.54 25.05 24.47 23.63 22.23 20.28
44.13 43.53 43.53 42.42 41.03 42.39 42.54 41.78 41.93 41.73 40.77 39.21 38.35 36.32 33.75 31.74 31.41 32.13 33.60 32.22 31.27 31.60 29.59 27.36 24.53 22.97 21.58 21.90 22.47 23.43 23.63 24.41 23.80 23.41 23.67 23.31 24.43 23.48 22.82 22.42 21.54 20.08 18.92
43.11 43.17 42.11 40.44 40.22 40.73 40.64 41.10 40.99 40.62 36.90 33.55 32.29 30.42 28.86 27.65 27.06 27.96 29.27 28.82 29.68 31.86 29.00 26.44 24.55 21.61 21.06 22.13 23.80 23.72 23.01 23.19 23.76 22.44 22.25 20.53 19.98 19.28 19.34 18.95 18.41 17.58 17.08
41.98 41.29 40.21 39.63 39.30 38.80 37.51 38.17 38.83 36.56 33.14 30.22 29.36 27.77 26.36 26.10 26.12 25.58 25.47 29.52 30.08 30.23 29.76 28.65 26.63 25.52 25.07 24.77 24.76 24.66 24.41 24.85 24.92 21.61 18.09 15.28 14.52 16.24 16.98 15.78 15.18 15.22 14.64

GFSMW_sfc_wetblb_054.txt.gz
Wetbulb
50.66 50.62 51.74 52.41 53.15 54.03 55.31 55.01 56.22 56.64 56.28 55.70 55.70 55.68 54.70 53.78 53.72 55.56 57.87 58.57 59.31 59.61 57.99 57.85 57.04 56.06 54.38 54.17 51.98 49.86 48.09 46.47 46.05 44.65 44.64 44.54 43.77 43.75 43.26 44.92 47.76 48.72 49.30
48.36 50.00 50.57 52.53 52.47 53.30 54.54 55.21 55.23 56.02 56.64 56.02 56.51 56.92 56.02 55.11 54.91 54.31 55.31 56.74 57.42 58.59 58.82 57.60 56.80 55.21 54.27 53.04 51.26 49.53 46.77 46.80 45.57 44.01 43.49 42.34 44.34 44.47 44.86 43.12 45.16 45.48 47.15
48.19 48.96 49.38 51.12 51.80 52.73 52.81 54.64 54.54 55.48 55.98 56.63 55.80 55.01 55.37 54.38 53.73 53.55 52.61 54.65 56.52 56.81 57.67 57.66 56.72 55.49 54.15 52.77 51.56 49.91 48.13 46.04 45.52 46.20 46.53 41.35 41.28 42.48 43.40 43.18 42.59 43.57 43.89
50.13 49.17 48.88 49.91 50.93 51.99 52.26 53.23 54.02 53.83 54.40 55.85 54.72 54.74 54.13 52.76 53.98 53.18 53.03 53.32 55.76 56.42 56.53 57.47 57.20 56.20 55.17 53.47 52.84 51.91 49.52 48.55 46.92 47.60 47.80 46.67 45.10 42.34 41.82 42.19 44.49 44.09 44.01
50.88 49.13 49.09 49.27 50.73 50.35 50.96 50.28 52.94 53.18 53.09 53.52 53.90 54.53 54.73 54.49 54.16 51.96 51.87 52.62 53.34 55.83 56.48 55.29 55.37 55.81 55.34 54.87 53.92 52.77 50.44 50.98 49.88 48.99 47.41 46.61 45.13 43.69 43.54 42.78 42.79 42.17 43.69
51.30 50.87 50.05 49.68 49.19 49.80 50.63 50.32 50.72 51.41 51.40 50.80 51.00 51.19 51.77 50.72 50.92 50.71 50.63 50.63 51.83 52.92 54.93 55.57 55.33 55.71 55.09 54.45 53.53 52.68 52.01 51.84 51.22 50.95 50.03 46.88 45.78 43.98 43.33 42.66 42.35 41.70 42.97
51.00 50.90 48.68 48.68 48.61 48.70 49.64 50.65 50.61 50.73 51.41 50.39 50.32 49.72 50.25 50.56 50.22 50.57 50.82 50.67 51.40 52.29 53.32 53.79 54.01 54.29 54.99 54.95 54.91 54.21 53.88 52.84 51.98 51.51 50.57 50.14 48.54 47.71 45.47 43.74 42.49 42.08 41.92
51.04 51.63 50.35 49.46 49.20 49.31 49.50 50.23 50.62 50.54 51.09 50.81 50.60 50.82 50.32 50.76 51.45 51.75 51.97 52.36 52.81 52.92 53.35 54.50 55.23 54.79 55.47 55.33 56.24 55.90 55.01 54.02 53.12 52.06 51.41 49.96 48.58 47.42 45.37 44.39 42.18 38.35 38.04
49.60 51.69 52.05 50.53 50.04 49.71 49.67 49.68 50.31 50.72 51.12 50.97 51.06 50.88 51.31 51.33 51.26 52.38 53.40 53.70 53.54 53.99 53.23 54.73 56.28 56.72 56.78 56.56 56.58 56.44 55.64 53.70 52.97 52.06 50.29 49.20 48.30 47.19 45.55 43.39 42.99 41.88 37.62
47.92 51.04 52.49 51.69 51.16 51.14 50.66 50.58 50.69 50.32 50.94 50.81 51.04 51.08 51.19 51.69 52.25 52.52 53.56 54.11 54.54 53.27 53.21 53.42 54.95 56.22 57.09 57.30 57.02 56.06 54.20 51.68 50.57 50.56 49.23 47.70 46.33 45.43 43.27 43.50 43.44 43.09 40.93
46.64 48.30 51.94 53.15 52.09 51.68 51.31 51.10 50.60 50.69 50.58 51.56 51.48 51.25 51.21 51.42 51.92 52.94 53.70 54.68 54.91 54.54 54.38 54.48 54.91 55.59 55.25 55.30 54.22 54.45 52.55 51.51 49.87 49.41 48.48 46.88 45.25 44.35 44.64 44.59 43.81 42.70 41.90
49.14 48.61 49.24 51.77 52.14 51.37 51.83 51.79 51.09 50.37 51.13 52.07 52.03 51.54 52.29 52.42 52.27 53.00 54.66 55.25 55.72 56.40 56.64 56.48 56.08 55.77 54.67 53.79 53.12 51.94 50.68 50.21 48.31 47.44 46.68 45.30 45.13 44.43 44.20 43.73 42.38 41.78 41.13
45.78 48.27 48.63 50.42 52.46 52.40 52.63 52.73 52.45 51.36 51.86 52.43 52.21 52.76 52.64 52.81 52.86 54.14 55.25 56.10 56.20 56.55 56.65 56.92 56.02 55.87 55.06 53.30 52.75 52.90 51.20 49.95 48.31 46.76 46.14 44.84 44.64 43.42 43.11 42.13 40.32 39.55 39.50
45.01 46.62 48.89 50.83 52.18 52.95 53.23 53.74 53.57 53.64 52.93 51.92 51.97 52.12 52.82 53.62 53.80 54.70 55.22 55.86 56.96 56.58 57.23 56.04 56.46 55.63 54.91 53.79 52.69 51.56 50.16 48.50 46.99 47.06 46.21 45.04 44.67 43.56 41.71 40.45 39.63 38.55 37.29
45.44 45.56 47.54 49.39 52.02 52.38 52.91 53.76 54.18 54.09 54.13 52.96 52.22 51.82 52.67 53.59 54.21 54.97 55.78 56.21 56.91 57.01 57.31 57.15 56.38 54.83 53.57 51.88 50.98 49.93 48.58 46.92 45.84 45.24 44.84 44.96 44.14 41.87 41.18 40.34 37.96 36.73 35.12
46.17 46.25 46.81 48.58 48.83 51.94 52.74 53.21 53.86 54.41 54.57 53.60 53.12 53.49 53.11 53.33 53.64 54.72 55.51 56.56 57.09 57.31 57.53 55.82 54.88 52.05 51.15 44.90 43.70 47.02 46.52 45.57 45.01 42.93 42.76 42.52 41.52 39.46 38.38 37.44 35.97 35.18 32.10
46.12 46.47 46.54 47.92 50.68 51.02 52.66 52.78 53.64 54.18 53.84 54.11 54.31 54.40 54.57 54.30 54.61 55.39 56.63 56.82 56.90 56.84 53.78 52.55 51.75 51.09 50.69 43.96 41.28 41.56 44.41 43.78 43.12 41.92 41.33 40.33 37.59 35.72 34.00 33.14 32.39 31.06 31.52
46.23 46.59 47.08 46.86 48.94 51.10 51.85 53.02 52.51 53.30 53.84 53.78 53.86 54.21 54.50 55.07 55.27 56.66 56.50 55.87 53.13 51.47 50.08 47.42 48.47 46.15 42.46 40.12 39.36 39.51 42.07 41.20 40.92 40.67 38.29 35.00 32.37 32.14 31.06 29.37 27.99 26.79 26.75
45.94 46.46 46.30 45.43 47.03 49.82 51.04 51.99 52.40 52.49 53.07 53.83 53.93 53.85 54.10 54.63 53.35 52.28 50.48 49.41 47.06 46.32 45.41 44.40 43.88 43.16 39.74 38.46 38.25 39.22 38.52 36.03 34.07 33.84 33.62 32.19 30.91 31.70 31.29 27.53 26.12 25.42 26.55
45.12 45.67 44.38 47.55 49.11 50.59 52.51 52.91 53.46 53.32 53.47 53.39 52.52 52.32 51.90 50.60 49.17 46.82 45.36 44.51 44.50 42.30 40.90 39.95 41.12 38.95 38.00 37.28 37.44 36.90 34.28 31.29 29.73 29.68 30.27 30.75 29.40 29.28 28.47 26.51 25.45 25.12 24.72
45.84 46.43 48.34 49.06 50.40 50.26 51.76 52.19 53.48 51.74 49.11 48.81 48.38 48.98 48.37 45.96 43.98 41.93 42.27 41.70 39.89 37.23 35.25 33.61 34.18 36.18 36.90 35.96 36.02 35.32 32.96 30.27 28.36 26.83 26.07 26.70 27.87 28.76 29.65 28.30 26.50 24.40 23.38
46.98 48.66 47.83 47.26 46.64 48.57 48.53 48.14 46.41 46.31 46.38 46.08 44.60 42.66 41.71 41.56 41.22 40.24 39.42 37.92 35.75 33.15 31.42 30.07 29.13 29.58 30.43 32.28 33.04 32.33 31.10 30.65 27.90 26.16 25.15 26.25 28.19 28.83 28.20 26.06 25.57 23.84 22.22
44.93 45.08 44.23 43.57 44.13 45.94 46.68 43.01 41.36 43.20 43.58 41.71 40.46 40.16 39.47 39.14 39.60 38.08 36.39 34.99 34.12 32.59 31.14 30.20 27.16 25.65 27.13 27.74 29.13 29.18 28.73 27.63 25.58 25.59 25.52 27.03 27.94 27.27 25.58 25.09 23.82 21.90 20.07
44.35 44.48 43.31 41.57 40.15 41.60 42.30 42.29 42.10 42.23 41.89 38.62 37.17 36.32 34.76 33.57 33.60 33.79 34.03 33.87 32.86 30.92 29.76 27.98 25.60 24.51 24.21 24.44 24.86 24.94 24.80 25.04 24.84 24.51 24.70 24.81 24.64 23.53 23.10 22.61 21.56 19.92 18.96
42.98 42.26 40.65 39.58 38.88 40.47 40.52 41.38 41.82 39.21 35.08 33.63 32.28 31.59 31.07 30.51 29.33 28.77 29.44 30.08 31.39 32.19 30.35 28.61 26.37 23.91 22.56 22.87 24.35 24.36 23.61 24.20 23.88 23.20 22.71 21.60 20.90 20.27 19.91 19.41 18.69 17.79 16.97
38.40 37.11 35.80 34.51 33.67 33.62 33.74 35.81 36.72 35.86 33.81 31.32 30.08 29.18 29.17 28.44 28.21 27.71 26.94 30.59 30.77 30.05 29.13 28.18 26.61 25.55 25.82 26.15 26.02 25.82 25.61 25.27 24.69 22.05 19.16 16.59 17.12 17.52 17.66 16.43 15.66 15.85 15.07

GFSMW_sfc_wetblb_057.txt.gz
Wetbulb
54.33 54.55 55.15 56.16 55.92 56.64 57.10 56.35 57.14 57.40 57.90 56.88 56.94 57.40 57.08 57.81 59.47 60.17 60.75 60.54 60.49 59.95 59.90 60.20 59.47 59.06 58.34 58.28 58.00 56.56 54.94 53.09 52.55 50.97 50.57 50.98 51.34 51.71 52.05 53.12 54.51 54.85 55.19
52.85 53.42 54.35 55.04 55.05 55.40 55.45 56.72 57.06 57.82 57.57 57.50 57.89 58.64 57.38 55.89 59.31 60.69 60.55 60.71 60.87 60.21 60.64 60.19 60.11 59.31 59.03 58.72 58.20 57.13 55.27 55.10 52.73 52.03 51.75 50.69 51.61 51.78 52.17 52.12 51.44 53.94 53.22
51.91 51.76 52.25 53.68 54.88 54.71 56.00 56.06 56.59 56.89 57.96 58.55 58.27 58.08 57.40 55.47 55.29 56.29 58.19 59.70 60.74 61.06 61.00 61.10 60.93 60.14 59.69 59.25 58.88 57.96 56.38 54.30 52.76 53.79 54.69 50.02 50.26 52.00 52.20 51.58 50.88 49.85 51.24
53.32 52.45 51.37 51.92 53.23 55.12 56.52 56.95 56.98 56.52 57.23 57.77 57.43 55.84 55.61 53.60 56.53 55.74 55.49 56.71 58.23 58.70 60.38 59.93 59.82 59.25 59.14 59.06 58.86 58.27 57.24 56.33 54.68 52.48 52.56 53.62 53.46 50.26 49.54 47.31 51.74 51.04 47.65
53.58 52.85 51.92 52.64 54.13 55.20 54.94 56.41 56.25 55.87 56.63 57.21 58.22 56.63 54.87 55.76 56.30 55.34 53.96 55.95 57.12 58.04 58.00 58.15 58.78 60.09 59.92 60.30 59.22 58.06 56.77 56.82 56.18 54.59 53.40 51.97 48.36 49.39 50.60 49.03 47.82 48.56 47.61
53.70 54.18 54.14 53.74 53.68 54.72 54.58 55.18 56.24 54.86 55.49 56.04 56.37 56.34 55.25 54.68 53.66 54.03 53.54 53.34 54.36 56.01 56.60 56.31 56.68 59.01 60.48 60.59 60.59 60.18 58.63 57.52 57.02 56.45 53.37 50.14 47.90 47.75 48.01 48.39 49.91 50.57 50.77
53.60 53.90 52.85 52.20 51.82 51.42 52.61 53.88 55.09 55.25 55.32 55.59 56.41 56.67 55.96 55.94 54.57 54.23 54.30 54.30 53.22 54.66 56.02 57.77 57.65 59.38 59.96 59.78 60.28 59.85 59.37 58.94 58.18 57.72 55.52 51.65 50.42 51.43 49.68 48.90 47.64 50.06 49.89
53.65 54.47 54.08 53.50 52.54 52.09 52.71 53.25 53.98 54.72 55.41 54.87 54.78 55.95 57.31 57.00 57.23 57.10 56.96 56.86 55.72 56.31 58.62 57.68 58.36 58.57 59.15 59.54 59.89 60.22 59.87 59.56 58.96 57.99 55.35 53.64 53.68 54.52 52.08 51.19 46.43 42.71 43.35
53.15 54.45 54.60 54.21 53.70 53.31 53.23 53.56 54.03 54.80 55.28 55.37 55.51 55.16 55.66 55.99 56.07 57.11 57.37 57.42 57.63 57.24 57.29 57.63 58.51 59.14 59.17 59.49 59.75 59.90 59.53 59.00 58.41 56.34 56.00 54.57 54.75 53.92 51.61 52.28 50.79 49.95 44.77
52.79 54.23 55.17 54.33 54.64 54.50 54.14 54.19 54.74 54.50 55.12 55.46 55.84 55.35 55.39 55.45 55.95 56.47 56.39 56.79 57.40 57.59 57.55 57.52 58.48 58.85 59.02 59.26 59.30 59.94 59.57 57.79 57.43 56.52 55.07 54.72 54.25 52.36 50.74 49.89 50.82 49.06 48.30
52.82 53.39 55.39 55.76 55.09 55.03 54.18 53.71 53.87 54.15 54.63 54.97 55.49 55.80 55.55 55.95 56.06 56.00 56.31 56.85 57.80 57.62 57.00 57.12 57.45 57.68 58.57 59.54 59.64 59.62 58.19 56.58 56.20 57.31 56.16 56.79 55.21 51.33 48.71 48.34 49.02 45.68 46.95
52.45 53.27 54.44 55.94 55.25 54.39 54.17 53.77 53.79 53.83 54.60 55.34 55.51 55.55 55.94 55.76 55.72 55.70 56.39 57.00 56.90 58.05 57.83 58.23 57.80 58.11 58.71 58.33 58.55 57.44 56.97 55.85 54.65 54.95 53.70 54.17 51.59 51.15 49.43 45.89 46.03 45.26 46.94
50.16 52.85 52.39 54.33 55.36 55.19 54.64 54.36 54.46 54.53 54.78 54.54 54.61 54.92 54.76 54.56 54.08 54.00 54.87 55.36 56.15 56.50 58.15 58.57 58.61 57.86 57.76 56.74 55.31 56.25 55.75 54.83 54.25 53.38 51.95 52.28 50.02 47.76 47.80 45.72 46.55 45.14 41.30
50.12 50.64 52.45 53.33 54.89 55.46 55.17 55.11 55.48 55.44 55.11 54.52 54.70 54.50 54.77 54.67 54.61 55.20 55.19 55.14 55.80 55.87 57.26 57.76 58.42 59.02 58.59 57.23 55.62 54.65 54.67 54.27 52.71 52.20 52.09 51.08 48.35 46.90 45.73 44.97 42.68 40.53 42.02
50.30 50.06 50.62 53.53 54.58 54.85 55.77 55.94 55.98 56.19 55.92 54.62 54.62 54.60 55.45 55.70 55.89 56.08 56.20 56.48 56.68 56.00 57.19 57.66 57.36 58.18 58.29 57.62 57.51 55.45 54.18 52.71 51.04 50.44 49.39 49.53 46.93 44.32 44.40 42.97 40.88 39.84 38.22
49.91 51.07 51.07 50.73 52.77 54.58 55.23 55.99 56.20 56.77 56.73 55.63 54.53 55.54 56.03 55.77 55.89 56.26 56.29 56.79 57.28 57.53 57.81 58.05 57.36 57.34 56.90 49.07 45.81 50.90 53.38 52.62 50.86 47.22 46.74 44.92 43.71 40.90 39.41 39.32 38.64 39.68 37.04
49.49 50.34 50.86 51.70 52.47 53.73 55.10 55.80 56.86 57.15 56.52 56.26 56.07 55.99 55.80 55.40 55.66 56.01 56.18 56.58 56.98 58.08 58.08 57.76 57.55 56.93 57.45 44.90 44.54 44.17 51.66 49.36 47.65 44.61 43.69 42.17 40.15 37.89 36.12 34.63 33.89 32.86 32.09
48.93 50.19 51.04 52.27 53.07 53.95 54.77 56.24 56.54 56.65 56.47 56.11 55.95 56.03 56.12 55.43 55.61 55.31 55.45 56.67 57.69 57.83 56.92 56.31 56.21 55.25 52.83 43.45 43.63 41.64 45.93 44.25 43.35 42.73 41.29 38.12 35.82 34.43 33.18 30.97 29.03 28.63 28.45
49.18 48.72 50.45 51.24 52.04 51.78 53.84 54.53 55.11 56.23 55.63 55.68 55.99 56.14 56.41 56.14 56.35 56.11 56.40 57.22 53.66 50.66 48.38 47.44 47.13 46.17 42.42 41.03 39.40 41.38 40.89 38.59 37.31 37.49 37.18 35.00 32.83 32.99 33.25 30.33 27.98 27.27 28.05
50.10 49.29 49.43 49.18 49.75 51.14 52.95 53.52 54.09 54.83 55.21 55.63 56.12 56.39 56.52 56.37 55.62 54.53 51.95 47.22 47.06 43.44 42.83 41.27 41.56 39.36 39.46 37.69 38.15 38.55 36.26 33.52 32.41 31.62 31.84 32.68 32.17 31.76 31.41 29.64 28.17 26.62 27.62
49.36 51.08 51.94 50.86 51.42 52.95 54.31 53.80 54.72 53.90 52.91 53.61 53.47 52.12 51.81 48.93 46.70 44.51 43.85 42.31 39.89 37.70 35.61 33.97 35.66 37.66 37.77 36.71 36.66 36.36 34.59 31.77 30.36 29.45 28.35 29.03 29.91 29.78 29.36 29.09 28.73 27.66 27.62
48.30 48.88 49.29 48.71 50.06 52.36 54.14 52.39 48.28 48.73 48.76 47.15 45.20 44.08 43.97 43.41 42.76 42.00 40.96 38.33 36.49 33.64 32.35 31.28 30.56 31.36 32.91 34.29 34.45 33.91 32.75 31.93 29.20 26.83 27.10 28.50 30.05 30.24 28.40 27.21 26.01 24.62 24.76
46.88 47.26 46.88 45.65 44.77 46.95 49.99 46.49 44.66 45.06 43.98 42.56 41.26 40.86 40.50 40.37 39.90 38.13 36.67 35.06 34.46 33.03 31.74 30.41 28.69 27.60 28.71 30.30 31.71 31.17 30.01 28.96 27.18 26.95 27.95 29.04 29.58 27.52 26.55 25.87 24.11 23.38 23.50
43.77 44.77 44.15 42.44 41.53 42.60 43.52 44.15 43.77 43.40 41.42 38.87 37.93 36.88 35.58 34.72 34.97 35.08 35.24 33.89 32.56 31.70 30.61 29.24 27.52 26.21 25.87 25.68 26.18 26.40 26.73 26.64 26.69 27.07 27.99 27.87 26.32 26.21 25.39 24.23 23.28 22.90 22.09
37.48 38.28 38.35 37.58 36.82 37.74 37.44 38.71 39.77 39.55 37.81 36.21 35.04 33.84 32.77 31.73 30.31 29.98 31.22 31.10 31.32 32.91 31.44 29.35 27.99 26.31 23.79 24.31 26.08 25.44 24.96 25.41 25.48 26.16 25.90 24.92 24.67 23.60 23.17 22.45 21.41 20.89 20.54
31.76 32.46 32.01 31.47 31.13 32.71 33.64 34.18 35.99 36.81 35.29 33.61 32.90 32.14 31.58 31.22 30.13 28.48 27.66 30.28 29.96 29.77 29.33 28.50 27.47 26.73 27.14 27.51 27.56 27.21 26.31 25.82 25.15 24.43 23.44 22.83 22.66 22.10 21.43 20.65 19.86 19.54 17.51

GFSMW_sfc_wetblb_060.txt.gz
Wetbulb
59.55 59.04 59.07 60.26 60.50 59.97 59.76 57.92 58.26 58.19 58.46 56.99 57.09 57.83 57.75 57.81 58.67 59.17 60.71 61.87 61.94 62.45 62.28 61.81 62.05 62.42 61.68 61.49 61.18 59.91 58.86 57.52 57.59 54.82 54.45 54.79 56.35 56.11 55.86 56.96 57.32 57.86 58.16
58.48 58.03 58.58 59.42 59.18 59.72 59.68 57.96 57.55 58.00 57.77 58.81 57.51 58.38 59.49 59.48 58.92 58.82 59.24 61.37 62.65 62.16 61.68 61.42 61.49 61.59 61.67 61.77 61.14 60.22 59.20 58.65 57.40 56.05 56.74 53.50 54.33 55.22 55.99 56.42 56.45 57.50 57.80
58.25 57.98 57.88 58.49 59.11 58.13 57.22 59.78 59.45 57.89 57.81 58.18 59.04 58.42 58.57 57.13 57.94 58.23 57.75 59.41 62.64 63.04 61.75 61.15 62.38 62.06 61.70 61.13 61.39 60.96 59.85 58.02 58.53 58.94 58.13 55.25 53.72 57.56 57.62 56.43 56.47 56.09 56.76
59.36 58.90 58.40 58.34 58.53 59.25 59.34 59.78 59.58 59.52 58.97 59.20 57.88 58.09 55.45 55.73 56.30 58.63 59.16 60.55 61.83 62.14 61.96 60.99 62.50 62.59 62.39 61.39 62.10 61.92 60.81 60.84 58.65 58.21 58.17 59.74 58.57 55.05 53.43 56.51 55.19 55.98 51.93
59.27 58.73 58.72 58.84 59.05 59.61 58.91 58.39 59.36 59.18 58.30 58.60 58.61 57.23 56.24 55.96 56.68 57.64 59.24 60.60 60.37 61.39 61.43 61.27 62.67 62.70 62.67 62.42 62.42 61.51 60.23 60.74 59.87 59.11 58.79 57.53 57.64 56.02 53.06 50.72 53.41 52.85 54.07
58.89 59.46 59.61 59.41 58.83 59.58 59.62 58.08 57.56 58.12 57.98 58.01 58.45 57.82 57.13 55.96 55.65 56.52 56.47 56.96 58.83 60.25 61.06 61.49 62.56 62.62 61.53 60.27 58.27 60.59 61.67 61.60 60.92 60.91 60.15 58.64 56.38 55.39 53.44 49.07 50.10 51.66 53.63
58.45 58.96 58.72 58.30 58.80 58.32 58.76 58.37 56.52 56.59 58.26 57.89 58.19 58.78 59.39 58.21 55.46 55.65 56.53 57.41 58.86 59.10 59.23 60.44 61.43 60.57 60.19 59.56 59.04 60.74 62.36 62.44 61.26 61.04 60.15 59.95 59.05 59.34 55.74 50.97 49.58 51.15 51.39
58.42 59.11 59.21 59.05 59.13 58.42 58.53 58.19 57.96 56.70 57.09 58.03 57.91 59.13 60.30 59.43 56.02 56.81 57.01 56.76 57.06 58.63 58.22 57.60 60.52 60.53 59.14 59.62 62.08 61.30 61.00 61.53 61.51 61.39 61.47 61.04 60.95 60.34 57.36 54.28 49.44 47.13 50.28
58.12 59.03 59.81 59.76 59.62 58.84 58.29 58.00 58.25 59.06 58.75 58.06 58.47 58.55 60.16 60.03 59.74 59.14 58.04 57.92 59.50 57.45 56.97 57.33 58.36 60.20 60.70 60.57 60.99 61.29 60.73 61.63 61.75 61.42 61.68 61.42 61.42 59.99 58.24 54.87 53.32 50.30 47.59
57.71 59.04 60.03 59.91 60.20 59.91 59.07 58.68 58.89 58.86 59.96 60.01 60.27 60.25 60.70 60.53 60.82 61.26 60.43 60.12 61.19 60.90 59.68 58.90 59.09 59.71 60.11 60.38 60.38 60.93 61.36 61.34 61.92 61.55 60.86 61.12 60.88 60.35 58.35 56.02 52.54 52.02 51.70
57.76 59.18 59.93 60.36 60.69 60.80 59.92 58.93 58.55 58.68 59.40 59.93 60.10 60.07 60.01 60.47 60.86 60.43 61.21 61.20 61.82 61.36 60.75 60.52 60.08 59.62 59.91 60.74 60.91 60.83 60.69 60.47 61.34 61.89 61.59 59.79 57.57 56.51 55.11 54.08 53.40 51.80 51.26
56.01 58.70 60.03 60.52 59.86 60.18 60.08 59.39 58.99 58.75 59.09 59.86 60.03 59.80 60.20 60.08 59.76 60.01 60.18 61.99 61.26 61.82 61.49 61.05 60.89 60.49 60.71 61.57 61.04 60.93 60.06 60.38 60.61 60.81 59.67 58.39 55.82 55.94 54.53 51.92 50.20 51.06 52.32
55.35 57.83 58.68 59.66 59.98 60.07 60.05 59.82 59.56 59.18 59.39 59.13 59.18 59.39 59.44 59.76 59.76 60.07 59.97 60.22 60.17 60.72 60.47 60.68 60.76 60.66 60.78 60.75 60.69 60.25 60.32 60.67 58.84 57.79 57.68 56.33 54.90 53.07 52.15 50.23 50.52 50.04 47.47
54.98 55.52 57.65 58.34 59.58 60.16 60.25 60.03 59.95 60.09 59.92 59.06 58.73 58.95 59.48 59.83 59.93 59.88 59.95 60.32 59.87 59.07 59.12 60.28 60.16 59.95 60.51 59.83 60.19 59.68 59.91 58.53 56.89 55.69 55.56 56.21 54.47 53.44 52.16 50.44 49.73 46.62 43.79
54.39 55.33 55.55 56.80 58.59 59.19 60.29 60.33 60.44 60.27 60.35 59.25 58.51 59.09 59.60 59.47 59.35 59.25 59.38 59.45 59.46 59.18 59.18 59.37 59.85 60.28 59.10 59.45 60.42 59.19 59.09 56.96 56.10 57.03 55.29 54.65 53.01 49.66 50.66 48.16 46.65 44.83 41.82
53.62 55.05 55.68 55.99 56.11 58.22 59.55 60.30 60.19 60.19 60.25 59.30 59.04 59.24 59.24 59.02 58.80 58.81 58.83 58.91 58.86 58.42 58.63 58.84 58.81 59.34 59.11 50.48 46.69 53.38 60.05 57.62 56.30 55.48 53.92 54.34 47.24 46.47 42.39 42.35 41.67 43.06 41.68
52.26 52.93 53.78 54.61 55.80 56.92 58.01 59.52 60.76 61.22 60.10 59.38 59.22 59.12 59.12 58.79 58.82 58.81 58.54 58.30 58.42 58.81 58.61 59.32 59.25 59.53 60.55 47.33 45.16 44.98 58.10 56.58 55.72 54.81 52.24 47.77 45.73 43.56 41.41 36.78 34.88 34.24 35.62
53.09 54.11 54.06 54.80 55.39 56.39 56.79 58.68 60.11 60.90 60.51 59.88 59.37 59.42 59.15 58.72 58.93 58.72 58.23 58.65 59.16 58.95 59.21 59.42 59.69 58.22 58.05 46.41 44.79 43.89 53.53 55.11 52.88 50.76 47.35 44.77 41.14 40.03 37.13 35.30 32.28 31.88 32.28
53.78 54.08 55.62 55.61 55.29 55.41 55.62 56.13 57.20 58.97 59.87 59.70 59.89 60.05 59.40 58.90 58.63 58.01 58.42 58.77 59.02 59.05 59.08 59.01 59.19 58.98 57.23 44.07 43.34 43.28 45.20 42.12 39.60 40.48 40.05 39.00 36.13 35.56 35.42 31.23 29.63 28.32 28.75
53.93 54.15 55.37 56.52 56.79 55.84 56.37 55.26 56.39 57.52 57.87 58.93 59.78 60.54 60.16 59.04 58.99 59.28 58.83 58.99 58.88 57.11 48.98 42.70 43.33 40.16 42.98 38.98 40.39 42.84 40.16 35.66 34.17 34.23 35.18 34.84 34.54 33.06 33.25 32.46 31.04 28.07 27.14
52.28 53.32 54.48 54.12 53.47 54.94 56.24 56.32 56.80 56.53 57.94 58.86 59.18 59.27 59.76 59.45 59.54 57.68 53.50 48.63 42.62 38.98 36.62 34.92 35.64 36.84 37.69 37.16 37.20 37.06 35.54 33.12 31.85 30.95 30.96 32.00 32.63 32.40 32.44 31.77 30.71 29.35 29.06
50.32 50.98 50.85 49.73 47.64 49.15 54.22 55.06 51.82 52.55 54.24 52.80 50.29 48.50 48.30 46.56 46.51 44.81 41.71 40.64 38.42 35.17 33.48 32.41 31.30 32.40 33.51 34.29 34.35 33.82 33.37 33.06 30.45 29.01 29.69 30.49 31.18 30.75 29.70 28.04 28.00 27.67 28.27
46.02 47.40 46.22 43.19 42.71 43.16 45.20 45.04 44.34 44.87 43.96 42.45 40.90 40.06 39.80 39.90 41.24 40.69 39.47 38.56 36.85 34.43 32.38 30.75 29.58 28.43 29.44 30.44 31.53 31.27 30.54 29.89 28.80 29.55 30.65 30.19 29.39 28.14 26.67 26.12 25.60 26.27 27.17
39.97 41.36 40.26 36.00 34.86 37.22 38.36 39.86 42.57 41.54 40.59 38.15 36.21 35.45 35.22 34.15 34.65 35.63 35.56 34.18 33.25 31.94 30.93 29.34 27.40 26.66 26.56 26.66 27.90 28.02 28.54 28.75 28.94 29.51 28.78 27.92 27.45 27.35 25.03 24.84 25.66 26.08 25.71
35.30 35.46 34.56 32.38 31.87 32.93 33.54 36.27 38.42 37.88 35.48 34.43 33.42 32.61 31.70 30.49 29.34 29.31 30.82 31.06 31.86 32.63 30.14 28.84 27.93 25.82 24.54 26.20 28.20 27.45 26.96 27.02 27.20 27.51 27.54 26.96 26.58 25.93 25.75 25.71 24.24 24.44 23.73
31.83 31.99 31.27 29.94 30.49 30.77 31.38 32.49 34.47 36.15 33.58 32.44 32.10 31.77 31.45 30.66 29.11 27.53 27.04 29.89 30.12 29.93 29.53 28.96 28.05 28.02 28.38 28.75 28.69 28.18 27.67 27.34 28.00 28.26 27.22 26.73 26.65 26.07 25.29 24.47 23.38 23.31 21.00

GFSMW_sfc_wetblb_066.txt.gz
Wetbulb
60.77 61.76 60.60 61.02 61.63 61.94 61.29 60.72 60.00 59.24 58.91 58.71 58.20 57.58 56.96 57.64 58.51 58.33 58.12 58.56 59.91 60.16 59.66 59.52 60.04 59.01 58.13 57.60 58.14 57.76 56.27 55.95 56.65 54.66 53.32 53.78 55.12 55.33 54.86 55.48 55.71 56.32 57.47
59.82 60.71 59.75 60.09 61.06 61.15 60.71 59.99 59.50 57.84 58.62 58.45 58.26 58.49 57.43 57.23 57.41 58.68 58.20 59.36 59.47 59.10 59.12 59.29 59.07 59.50 58.60 57.92 57.51 56.36 54.87 55.15 55.51 52.55 51.71 48.32 50.26 52.70 54.50 53.59 54.39 53.95 54.71
58.74 59.66 59.19 59.22 60.43 60.90 60.34 59.76 59.21 57.50 57.63 59.01 58.52 58.28 57.82 57.40 56.43 57.46 58.19 58.57 58.56 58.44 58.07 59.68 59.13 58.45 59.68 58.32 57.93 58.16 56.46 54.46 54.83 54.71 52.39 48.63 47.54 49.86 52.23 52.84 52.88 53.03 54.11
58.81 60.16 59.25 58.68 59.79 60.57 60.66 60.13 58.95 57.44 57.20 58.41 57.85 56.87 55.89 54.55 55.35 57.04 58.00 57.97 58.87 58.41 58.69 59.86 59.43 58.89 59.27 59.17 59.41 60.07 58.33 57.65 53.91 53.57 55.54 55.56 55.90 51.93 49.32 51.75 52.52 53.94 53.81
57.49 59.81 59.54 59.57 60.11 60.83 60.40 59.89 59.12 58.09 57.56 57.42 57.70 57.17 56.21 56.44 56.41 56.59 57.17 57.43 57.54 58.78 59.45 60.05 60.10 60.22 59.62 59.65 59.28 59.01 59.01 58.44 56.99 55.49 55.60 54.73 55.21 55.02 52.70 49.00 50.09 52.28 52.75
56.99 59.68 61.05 60.81 59.93 60.60 60.27 60.27 59.31 58.19 58.64 57.58 57.67 57.05 56.18 56.52 55.49 55.23 55.81 56.71 56.78 56.89 58.35 59.65 59.25 58.94 59.24 59.33 59.09 59.06 58.60 59.05 58.37 57.56 57.16 56.61 54.36 53.67 52.92 50.61 51.33 50.01 51.66
57.35 58.48 59.99 59.75 59.43 59.46 59.82 59.33 59.34 58.56 58.71 58.09 57.29 57.62 56.97 56.99 56.12 55.02 55.07 55.97 55.76 55.45 55.98 58.81 58.79 58.16 58.57 59.55 59.37 58.59 58.51 58.83 58.04 57.55 57.06 57.19 57.07 56.89 55.45 53.14 51.63 51.59 53.74
58.02 58.15 59.87 60.37 59.75 59.26 59.97 59.32 58.58 58.24 58.62 58.16 57.63 57.48 57.36 57.10 57.25 57.20 56.16 56.28 56.53 56.29 56.80 58.29 58.77 58.85 58.65 58.86 58.66 57.45 57.31 57.53 57.47 57.47 58.00 57.81 57.68 57.38 56.77 55.28 53.02 49.86 51.20
56.94 57.51 59.54 60.64 60.36 59.33 59.53 59.32 58.81 58.51 58.92 58.65 58.13 57.69 57.67 57.10 57.06 57.44 57.59 57.29 57.32 57.04 57.35 58.70 58.53 59.04 59.24 58.57 57.85 57.40 56.65 57.13 57.57 57.56 57.62 57.39 58.22 57.05 56.75 56.63 56.01 53.36 49.24
56.42 57.77 58.78 60.69 61.08 60.28 60.18 60.49 59.49 58.91 58.88 58.65 58.11 57.94 58.05 58.63 58.16 57.50 57.17 57.02 57.31 57.34 57.11 58.46 58.93 59.01 59.18 59.20 58.22 57.37 56.79 56.30 56.81 57.08 56.77 57.63 57.71 57.48 57.37 56.89 56.18 56.06 54.02
57.11 58.03 58.80 60.96 61.47 61.19 60.09 60.00 59.82 58.91 59.11 58.67 58.32 57.69 57.89 58.38 58.73 57.90 57.65 57.63 57.55 57.63 57.46 57.86 58.39 58.63 59.01 59.02 57.94 57.31 57.08 56.51 56.03 56.13 56.47 56.55 57.02 56.67 56.86 57.30 57.09 56.14 55.68
56.42 58.36 59.61 60.51 61.12 61.13 60.54 59.82 59.67 59.21 59.70 59.69 59.09 58.13 57.99 58.34 58.63 58.60 58.78 58.92 58.18 57.80 57.65 58.36 58.63 58.69 58.64 58.61 58.20 57.59 57.69 56.75 55.90 55.89 56.03 56.20 57.17 56.72 57.18 56.95 56.38 56.64 56.19
55.93 57.90 59.73 60.02 60.69 61.02 61.28 60.60 60.20 59.42 59.81 60.47 59.53 58.98 58.48 58.07 58.54 59.55 59.21 59.24 59.07 58.84 58.21 58.60 58.25 58.23 58.22 57.92 57.66 57.15 56.64 56.24 56.40 56.69 56.50 56.39 56.62 56.21 56.63 56.55 56.43 56.94 56.56
54.72 55.32 56.48 59.66 60.78 61.18 61.30 61.63 61.20 60.70 60.05 59.85 60.01 59.31 58.81 58.84 58.44 59.47 59.99 59.43 60.25 59.44 58.88 58.66 58.33 58.38 57.84 57.68 57.63 57.37 56.51 56.26 56.37 56.62 56.84 56.91 56.74 56.56 56.51 56.39 56.55 56.77 55.18
54.05 54.51 54.92 55.59 56.58 59.17 61.24 61.68 62.11 61.88 61.20 59.98 59.07 59.16 60.18 60.61 60.48 59.91 59.93 60.18 60.13 60.08 60.06 59.27 58.67 59.10 58.97 58.79 57.73 57.31 57.04 56.70 56.42 56.81 57.17 57.49 55.89 51.49 53.17 56.55 56.18 55.56 54.04
52.66 53.95 55.02 55.73 56.05 56.71 57.14 57.38 61.02 61.84 62.13 60.70 59.83 59.98 59.72 60.46 60.13 60.22 60.46 60.55 60.28 59.82 59.80 59.22 59.18 58.46 58.67 51.24 47.16 52.73 57.64 57.58 57.24 56.70 57.48 57.71 50.66 49.88 45.74 45.89 46.80 52.61 53.27
51.48 52.51 53.44 54.88 56.02 55.50 56.23 56.18 57.49 58.00 61.49 61.15 61.08 60.83 60.32 59.64 59.85 60.06 59.90 59.46 59.24 59.37 58.93 58.97 59.03 58.66 59.06 48.21 46.16 44.76 56.51 57.91 57.67 57.12 56.78 56.59 56.18 49.52 52.85 44.97 41.95 37.74 37.18
51.07 51.65 52.85 53.66 51.57 50.47 50.43 51.34 53.64 57.05 57.57 59.23 60.93 61.24 60.86 59.98 59.82 59.54 59.04 59.11 59.17 58.68 58.54 58.60 58.61 58.45 58.57 46.21 44.61 42.38 51.47 55.25 56.05 55.93 55.44 54.99 54.00 53.51 50.91 38.56 33.51 32.61 32.92
50.64 51.12 51.63 49.04 46.86 44.93 46.38 50.13 54.20 55.14 57.07 55.43 57.23 60.60 60.82 60.21 60.07 59.09 58.56 58.93 58.44 58.21 58.11 58.50 58.12 57.71 56.87 38.82 40.62 43.23 52.41 53.53 43.71 38.31 38.38 40.16 39.45 37.69 38.57 33.99 31.32 30.13 29.94
48.79 48.74 48.59 45.27 42.12 41.09 43.25 46.48 46.65 46.50 45.58 47.28 51.26 51.92 52.22 60.28 59.54 59.46 58.85 58.76 58.86 57.80 55.78 42.84 40.18 37.51 39.14 37.08 40.14 42.81 43.66 36.57 33.43 33.13 33.48 34.62 34.92 34.83 35.48 33.12 30.99 27.72 27.45
45.93 46.47 45.57 40.91 38.25 38.25 39.73 39.72 40.41 39.68 41.90 43.30 45.16 45.61 45.18 48.32 50.25 54.51 52.47 55.04 44.33 39.04 35.96 34.11 33.97 34.50 34.86 35.82 36.73 37.81 35.59 33.28 31.75 31.42 31.30 32.12 33.79 33.69 33.17 31.73 29.54 27.93 28.74
43.32 42.95 41.84 39.63 37.60 36.48 36.09 36.46 36.03 38.03 38.39 37.17 36.89 37.15 37.64 39.13 43.78 43.55 41.99 41.13 39.09 36.37 33.13 31.30 30.19 30.99 31.96 33.36 34.23 34.09 33.18 32.50 30.49 29.40 30.46 31.20 31.79 31.29 30.84 29.88 30.34 29.87 28.91
39.97 40.00 38.89 36.16 35.14 34.28 34.16 32.96 35.22 36.39 35.05 33.61 32.37 32.26 32.28 32.86 34.31 36.23 37.26 35.97 34.76 32.92 31.15 30.12 28.76 28.30 30.35 31.33 32.23 32.64 32.06 31.63 29.70 29.10 29.48 29.66 29.40 29.26 28.78 29.86 30.06 29.44 28.85
34.64 34.66 34.05 31.21 30.64 31.18 31.40 31.74 34.16 34.65 33.51 31.57 31.02 30.66 29.56 28.87 29.93 30.35 30.09 31.02 31.68 30.44 29.14 27.95 26.57 26.91 27.60 28.76 28.82 28.25 28.12 27.79 26.73 26.06 26.35 26.42 26.96 27.21 27.25 25.88 25.22 25.47 26.30
30.68 30.50 29.12 27.86 27.77 28.69 28.95 30.79 31.89 33.60 31.46 30.53 29.64 28.91 29.06 28.60 27.68 28.29 28.41 27.95 28.76 29.21 27.54 27.51 27.61 26.38 26.21 28.27 29.51 28.34 27.50 27.29 27.51 27.88 27.98 26.94 26.60 25.25 24.87 24.87 25.00 25.26 24.73
27.22 26.70 26.70 26.70 27.25 28.21 28.56 29.47 31.09 31.67 30.68 29.59 29.02 28.37 27.71 27.65 27.48 26.43 25.94 29.95 30.25 30.06 29.98 29.77 28.41 28.27 29.76 30.40 30.57 30.79 31.24 31.33 30.97 28.59 26.79 26.15 25.42 24.84 24.41 23.25 22.62 22.52 20.55

GFSMW_sfc_wetblb_069.txt.gz
Wetbulb
58.16 57.16 57.04 58.51 57.81 59.39 59.11 59.54 59.58 59.42 59.15 58.60 57.96 57.60 57.16 59.37 59.12 59.90 60.29 59.95 59.84 60.07 60.39 59.95 59.99 58.90 59.74 57.90 57.84 56.88 55.68 54.09 54.91 52.51 51.77 52.59 54.15 54.25 54.86 56.65 56.82 56.88 57.39
56.64 56.03 56.05 56.78 58.11 58.52 58.85 59.29 58.83 58.64 58.56 58.44 58.35 57.90 57.61 58.98 59.27 59.43 59.40 59.46 59.73 59.12 59.00 59.64 59.22 57.38 59.15 57.90 56.53 54.93 53.11 54.20 54.15 51.44 50.76 48.14 49.80 52.18 52.71 52.57 54.33 55.30 56.48
55.22 54.99 55.72 55.81 57.49 57.61 58.46 58.32 58.04 58.14 58.30 58.54 58.39 57.83 57.20 57.06 56.92 57.24 57.79 57.93 59.13 58.76 58.42 59.17 58.93 58.14 58.34 57.34 55.85 54.52 53.28 52.44 52.77 53.57 50.96 47.33 46.31 48.01 49.36 50.39 50.77 51.89 51.70
56.21 55.30 55.40 55.35 57.07 57.73 58.27 58.51 57.64 57.50 57.90 58.58 57.65 56.60 55.35 54.41 55.83 56.14 57.00 57.36 57.68 57.45 57.21 58.22 57.95 57.77 58.20 56.31 55.58 56.60 54.61 54.56 51.63 52.36 54.31 53.93 53.33 48.57 47.00 49.01 49.97 50.24 51.65
55.88 54.93 54.91 56.03 57.06 58.03 57.58 57.50 57.07 57.22 57.41 57.95 57.31 56.28 54.98 55.61 55.62 56.22 55.79 56.75 56.83 56.79 57.06 57.22 57.38 56.72 57.02 56.81 57.18 56.82 56.44 56.32 54.48 52.25 52.99 52.41 53.07 53.02 49.94 46.66 48.65 49.34 51.08
56.16 56.01 56.02 56.96 56.85 58.00 57.29 57.06 56.71 56.68 57.05 57.63 57.45 56.43 55.09 54.72 53.60 54.50 55.69 56.28 56.23 56.55 57.54 56.51 58.31 58.24 57.05 57.47 57.24 57.41 57.18 56.94 56.78 55.20 54.32 53.37 52.01 51.47 50.90 48.71 48.04 48.13 49.52
55.95 55.59 55.03 55.60 56.21 56.67 56.70 56.46 55.90 55.62 56.79 56.73 57.01 56.32 55.56 54.92 53.65 53.83 54.91 55.38 55.53 55.88 56.10 57.62 57.01 57.16 57.57 57.62 57.48 57.43 56.68 56.78 56.63 56.66 56.44 56.31 56.33 55.20 53.54 52.50 50.23 49.97 49.94
56.01 55.95 55.80 55.78 56.19 56.73 56.55 56.94 56.00 55.60 56.87 56.69 56.24 57.11 56.96 55.97 55.41 54.62 55.24 56.12 56.09 56.18 56.52 57.00 58.35 58.04 56.79 57.07 57.68 57.48 56.95 57.19 57.23 56.64 56.78 57.13 56.78 57.07 56.00 53.38 52.15 48.22 49.67
52.01 56.11 56.51 56.45 56.31 56.52 56.33 56.20 56.85 56.37 56.86 56.81 57.07 56.79 56.87 56.55 55.94 55.65 55.18 56.10 56.61 56.63 56.00 56.16 57.86 58.18 57.71 56.64 56.84 56.53 56.65 57.03 57.00 56.86 56.91 56.49 56.95 57.17 57.09 56.09 55.42 52.96 48.20
50.30 54.86 56.88 56.58 56.76 57.56 57.27 56.67 57.19 56.90 57.23 56.96 57.63 57.14 57.03 56.92 56.98 57.11 55.97 55.41 55.75 56.79 56.39 55.85 57.19 57.79 58.13 57.94 57.35 56.77 56.59 56.00 56.13 56.57 56.23 55.73 56.30 56.55 56.71 56.60 56.01 55.22 53.24
51.17 52.00 56.94 57.27 56.86 57.33 57.25 56.62 56.23 56.27 56.83 57.29 57.46 57.28 57.29 56.98 57.06 56.88 57.29 56.98 55.98 56.17 56.44 56.19 56.93 57.72 57.45 58.02 57.79 57.36 56.73 55.87 55.37 55.49 55.18 55.56 56.58 55.88 56.24 56.86 56.33 55.35 55.04
52.58 52.85 56.86 56.98 56.20 56.53 57.14 56.87 56.64 56.26 56.81 57.17 56.94 56.50 57.54 57.79 57.36 57.03 57.07 57.36 57.09 57.19 56.40 56.19 56.00 56.75 57.19 56.94 56.77 56.53 57.16 55.87 54.78 54.55 54.14 54.68 55.66 55.14 55.58 55.77 55.49 55.30 55.07
52.23 52.82 54.56 55.28 56.45 56.40 56.88 57.27 57.01 56.72 57.06 57.27 56.54 56.15 56.44 57.19 57.23 57.65 58.06 57.68 57.22 56.94 56.96 56.47 55.54 55.66 56.86 56.95 57.00 56.90 56.45 56.15 55.66 55.44 54.74 54.56 54.45 53.98 55.02 55.27 55.02 55.18 55.44
52.25 52.68 52.72 53.44 54.94 55.76 56.41 56.98 57.19 57.45 57.41 57.57 56.94 56.03 55.71 56.16 56.84 57.67 57.87 57.95 58.00 57.34 56.22 56.22 56.26 56.44 56.54 56.99 57.28 57.15 56.88 56.65 56.43 56.05 55.73 55.46 54.89 54.38 54.75 55.15 55.25 55.33 55.12
51.35 51.54 52.47 52.51 52.25 52.88 53.41 54.62 55.64 57.38 57.45 57.35 57.44 57.04 57.07 56.81 56.69 56.73 57.42 58.50 58.09 57.76 57.50 56.69 56.11 56.37 56.63 56.99 57.07 57.13 56.65 56.33 56.02 56.20 55.82 55.72 54.61 50.85 53.00 55.68 55.68 55.53 54.91
50.06 51.39 51.09 49.98 48.99 48.51 49.49 50.93 52.12 54.47 56.73 57.26 56.75 57.95 57.83 57.59 57.02 56.82 56.84 57.35 58.30 58.03 58.19 57.68 57.33 56.63 56.78 50.58 46.49 52.51 56.12 55.94 55.29 54.52 54.86 55.20 49.55 49.40 45.30 45.23 46.76 52.97 54.86
48.87 49.02 47.45 45.74 44.83 43.97 45.54 46.05 51.44 51.90 53.41 52.65 53.26 56.88 57.64 58.07 57.89 57.88 57.31 56.98 57.35 58.28 57.72 57.70 58.18 57.65 57.36 47.72 45.48 44.40 55.73 55.91 55.23 55.15 54.90 55.22 55.55 49.98 54.82 47.31 42.09 37.85 37.89
47.24 45.84 43.90 42.16 41.32 40.91 41.83 46.02 46.83 46.63 47.26 46.95 48.13 49.64 49.09 50.55 55.63 58.32 58.17 58.33 58.46 57.83 57.93 58.31 58.51 58.30 58.38 46.89 45.95 43.53 51.51 55.62 56.73 56.63 56.63 56.66 56.14 53.54 52.63 40.12 34.09 33.04 33.11
45.09 43.25 41.13 39.79 38.78 38.50 40.28 41.95 41.86 42.18 42.57 42.53 44.48 45.25 44.34 45.02 48.38 52.86 57.28 58.08 57.62 57.47 57.44 57.66 57.44 57.75 57.10 38.12 39.58 43.19 50.57 54.02 46.94 39.14 39.14 42.04 42.89 39.69 40.91 36.05 31.50 29.88 29.92
42.88 40.19 38.55 37.49 36.37 36.48 38.98 39.05 38.97 38.83 38.64 39.25 39.60 40.11 39.89 40.86 41.33 44.63 45.34 56.00 57.38 56.98 54.87 41.87 38.98 38.73 39.10 36.24 38.21 42.84 46.45 37.82 33.44 33.34 34.24 34.65 35.22 35.55 35.61 33.61 31.35 28.03 27.70
39.53 39.84 37.17 33.95 34.00 34.63 36.34 35.88 36.43 35.71 36.35 36.57 35.89 35.20 35.27 36.30 36.56 40.11 41.54 43.04 45.21 41.83 37.66 34.36 33.40 33.67 34.35 34.87 36.27 37.66 37.06 33.87 32.03 31.65 31.49 32.07 33.23 33.20 32.58 31.74 29.94 28.38 28.89
35.02 35.44 33.68 32.10 31.72 32.28 32.52 32.88 33.33 35.31 34.73 33.47 31.92 31.43 31.72 32.73 32.77 32.94 35.43 36.68 36.76 33.95 32.06 30.92 30.44 30.87 31.48 33.08 33.92 33.92 33.37 33.10 30.87 29.72 30.53 31.23 32.10 31.80 31.46 30.43 30.61 30.00 29.14
31.30 32.29 30.87 29.66 29.73 30.15 30.82 30.46 32.31 33.93 32.69 31.11 29.53 29.45 29.62 30.30 30.39 29.46 30.10 31.84 32.66 31.98 30.39 29.45 28.35 27.84 28.64 28.96 30.43 30.79 30.78 30.77 29.24 29.74 30.22 30.19 29.61 28.91 28.39 29.74 29.86 29.03 28.39
28.72 29.52 28.72 27.63 27.66 29.20 29.90 30.84 32.12 32.47 31.36 29.09 28.51 28.18 27.66 28.04 29.05 29.09 28.43 27.96 28.51 28.44 28.99 28.39 27.48 27.16 27.54 27.44 27.92 27.92 27.56 27.53 27.17 27.26 27.50 26.77 26.20 25.78 25.62 26.07 26.43 25.68 25.40
27.47 27.39 26.94 26.90 27.04 28.32 28.54 29.59 31.55 31.84 30.07 29.38 28.68 27.85 27.49 26.93 26.59 27.29 27.62 27.23 28.35 28.40 27.15 27.24 27.70 27.07 26.65 28.32 29.68 28.69 27.96 28.24 28.15 27.96 26.88 25.26 24.40 23.35 23.17 23.51 22.74 22.94 22.86
25.74 25.71 25.92 25.98 27.02 27.85 28.04 28.42 30.15 30.88 30.14 28.78 28.57 28.48 27.40 26.14 25.55 24.59 24.70 29.26 29.67 30.25 30.26 30.30 28.97 28.93 30.10 31.08 31.00 30.82 30.46 30.20 28.88 25.61 23.78 22.69 22.61 22.13 21.73 19.49 19.29 20.42 20.70

GFSMW_sfc_wetblb_072.txt.gz
Wetbulb
56.49 56.38 57.76 57.90 58.54 58.03 57.79 58.24 58.99 58.74 58.08 58.50 58.08 58.43 58.31 58.97 59.35 60.78 60.74 60.05 62.01 61.36 58.47 58.26 59.45 57.66 56.94 56.69 56.73 55.13 54.39 53.53 53.55 51.95 51.03 52.40 55.06 55.44 55.10 55.71 55.77 55.86 56.58
54.10 54.96 56.53 56.92 58.01 57.30 57.49 57.93 58.33 58.83 58.67 58.04 58.30 57.67 58.05 59.22 59.58 59.89 60.49 60.20 60.20 61.30 59.71 58.44 59.37 59.36 57.80 57.11 56.27 54.45 53.85 53.47 54.11 52.99 50.88 48.38 49.90 52.46 54.15 55.55 55.70 55.52 56.61
53.99 53.69 55.52 55.87 57.56 57.44 57.34 58.31 58.12 58.60 58.55 58.58 57.48 56.36 57.40 58.11 58.11 58.51 58.87 59.55 59.94 59.31 60.63 59.61 59.55 58.51 58.88 56.83 55.52 54.11 54.00 51.11 51.80 53.69 51.36 46.69 46.97 49.06 50.70 51.84 54.57 54.64 55.19
55.35 54.29 55.00 55.22 56.68 57.48 57.80 57.78 57.76 58.07 58.23 58.40 57.22 55.72 55.29 55.12 56.96 57.68 58.64 58.58 59.30 58.53 58.62 59.54 58.88 57.66 59.06 57.44 56.58 55.90 53.61 53.23 52.25 50.85 52.39 51.83 51.17 48.41 46.62 49.72 50.32 51.15 52.96
54.96 54.07 54.52 55.87 57.05 58.16 57.75 56.94 56.96 57.12 57.17 57.83 57.13 56.26 55.84 56.16 56.87 57.38 57.40 57.78 58.15 57.53 57.46 58.43 58.27 57.32 58.18 57.45 56.64 56.26 54.90 53.37 51.45 50.19 51.00 51.81 53.13 52.55 48.66 45.71 46.88 48.06 49.48
54.79 54.98 55.34 56.45 56.68 57.30 57.67 56.36 55.66 55.86 56.78 57.63 57.08 56.20 55.46 55.38 55.11 55.54 55.72 56.20 57.09 56.68 56.65 57.45 57.74 57.53 57.70 57.34 56.94 57.25 56.05 55.07 53.85 52.46 52.66 52.28 51.42 50.73 49.81 47.21 46.82 46.89 48.92
54.24 53.39 53.32 54.36 56.22 56.02 56.20 56.25 55.76 55.38 55.96 56.71 56.75 56.29 55.50 55.30 54.81 55.30 55.08 55.41 55.40 56.19 56.08 56.35 57.31 57.23 57.42 58.00 57.66 57.01 56.88 55.97 55.09 54.05 53.59 55.21 53.60 53.42 52.36 50.78 49.24 48.74 49.26
53.88 53.13 53.99 54.55 55.76 56.04 56.29 56.43 55.92 55.31 55.84 56.84 56.74 56.85 56.13 55.60 54.26 54.36 55.28 55.12 55.77 56.27 56.89 57.03 57.16 58.02 57.41 57.28 57.78 57.25 56.40 55.58 55.38 56.04 55.42 55.80 56.28 55.84 55.58 53.40 50.42 48.32 48.79
53.07 53.15 54.28 55.03 55.66 55.98 55.88 55.92 55.36 55.49 55.38 55.98 56.91 56.75 56.28 55.26 54.22 53.93 54.58 55.33 56.03 56.70 56.24 56.74 57.20 57.35 57.62 57.43 57.00 56.02 56.37 56.45 55.98 56.20 55.58 55.74 56.57 56.70 56.48 55.90 54.59 52.88 49.32
53.00 53.95 54.51 54.86 55.74 56.43 56.29 55.94 55.60 55.46 55.77 56.44 56.42 56.81 56.77 56.75 55.98 54.66 53.83 54.84 55.54 55.75 56.45 55.52 57.28 57.52 57.26 57.11 57.15 56.66 56.41 56.26 55.97 56.13 55.85 55.93 55.96 56.10 56.27 56.46 55.95 55.28 53.42
49.48 53.88 54.72 55.12 55.56 56.27 55.83 55.92 55.70 55.52 55.69 56.41 56.14 56.46 56.53 56.78 56.83 55.85 54.75 54.55 55.17 55.55 55.91 55.93 55.68 56.62 57.49 57.46 56.74 56.73 56.40 55.76 56.13 56.04 55.38 55.07 55.48 54.90 55.43 55.90 55.68 54.81 54.46
52.25 53.65 53.91 53.77 55.04 54.98 55.26 55.34 56.09 56.18 56.28 56.34 56.30 56.02 56.72 56.90 56.20 56.46 56.57 56.10 55.13 55.52 55.47 55.82 55.41 55.29 55.79 56.90 56.84 56.49 56.70 55.78 55.16 55.46 55.35 55.11 55.22 54.50 54.36 54.36 54.32 54.51 54.87
51.82 52.30 52.73 53.36 53.53 54.59 55.65 55.55 55.20 54.99 56.54 56.71 56.23 55.60 55.73 56.45 56.41 56.46 56.96 57.30 57.00 56.24 55.76 55.74 55.17 54.88 55.45 55.67 56.12 56.25 56.03 55.91 55.58 55.67 55.27 54.77 54.68 54.04 54.19 54.17 54.04 54.42 54.43
50.81 49.98 49.64 50.49 50.98 52.32 52.67 53.45 54.83 55.74 55.96 56.40 56.19 55.54 55.32 55.72 56.08 56.89 57.26 57.13 57.32 57.00 56.77 56.40 56.07 55.47 55.20 55.34 55.89 55.81 55.52 55.28 55.31 55.58 55.31 54.85 54.17 53.48 53.58 53.54 53.58 53.71 53.48
47.15 47.08 46.82 46.44 46.87 48.24 49.03 51.94 52.54 53.49 56.23 56.43 56.22 55.82 55.71 55.88 56.23 56.23 56.63 57.30 57.20 57.14 57.20 56.68 56.48 56.62 56.15 55.58 54.93 55.41 55.37 55.23 54.95 55.13 55.26 55.29 53.87 50.34 51.57 53.72 53.35 52.99 52.80
45.92 44.30 43.15 42.59 41.99 42.94 45.27 47.40 47.92 48.50 49.56 49.66 52.63 54.12 56.22 56.24 55.71 55.81 55.88 56.26 56.29 56.55 56.67 56.55 56.51 55.66 55.90 49.44 45.94 50.84 55.42 55.90 55.71 55.27 55.51 55.69 49.65 49.29 45.48 44.94 46.01 51.34 53.13
42.34 41.10 40.45 39.34 39.17 39.74 42.50 42.30 43.78 45.04 44.62 45.52 46.85 46.23 47.62 48.62 53.66 56.11 55.96 55.63 55.65 56.45 56.45 56.36 56.58 56.39 56.48 47.19 45.27 44.25 54.36 55.96 56.17 56.23 55.87 55.69 55.97 49.43 53.71 46.66 42.29 42.88 38.91
38.97 37.81 37.11 36.57 36.89 38.24 39.62 41.02 41.09 41.25 41.30 41.83 42.25 42.76 43.13 44.05 45.55 48.17 50.10 56.27 56.24 55.82 56.20 57.04 56.91 57.04 57.33 46.70 45.43 43.88 52.65 55.16 56.07 56.55 56.09 55.26 55.12 54.56 53.36 52.30 50.91 38.30 34.37
37.08 35.96 35.51 34.75 34.87 35.27 38.54 38.97 37.79 37.34 36.86 36.71 37.73 38.53 39.10 40.73 41.67 42.56 44.06 45.65 47.50 56.40 56.24 57.14 57.14 56.93 56.73 37.58 39.77 42.81 52.97 53.91 54.28 53.38 43.28 43.83 47.50 47.57 45.30 49.83 38.78 32.04 31.09
35.80 33.90 33.39 32.99 32.42 33.43 36.57 36.31 35.12 34.64 33.66 33.25 33.69 35.33 35.95 37.31 36.37 38.74 39.93 41.24 43.65 45.57 44.44 37.14 35.35 34.34 35.88 35.09 36.46 37.88 48.51 51.04 40.29 34.03 34.33 34.69 35.47 35.94 37.25 38.05 32.82 28.64 28.32
33.76 33.76 32.15 30.62 30.93 32.55 34.59 33.72 33.90 32.02 32.31 31.98 31.53 31.59 32.68 33.58 33.48 34.96 36.28 37.08 35.64 34.36 32.63 30.62 29.97 30.33 31.69 32.62 34.30 35.34 35.79 34.77 33.03 31.86 31.32 31.95 33.20 33.27 32.90 32.38 30.70 29.59 29.34
31.79 32.20 30.65 29.67 30.56 31.63 32.54 31.70 31.54 32.32 31.53 30.56 29.34 29.19 30.44 31.05 31.17 31.90 32.99 33.37 32.61 31.01 30.29 29.72 28.73 29.42 29.37 31.29 32.01 32.53 32.57 32.95 30.94 29.91 30.31 31.15 31.85 31.78 31.28 30.27 30.52 30.24 29.17
29.56 30.21 29.39 28.83 29.23 30.22 31.13 30.26 30.91 31.45 30.18 28.78 28.09 28.26 28.13 28.74 29.16 28.74 29.42 29.84 30.53 29.80 28.73 28.24 27.52 27.50 28.53 28.30 29.97 30.10 29.64 29.40 27.69 27.81 28.48 28.51 28.50 28.44 27.43 28.24 27.92 27.17 26.34
27.33 28.46 28.13 27.13 27.23 28.84 29.24 30.98 31.78 31.07 29.62 28.27 27.67 27.20 26.76 26.65 27.68 28.28 28.36 27.81 27.72 27.90 27.99 27.81 27.08 27.35 27.52 27.63 27.99 28.19 28.40 28.14 27.04 26.72 26.44 26.00 25.49 23.98 23.93 23.98 24.39 24.14 23.99
26.18 26.23 25.94 26.00 26.32 27.24 27.45 28.56 30.46 30.42 28.75 28.56 27.84 26.51 25.56 25.12 25.53 26.53 27.14 27.09 28.57 28.68 26.74 27.24 27.83 27.57 27.54 29.25 30.91 29.61 28.18 27.78 27.09 26.16 25.37 23.60 22.71 20.95 20.77 21.24 21.63 21.70 21.68
22.99 22.07 22.71 23.19 24.59 25.53 25.22 25.92 28.04 29.00 27.57 26.22 25.19 24.86 24.27 23.89 23.68 23.38 23.72 28.01 27.78 28.60 29.55 29.67 28.54 28.26 29.30 29.51 29.40 28.67 28.03 27.66 26.77 23.23 21.17 20.19 19.89 18.87 18.98 18.99 18.83 18.99 18.96

GFSMW_sfc_wetblb_075.txt.gz
Wetbulb
54.83 54.43 56.97 57.83 57.72 58.18 57.98 57.84 57.36 57.10 58.38 58.97 58.73 57.48 57.99 58.71 60.00 61.40 61.83 60.86 59.48 58.59 57.07 57.12 55.84 55.70 53.01 53.46 54.06 53.19 52.35 51.28 52.72 51.71 51.35 51.70 53.10 53.47 53.95 54.81 55.04 55.41 55.71
51.81 55.09 56.16 57.26 57.40 57.78 57.90 57.78 56.96 57.30 58.57 58.36 58.32 58.52 58.33 58.93 59.63 60.35 60.49 61.78 60.22 58.75 57.29 57.48 55.91 55.63 53.91 54.16 54.36 53.76 52.63 52.99 53.38 51.99 51.61 48.59 51.10 52.93 54.01 54.26 54.95 54.84 56.24
51.41 54.39 55.29 56.18 57.10 56.64 56.48 57.20 56.66 56.94 57.70 57.88 57.72 57.34 57.94 58.35 58.01 58.57 59.37 59.94 61.30 59.76 57.79 58.04 57.12 56.22 55.61 55.49 55.63 54.52 54.36 52.12 52.10 53.24 51.63 47.48 47.90 50.40 51.06 53.05 54.50 54.40 54.83
53.32 54.57 54.93 55.30 56.56 56.60 57.35 57.48 57.93 56.92 57.30 57.81 56.75 56.32 56.01 55.82 57.15 58.46 59.15 59.43 60.26 60.45 59.00 58.51 58.78 58.44 57.35 56.64 56.19 55.19 54.85 53.76 52.50 50.23 52.04 51.46 50.39 49.57 46.26 49.72 53.33 54.74 54.36
53.50 53.11 54.79 55.53 56.88 57.31 57.53 57.95 57.36 57.78 57.38 56.62 56.56 56.26 55.46 55.78 57.02 57.73 57.92 58.35 58.55 59.03 59.70 59.18 57.99 57.86 58.61 57.36 56.91 54.89 53.56 53.36 53.79 50.62 49.90 50.80 51.93 50.58 48.61 46.15 47.88 49.50 52.63
53.07 54.03 55.19 56.02 56.76 57.57 57.20 56.66 56.01 56.13 56.97 56.00 55.66 55.38 55.38 55.44 54.39 56.46 56.76 57.36 57.52 57.08 57.86 58.68 58.56 57.92 57.82 57.06 56.36 56.42 55.44 53.68 53.73 53.95 51.72 51.34 51.15 50.52 50.21 47.52 47.46 47.54 48.88
51.90 52.77 53.13 54.68 56.21 56.30 56.43 55.99 55.78 55.01 56.21 56.04 54.98 54.32 54.69 55.40 55.33 55.84 56.30 56.20 56.76 57.00 56.68 57.70 57.76 57.46 57.89 57.91 57.38 56.32 56.16 55.60 54.91 53.36 52.76 53.38 52.61 53.13 52.32 51.18 49.74 48.62 49.29
52.09 52.68 53.20 54.71 55.66 56.45 56.17 56.04 55.47 55.13 55.93 56.58 55.86 54.78 54.77 55.90 55.68 55.77 56.13 56.33 56.60 57.27 57.56 56.58 57.48 57.48 57.57 57.69 57.58 57.16 56.54 56.32 55.52 54.89 54.52 54.62 53.86 54.66 53.63 51.93 50.41 47.52 48.12
52.10 52.48 53.33 54.82 55.31 56.22 56.10 55.96 55.53 54.93 55.96 55.77 56.39 55.09 54.81 54.54 54.88 54.59 55.58 56.13 56.66 56.97 56.64 55.81 56.49 57.23 57.29 57.33 57.19 56.73 56.18 56.45 56.22 55.98 55.06 54.60 55.40 55.54 55.50 54.91 53.86 52.22 48.35
51.01 51.87 53.17 54.56 55.69 56.02 56.54 56.50 56.33 54.62 55.42 55.54 55.99 55.68 55.15 54.77 53.78 53.03 53.10 54.60 55.11 55.82 55.21 55.74 56.20 56.13 56.88 57.27 56.81 56.67 56.56 56.30 56.43 56.25 55.73 55.54 55.65 55.76 56.14 55.98 55.50 54.74 53.13
51.24 52.32 52.71 53.72 55.25 55.46 56.10 55.72 55.48 54.95 54.87 54.82 55.81 56.12 54.99 55.27 55.70 53.99 53.05 53.73 53.91 54.24 54.50 55.72 56.16 56.59 56.46 56.85 56.36 56.09 56.25 55.85 55.80 55.97 55.14 54.95 55.87 55.33 55.49 55.61 55.28 54.16 53.99
51.95 52.60 53.61 54.14 54.09 54.04 55.43 55.19 55.33 55.16 55.02 54.99 55.82 54.87 55.05 56.21 56.21 55.84 54.42 53.69 53.73 54.40 54.95 54.58 55.29 56.19 56.71 57.02 56.29 55.94 56.36 55.56 55.24 55.76 55.56 55.19 55.33 54.62 54.58 54.46 54.06 53.96 54.55
47.81 49.04 49.86 50.51 51.69 53.45 54.56 54.90 55.16 55.50 55.84 56.34 55.79 55.41 54.09 54.47 54.95 56.04 56.35 55.82 54.39 53.85 54.53 54.99 54.66 54.51 54.99 55.58 56.07 56.67 56.14 55.91 55.73 55.78 55.48 55.33 55.08 54.35 54.30 54.03 53.48 53.71 53.87
45.21 44.69 44.77 46.10 48.23 50.60 51.88 52.10 52.53 54.85 55.78 56.16 55.71 54.95 54.21 54.59 54.79 54.87 55.43 56.09 56.74 55.77 55.36 55.28 55.34 55.54 54.75 54.57 54.90 55.56 55.82 56.11 56.19 56.11 55.81 55.56 55.09 54.62 54.56 54.30 54.02 53.65 53.21
42.86 42.94 42.24 42.74 44.14 46.31 46.93 47.89 49.15 48.92 50.65 55.50 55.30 54.68 54.94 54.77 54.57 54.61 55.33 55.61 55.55 56.17 56.55 56.15 55.58 55.49 55.61 55.24 54.73 54.73 54.32 54.23 54.14 54.58 54.66 54.97 53.75 50.08 51.67 54.07 53.50 52.94 52.13
39.38 38.94 39.60 39.70 40.02 40.67 41.92 43.34 43.66 44.71 46.72 46.35 46.35 46.74 48.25 51.60 55.48 55.11 55.19 55.45 56.08 56.10 55.70 55.51 55.71 55.80 55.79 48.72 45.87 50.38 54.80 54.74 54.54 54.02 54.35 54.65 49.25 49.00 45.26 44.44 45.85 51.00 52.12
37.04 36.44 36.21 36.38 37.45 38.80 39.87 39.28 40.02 41.60 41.87 42.17 42.76 43.10 44.26 45.09 45.70 47.73 50.38 54.34 55.41 56.15 56.27 56.36 56.15 55.78 55.77 46.72 45.09 44.35 53.76 54.66 54.64 54.66 54.90 55.06 55.59 50.11 54.27 46.86 42.53 43.25 42.76
35.46 34.72 34.69 34.67 35.03 37.50 38.32 37.83 37.29 36.48 36.87 37.20 37.77 38.91 39.97 41.44 42.06 43.47 44.19 44.48 45.90 48.76 54.59 56.07 56.48 56.26 55.82 37.08 39.74 42.60 52.27 54.37 54.90 55.30 55.27 55.30 55.36 55.35 54.46 53.99 53.02 50.30 46.99
34.40 33.73 33.51 33.76 34.29 35.92 36.39 35.43 34.22 33.79 33.33 33.07 34.21 35.40 36.47 37.30 37.57 38.51 39.05 40.54 42.83 41.56 40.91 37.35 36.70 39.07 36.49 34.86 35.63 37.04 47.92 53.21 53.93 54.59 45.33 39.40 44.98 43.11 41.43 51.49 51.15 39.63 31.58
33.25 32.44 32.35 32.25 32.45 33.96 35.53 33.20 31.76 31.25 30.32 30.51 31.16 33.34 33.92 33.79 34.15 35.84 35.89 37.01 36.78 34.55 32.76 30.76 31.11 31.98 31.85 33.76 35.29 36.56 40.12 44.00 44.34 35.03 33.66 34.02 33.77 35.12 36.39 37.98 41.83 32.09 28.07
32.39 32.49 31.38 30.33 31.04 32.96 33.66 31.61 30.16 28.73 29.45 30.34 30.33 30.72 31.24 31.54 32.01 33.06 33.87 34.05 33.03 32.12 30.37 29.55 29.40 30.02 31.18 31.61 33.58 35.07 34.51 33.33 32.30 31.32 30.45 31.31 32.43 32.65 32.75 32.48 31.20 28.98 29.18
30.35 30.65 29.58 29.19 30.35 31.55 32.08 30.11 29.17 29.14 29.35 29.01 28.58 28.53 29.09 29.93 30.71 30.83 31.37 31.78 31.43 30.19 29.77 29.22 28.47 28.83 29.34 31.15 31.36 31.42 31.65 31.37 29.20 27.61 27.85 29.00 30.30 30.53 30.35 29.09 29.36 28.79 27.23
28.53 29.05 28.68 28.61 29.06 29.84 31.08 29.43 29.41 29.01 28.37 27.12 26.74 27.24 28.15 28.56 28.82 28.54 28.25 28.14 29.05 29.02 28.34 27.97 27.23 27.53 28.61 28.77 29.90 29.91 29.18 28.84 27.23 27.59 27.37 27.22 27.49 27.18 26.53 27.26 26.90 26.06 25.37
27.38 28.01 27.40 26.43 26.61 27.90 28.40 29.81 30.58 28.92 27.70 26.03 25.43 26.51 26.46 26.39 27.22 27.56 27.88 27.13 26.79 26.32 26.53 26.79 26.89 27.47 28.28 28.58 28.55 28.03 27.48 26.98 26.37 25.49 24.35 23.91 24.01 22.92 22.79 22.68 22.86 22.51 22.00
25.03 25.42 25.45 24.90 24.74 25.70 25.77 27.34 29.08 28.52 26.42 26.12 25.46 24.76 25.08 25.36 24.90 25.63 26.03 25.88 27.17 27.52 25.19 25.23 25.92 24.99 24.85 26.63 28.05 27.19 25.12 24.41 24.46 23.15 22.14 20.94 20.44 19.74 19.47 19.12 19.48 19.86 19.53
22.77 22.73 23.11 22.99 23.99 24.30 23.67 24.06 25.66 27.90 25.50 24.27 23.78 22.91 22.61 22.24 22.23 22.29 22.70 26.17 26.29 26.94 26.89 27.12 26.22 25.93 26.84 27.08 27.08 26.80 26.29 25.30 24.18 20.26 18.30 17.44 17.37 16.59 16.82 16.62 16.62 16.91 16.54

GFSMW_sfc_wetblb_081.txt.gz
Wetbulb
52.70 52.98 57.48 60.39 61.27 61.97 61.55 60.40 60.96 60.38 59.50 58.85 59.15 59.28 59.18 60.70 61.40 61.99 62.72 61.93 61.65 62.03 61.25 61.20 59.33 59.79 58.99 58.39 58.62 58.71 58.57 58.62 60.02 57.69 56.62 57.57 58.77 59.07 59.44 60.55 59.76 59.64 60.74
51.36 52.06 56.75 59.44 60.40 60.58 60.85 59.49 60.15 60.15 59.38 59.64 59.58 59.27 59.78 60.45 61.17 62.55 62.20 62.32 60.86 61.61 61.64 58.71 59.22 58.98 58.36 59.22 58.07 58.35 57.97 58.13 58.86 57.11 56.33 52.47 55.02 57.40 58.42 59.07 59.34 59.53 59.57
50.53 51.67 55.40 58.22 60.05 60.32 59.97 59.15 59.47 60.00 59.51 60.26 60.94 59.54 59.74 59.97 59.67 59.90 59.55 58.74 60.51 60.97 59.77 58.78 58.35 57.88 58.73 57.53 57.74 58.47 58.51 56.32 57.97 59.27 57.55 52.56 52.75 55.13 57.57 57.65 58.72 59.18 59.14
50.56 50.83 54.74 57.29 59.09 60.74 61.08 59.44 59.26 59.24 59.12 61.55 60.23 58.20 57.40 57.23 58.84 59.86 60.20 58.96 59.02 58.47 58.27 57.80 57.33 56.59 58.24 57.47 57.29 57.30 58.33 58.77 56.34 57.90 57.34 59.79 58.37 54.93 53.28 56.42 57.76 58.79 58.33
50.77 50.86 54.58 57.04 59.18 60.86 60.04 58.65 58.22 58.81 59.21 60.87 60.43 58.72 57.62 58.34 59.17 59.20 59.26 59.41 58.52 58.80 57.87 56.93 55.46 56.08 56.75 57.30 56.94 56.59 57.04 58.67 58.55 57.45 56.75 56.52 57.00 58.18 56.03 52.97 54.20 57.25 58.28
50.67 53.17 56.52 57.96 58.62 60.27 58.53 57.47 57.02 57.46 58.24 59.51 59.16 58.35 59.03 57.88 57.49 58.40 58.22 58.18 58.86 58.38 58.34 57.34 56.59 55.84 56.26 56.74 57.44 57.25 57.20 57.30 58.05 57.22 57.23 56.11 55.05 53.98 54.59 53.89 55.18 55.38 56.73
50.20 54.32 55.73 56.62 57.61 58.06 56.65 56.58 56.95 56.31 57.24 57.85 57.60 57.63 59.18 58.33 57.53 57.92 58.18 57.95 58.00 57.90 57.33 57.48 56.49 56.43 56.56 57.28 58.44 58.12 57.74 57.89 58.02 58.63 57.20 57.69 56.85 56.60 56.12 55.43 53.97 54.83 56.57
53.41 52.73 55.81 56.66 57.61 57.60 56.51 57.99 59.11 57.50 56.55 56.86 56.87 56.78 59.03 58.92 58.28 59.09 58.80 58.68 58.78 59.20 58.65 58.52 57.48 57.06 56.98 57.15 57.38 56.88 57.61 58.65 58.08 58.30 59.16 57.80 57.35 56.76 55.97 55.62 54.75 53.01 53.88
52.72 53.47 54.78 57.02 57.80 57.17 57.34 58.65 57.49 56.61 56.07 56.30 56.65 56.18 58.17 58.56 57.95 58.44 59.06 58.53 58.94 58.55 58.24 58.35 57.95 57.16 56.66 56.82 56.06 56.42 56.31 56.37 56.25 56.47 57.42 56.84 55.63 55.48 55.58 56.73 56.03 53.51 51.31
52.41 52.91 54.66 56.35 57.17 57.23 57.29 56.75 57.06 55.91 56.15 56.37 56.44 56.30 57.13 58.03 58.24 57.58 57.47 57.76 58.07 59.26 58.10 57.86 57.55 57.33 57.01 56.53 55.61 54.93 56.61 56.53 56.61 56.75 56.23 56.09 56.51 55.62 55.68 55.48 55.04 54.70 53.06
50.99 54.17 55.12 56.42 56.98 56.94 56.20 56.09 56.20 55.91 55.89 56.13 56.40 56.17 56.15 56.64 57.12 56.87 58.02 57.99 57.89 57.62 57.96 57.89 58.26 57.42 56.95 56.56 56.62 56.77 56.68 56.00 56.71 57.29 56.53 56.17 56.97 56.43 56.13 55.96 55.67 54.73 54.10
46.11 50.50 54.48 54.85 55.09 55.23 55.58 55.59 55.72 55.65 56.11 56.48 56.63 56.38 56.35 56.15 55.58 56.72 56.86 57.11 57.34 58.47 57.32 57.00 57.59 58.07 57.40 57.65 56.83 56.11 56.78 55.77 55.82 56.46 56.59 56.15 56.27 55.46 55.99 55.58 54.86 54.73 54.96
43.74 45.02 45.79 51.34 53.92 54.73 54.85 55.16 55.83 55.41 56.02 56.14 56.38 56.50 56.27 56.10 55.41 56.81 57.49 56.48 56.66 58.03 58.58 57.95 57.00 57.13 57.89 56.99 57.02 57.43 56.76 56.65 56.54 56.60 55.99 56.34 56.91 57.21 55.98 55.53 54.80 54.80 54.67
39.85 40.95 42.14 43.15 44.85 46.97 48.82 50.49 52.31 55.48 55.97 56.03 55.85 55.35 55.55 56.13 56.22 56.91 58.20 57.55 57.48 56.96 56.87 57.17 57.18 57.60 58.22 58.12 57.85 57.22 57.31 57.13 56.94 57.81 56.79 56.73 56.05 55.74 56.17 55.52 55.88 57.05 56.94
36.86 37.21 38.01 38.95 40.71 41.69 43.49 45.49 46.11 48.41 52.36 49.94 49.10 48.91 49.86 54.75 55.78 56.16 57.62 57.83 57.52 56.51 56.45 56.65 57.34 57.82 56.97 56.22 56.59 56.80 56.67 56.33 56.61 57.74 57.85 57.60 56.41 51.72 54.49 58.14 58.54 57.22 55.46
35.30 35.43 35.85 35.92 36.25 37.30 39.25 40.34 41.05 42.02 43.73 43.15 43.18 44.32 44.91 45.46 47.00 48.32 48.20 50.69 50.85 50.01 55.52 55.16 55.08 54.98 50.19 36.80 37.35 44.47 56.84 56.57 56.29 56.01 56.43 56.62 50.35 50.25 45.57 45.35 46.27 51.60 54.90
34.15 34.12 34.26 34.50 34.22 34.55 35.43 35.60 36.55 38.50 38.51 38.80 39.50 40.42 41.48 41.75 42.54 43.27 43.80 43.89 42.36 42.41 41.61 41.03 44.02 38.67 37.15 35.66 36.86 36.48 46.93 52.24 55.02 55.18 54.11 54.13 53.34 45.88 51.90 46.58 42.40 42.77 41.64
33.09 32.98 33.60 34.00 33.47 34.37 33.90 33.88 34.72 34.89 35.27 35.03 35.85 37.14 38.86 39.03 39.73 39.51 39.66 38.82 37.69 36.29 36.23 36.12 36.78 35.68 34.92 34.76 35.76 35.90 43.19 47.28 38.64 36.93 36.70 37.41 37.01 36.52 37.86 41.40 41.51 33.22 32.53
32.75 32.75 33.34 33.88 34.06 33.10 33.08 33.33 33.07 33.01 32.85 32.03 33.22 34.63 36.19 36.46 37.23 36.33 35.51 35.35 34.53 33.36 32.73 32.56 32.47 32.39 32.77 34.09 35.03 39.32 39.58 35.17 33.24 32.82 33.06 33.08 32.59 33.91 35.37 39.97 34.51 31.22 29.75
31.91 31.75 32.28 32.77 32.75 32.57 32.86 31.61 30.71 30.74 30.34 30.98 31.59 33.14 33.85 34.19 34.19 34.44 33.80 33.61 32.71 31.49 31.18 30.13 30.86 31.08 30.89 32.61 33.76 35.70 34.81 31.24 29.86 29.19 29.70 31.11 30.98 31.32 31.95 33.42 32.37 27.11 26.86
31.61 31.86 31.04 30.74 31.03 31.73 31.56 29.25 29.24 28.33 29.84 30.73 31.00 31.36 32.15 31.97 32.53 33.04 33.20 32.68 32.08 31.51 30.95 30.05 30.13 30.36 30.73 30.53 30.94 31.58 31.29 29.65 27.83 27.62 28.16 29.41 29.97 29.97 29.86 29.30 28.00 26.77 26.77
29.93 30.01 28.86 28.21 30.16 30.95 29.73 27.64 26.73 28.68 29.54 29.40 29.01 29.37 29.97 30.67 31.32 31.42 31.37 32.02 31.75 30.88 29.98 29.93 29.19 29.65 29.79 29.63 29.02 29.09 29.00 29.23 28.06 27.27 27.89 28.08 28.08 27.85 27.63 27.87 26.99 26.66 27.78
27.61 28.21 27.28 26.57 27.45 28.79 29.31 26.58 27.08 28.26 28.39 27.79 27.41 27.84 28.28 28.60 29.01 29.37 29.18 29.27 29.76 29.39 28.56 28.33 27.57 27.79 28.93 28.89 27.42 27.62 26.71 26.88 27.29 26.91 25.48 24.91 24.87 24.80 25.00 24.34 24.39 25.74 26.96
25.44 26.44 25.70 24.85 24.69 26.38 27.75 27.71 28.01 28.36 27.88 27.01 26.92 27.20 27.04 27.19 27.60 27.99 28.33 27.82 27.56 27.23 27.14 26.76 26.48 27.20 27.54 28.42 29.08 28.40 28.19 25.92 26.32 25.02 24.39 23.46 23.00 21.96 22.27 23.23 23.44 23.50 23.16
24.20 24.94 24.48 23.78 23.79 25.17 25.64 27.33 28.15 27.89 26.31 25.39 25.24 25.71 25.72 25.32 25.39 26.23 26.18 25.96 27.32 27.24 25.76 26.08 26.33 25.68 25.05 26.12 26.48 26.78 26.50 25.62 23.36 24.17 24.37 23.41 23.11 22.01 21.41 20.56 19.63 20.16 20.48
23.37 23.36 23.43 23.22 22.75 23.15 23.52 24.70 25.15 25.48 24.98 24.17 23.59 23.60 23.79 23.59 23.83 23.17 22.33 24.88 25.16 25.30 25.29 25.42 25.62 25.86 25.44 24.70 24.47 23.58 22.31 21.63 21.57 21.47 20.09 19.16 19.30 18.44 18.20 17.62 17.07 17.24 16.20

GFSMW_sfc_wetblb_087.txt.gz
Wetbulb
56.14 57.39 57.79 58.46 60.48 63.76 66.31 67.84 68.58 68.37 68.94 66.46 64.33 64.36 62.61 64.22 63.98 64.43 64.84 64.81 65.09 64.58 64.28 63.96 63.77 63.05 63.31 62.66 62.64 61.57 60.31 60.03 61.21 59.72 59.60 60.28 60.95 61.31 61.10 61.87 61.24 62.02 61.51
55.21 56.17 57.49 58.28 61.34 64.20 66.47 67.71 67.99 68.15 67.53 66.06 66.12 65.46 64.78 64.16 65.25 65.19 64.26 64.13 63.39 63.47 62.93 62.96 62.76 62.25 61.95 61.43 61.16 60.85 59.70 60.02 61.50 59.21 57.39 54.47 56.29 59.23 60.56 61.37 60.99 62.41 61.36
54.65 55.89 56.76 57.55 61.17 63.62 65.88 67.09 67.77 68.00 67.29 66.84 66.50 65.47 64.71 63.77 63.17 62.49 63.31 65.70 65.39 65.39 64.65 64.06 62.82 61.32 62.12 60.41 60.26 60.75 59.81 57.77 60.36 61.84 58.29 53.86 52.88 56.54 59.17 60.30 60.35 61.43 61.05
54.39 55.89 56.73 56.85 59.75 63.44 65.98 67.07 67.71 67.52 67.11 67.14 65.55 64.04 62.21 61.04 62.51 62.83 64.03 64.58 64.79 64.38 64.49 63.90 62.62 61.75 60.85 59.80 60.13 61.03 60.42 59.81 59.31 59.95 60.35 60.60 59.46 55.39 54.37 59.14 59.75 60.89 60.42
54.99 55.27 56.23 57.24 57.68 63.28 65.02 66.91 66.94 66.55 66.59 66.31 65.65 63.97 62.95 62.82 63.15 63.25 62.64 62.78 62.82 62.09 62.54 61.51 61.31 60.39 60.30 59.76 59.96 59.29 60.15 60.42 60.87 59.13 60.20 60.00 60.38 59.81 56.95 54.27 56.96 58.64 61.09
57.65 57.33 58.20 58.66 57.62 61.49 65.38 66.76 65.48 65.91 65.06 65.85 65.27 64.55 63.26 62.37 61.61 61.94 61.70 60.85 61.26 60.08 59.13 59.07 60.34 60.27 59.43 58.82 59.28 59.26 59.48 60.42 60.96 60.54 60.75 59.72 58.06 58.32 57.99 56.30 57.30 57.53 59.50
56.50 59.28 59.41 58.69 58.50 61.41 64.57 65.40 64.26 64.22 63.99 64.96 65.08 64.34 63.37 62.51 61.58 61.73 61.24 59.49 58.99 58.53 57.43 57.27 57.29 58.60 59.05 58.86 59.32 59.45 60.11 61.04 60.44 60.82 59.88 61.53 60.93 60.89 60.09 58.98 56.16 56.12 58.65
55.09 56.43 59.85 60.21 60.21 61.25 64.13 62.98 61.77 61.42 62.16 64.36 64.81 63.97 62.98 62.17 61.28 62.49 60.61 60.27 59.29 59.18 58.18 57.20 56.85 57.57 58.17 58.49 58.77 59.35 59.88 60.78 61.11 60.75 60.75 60.22 60.72 61.44 60.19 58.60 56.80 54.63 55.58
53.08 53.37 56.18 60.07 61.19 62.54 61.39 60.40 60.10 60.56 61.56 64.77 64.38 62.94 62.64 61.58 61.05 62.10 62.30 61.09 61.26 59.77 59.21 58.30 57.10 56.79 57.51 57.87 57.73 57.75 57.71 58.90 60.84 60.74 59.82 59.92 60.31 61.47 60.71 60.47 59.54 56.79 52.75
50.85 49.05 53.02 56.23 61.40 61.45 59.83 59.35 60.10 60.37 61.70 64.33 63.25 61.60 61.47 61.27 61.68 62.13 61.70 61.75 61.93 60.96 60.35 58.01 58.48 56.90 56.79 57.45 57.58 57.21 57.59 57.56 58.14 59.12 59.22 60.18 60.23 59.56 59.37 60.14 60.00 58.82 56.23
48.02 44.56 46.17 49.27 59.11 59.61 58.91 58.43 59.73 59.73 60.57 62.63 61.10 60.89 60.46 60.71 61.10 60.36 61.17 61.26 61.84 61.39 60.96 59.64 57.89 56.87 56.63 56.60 56.60 56.10 55.65 55.29 55.82 57.64 58.15 57.50 58.55 58.51 60.29 60.08 60.13 58.97 57.90
45.67 42.51 42.85 44.87 55.28 58.00 58.41 59.07 58.71 58.98 59.76 60.79 59.61 59.80 60.19 60.45 59.83 59.55 60.22 61.15 60.68 60.74 59.80 60.51 58.90 57.15 56.34 56.14 55.54 55.36 55.07 54.64 55.22 56.43 56.44 56.16 56.20 56.64 57.70 57.91 57.18 57.03 57.60
42.68 40.34 40.35 40.43 43.14 49.45 57.01 57.36 57.58 58.05 58.77 59.26 58.79 59.09 58.77 58.46 58.45 58.96 59.28 60.42 59.90 59.78 60.45 59.54 58.64 57.70 56.75 55.89 55.45 55.22 55.12 54.31 54.43 54.87 55.24 55.79 56.27 56.27 56.45 56.78 55.69 56.23 55.82
40.04 37.46 37.07 37.39 38.95 41.93 44.91 47.23 56.32 58.36 58.17 57.66 57.49 57.26 57.68 57.77 58.38 57.94 59.35 59.50 59.26 58.83 58.77 59.15 59.34 58.37 57.80 56.93 56.35 55.28 54.06 53.74 54.33 54.76 55.85 56.02 54.59 55.23 55.47 55.88 54.91 54.70 54.25
37.66 35.14 34.75 35.13 35.75 37.79 39.87 42.11 44.52 49.40 53.26 51.71 51.08 50.87 52.13 55.85 56.08 54.87 52.62 56.51 55.18 55.75 56.21 57.94 58.02 55.09 45.34 41.08 44.01 53.05 55.69 56.04 55.32 55.65 56.25 56.55 54.62 50.17 51.67 55.25 55.49 56.21 55.32
34.51 33.86 33.35 33.47 33.51 34.70 36.29 38.24 39.84 42.37 45.25 45.28 44.95 45.72 46.48 47.18 46.58 45.52 45.33 44.81 44.31 43.90 44.22 42.97 42.19 41.50 39.46 36.12 37.45 41.29 52.96 52.27 51.56 52.25 50.65 48.98 42.54 42.22 37.74 36.89 37.14 36.89 44.28
33.32 33.02 32.06 32.32 32.94 33.74 35.29 34.91 37.06 38.77 39.83 40.89 41.41 41.67 41.84 41.34 41.01 40.49 39.19 38.93 38.63 38.72 37.92 37.85 37.80 36.64 36.73 36.49 37.90 39.03 44.68 40.75 39.46 38.54 38.67 40.23 38.83 38.08 40.85 35.58 34.07 32.84 32.81
33.29 33.62 32.74 32.14 33.17 33.53 34.78 35.04 36.21 35.85 36.24 36.90 38.37 39.11 38.44 37.82 37.74 36.78 35.40 35.09 35.26 34.77 34.69 34.71 34.64 34.52 35.35 36.50 35.94 35.20 35.40 33.92 33.58 33.37 33.53 33.87 34.03 35.34 37.89 34.29 30.78 29.96 30.55
31.31 32.35 33.11 32.76 32.81 33.23 33.18 33.15 33.26 33.75 34.61 34.20 35.33 36.63 36.79 35.49 34.92 33.84 33.70 33.64 32.87 32.67 32.54 33.43 33.24 32.57 33.34 35.18 34.92 34.17 32.92 31.61 30.96 31.21 32.08 31.99 31.90 34.40 37.10 32.30 28.95 28.17 27.77
31.66 31.27 31.61 32.31 32.91 32.97 33.60 32.16 31.57 31.77 31.74 32.22 33.33 34.72 35.28 35.21 33.94 33.27 33.86 34.01 33.20 32.37 32.20 31.53 32.46 32.57 31.39 33.93 34.27 33.91 32.62 30.21 29.69 30.08 30.34 31.29 31.53 32.78 32.77 31.43 29.83 27.53 28.36
32.19 33.20 32.20 30.97 31.26 32.88 32.90 31.41 30.86 30.88 31.93 32.76 33.71 34.06 35.05 34.88 34.35 34.74 35.63 35.22 34.79 33.87 33.23 32.53 32.48 31.06 31.98 31.62 32.62 34.63 33.46 32.22 30.60 29.60 28.91 30.08 30.14 30.56 31.18 31.43 31.65 30.53 32.52
32.16 32.46 31.34 31.15 31.85 32.02 31.59 30.41 30.54 32.49 32.14 32.12 32.71 33.35 34.40 35.28 35.10 35.73 36.09 35.75 35.15 34.29 33.47 32.47 31.65 31.46 30.69 29.52 29.92 30.46 31.39 32.20 30.57 29.02 29.28 29.36 28.42 28.79 29.13 29.75 29.99 30.91 31.93
30.01 30.72 30.07 29.77 30.47 31.33 31.87 29.63 30.53 31.76 32.33 32.05 31.92 32.27 31.59 31.92 33.34 33.69 33.79 34.12 34.58 33.76 32.30 31.60 30.72 30.35 31.69 30.89 28.87 28.47 28.54 28.75 29.16 29.17 27.86 28.27 28.60 28.72 28.26 27.64 28.01 29.19 30.66
29.97 30.17 28.85 27.55 27.45 29.97 30.80 30.62 31.78 32.07 31.23 29.76 28.47 28.39 28.58 29.01 29.93 29.04 27.77 27.30 30.66 30.53 30.80 30.30 29.29 28.56 27.87 28.87 30.42 31.42 31.36 29.83 30.10 29.85 29.92 28.89 28.71 28.70 28.32 27.93 28.10 28.01 27.31
29.22 28.96 27.89 27.62 27.11 27.73 28.01 30.40 32.62 32.64 30.41 30.08 29.59 28.62 27.20 26.11 24.64 25.21 26.15 25.93 26.41 27.13 27.64 26.71 27.25 26.45 24.46 24.61 25.87 27.20 28.40 28.93 28.84 30.67 30.82 29.08 28.53 27.23 27.00 26.17 25.04 24.93 25.23
27.45 26.75 26.72 26.46 26.44 26.78 26.64 27.50 29.88 31.16 30.71 29.47 29.12 29.37 29.03 28.49 26.94 24.61 22.67 24.70 24.98 24.93 25.06 25.47 26.22 25.00 24.18 24.31 24.39 24.87 25.40 26.71 28.38 28.16 26.34 25.48 25.55 24.44 24.11 23.41 23.16 22.54 21.53

GFSMW_sfc_wetblb_093.txt.gz
Wetbulb
48.15 49.55 50.94 52.07 53.40 54.46 53.21 66.06 66.27 66.34 66.43 65.74 64.89 63.79 62.92 63.02 62.28 62.94 64.11 63.99 63.77 62.59 62.13 62.19 61.69 62.83 61.98 61.26 60.93 60.78 60.36 60.06 60.92 59.28 57.35 57.70 56.84 57.60 58.19 58.47 57.78 57.52 58.12
48.38 50.00 50.90 51.89 52.63 53.85 55.16 65.75 66.17 66.63 66.46 66.14 65.44 64.01 62.68 60.75 61.20 62.79 63.65 63.58 62.64 62.10 62.05 62.16 62.57 62.07 61.00 60.76 61.55 61.12 59.77 59.78 60.99 57.57 55.77 52.93 54.70 56.36 55.31 57.38 57.69 57.14 58.44
47.55 49.52 51.01 51.94 52.51 52.41 57.63 65.39 66.06 66.24 65.95 65.05 63.31 62.05 61.02 60.30 58.77 59.44 60.76 62.85 64.19 62.58 62.06 62.61 62.60 62.39 62.26 61.57 61.33 60.80 59.62 58.04 59.77 59.35 55.73 51.61 50.57 53.62 55.25 55.08 57.12 56.71 56.88
52.99 50.83 49.84 51.22 51.44 53.20 63.89 65.71 65.97 65.69 65.22 64.44 63.46 61.12 60.43 59.00 58.90 59.39 60.49 62.01 63.11 63.24 62.49 62.51 62.10 62.09 61.57 61.28 61.54 60.98 59.51 58.73 57.40 58.89 59.48 56.38 55.46 51.35 50.27 54.28 55.29 56.78 57.70
52.60 52.84 54.54 55.47 53.49 56.46 65.11 65.62 65.14 65.28 64.86 63.51 62.60 60.93 59.24 58.36 59.47 58.99 59.53 60.63 60.85 62.19 62.36 62.10 60.61 61.61 61.69 61.51 61.72 60.59 59.55 59.13 57.98 57.79 57.43 55.88 55.30 55.07 52.24 50.08 53.09 55.05 56.27
52.07 53.34 54.70 55.32 55.78 55.84 62.56 65.22 64.35 64.46 64.27 63.05 62.36 61.25 59.63 58.44 58.82 58.06 58.20 59.51 61.24 61.57 61.12 62.02 61.83 61.04 61.25 61.16 61.26 61.30 60.06 59.15 59.06 58.72 57.84 55.90 54.23 53.83 52.57 51.55 52.75 52.94 54.54
50.53 50.57 50.75 51.25 52.78 53.44 54.69 62.94 63.66 63.22 63.47 62.84 62.31 62.14 61.07 58.91 57.95 57.51 58.60 57.65 57.68 57.43 57.70 58.23 58.65 59.74 61.13 60.91 61.11 60.97 60.44 59.42 58.72 58.37 57.58 57.58 55.92 56.30 55.54 54.24 53.09 52.67 53.89
48.09 47.30 48.31 48.97 49.33 54.87 56.32 60.30 62.46 62.75 62.06 62.17 61.51 61.94 61.55 58.59 58.74 58.84 58.42 56.54 56.36 57.55 57.47 57.02 57.61 58.61 58.49 59.99 60.56 60.43 60.34 59.77 59.02 58.58 58.28 58.21 57.66 57.03 56.32 55.41 54.05 51.92 52.80
45.21 44.68 45.33 46.35 46.57 49.36 58.56 59.42 60.61 61.68 61.65 61.21 61.34 61.82 61.01 58.88 58.87 58.37 58.59 57.93 57.92 57.00 56.68 56.94 57.19 57.65 58.31 59.25 59.55 59.64 59.64 59.86 59.06 58.85 58.70 58.01 57.90 57.45 56.99 56.36 55.17 53.29 49.92
42.97 42.13 42.54 43.17 44.16 46.74 52.14 59.24 60.16 59.62 61.24 61.55 61.42 61.30 59.89 59.42 58.87 58.71 57.68 57.98 58.78 58.29 57.49 56.64 56.62 57.05 57.45 57.95 58.43 58.01 58.85 58.87 58.78 58.63 58.30 58.27 57.27 56.95 56.68 55.95 56.13 54.93 51.65
40.01 39.80 39.98 40.78 41.32 43.53 46.41 50.06 58.42 59.50 59.38 60.33 60.77 59.89 58.94 59.85 58.98 58.37 58.37 57.78 58.77 57.06 57.11 56.89 56.32 56.38 56.70 57.07 56.89 57.47 57.63 57.11 57.58 57.99 58.07 57.54 57.10 56.32 56.30 56.08 55.99 54.78 54.70
38.25 37.91 37.72 38.49 38.70 39.73 41.95 44.11 47.40 57.31 57.50 59.93 59.23 59.20 58.83 58.64 58.95 59.66 59.96 59.95 58.97 58.65 57.88 56.98 56.20 55.77 56.50 56.56 56.06 56.14 56.44 57.14 57.23 57.66 57.58 56.28 56.14 55.74 55.33 55.05 55.03 55.19 55.45
36.16 35.57 35.78 35.93 36.65 37.66 38.96 41.10 43.66 48.60 58.21 58.70 58.10 58.21 58.01 58.09 58.25 58.62 58.78 59.16 59.51 59.20 58.13 57.40 56.30 55.53 55.95 55.72 55.26 55.20 55.02 54.88 55.16 55.16 55.01 55.18 55.14 54.40 54.56 54.38 54.08 54.87 54.76
34.08 33.76 33.74 34.45 35.29 36.30 36.84 38.62 40.78 45.30 56.76 57.61 57.28 57.28 57.25 57.21 56.66 57.59 57.73 57.51 56.35 57.63 57.64 57.02 56.34 55.15 55.01 55.31 55.23 54.66 54.15 53.89 54.04 54.56 54.38 54.48 54.15 54.15 54.43 54.35 54.21 54.08 54.06
32.36 32.43 32.20 32.84 33.63 34.50 35.43 37.02 38.83 41.81 46.26 49.97 50.23 50.17 50.73 50.53 49.97 49.78 48.93 47.89 47.43 47.50 47.84 46.39 45.51 44.94 44.11 42.41 48.55 54.61 54.23 53.63 53.58 54.14 52.44 45.86 44.02 41.20 42.84 53.44 53.90 53.90 53.39
30.36 31.06 31.56 32.14 32.29 33.04 34.38 35.49 37.38 40.73 40.41 41.50 43.10 45.01 45.01 43.89 43.14 42.73 42.36 41.74 41.25 41.02 41.25 40.56 40.61 40.28 40.17 38.40 40.13 47.28 46.76 46.69 49.20 45.43 42.96 40.68 38.18 36.24 35.60 35.51 34.52 35.55 44.83
29.53 29.96 30.74 31.23 32.01 32.31 33.82 34.01 35.12 36.72 37.26 36.73 37.64 38.32 39.46 39.26 38.47 38.16 37.99 37.33 36.98 37.43 37.19 37.03 36.54 35.72 36.30 36.72 37.37 37.46 38.41 37.51 37.08 37.99 39.17 39.23 36.96 35.90 34.44 33.43 33.24 32.99 33.05
29.23 29.51 30.30 31.22 31.80 32.50 33.22 34.28 34.47 34.39 34.14 34.07 34.71 35.39 35.53 35.67 35.85 35.37 34.84 34.69 34.47 34.10 34.32 34.49 34.90 34.61 34.44 34.66 34.84 34.35 34.17 33.62 33.55 34.00 35.06 37.05 37.19 34.66 33.34 31.97 30.94 30.96 31.20
29.38 30.06 30.96 31.43 31.71 31.92 32.49 32.81 32.41 32.78 32.56 32.53 32.86 33.40 33.96 33.52 33.28 32.61 32.34 32.60 32.17 31.94 31.88 32.46 33.31 33.11 33.16 34.07 33.54 32.78 31.60 30.99 31.26 32.71 32.95 32.89 33.07 33.49 33.80 30.90 29.53 29.73 30.55
30.44 30.08 30.51 31.10 30.74 31.73 32.37 31.74 31.13 30.86 30.70 31.38 32.10 33.43 33.53 33.23 32.54 32.56 31.82 31.56 30.86 30.01 29.94 29.62 31.11 32.58 32.54 33.49 33.06 32.21 30.55 28.88 29.20 30.67 31.66 32.81 32.10 32.68 32.41 31.18 30.41 28.77 29.14
31.07 31.18 30.81 29.64 30.24 31.47 31.65 30.00 29.77 29.62 30.79 31.64 31.44 31.04 32.01 32.27 32.52 32.58 32.50 31.41 30.31 29.36 28.51 28.21 28.81 29.75 31.15 31.92 32.50 31.73 29.92 28.32 28.03 28.08 28.92 30.70 32.33 32.89 32.75 32.32 30.83 29.71 30.33
29.95 30.65 29.84 29.90 31.36 31.32 30.14 28.13 27.29 28.65 28.81 28.55 28.71 28.70 28.95 29.67 30.21 31.80 31.87 31.95 31.09 29.60 28.84 28.20 27.69 28.70 29.67 30.80 31.14 31.20 30.31 29.63 27.31 26.65 27.84 29.24 30.59 30.43 30.20 29.40 30.50 30.89 29.85
28.56 28.88 28.17 27.98 28.45 31.14 30.57 27.68 28.02 28.65 27.59 26.66 25.97 25.89 26.46 26.71 26.65 26.23 26.93 28.09 30.08 28.30 26.71 25.75 24.62 25.30 27.11 29.10 30.24 29.93 29.36 29.06 27.62 28.00 28.73 28.20 27.69 27.02 26.02 26.87 26.03 22.85 21.89
27.69 27.65 26.53 25.51 25.64 27.89 29.89 31.28 30.80 29.40 27.46 25.42 24.57 24.79 24.49 24.16 24.71 24.80 25.22 25.40 25.20 24.25 25.28 23.71 22.74 23.40 24.84 26.21 27.93 28.84 29.56 29.07 28.78 28.06 26.68 24.87 23.93 22.39 21.55 21.31 21.68 21.38 20.80
26.75 26.44 25.26 25.09 25.43 26.70 27.25 29.40 31.07 30.94 29.70 27.55 25.84 24.16 23.32 22.77 22.85 23.80 23.69 23.88 25.26 24.31 22.05 22.16 22.67 21.82 22.54 25.94 28.92 28.48 27.82 28.22 27.34 25.51 24.15 22.63 21.59 20.18 18.90 18.35 18.27 18.09 18.19
25.96 25.27 25.30 24.72 24.81 25.40 26.37 27.46 28.34 29.01 27.86 27.54 27.76 25.60 23.75 22.06 20.93 20.22 20.42 25.20 25.59 25.91 25.76 24.78 22.68 23.35 26.10 27.32 28.14 29.06 29.05 27.84 25.89 22.12 19.72 18.27 17.96 17.45 17.27 16.36 15.76 15.91 15.69

GFSMW_sfc_wetblb_096.txt.gz
Wetbulb
46.19 46.07 47.35 48.45 48.97 49.45 50.07 64.42 66.25 66.59 66.28 65.03 63.89 63.27 63.05 63.01 62.95 63.19 63.01 62.45 63.50 63.19 62.17 61.61 61.69 62.35 61.69 61.46 60.79 60.24 59.58 59.71 60.59 58.96 59.53 58.32 59.04 59.02 59.48 59.28 58.89 57.74 58.04
46.43 47.36 46.48 46.87 48.51 49.76 50.84 61.42 65.62 65.99 65.99 65.93 65.48 63.97 63.74 62.99 63.05 62.80 62.95 62.71 62.51 62.95 63.33 61.77 61.40 62.00 61.85 61.29 60.92 60.34 59.46 59.42 60.46 57.42 56.25 53.09 54.42 56.57 58.26 58.30 57.99 56.74 57.47
46.63 47.98 48.07 46.89 47.55 49.14 51.12 61.16 65.01 65.69 66.10 66.37 64.95 63.12 60.65 59.57 59.41 61.35 62.74 63.22 63.10 62.69 62.41 61.71 61.29 61.18 61.44 60.12 60.48 60.17 59.43 58.09 59.88 58.46 55.50 52.19 51.04 53.70 55.40 56.32 56.48 56.07 56.47
50.55 52.17 52.21 52.74 52.42 51.78 51.19 60.18 64.81 65.50 66.02 65.68 63.73 62.10 61.92 60.54 59.93 61.01 59.43 62.07 63.55 62.78 61.10 60.83 61.10 61.79 61.53 60.74 60.58 61.23 59.64 59.35 58.00 58.06 58.98 57.37 55.71 51.92 51.27 54.58 55.38 55.64 56.06
50.87 50.77 51.66 52.43 53.45 53.95 55.20 63.02 64.85 65.61 65.64 64.11 63.87 62.36 61.31 59.65 59.59 59.03 58.81 58.81 61.83 62.78 62.35 61.42 61.49 61.33 61.12 60.99 61.09 60.54 59.66 59.79 59.04 58.04 56.99 56.71 55.48 55.00 52.90 51.20 52.68 54.28 56.41
48.52 48.39 49.09 50.31 50.64 51.47 54.55 61.64 64.67 65.09 64.50 63.87 62.71 62.07 59.71 58.71 58.92 58.62 58.39 58.71 58.54 60.48 61.00 60.27 61.48 61.01 60.90 59.54 61.10 60.90 59.33 58.71 58.66 58.99 57.71 56.34 54.35 53.83 52.91 51.18 52.87 53.51 54.21
45.60 45.56 44.78 45.39 47.47 48.08 50.88 56.41 63.33 63.34 63.56 63.45 61.96 61.33 59.60 59.30 58.93 58.36 58.13 58.49 59.64 59.93 60.68 60.61 61.13 61.05 60.48 59.80 61.34 61.11 60.31 59.02 58.20 58.75 58.07 57.64 56.26 56.51 55.15 53.38 52.08 51.85 53.32
43.39 42.32 43.71 44.05 44.55 46.53 49.63 55.37 62.30 63.01 62.40 61.94 61.30 60.75 59.88 59.32 59.22 59.05 58.58 59.05 59.55 59.47 58.35 58.47 58.62 59.14 59.56 60.31 60.67 60.83 60.64 59.83 59.11 58.52 58.41 57.68 56.71 56.62 56.11 54.79 53.41 51.31 52.16
39.99 40.02 41.77 42.03 42.36 44.21 46.67 51.96 60.23 61.48 61.82 61.52 60.64 60.12 60.10 58.46 58.10 58.20 58.86 57.54 56.53 55.80 55.18 56.41 56.41 56.95 57.53 58.31 59.02 59.94 59.90 60.10 59.27 58.82 58.65 58.08 57.83 57.24 56.66 56.30 55.44 53.51 50.20
37.85 38.39 39.27 40.08 41.49 43.33 44.60 48.15 54.94 60.10 60.65 60.13 60.46 60.23 59.09 59.11 59.22 58.56 57.29 56.97 56.61 56.41 55.34 55.70 55.78 56.11 57.13 57.70 58.64 58.72 59.36 59.30 59.46 59.08 58.43 58.15 57.91 57.21 56.69 56.23 55.08 54.24 52.59
35.39 36.03 36.92 38.48 39.33 41.23 42.81 44.53 46.28 54.65 57.29 57.52 60.03 59.36 58.71 59.31 59.27 58.21 57.47 57.25 57.39 57.53 56.76 56.37 55.82 55.73 56.21 57.04 57.50 57.80 57.86 57.86 58.64 58.63 58.34 57.72 57.78 56.77 55.93 55.86 55.76 54.63 53.71
34.30 33.79 35.26 36.27 37.01 37.79 38.79 41.30 42.76 47.03 53.82 56.94 59.56 58.77 58.92 58.95 58.68 58.22 57.81 57.05 56.81 57.60 57.21 56.65 56.09 55.78 55.89 56.55 56.27 56.27 56.81 56.71 56.94 58.01 57.91 57.31 56.87 56.01 55.57 55.37 54.74 54.54 55.22
33.53 33.18 32.94 33.90 34.64 36.11 37.28 38.43 40.19 43.73 48.10 57.71 57.93 57.45 58.50 58.40 58.37 58.29 58.23 59.05 58.45 57.54 57.30 56.77 55.38 55.39 56.05 55.89 55.73 55.69 55.15 56.55 56.97 57.10 57.49 57.13 56.71 55.25 54.77 54.51 54.45 54.55 54.45
32.14 32.23 31.84 32.64 33.52 34.72 35.81 37.08 38.60 41.78 46.23 56.99 56.81 56.73 56.55 56.49 56.35 55.50 54.80 55.04 57.75 57.74 57.05 56.63 56.00 55.54 55.55 55.55 55.16 55.01 54.55 54.42 54.58 55.31 55.77 56.39 56.23 54.81 54.51 53.98 53.55 53.56 53.40
30.49 30.91 30.86 31.33 32.19 32.99 34.26 35.87 37.73 40.03 42.31 44.90 48.92 51.06 51.14 50.91 50.18 48.82 47.67 47.51 47.15 46.85 47.88 47.31 46.18 45.59 45.20 43.85 50.29 54.38 53.73 53.46 53.70 48.94 46.49 44.66 44.06 42.46 45.31 53.96 53.64 53.41 52.77
29.33 29.91 30.16 30.55 31.11 31.96 32.87 34.40 35.63 37.86 39.53 40.26 40.18 43.71 43.42 43.61 43.28 42.75 42.22 41.94 41.19 40.94 40.49 39.45 39.45 38.99 39.47 37.48 40.45 48.22 49.50 50.56 47.78 43.03 40.66 39.22 38.01 36.51 36.18 36.11 35.18 36.56 50.53
28.82 29.28 29.32 29.99 30.99 31.44 32.57 32.67 34.24 36.10 36.96 36.27 37.87 38.33 38.69 37.60 37.56 38.33 37.91 37.05 36.95 37.19 36.51 36.26 35.91 34.86 35.41 36.16 37.03 37.93 39.95 39.42 39.63 40.53 39.92 37.63 36.14 35.65 34.55 33.91 33.54 32.94 33.09
28.08 28.84 29.60 29.90 30.87 31.85 32.32 32.93 33.27 33.55 34.46 33.72 33.95 34.47 34.80 33.76 33.98 33.87 33.52 33.91 34.27 34.03 34.21 33.84 34.19 33.76 34.00 34.48 34.61 34.79 35.24 34.61 34.38 35.57 37.89 35.81 34.40 34.07 33.60 32.38 31.04 30.83 30.78
28.84 28.94 29.89 30.47 31.00 31.25 31.76 32.00 31.27 31.64 31.41 32.11 31.96 32.53 33.22 31.95 32.06 31.22 31.03 31.61 31.63 31.52 31.91 32.91 32.63 32.21 32.59 33.48 33.24 33.17 32.56 32.10 32.17 33.10 33.58 33.22 32.70 33.91 34.79 31.51 29.85 29.48 29.91
29.30 28.91 29.82 29.61 29.17 30.14 30.64 28.84 28.48 28.56 29.06 29.95 30.92 32.44 32.91 31.99 30.84 30.47 30.01 30.59 30.25 29.84 30.22 30.10 31.36 31.93 31.24 33.03 32.66 31.85 31.06 30.02 30.32 31.60 31.97 32.97 32.29 32.91 32.59 31.13 30.08 27.54 27.80
29.18 28.48 28.27 28.80 28.85 29.11 29.49 27.47 27.10 26.28 27.68 29.10 29.37 29.48 30.47 31.72 31.94 31.70 31.38 30.33 29.43 28.88 28.41 28.41 29.24 29.84 30.72 31.07 31.92 31.41 29.66 29.21 29.07 29.11 29.70 31.31 32.91 32.95 32.73 31.63 29.71 28.31 28.34
26.75 27.15 26.42 26.50 28.74 29.25 27.94 26.22 25.41 27.12 27.63 27.51 26.76 26.57 26.97 28.13 29.44 30.31 30.62 29.67 28.37 26.82 26.64 26.79 27.25 28.74 29.76 30.87 31.14 31.06 30.53 29.84 27.52 27.10 28.31 29.33 30.68 30.66 30.38 29.66 30.02 28.70 25.58
25.44 25.60 25.45 25.73 27.19 29.33 29.22 26.30 26.83 26.97 26.21 25.37 25.12 25.15 25.44 25.68 26.29 26.28 26.90 26.56 26.96 25.88 24.89 24.86 24.76 25.58 28.04 29.27 30.82 30.13 29.61 29.03 27.10 26.84 27.01 26.54 26.06 25.73 25.28 25.92 24.76 22.62 21.43
24.59 25.28 24.89 24.81 25.34 27.54 28.63 29.99 30.17 28.38 26.12 24.27 23.55 23.86 24.37 24.12 24.54 25.23 25.13 24.03 23.62 23.27 23.28 23.44 23.46 25.18 26.64 27.22 28.55 28.98 28.88 27.49 25.31 24.22 23.21 22.53 21.96 20.59 20.32 20.26 20.80 19.78 18.42
24.76 24.52 23.73 23.59 24.09 25.90 26.73 28.02 29.62 30.33 26.76 24.94 23.93 22.86 22.55 22.61 23.34 24.27 24.35 23.77 24.45 23.91 22.00 22.68 23.53 23.76 24.52 27.98 29.77 28.42 26.66 25.34 24.73 23.57 22.47 20.74 19.54 18.03 17.94 17.80 17.98 18.68 18.53
23.51 22.81 23.01 22.42 22.55 23.21 23.63 24.72 26.72 27.83 27.62 27.11 25.07 23.10 21.32 20.54 20.71 21.00 21.74 26.52 26.82 26.58 26.48 26.27 25.14 26.60 28.60 29.60 29.49 28.62 27.26 25.82 24.12 20.47 17.97 16.97 17.12 16.39 16.12 15.55 15.67 16.47 16.44

GFSMW_sfc_wetblb_102.txt.gz
Wetbulb
42.02 43.79 49.22 50.36 46.88 43.17 43.40 44.96 49.81 62.77 66.20 66.63 65.21 64.57 63.88 64.62 65.05 64.99 64.58 64.15 64.56 64.10 64.22 63.69 63.36 63.04 62.45 62.42 62.63 61.99 61.00 60.30 60.80 59.39 59.26 60.10 60.98 60.94 61.61 62.22 61.74 61.07 60.52
47.96 49.94 49.40 49.26 49.71 50.13 49.23 46.31 49.27 59.12 65.47 65.82 66.09 65.87 65.27 65.53 65.43 65.22 64.49 64.11 64.15 64.04 63.86 63.02 62.88 62.83 62.76 61.95 62.05 61.40 60.39 60.31 60.68 58.07 56.70 53.66 55.25 58.81 60.55 61.18 61.20 60.48 60.22
45.90 47.09 47.48 47.46 47.61 47.94 48.17 50.18 51.49 55.97 64.40 65.40 65.93 62.71 63.85 62.88 63.45 64.33 64.22 64.36 64.40 64.02 63.71 62.94 62.95 62.80 62.57 61.11 61.22 61.17 60.28 58.87 59.98 59.01 56.98 52.50 52.27 54.19 57.00 59.41 60.36 59.71 58.93
44.60 45.16 45.09 45.47 45.92 47.31 47.86 48.86 50.58 53.06 62.42 64.85 64.78 63.59 62.48 61.46 62.57 63.31 63.88 64.59 64.38 63.82 63.76 62.74 62.73 62.68 62.17 61.06 60.78 61.17 60.54 59.77 58.41 58.88 58.71 57.12 55.31 52.43 51.29 55.92 57.35 58.60 58.20
41.35 41.70 42.47 43.46 44.60 45.41 47.24 47.95 48.53 51.67 57.14 64.37 64.43 63.42 62.19 62.39 62.27 63.52 62.94 63.04 63.28 63.36 63.02 62.28 61.51 62.11 61.69 61.34 60.99 60.44 60.24 60.49 59.44 58.91 57.74 56.32 55.17 54.61 51.79 51.65 53.28 55.40 56.84
39.32 40.26 41.51 41.86 42.07 43.24 44.37 46.73 47.82 49.42 54.28 64.04 64.25 63.25 62.18 61.51 61.12 62.05 61.90 62.00 62.03 61.88 61.31 61.02 60.95 61.47 61.70 60.62 60.42 60.67 60.14 59.68 59.40 59.11 58.04 57.43 54.76 53.03 52.96 51.76 53.51 53.91 54.47
37.13 37.20 37.64 38.41 39.74 40.43 42.04 44.51 46.12 47.23 50.58 62.72 64.02 63.81 62.34 61.33 60.92 61.37 61.35 61.15 61.07 60.71 60.43 60.46 60.57 61.35 61.54 61.35 60.55 60.06 59.76 59.42 58.60 58.93 58.37 58.50 57.55 55.63 55.41 54.87 53.65 53.21 53.99
36.34 36.47 36.91 36.85 37.70 39.00 40.51 42.17 44.11 45.97 49.49 61.96 63.90 64.39 63.21 60.54 60.27 61.13 60.92 60.50 60.23 60.43 60.78 60.62 61.11 61.03 60.69 60.03 59.82 59.10 59.21 59.42 59.09 58.81 58.91 58.38 58.03 56.57 55.65 54.75 53.73 51.65 52.36
35.24 35.49 35.98 36.12 36.61 37.41 38.67 40.56 42.87 44.79 50.00 63.53 63.18 62.36 60.88 59.34 58.88 59.69 60.24 59.67 59.44 58.13 59.05 58.85 59.27 59.45 59.53 58.65 59.35 58.78 58.82 58.80 59.01 59.22 59.15 58.97 58.69 57.73 56.79 56.83 56.61 53.97 50.59
34.11 33.98 34.53 34.95 36.09 36.92 37.94 39.88 42.53 44.39 48.36 54.09 61.57 60.62 60.41 60.17 58.86 58.82 58.52 58.78 58.34 58.56 58.22 57.14 57.30 57.59 58.07 59.11 58.87 58.63 58.99 59.23 59.57 59.43 58.81 58.66 58.69 57.41 56.98 56.40 56.47 55.83 53.60
32.89 32.62 32.99 34.10 35.00 36.12 36.77 37.82 40.82 43.82 46.37 48.92 56.44 59.53 59.01 58.85 58.92 58.56 58.15 58.62 58.18 58.28 57.70 57.54 57.14 56.62 56.14 55.88 55.50 55.66 55.22 56.22 57.46 58.28 58.33 58.32 58.87 57.08 56.85 56.63 56.19 55.27 54.15
32.36 32.13 32.20 32.73 33.40 34.10 35.16 35.98 38.42 40.80 42.81 46.22 52.33 58.53 58.23 58.25 58.01 57.81 57.75 57.77 57.14 57.48 56.80 56.30 55.59 55.13 55.27 55.34 55.40 53.86 56.16 56.02 56.00 56.76 57.02 57.00 57.57 56.98 56.89 56.36 55.64 55.51 55.31
31.32 30.83 30.99 31.35 31.94 32.83 33.86 34.86 36.99 39.10 40.83 43.13 51.11 56.72 57.39 57.97 57.49 57.59 57.38 57.62 57.18 56.90 56.64 55.72 55.49 55.15 55.07 55.24 54.76 54.96 55.38 55.84 56.16 56.54 56.70 56.78 57.64 57.04 56.36 56.08 55.55 55.55 54.89
29.84 29.90 29.95 30.49 31.09 32.17 32.89 33.58 35.11 37.78 40.33 39.82 40.62 42.54 49.72 56.96 56.86 57.64 57.62 57.14 57.04 56.14 55.52 56.20 55.61 55.21 54.68 54.77 55.14 55.42 55.01 54.29 52.61 50.75 52.53 54.68 56.94 57.56 57.20 55.90 55.72 55.25 54.35
28.35 28.85 28.76 29.49 30.11 30.35 31.54 32.41 33.64 35.80 37.72 37.46 37.14 37.09 39.44 43.91 49.85 52.40 55.14 55.14 54.15 53.37 51.44 48.81 46.82 45.77 44.76 42.84 45.11 51.90 54.09 51.24 46.66 43.97 42.34 40.55 42.58 46.67 51.20 55.80 55.76 55.28 54.29
27.09 28.14 28.45 28.71 29.03 29.23 29.93 30.71 31.62 33.31 35.80 35.83 35.53 36.58 35.05 36.56 37.91 41.27 43.25 42.39 41.22 41.04 41.27 39.51 39.39 38.65 38.56 37.26 39.37 45.06 47.51 45.46 43.71 41.40 39.64 38.74 37.76 36.87 36.90 37.13 35.93 42.45 53.86
26.71 27.39 27.49 28.16 28.58 28.64 29.76 29.26 30.05 31.54 32.26 33.30 34.32 34.97 34.79 33.01 33.29 34.60 36.26 35.91 35.86 36.10 35.22 35.18 35.17 34.81 35.70 36.69 38.23 38.40 39.33 38.43 37.74 37.20 37.03 36.67 36.36 35.94 35.55 34.96 34.68 33.86 33.79
26.02 26.98 27.58 27.71 28.11 28.68 28.40 29.36 29.57 29.65 29.43 29.64 31.52 32.80 33.58 32.78 32.29 32.10 31.72 32.23 32.75 32.36 32.96 32.68 33.46 33.69 34.58 35.30 35.51 35.55 35.47 34.47 33.98 33.98 34.31 34.04 33.79 34.21 33.69 32.71 31.51 30.98 31.34
26.52 26.85 28.36 27.92 27.75 27.40 27.88 27.48 27.11 27.37 27.46 27.31 28.43 29.81 31.27 31.60 31.22 30.05 30.15 30.63 30.28 30.28 30.66 31.39 31.71 32.17 32.83 34.38 34.42 33.90 32.92 32.02 31.97 33.11 33.08 32.46 32.06 33.53 34.02 30.39 27.91 26.68 26.75
27.16 26.87 27.67 27.99 26.86 26.65 27.20 25.67 24.72 24.88 24.57 25.79 27.05 28.90 29.22 28.92 28.78 29.24 28.85 29.89 30.03 29.65 30.18 29.90 30.61 31.82 31.25 33.56 33.66 32.91 31.88 30.44 30.62 31.22 31.54 32.66 31.62 31.63 30.97 28.42 27.12 23.97 24.32
26.61 27.42 26.91 26.36 27.78 26.83 26.40 23.31 23.35 22.70 24.87 26.30 26.52 26.67 27.58 27.70 28.35 28.11 28.49 28.47 28.32 28.32 28.09 27.91 28.67 29.18 30.15 30.80 32.07 31.94 30.21 29.49 28.84 28.61 29.03 30.07 30.90 30.44 29.81 28.26 26.00 24.20 25.21
24.72 25.43 25.19 25.09 26.73 27.93 25.61 23.73 22.63 24.51 24.75 24.99 24.55 24.92 25.63 26.27 26.83 26.74 26.85 27.41 27.88 27.31 27.07 26.79 26.69 27.06 27.77 29.37 29.73 29.30 28.50 27.84 25.64 25.25 26.95 28.46 29.19 28.79 28.07 26.52 26.82 25.75 23.87
23.48 24.33 23.73 23.83 24.56 25.34 26.77 24.10 24.06 23.06 23.05 22.33 23.33 24.07 24.47 24.39 24.76 24.11 24.70 25.02 25.70 25.95 26.22 26.37 25.83 25.76 27.09 26.52 28.06 27.65 26.68 26.30 23.74 24.33 25.55 25.75 25.53 25.29 24.67 24.97 24.05 22.59 21.90
21.65 22.86 21.93 21.72 22.20 23.83 24.78 25.71 26.36 24.22 22.71 21.33 21.18 22.10 24.29 23.67 23.70 24.53 24.98 24.31 23.53 24.10 25.26 25.51 25.65 25.94 25.90 25.57 25.17 24.74 23.98 23.93 23.14 22.31 21.98 22.52 22.09 20.58 20.60 20.68 20.86 20.45 20.20
21.26 21.70 21.06 20.79 20.69 21.53 21.96 22.89 24.66 26.25 23.20 21.73 21.80 20.84 21.39 23.03 24.60 24.76 25.53 25.23 26.65 26.62 24.79 25.73 26.07 24.73 24.36 25.94 26.91 24.98 22.91 22.25 22.26 21.04 20.11 19.01 18.61 17.73 17.74 17.62 17.74 18.31 18.43
20.52 19.66 19.67 19.80 19.51 20.07 20.10 21.69 23.65 24.49 23.98 21.89 20.02 19.35 19.44 19.04 19.64 20.43 20.43 25.66 27.57 27.88 27.92 28.09 26.96 26.65 27.67 27.58 26.84 25.89 24.66 23.57 22.09 18.53 16.27 15.47 15.76 15.51 15.65 15.08 14.66 15.07 15.06

GFSMW_sfc_wetblb_105.txt.gz
Wetbulb
51.90 53.23 52.95 53.42 53.35 54.33 54.96 55.54 55.45 53.35 59.10 65.51 66.35 64.96 63.63 65.15 65.36 65.61 66.67 66.37 66.02 65.51 66.02 66.61 66.07 64.89 64.47 63.78 63.82 63.10 61.83 61.57 62.60 61.51 61.75 62.05 63.66 63.50 62.12 63.94 63.43 63.47 62.50
50.39 50.93 51.37 51.29 51.25 51.57 52.60 53.20 54.79 55.98 56.08 62.76 66.32 66.83 65.70 65.25 66.03 65.99 65.87 66.41 66.18 65.85 66.04 66.11 65.07 64.25 63.87 63.80 63.89 62.80 61.76 61.32 61.85 59.34 58.26 55.05 57.56 60.71 62.39 62.45 62.99 63.13 63.42
46.07 47.47 47.99 48.44 49.30 49.51 49.76 50.70 52.70 53.94 56.31 58.84 65.89 67.46 65.66 65.32 64.73 65.04 64.58 65.18 66.81 66.25 66.18 65.67 65.03 63.89 63.73 63.12 63.86 63.59 62.55 59.72 61.03 61.34 58.20 53.68 53.80 56.06 60.01 60.81 62.16 62.52 62.54
44.84 45.25 45.24 45.90 46.49 47.20 48.10 49.07 50.04 52.02 54.49 57.81 62.33 64.71 62.79 62.11 63.90 65.21 65.28 65.01 65.34 65.58 66.15 65.56 64.87 64.20 63.88 63.92 63.65 64.01 62.95 61.54 59.12 60.44 60.56 59.01 58.75 55.58 54.76 57.95 59.73 62.21 61.19
42.46 42.41 42.90 43.70 45.11 45.57 45.47 46.81 47.27 49.42 52.75 54.98 58.57 64.19 64.13 65.01 66.37 66.28 66.38 65.60 65.07 65.60 65.40 65.29 64.92 65.01 64.37 63.95 63.57 63.32 62.36 61.87 60.33 59.90 59.55 58.06 57.01 56.88 56.09 54.17 55.90 57.78 59.62
41.16 41.50 42.34 42.79 43.48 44.59 44.22 43.58 44.31 46.35 49.47 52.31 56.14 62.00 64.24 64.53 64.10 65.17 65.15 64.67 63.79 64.01 64.80 64.53 64.35 64.80 63.72 63.91 64.39 62.75 62.43 61.41 61.05 60.92 60.49 58.63 56.01 55.78 55.46 55.35 56.71 55.82 56.58
39.81 39.66 39.39 40.01 40.80 40.62 40.48 41.20 42.20 43.27 46.71 49.71 54.33 59.90 63.48 63.80 64.45 64.74 65.22 63.62 62.49 62.79 63.03 63.80 63.91 64.01 63.50 63.88 64.19 62.22 61.87 61.50 60.67 59.71 59.46 59.94 59.14 58.96 58.56 58.51 57.02 55.85 55.62
38.65 38.32 38.32 38.33 38.65 37.70 38.13 39.27 40.09 41.51 45.50 48.15 51.88 60.52 63.43 63.46 64.62 65.24 65.09 64.01 62.24 62.31 63.55 63.44 64.02 64.14 63.34 62.98 64.03 63.79 62.88 61.28 60.38 60.17 60.29 59.85 59.73 59.40 58.19 58.12 57.09 54.73 54.86
36.80 35.75 37.16 37.13 37.37 36.33 37.00 38.00 38.81 40.93 43.98 47.83 50.89 63.09 63.66 62.95 62.57 64.31 65.54 63.92 63.07 62.48 62.47 62.90 63.03 63.00 62.15 62.51 62.82 61.30 61.63 62.57 60.44 60.16 60.18 60.12 60.11 61.26 60.42 58.65 57.56 56.17 52.14
35.82 35.02 35.72 35.15 36.39 35.64 36.47 37.47 38.69 40.08 43.01 46.14 49.52 59.30 63.14 62.76 62.29 62.61 63.51 63.29 63.01 62.55 61.49 61.75 62.25 61.34 61.83 62.05 61.12 60.84 61.76 59.23 59.45 59.77 59.22 59.60 60.21 60.20 60.32 59.86 60.05 58.44 55.86
34.17 34.25 33.95 34.66 34.54 34.84 35.33 35.93 37.16 38.65 41.03 43.12 47.21 52.36 60.60 61.22 60.69 60.58 61.23 61.05 60.97 60.75 60.77 60.91 60.19 60.51 60.89 61.64 60.80 61.30 58.70 58.74 58.62 59.28 59.04 58.96 60.33 59.01 58.78 59.58 58.84 57.59 58.43
33.23 32.86 32.87 33.09 32.82 32.82 33.55 34.35 35.73 37.08 40.06 42.04 45.45 55.50 59.59 59.58 59.26 59.32 59.51 59.83 59.89 60.45 59.74 59.80 59.09 59.29 59.31 59.38 58.70 57.49 57.23 57.21 58.09 59.07 59.65 59.52 58.87 58.77 58.25 57.83 56.89 57.50 56.78
31.51 31.36 31.65 31.29 31.15 31.33 32.19 32.95 34.24 35.81 38.62 40.54 41.79 45.80 47.64 56.12 58.95 58.74 58.46 58.70 58.48 58.34 58.94 58.36 57.89 57.46 56.95 56.63 56.63 56.92 57.64 58.51 58.58 58.35 58.64 56.94 57.00 56.84 57.09 56.88 56.46 56.86 56.09
29.79 30.15 30.34 30.30 30.36 30.62 31.00 31.36 32.59 34.52 37.43 38.96 39.27 38.78 40.44 42.57 47.98 58.63 58.58 58.10 57.97 57.65 57.57 57.86 57.23 56.67 56.59 56.50 56.65 56.50 57.20 56.91 54.97 51.67 48.37 46.15 46.02 50.51 57.32 56.62 56.38 56.00 55.36
28.52 28.91 28.60 29.45 29.58 29.36 29.65 30.56 31.53 32.62 34.74 36.90 37.13 36.68 37.28 37.78 39.26 42.13 47.50 56.88 57.74 55.82 56.81 53.40 49.33 48.91 48.67 45.45 53.17 56.70 56.36 51.57 47.10 45.17 43.02 40.65 39.37 39.02 42.47 56.56 56.34 56.00 55.16
27.28 27.91 28.33 28.49 28.47 28.30 28.29 29.23 30.14 30.96 32.72 33.66 34.86 36.29 36.41 35.39 34.78 35.67 37.72 39.54 40.56 41.12 41.42 39.92 39.71 39.76 39.26 37.28 38.89 46.41 49.31 47.01 44.86 42.53 40.65 39.90 38.21 37.64 36.04 36.84 36.38 37.39 54.60
26.20 26.87 27.40 28.11 28.42 28.17 28.66 27.93 29.12 30.18 30.27 30.81 32.03 33.56 34.85 34.94 33.43 33.22 32.90 33.46 34.16 35.36 35.15 35.51 35.58 35.08 36.00 36.38 37.59 38.76 41.66 39.97 39.43 39.34 39.61 37.89 37.08 36.61 36.01 34.89 34.59 33.77 34.22
26.25 26.92 27.64 27.56 28.36 28.39 28.42 28.93 28.86 28.37 27.89 28.24 29.28 30.47 32.03 33.04 33.68 32.80 31.46 31.54 32.12 31.97 32.59 33.04 33.64 33.94 34.62 35.09 35.13 35.27 35.66 34.62 34.76 35.17 35.66 35.65 34.58 34.43 33.64 31.68 30.68 30.91 31.54
27.15 27.47 28.95 28.66 27.98 27.56 27.68 27.58 27.02 27.35 26.97 26.49 27.00 28.31 29.10 29.49 30.89 31.07 30.86 30.81 30.56 30.89 31.08 31.55 31.70 32.23 32.98 34.38 34.20 33.87 32.86 32.04 31.96 33.21 33.83 33.22 32.67 33.10 34.05 32.24 29.39 28.03 27.82
27.53 26.89 27.67 28.65 27.60 27.57 27.77 25.53 24.91 25.35 25.11 26.33 27.17 28.24 28.50 28.21 28.13 28.84 28.96 30.37 29.22 28.62 28.73 28.33 29.60 31.15 30.82 33.16 33.13 32.51 31.54 30.16 29.89 30.65 31.19 31.66 31.01 30.75 30.59 29.57 28.03 24.49 24.96
27.06 28.10 27.27 26.00 26.84 27.95 26.79 24.67 23.98 23.75 25.91 27.44 27.62 27.31 28.00 28.53 29.05 29.05 29.79 29.78 28.72 28.48 27.19 26.38 26.92 27.67 28.75 29.87 31.23 30.95 29.21 28.44 27.81 27.73 28.24 29.68 30.26 30.03 29.47 28.57 26.90 25.04 26.37
25.66 26.41 25.96 25.57 26.15 27.37 26.25 23.79 23.38 25.26 25.82 26.58 26.96 26.89 27.47 28.57 29.46 28.91 29.52 29.51 29.57 28.43 27.53 26.89 26.35 26.66 27.52 28.72 29.02 29.02 28.28 27.49 25.14 24.54 26.22 27.55 28.76 28.34 27.85 26.60 26.75 26.16 25.45
24.92 25.41 25.18 25.02 25.40 26.12 26.07 24.12 24.68 24.97 24.90 24.91 25.59 27.24 27.86 28.27 29.01 29.19 28.37 28.29 29.55 28.92 28.33 27.64 26.27 25.90 28.06 27.46 27.47 27.31 26.20 26.45 24.83 24.74 25.34 25.77 25.86 25.62 25.04 25.48 24.81 24.27 23.70
23.54 24.38 24.22 23.63 23.30 25.36 25.88 26.47 27.06 26.07 25.38 24.75 24.85 25.82 26.48 26.19 28.21 28.49 28.94 28.38 28.01 27.84 28.16 26.86 26.51 27.06 27.72 27.32 28.08 27.37 26.85 24.85 24.57 23.90 23.33 23.49 23.20 22.30 22.82 23.68 23.75 23.81 24.00
22.98 23.22 22.75 22.50 22.65 24.33 24.69 25.99 26.89 26.43 24.38 24.47 24.78 24.73 24.72 25.03 25.49 26.71 27.52 27.74 28.35 28.24 27.19 27.50 27.72 26.59 25.44 26.24 27.17 26.47 26.10 25.48 23.68 23.93 23.97 22.95 22.34 21.29 21.27 20.81 21.34 22.79 22.76
21.71 21.49 22.07 22.19 22.28 23.08 22.68 23.97 25.39 25.09 23.64 22.58 22.57 22.72 23.67 23.74 23.65 24.15 23.19 25.61 26.34 26.63 27.02 26.68 26.98 26.85 26.31 26.00 25.50 24.57 23.62 23.06 22.54 21.75 20.71 20.21 20.37 20.09 19.49 19.12 18.81 20.03 19.86

GFSMW_sfc_wetblb_108.txt.gz
Wetbulb
54.95 56.16 56.88 57.46 57.88 58.54 58.56 58.96 59.73 61.14 61.54 58.11 62.85 65.67 66.24 67.73 68.72 70.19 70.24 69.49 69.27 68.29 67.70 67.61 67.64 66.79 66.14 66.41 66.73 66.77 65.23 65.13 65.66 62.85 62.43 64.20 65.60 65.14 65.70 65.59 64.11 64.98 64.02
53.26 54.06 54.87 55.74 55.68 55.93 56.55 56.73 57.53 58.84 60.06 60.97 59.78 64.67 66.47 67.10 67.58 68.86 69.46 68.78 68.08 68.08 67.36 67.68 66.74 66.59 66.44 66.15 65.79 64.95 63.25 64.20 65.35 61.30 59.74 57.25 59.67 63.19 64.98 64.58 64.25 64.31 65.30
51.18 51.91 52.01 52.96 54.07 54.05 54.26 54.27 55.43 56.25 57.53 59.48 61.00 61.47 65.93 67.12 66.45 66.66 67.48 67.68 68.33 67.67 67.10 67.18 67.14 66.65 66.92 65.69 65.72 64.53 63.73 61.40 62.74 64.64 60.13 55.23 54.73 57.61 62.14 63.64 63.62 64.73 64.47
49.98 50.07 50.13 50.72 51.34 52.08 53.13 53.52 53.80 54.27 55.20 57.39 58.70 60.32 61.25 63.58 65.70 66.17 66.72 66.25 67.10 68.25 67.61 67.36 67.46 67.61 66.72 65.95 66.23 65.04 65.59 64.54 61.00 62.54 63.45 60.62 60.32 57.29 57.00 61.04 63.19 64.45 63.95
48.33 48.16 48.49 49.09 50.18 50.99 50.92 51.38 51.54 52.08 53.15 53.87 54.22 56.07 59.54 64.41 66.11 66.21 65.96 65.51 65.79 66.78 67.42 67.94 67.60 66.95 66.39 66.11 66.02 65.18 65.75 66.11 64.33 62.01 61.10 61.22 59.41 58.36 58.01 58.02 59.18 61.09 63.12
47.92 47.84 48.39 48.49 48.61 49.16 48.93 48.86 48.42 48.99 50.48 50.19 51.29 52.82 55.37 60.67 64.82 65.70 65.29 64.52 65.17 65.00 66.01 66.92 67.31 67.53 66.00 65.11 65.50 66.67 66.82 65.40 65.55 64.74 63.87 62.15 58.17 57.65 56.50 57.31 57.99 59.78 61.11
46.28 45.77 44.87 45.26 45.97 46.12 46.16 45.39 44.30 44.21 46.32 45.98 47.73 50.48 51.87 58.31 61.48 65.51 65.73 64.88 64.69 63.91 64.71 65.47 65.87 65.78 65.83 66.83 66.73 67.13 66.42 66.00 65.19 64.18 64.33 64.20 63.69 62.20 59.81 59.63 59.07 58.67 60.62
45.31 44.63 43.90 44.17 43.93 44.04 43.66 42.10 39.76 40.09 41.99 42.77 45.09 47.79 49.70 53.75 61.94 64.38 63.55 65.16 65.17 63.92 64.78 64.86 65.62 65.67 66.33 65.77 66.33 66.06 65.84 65.72 65.50 63.58 63.58 62.16 61.48 61.64 59.89 58.39 57.27 54.57 55.95
43.21 42.92 42.86 42.65 41.82 41.55 41.40 37.72 37.54 38.17 39.89 41.38 43.77 46.14 48.92 52.93 62.47 66.19 64.30 64.32 66.37 64.97 64.60 64.67 64.31 65.04 64.82 64.04 65.06 64.92 64.89 64.34 64.60 64.03 62.88 61.70 61.72 62.25 61.83 60.09 59.16 56.39 52.92
41.75 41.78 41.83 41.19 39.53 39.09 38.39 37.03 37.00 37.03 38.38 40.85 42.97 45.80 47.71 53.53 64.10 66.01 64.57 64.03 66.49 65.70 65.01 64.66 63.64 63.62 63.45 63.14 63.96 64.38 64.29 62.95 63.85 63.23 62.93 61.29 61.99 61.51 61.88 62.49 61.40 60.82 56.59
40.49 40.48 40.53 40.50 39.20 38.71 36.97 35.68 35.00 35.23 36.97 39.70 42.01 44.69 51.02 62.27 64.19 64.31 64.77 64.48 65.29 64.68 64.23 63.68 62.37 62.48 62.45 62.32 62.44 62.53 62.99 62.60 62.76 62.62 62.70 60.20 62.47 60.75 61.02 62.19 61.75 60.40 59.74
39.83 39.69 39.50 38.82 37.30 36.84 35.92 33.30 33.21 33.01 35.62 38.49 41.57 44.20 48.92 54.50 60.80 62.06 63.56 63.90 62.91 62.92 61.93 62.12 61.35 61.38 61.82 62.11 62.11 61.98 62.12 61.71 61.49 60.94 59.95 60.41 59.80 59.39 60.12 59.57 59.80 59.83 60.00
37.93 38.17 37.53 36.31 33.53 33.18 31.70 31.37 32.30 33.09 34.49 37.33 40.24 41.28 43.32 45.32 48.91 59.27 60.49 60.86 60.84 60.71 60.75 60.61 60.50 60.66 61.02 60.90 61.90 61.48 60.86 60.95 61.02 60.76 60.92 60.70 60.57 60.04 61.07 60.65 58.72 58.25 58.77
35.31 34.96 35.43 34.87 32.50 31.19 30.61 30.42 31.25 32.49 33.75 35.61 36.90 38.07 39.31 41.79 43.27 46.22 52.08 58.59 58.91 59.17 59.41 59.71 60.03 60.05 60.11 60.58 60.62 59.41 58.76 58.89 58.45 57.50 57.42 55.20 53.36 51.07 51.45 55.08 57.72 57.23 56.47
31.97 32.02 32.94 33.16 31.53 30.55 30.22 30.05 30.25 31.19 32.39 32.84 33.32 35.14 38.08 37.99 37.65 39.07 40.27 43.07 49.14 56.27 57.78 57.59 57.25 55.10 55.69 53.70 59.16 59.10 58.75 56.59 53.45 51.17 48.29 45.92 40.85 38.02 39.67 46.83 53.02 56.63 55.75
29.44 30.46 31.32 31.65 30.59 30.30 29.59 29.36 29.70 29.92 31.20 30.90 31.15 32.48 35.03 35.95 35.86 35.78 36.40 36.47 37.46 39.47 40.80 42.28 43.63 42.63 40.78 38.35 40.03 53.29 55.59 50.72 48.38 44.89 44.27 42.67 40.95 38.97 35.76 35.86 35.30 35.60 49.21
28.79 29.28 29.82 30.41 30.48 30.28 30.57 29.52 29.70 30.17 29.49 29.27 30.38 31.01 32.69 32.91 33.75 33.84 33.17 33.27 33.30 34.65 35.10 35.63 36.07 36.42 36.98 37.34 38.35 39.36 42.57 40.97 40.43 41.09 41.48 40.90 39.35 39.22 39.03 35.52 35.00 34.00 33.96
28.39 29.00 29.91 29.86 30.34 30.83 30.25 31.13 31.03 29.88 29.06 28.55 29.06 30.04 30.50 30.94 32.19 32.45 31.49 31.31 30.66 31.52 31.85 32.09 32.92 33.47 34.30 35.14 35.38 35.06 34.91 34.15 34.39 35.07 35.89 36.02 35.71 34.83 35.17 33.66 33.01 31.61 31.79
28.87 29.29 30.08 30.55 30.27 29.63 30.12 29.95 29.53 29.80 29.38 29.14 29.44 29.94 29.98 29.93 30.00 29.52 29.47 30.12 29.43 28.63 28.66 30.12 31.11 31.84 32.41 33.90 33.84 33.33 32.14 31.11 30.71 31.68 32.50 32.46 32.10 32.58 34.31 32.34 30.66 30.13 30.14
29.49 28.51 28.76 29.59 29.23 29.44 30.28 28.62 28.47 28.45 28.66 29.40 30.11 31.23 31.36 30.71 30.14 30.72 29.39 29.56 28.84 27.66 27.49 27.22 28.13 30.51 30.45 32.79 32.79 32.07 30.86 29.29 29.00 29.77 30.33 31.13 31.07 30.83 30.90 30.15 28.64 25.38 25.62
29.39 30.55 28.91 27.19 27.90 29.10 29.66 27.68 27.36 27.21 29.15 30.37 30.91 30.97 31.96 31.59 31.59 31.77 31.77 31.24 29.81 28.98 27.66 26.56 26.43 27.43 28.37 29.44 30.74 30.72 29.26 28.38 27.53 26.90 27.16 29.06 29.86 29.94 29.76 29.03 27.18 26.57 27.89
28.44 29.86 28.80 27.80 29.16 29.46 28.86 26.98 26.35 28.40 29.80 30.07 29.58 30.23 31.03 31.77 32.14 31.76 31.77 31.77 31.49 30.35 29.53 28.59 27.62 27.45 27.32 28.67 29.03 28.92 28.11 27.42 25.26 24.83 25.98 27.26 28.83 28.73 28.33 27.47 27.70 27.22 26.95
27.68 29.53 28.89 28.41 28.63 29.11 29.14 26.67 26.89 28.73 29.85 29.59 29.27 29.37 30.17 31.32 31.47 30.62 30.81 30.49 30.92 30.38 29.31 28.69 27.81 28.06 29.89 29.31 28.85 27.91 27.13 27.21 27.48 27.34 26.47 26.47 27.00 26.91 26.44 27.17 27.32 27.14 26.72
26.72 28.21 27.78 26.89 26.94 28.84 28.71 29.02 28.84 29.32 29.48 28.67 29.11 29.74 29.23 28.32 29.15 30.76 29.97 28.94 29.33 28.96 28.13 27.93 27.74 27.64 27.89 27.59 29.69 29.54 30.10 28.49 28.37 27.58 27.49 26.85 26.38 26.29 26.78 27.24 27.38 27.44 27.56
26.75 27.67 26.99 26.48 26.21 27.86 27.98 28.80 29.40 30.21 28.75 28.35 28.42 28.82 28.85 28.66 27.13 26.10 26.91 27.05 27.36 27.19 27.38 27.26 27.01 26.18 25.01 25.47 26.28 26.82 26.97 27.54 27.32 29.11 29.05 28.33 27.78 25.73 25.69 25.90 26.53 28.13 28.04
26.09 26.19 26.48 26.28 26.12 26.23 26.27 27.38 27.96 27.85 27.42 27.00 27.11 27.14 27.84 28.15 28.19 27.79 24.72 24.13 24.56 25.03 25.27 25.45 26.67 26.20 25.07 24.92 24.51 24.05 23.78 24.24 25.72 26.88 25.43 24.92 25.16 24.17 23.97 22.90 23.40 24.89 25.01

GFSMW_sfc_wetblb_111.txt.gz
Wetbulb
54.57 56.99 58.10 58.83 59.39 60.01 59.89 59.86 59.89 60.88 61.67 61.72 61.38 60.42 65.46 67.73 69.64 70.63 72.37 73.09 72.11 71.66 71.77 71.02 69.79 69.74 67.67 68.83 67.77 68.27 66.62 66.54 68.18 66.33 65.57 65.26 66.19 66.14 66.40 66.79 66.26 65.64 64.94
54.58 55.37 56.00 56.88 57.36 57.30 57.70 57.60 58.23 59.12 59.69 60.28 61.56 62.31 62.48 65.22 67.11 69.50 70.46 71.93 72.60 71.63 70.73 70.67 69.26 69.69 67.50 67.09 66.65 66.43 65.26 65.88 67.26 63.53 62.62 59.82 62.43 63.94 65.44 66.02 65.70 65.64 65.73
52.71 53.26 53.44 54.65 55.46 55.35 55.46 55.61 56.42 57.14 57.80 58.78 59.60 61.28 62.67 62.94 65.25 67.13 67.46 69.82 71.84 71.90 70.41 68.66 69.74 69.88 67.67 66.02 66.51 65.98 64.95 63.61 65.18 65.55 61.88 57.55 56.79 59.54 63.55 64.65 65.01 65.01 64.89
52.24 52.38 52.65 53.17 53.62 54.15 54.94 54.69 55.06 55.11 55.69 56.99 56.94 57.59 57.97 59.47 61.84 66.32 67.12 68.57 70.16 70.32 70.07 69.89 68.22 70.13 68.05 67.15 66.24 66.12 66.24 65.75 61.48 64.19 64.96 65.03 63.16 58.83 57.98 62.71 64.03 64.67 64.00
51.22 51.43 51.79 51.91 52.57 53.27 53.03 53.35 53.00 53.12 53.59 53.70 54.94 54.73 55.36 57.65 61.07 63.72 67.13 68.23 68.89 69.56 67.37 67.81 68.38 69.14 68.57 68.14 67.26 65.71 66.25 65.96 64.38 63.37 62.97 63.47 62.62 62.72 59.89 58.09 60.60 62.46 64.16
50.86 51.11 51.14 51.19 51.33 51.94 51.46 51.37 50.46 50.02 50.82 50.46 50.64 50.18 50.41 52.69 55.96 59.82 62.74 67.40 67.80 68.62 67.07 66.84 66.40 68.18 68.32 66.68 67.68 67.77 66.55 66.73 65.70 64.96 63.63 61.66 60.53 59.18 60.02 58.84 59.26 59.96 62.05
49.54 49.52 49.09 48.92 49.03 48.71 49.09 48.90 47.97 46.54 47.42 47.20 47.46 47.08 47.65 49.77 51.53 55.64 60.71 63.41 66.23 67.17 66.78 65.39 65.90 66.13 66.67 67.05 68.26 67.33 64.64 66.96 65.92 66.09 64.94 64.37 63.20 62.88 61.83 61.28 60.10 59.20 62.52
48.11 47.91 47.66 47.73 47.54 46.87 47.06 46.24 44.85 43.55 44.04 44.32 44.26 43.98 44.13 46.66 49.62 53.77 58.10 62.46 65.97 67.09 67.92 65.24 65.57 66.24 66.36 67.23 67.65 67.35 65.59 65.56 65.94 66.13 66.00 64.97 64.95 65.25 63.88 61.73 60.23 57.62 59.26
46.63 46.61 46.88 46.80 46.19 45.59 45.07 43.74 41.88 41.05 41.55 41.52 41.67 41.47 43.09 44.71 46.99 50.52 55.83 60.66 65.67 66.82 67.71 66.04 64.82 65.20 65.50 65.64 66.58 66.63 67.01 65.83 65.09 66.21 66.10 65.05 64.67 64.81 63.44 62.97 61.14 58.57 53.88
45.34 45.68 45.75 45.35 45.01 44.38 43.84 42.61 40.88 39.44 39.38 39.84 38.70 39.71 41.53 44.09 46.49 48.71 52.11 59.61 65.81 66.72 67.05 66.96 65.00 64.35 64.73 64.69 65.30 65.78 66.05 66.36 65.14 64.98 63.95 63.91 63.81 63.49 63.66 62.99 62.69 61.66 58.93
44.08 44.29 44.30 44.15 43.64 42.18 41.46 39.89 37.44 37.57 36.64 36.51 36.77 38.80 41.84 44.70 47.91 53.61 55.77 62.14 65.15 66.01 65.48 65.21 64.51 63.98 64.35 63.90 64.04 64.51 64.70 63.85 62.99 63.85 63.30 63.21 63.56 62.88 62.40 62.75 62.48 61.87 61.03
43.51 43.48 43.04 42.55 41.01 38.85 38.34 36.54 35.31 34.71 33.96 34.65 35.51 38.19 41.38 43.08 46.49 50.23 59.86 62.74 64.10 65.35 65.35 64.90 63.57 63.24 63.05 62.88 63.19 63.75 64.36 62.97 62.29 62.80 62.73 62.63 62.51 62.73 62.81 62.52 61.94 61.58 61.56
41.38 41.42 41.23 40.07 38.14 37.11 36.41 34.80 33.92 32.57 32.39 32.54 34.64 36.33 38.91 39.86 41.25 45.06 49.32 51.83 62.39 63.51 63.22 63.31 63.21 62.47 62.20 61.81 62.97 64.33 63.38 62.14 62.16 62.64 62.40 62.22 61.85 61.28 61.46 61.53 60.68 61.46 61.08
38.16 38.26 38.64 38.26 36.68 36.07 34.97 33.42 32.25 32.08 31.80 32.46 33.63 33.59 34.83 37.32 38.92 41.32 42.84 45.77 48.93 58.66 60.51 61.32 61.20 61.31 61.24 61.13 61.99 62.72 62.99 61.75 61.75 61.19 61.23 59.75 58.76 58.89 58.43 57.83 58.92 59.47 59.08
35.78 35.28 35.05 34.60 35.36 34.01 32.96 33.34 32.02 31.24 31.43 31.31 31.87 31.55 33.80 35.37 36.79 37.40 38.00 39.10 41.15 42.23 44.90 52.20 52.75 56.82 58.09 57.76 60.62 61.36 61.51 58.69 56.32 54.34 51.39 45.52 41.63 38.55 38.93 46.38 50.49 53.50 55.47
33.12 32.80 32.57 32.68 31.93 31.42 31.71 32.52 32.63 31.17 31.72 30.65 30.67 31.53 32.50 32.86 33.77 34.87 34.80 34.44 35.40 35.98 37.26 36.89 38.64 40.65 43.96 43.13 48.38 55.57 57.29 55.59 51.57 46.71 44.11 41.52 39.86 37.22 35.94 35.79 34.88 35.06 40.93
30.62 30.57 30.58 30.90 30.63 31.00 31.93 31.42 32.62 32.89 31.54 30.84 30.93 31.17 31.58 31.07 31.29 33.01 32.20 31.92 31.98 33.10 33.70 35.41 35.02 34.46 37.34 39.35 42.59 42.03 43.09 41.59 41.23 43.03 42.00 40.70 39.30 39.75 40.34 35.66 34.63 33.31 33.52
29.11 29.36 29.63 30.31 30.96 31.72 31.54 32.26 32.47 32.45 32.07 31.03 31.03 31.11 31.39 30.77 30.38 29.74 29.50 30.55 30.37 29.34 29.64 30.55 32.90 33.46 32.85 34.13 35.12 35.38 35.30 34.08 34.08 34.77 35.93 35.36 35.20 34.95 36.61 34.88 32.72 31.26 31.20
29.27 29.23 30.20 30.39 30.88 30.76 31.74 31.18 30.96 31.31 31.45 30.72 31.47 31.81 31.64 31.22 30.84 29.54 28.98 28.76 27.93 27.95 27.69 28.27 29.45 30.27 31.05 33.88 33.53 32.63 31.50 30.58 30.72 31.74 32.38 32.13 31.90 33.15 34.85 33.10 31.19 29.74 29.80
30.23 28.85 29.62 30.23 29.42 30.41 31.48 30.50 29.80 29.99 29.63 30.53 31.16 31.89 32.43 32.19 31.54 31.81 31.23 30.94 29.88 28.09 27.68 26.72 27.65 29.17 28.98 31.78 32.45 32.09 31.11 29.24 28.80 29.41 30.34 31.38 30.81 31.16 30.96 29.55 28.38 25.67 26.08
30.81 31.73 30.27 28.95 29.42 30.89 30.58 29.42 29.48 28.89 30.27 30.98 31.24 31.52 31.89 31.89 32.07 32.25 32.25 32.25 31.89 31.38 29.96 28.65 28.12 27.46 27.87 29.03 30.31 29.65 27.62 27.52 26.91 26.64 27.28 29.14 30.34 30.36 30.08 29.15 27.61 26.50 27.74
30.26 30.84 30.20 29.74 30.83 30.92 29.70 27.67 27.89 30.68 31.48 30.96 30.19 29.99 30.69 31.10 31.26 31.58 32.07 31.86 31.89 31.02 30.21 29.62 28.69 29.10 29.74 30.07 29.47 29.39 28.63 27.61 25.09 24.62 26.37 28.15 29.67 29.85 29.56 28.70 28.63 27.83 27.32
29.18 30.90 30.29 29.80 30.26 30.57 30.63 28.65 29.36 31.18 31.48 31.29 30.68 29.80 29.30 29.93 30.87 29.75 29.64 29.59 29.79 28.77 28.74 27.86 27.04 26.97 28.08 29.41 30.34 30.54 29.18 28.57 26.97 27.50 28.29 28.81 29.55 29.84 28.96 29.22 29.72 29.63 27.70
29.08 30.33 29.59 28.58 28.38 30.04 29.85 30.57 31.69 31.91 31.15 30.67 31.21 31.80 30.66 28.07 27.38 29.38 28.75 27.06 26.19 27.92 26.46 24.93 25.22 25.28 25.25 25.90 27.29 28.53 29.60 29.77 30.36 30.88 31.01 29.75 29.27 29.18 29.55 30.06 30.30 30.12 29.78
29.20 29.45 28.43 27.65 27.48 29.01 29.00 29.89 30.51 32.00 30.39 29.76 29.61 30.18 30.75 30.45 28.06 25.27 25.04 26.19 26.04 25.15 24.78 26.42 24.45 23.61 22.53 23.75 25.27 25.61 26.25 27.78 28.45 30.09 30.25 29.11 29.57 28.23 28.32 28.13 28.08 29.07 29.31
28.28 28.17 28.23 27.51 26.90 27.02 27.11 27.81 29.17 29.08 28.79 28.56 28.72 28.69 29.13 29.20 29.10 29.28 27.03 24.47 24.18 24.28 24.27 24.45 24.84 25.46 24.28 24.48 25.07 25.48 26.40 26.91 28.44 27.95 26.09 25.36 25.37 24.55 25.22 24.97 24.86 25.62 25.77

GFSMW_sfc_wetblb_114.txt.gz
Wetbulb
55.06 57.24 58.01 58.65 58.54 59.11 58.47 58.32 58.91 60.29 59.80 59.65 59.34 59.93 59.15 61.28 65.96 68.52 69.44 69.88 69.76 69.78 69.42 68.86 69.18 68.14 67.30 67.02 67.02 66.77 65.54 65.20 65.82 63.59 62.61 63.54 64.48 64.54 64.30 64.66 64.04 64.27 63.81
54.16 55.30 55.77 56.21 56.16 56.11 56.12 56.12 56.10 56.71 56.98 57.32 57.45 58.44 58.97 60.22 61.34 61.51 64.32 68.69 69.58 69.55 69.60 69.01 68.63 68.48 66.97 66.23 66.56 66.56 64.45 64.98 65.43 61.59 60.58 58.49 60.10 62.50 63.67 63.56 63.82 63.19 62.98
52.98 53.23 53.40 54.10 54.96 54.97 54.53 53.93 54.28 54.43 55.11 55.99 55.67 56.51 57.91 59.04 60.17 60.27 61.09 66.27 67.51 69.75 68.71 68.70 68.27 67.63 67.03 65.66 65.63 66.48 64.39 63.18 64.45 64.54 59.73 55.20 54.34 57.95 61.30 62.54 62.80 62.57 62.47
52.06 52.14 52.15 52.33 52.70 53.02 53.67 53.10 53.03 52.65 53.01 52.96 52.47 52.61 52.84 52.86 56.12 57.67 60.03 61.73 65.20 66.22 68.43 67.83 68.22 67.54 67.31 65.61 65.08 66.19 65.49 64.25 62.16 64.27 63.42 60.98 59.40 55.52 54.97 59.79 61.94 62.39 62.12
51.00 50.42 50.35 50.65 51.62 51.75 51.16 51.42 51.28 50.93 50.75 50.40 50.41 49.63 49.81 50.98 52.50 53.46 54.99 57.45 60.87 64.12 67.46 67.64 67.59 67.29 67.47 66.74 65.13 64.86 65.18 64.50 62.90 62.54 62.41 61.78 60.81 59.80 56.82 54.78 57.37 61.29 62.59
50.11 50.32 50.54 50.54 49.82 49.96 49.48 49.53 48.56 48.13 48.34 47.67 47.65 47.19 47.20 47.29 48.18 49.77 51.22 53.75 57.26 61.06 65.25 66.78 67.00 66.52 66.33 66.25 65.86 65.66 65.03 64.33 64.21 62.71 61.93 61.63 59.78 58.75 57.16 55.64 56.29 57.29 59.00
47.81 47.65 47.10 47.07 47.61 47.38 47.23 46.95 46.26 44.81 45.14 44.88 44.89 45.03 44.79 45.03 44.88 46.22 48.69 50.62 53.37 56.58 61.15 65.10 65.62 65.78 66.21 66.41 66.50 66.12 65.02 64.80 63.78 62.96 61.98 61.78 61.11 60.46 59.15 57.50 56.08 55.58 58.20
46.37 46.05 46.22 46.32 45.98 45.93 45.34 44.74 42.82 41.77 42.10 41.90 41.61 42.28 42.43 42.67 43.61 44.66 46.39 48.60 51.60 54.65 58.57 63.65 64.40 65.02 65.09 65.24 65.85 65.62 65.50 65.22 64.23 63.24 62.92 62.04 61.39 61.53 60.28 58.83 57.47 54.63 55.64
44.36 44.45 45.06 45.20 44.54 43.93 43.06 42.12 40.79 39.64 39.63 39.59 39.60 39.58 40.29 40.78 41.45 42.82 44.66 46.34 48.89 52.20 55.54 59.26 64.05 64.69 64.92 64.61 65.12 65.09 64.81 64.65 63.85 63.50 63.05 62.70 62.37 62.39 62.03 61.02 60.09 56.41 52.49
43.26 43.43 43.72 43.69 43.38 42.43 41.23 40.31 39.59 37.97 37.33 37.44 37.41 37.85 39.02 39.92 41.39 43.44 44.20 45.86 47.48 50.10 53.47 56.68 62.67 64.74 64.72 64.72 64.96 64.61 64.32 63.60 63.87 62.23 61.43 61.04 59.88 61.96 61.34 60.49 59.43 58.07 55.60
41.93 42.10 42.45 42.86 41.78 40.43 39.24 37.84 37.06 36.06 34.75 34.95 35.20 36.13 38.19 39.04 41.30 42.31 43.91 46.53 49.47 50.61 51.98 56.15 61.54 63.81 63.70 64.28 64.22 64.01 63.72 63.26 63.37 63.21 62.23 60.27 58.19 61.41 60.61 61.02 60.54 59.18 58.18
41.02 41.18 41.08 40.80 39.49 37.92 36.90 35.98 35.05 33.83 33.32 33.36 34.38 35.31 36.72 37.23 38.98 40.20 42.50 45.43 48.75 55.74 54.26 57.60 61.94 62.80 63.22 63.23 63.54 63.20 63.27 62.92 62.02 62.18 62.24 61.00 61.59 60.27 60.82 60.73 59.33 58.86 58.62
39.29 39.09 38.79 37.88 36.96 35.84 34.81 34.61 34.80 33.09 32.64 32.74 33.47 34.18 34.43 35.26 36.32 38.57 40.28 41.63 46.47 49.57 57.29 61.24 61.34 62.03 62.56 62.58 63.43 63.42 63.12 63.13 62.62 62.27 60.84 60.63 60.82 60.25 60.48 59.76 59.14 58.37 58.82
37.18 36.26 35.72 35.01 34.02 33.71 33.35 33.21 33.75 33.69 32.73 32.42 32.64 32.52 33.17 33.72 34.63 36.64 37.22 37.95 40.28 42.09 43.86 53.30 59.40 61.26 62.12 62.39 62.65 62.66 62.49 62.48 61.94 60.74 59.94 58.82 57.86 57.50 56.97 56.79 56.20 55.98 56.64
34.28 33.69 32.70 32.25 31.65 31.43 32.18 32.81 32.98 33.66 33.24 32.31 31.93 31.82 32.61 33.03 33.56 34.12 34.52 34.63 34.44 37.37 39.70 39.67 40.86 43.96 46.76 49.53 59.18 61.96 62.05 61.26 55.98 49.52 45.05 41.91 40.24 39.65 42.33 49.33 44.49 46.13 50.03
31.61 31.29 31.19 30.85 30.04 30.56 31.24 31.59 31.84 32.25 33.18 32.66 31.75 32.09 32.13 31.51 31.08 31.59 31.79 32.45 32.51 32.17 34.08 35.99 37.33 36.57 36.98 37.80 42.80 56.50 59.95 54.10 48.28 42.67 40.29 39.57 37.89 36.40 35.69 35.57 34.70 34.32 37.85
29.52 29.14 29.32 30.18 29.91 30.34 31.19 30.53 31.24 32.61 32.40 31.95 32.08 31.93 32.22 31.11 30.41 29.91 29.44 28.88 29.53 30.64 30.15 31.44 33.91 34.66 35.14 35.88 39.28 41.20 44.54 44.50 45.03 43.23 40.81 39.86 39.27 37.43 35.21 34.10 33.15 32.64 32.83
28.19 28.43 28.99 29.32 29.91 30.89 31.12 31.62 31.66 31.35 31.15 31.14 31.32 31.95 31.96 31.64 31.44 30.46 29.03 28.10 28.10 27.70 27.88 28.68 30.17 31.73 33.89 36.42 35.59 35.00 35.25 35.26 34.11 33.82 34.37 34.74 34.93 36.94 34.90 32.55 30.64 29.83 30.24
28.32 28.80 29.59 29.74 29.83 29.97 31.33 31.27 30.39 30.34 30.03 29.65 30.42 30.79 31.60 31.20 31.44 31.05 30.53 30.09 28.99 28.06 27.59 27.49 27.83 28.24 29.90 33.22 33.69 32.18 31.39 30.66 29.87 31.31 31.89 31.88 32.28 35.12 35.52 31.30 28.87 27.48 27.37
29.78 28.37 29.23 29.36 28.90 29.35 30.47 29.73 29.00 28.86 28.27 28.98 29.60 30.82 30.58 30.09 30.58 30.60 31.51 31.52 30.96 29.32 29.04 28.61 28.59 29.34 28.32 31.29 31.46 30.89 30.21 27.81 28.16 29.13 30.09 31.89 31.02 31.70 31.29 29.33 27.58 24.46 24.89
31.03 31.20 30.07 28.96 29.87 30.23 29.25 27.69 28.01 27.81 29.59 28.93 28.40 28.76 29.88 28.82 29.43 30.30 30.37 30.64 30.04 29.27 28.42 27.54 27.63 28.77 29.73 29.71 30.70 29.74 26.72 26.51 26.48 27.08 27.88 29.82 31.35 31.28 30.68 29.35 27.32 25.91 26.83
29.36 29.93 29.21 29.27 30.18 30.86 29.21 26.74 26.86 29.26 30.56 30.21 27.97 25.60 26.20 28.42 27.21 26.72 27.31 28.68 26.96 26.61 26.21 25.62 25.30 26.06 27.07 30.25 31.44 31.07 30.07 28.92 26.54 26.23 28.30 29.78 31.23 31.63 31.07 29.44 28.98 27.99 26.61
28.82 29.80 28.91 28.59 29.30 29.45 29.70 27.68 27.61 29.80 29.93 30.02 29.48 27.31 25.24 24.86 26.11 24.21 23.63 24.11 25.80 23.91 23.50 23.56 22.57 22.86 24.79 25.91 28.50 29.70 30.25 30.70 28.71 29.20 30.14 30.32 30.72 30.82 29.74 30.65 30.26 29.63 28.27
28.34 28.94 28.05 26.97 26.75 28.35 28.48 28.64 30.06 30.50 29.19 28.51 29.00 29.11 28.70 25.28 24.22 24.39 23.31 21.86 21.74 22.33 22.88 21.03 20.90 21.49 22.54 23.96 25.46 26.46 27.79 28.49 29.28 29.13 29.62 29.30 29.00 28.55 27.86 27.67 29.15 28.93 28.74
28.41 28.18 26.66 25.70 25.50 26.51 27.11 28.29 28.73 29.88 28.77 28.09 27.77 28.16 28.17 27.72 24.57 23.14 22.71 21.74 21.95 22.12 20.47 21.84 21.30 20.53 20.67 23.17 26.31 26.63 26.51 27.49 27.56 26.72 25.71 24.62 24.52 24.27 24.65 24.36 24.93 26.33 26.89
27.77 27.02 26.28 25.10 24.81 25.47 25.65 26.96 28.23 28.34 27.17 26.93 27.09 27.15 27.43 27.31 27.15 26.73 23.62 25.62 25.20 25.00 24.72 24.72 23.40 22.65 25.32 26.87 27.17 26.97 27.43 27.90 27.20 24.37 22.62 21.92 21.68 21.12 21.32 21.65 21.81 22.82 23.63

GFSMW_sfc_wetblb_117.txt.gz
Wetbulb
52.86 53.68 53.09 52.49 52.32 52.05 52.19 52.37 52.44 52.66 53.29 53.05 52.43 53.56 54.17 56.09 57.86 59.18 61.21 62.47 67.73 68.04 67.63 67.55 66.73 66.91 66.48 66.29 65.10 63.83 64.75 62.76 63.92 62.04 60.63 61.66 61.89 62.20 62.41 63.42 63.40 63.23 62.50
51.24 51.46 51.21 50.25 50.17 50.07 50.23 50.54 50.62 50.77 51.42 51.07 51.58 52.15 52.72 54.41 55.76 58.08 58.57 60.21 60.97 65.24 67.08 67.34 67.05 67.49 66.04 64.39 65.06 63.95 61.40 63.14 64.53 59.89 58.47 57.95 57.50 60.51 61.89 61.88 62.68 62.68 62.59
49.36 49.70 49.57 47.69 48.01 47.85 47.79 48.86 48.86 48.64 49.28 49.36 49.61 49.99 50.83 51.67 52.38 53.36 54.80 56.27 57.51 60.10 64.19 66.83 66.90 66.83 66.53 65.00 64.86 64.31 63.21 62.76 62.36 62.59 59.07 55.24 53.12 55.36 59.14 61.29 62.07 61.76 61.29
48.07 47.47 46.60 46.01 46.11 45.41 46.92 47.15 47.66 47.02 47.83 46.98 46.14 45.39 45.77 46.12 48.19 48.91 50.30 51.35 53.56 55.59 58.14 61.29 65.55 66.28 66.30 65.44 64.82 65.37 64.91 63.95 61.95 60.87 61.20 57.94 56.40 53.08 52.24 57.33 60.77 61.31 61.51
45.82 45.10 45.13 45.04 44.83 44.74 44.44 44.40 44.86 44.93 44.35 43.91 44.07 43.49 43.22 44.50 46.18 47.10 47.11 48.41 50.48 52.38 54.34 57.18 59.82 64.77 65.17 64.93 64.71 63.62 64.75 63.90 62.47 62.15 62.38 60.23 57.88 56.75 54.57 52.71 56.57 59.11 60.33
44.50 44.76 44.91 44.75 43.31 43.25 42.71 42.14 42.08 41.93 42.00 41.70 41.61 41.20 40.37 40.93 41.88 42.70 43.17 44.96 47.59 49.71 51.76 54.77 57.44 61.53 64.81 65.00 64.19 63.74 63.50 64.91 64.51 62.71 61.62 61.25 59.82 58.34 55.47 53.31 54.29 57.60 57.87
42.87 42.85 42.11 41.46 41.39 40.11 39.76 40.81 39.57 39.00 39.35 39.06 39.37 39.81 40.04 40.26 40.39 41.60 42.70 43.21 44.22 46.37 48.99 51.71 54.09 57.98 62.73 64.77 65.26 63.80 63.33 64.02 64.07 62.94 62.43 61.93 61.18 60.17 59.49 55.85 54.29 54.56 56.31
41.91 41.25 40.14 39.72 39.07 38.72 37.54 36.69 36.72 36.72 37.05 36.71 36.50 37.91 38.19 38.85 39.23 39.90 41.07 42.28 43.62 44.87 46.69 48.28 51.09 53.54 56.15 63.19 64.13 64.07 63.82 64.25 64.31 63.21 63.00 62.36 61.44 60.44 58.62 59.01 55.03 52.62 53.75
40.87 40.37 39.76 39.04 37.68 36.87 36.31 35.29 35.10 35.00 35.22 34.56 34.60 34.96 36.14 36.83 37.51 39.31 40.46 41.11 42.80 44.65 45.70 47.05 48.72 51.47 54.42 59.53 62.95 62.71 62.47 64.44 64.59 63.77 63.02 62.16 61.74 61.45 59.76 59.85 59.01 56.26 51.88
38.80 39.45 38.28 37.52 36.74 36.21 35.67 35.40 34.86 33.69 33.56 33.31 33.58 34.59 35.52 36.76 37.85 38.51 39.07 41.07 42.84 44.34 45.27 45.91 47.27 49.46 53.10 57.50 62.11 60.57 62.38 62.75 63.82 63.81 63.03 62.09 61.52 59.86 59.89 59.30 59.47 58.29 54.92
36.78 36.85 37.05 36.75 35.64 35.17 34.37 34.00 34.13 33.42 32.40 32.59 33.36 34.15 35.30 36.53 37.00 37.75 39.08 40.90 42.10 43.66 45.07 47.41 48.91 49.47 50.93 55.00 61.70 61.04 61.34 61.42 62.38 62.86 62.20 61.10 60.00 59.60 59.03 58.67 57.29 59.14 58.22
35.98 35.59 35.00 34.46 33.73 32.90 32.87 32.62 32.30 32.30 32.38 32.58 33.79 34.33 35.26 35.70 35.75 36.41 37.60 39.72 39.90 41.69 44.25 47.99 50.68 50.97 51.13 54.58 61.11 62.10 61.87 61.14 61.82 62.34 61.73 60.30 59.08 58.37 57.82 58.70 57.25 58.61 58.93
34.44 33.45 32.81 32.19 31.74 31.83 31.99 32.09 31.35 32.05 32.18 32.98 33.19 33.58 33.84 33.97 33.93 35.06 36.38 36.98 37.68 39.54 41.84 42.83 47.50 52.84 53.37 54.89 60.57 61.38 62.58 62.13 61.90 61.85 61.55 61.33 59.90 57.41 58.34 59.18 59.28 59.31 59.18
32.77 31.93 30.93 30.91 31.07 31.10 30.93 31.17 30.62 32.48 32.08 33.05 32.90 32.55 32.87 32.71 32.64 33.16 33.68 34.62 35.59 36.11 37.22 40.74 41.21 44.67 47.74 55.58 60.31 60.29 60.54 60.80 61.76 60.94 61.34 61.27 59.77 57.59 58.34 59.35 59.05 57.92 58.09
30.58 30.28 29.65 29.38 29.41 29.98 30.22 30.15 30.42 31.61 32.53 32.09 32.46 32.11 32.89 32.74 31.92 31.17 31.44 31.80 33.22 33.99 34.28 35.63 37.39 38.31 38.81 42.62 48.89 56.69 60.11 60.39 57.01 50.92 47.73 46.41 47.48 49.58 53.68 54.87 52.62 54.10 53.21
29.07 29.00 28.93 28.63 28.75 29.65 29.56 29.72 29.94 30.48 32.10 31.57 31.26 31.91 32.43 32.41 31.90 31.01 30.27 29.99 29.88 31.02 32.06 31.47 33.24 34.53 35.79 37.04 40.82 50.58 58.00 52.59 46.67 41.57 39.61 39.34 39.18 39.31 38.57 37.67 35.69 40.28 47.73
27.47 26.94 27.26 27.88 28.56 28.92 29.84 28.92 29.84 31.19 30.60 30.19 30.69 31.18 31.78 31.48 31.79 31.54 30.49 29.25 29.12 29.50 29.41 29.96 30.96 31.36 32.74 34.31 35.56 36.50 37.13 37.50 40.15 42.00 42.63 39.39 38.56 35.51 34.02 33.66 33.48 33.03 33.03
25.91 25.42 26.22 27.52 28.56 29.57 30.24 30.71 30.73 29.86 29.18 28.57 29.39 29.72 29.91 30.60 30.52 30.82 30.11 29.25 28.90 28.35 28.79 28.87 29.54 29.63 31.02 33.42 33.27 32.90 33.29 32.14 33.30 33.85 36.05 37.66 35.88 35.64 33.91 32.44 30.07 29.60 29.79
25.16 26.00 27.75 27.95 28.31 28.45 30.06 29.85 29.20 28.36 27.15 26.33 26.86 28.57 27.80 27.57 28.94 27.91 28.72 28.90 28.11 27.29 26.83 27.70 28.94 29.11 29.74 32.02 32.28 31.91 30.57 30.48 30.67 31.36 31.62 32.97 31.56 33.66 33.70 29.89 27.56 26.77 27.02
27.14 27.39 28.71 28.81 28.19 28.50 29.41 28.46 28.21 28.64 26.75 24.88 24.98 26.56 27.07 25.51 25.63 27.30 26.73 27.67 27.62 26.51 26.55 25.98 26.66 29.09 29.21 32.37 31.52 30.09 29.29 28.46 28.90 29.70 30.33 31.83 30.90 31.57 31.16 28.61 27.02 24.20 24.51
29.27 29.88 29.11 28.09 29.01 29.86 28.94 26.53 26.91 26.76 27.57 27.45 25.32 24.34 25.06 24.32 23.80 24.62 26.08 25.14 25.10 25.04 24.28 24.38 25.10 25.63 27.84 29.68 32.65 31.44 28.32 27.80 27.75 28.06 28.65 30.53 31.53 31.00 30.40 29.35 27.13 25.86 26.69
29.28 28.93 27.76 27.35 27.99 28.17 27.70 25.40 25.85 27.44 27.72 25.70 24.80 24.11 23.71 23.89 22.57 21.66 22.25 23.42 22.60 21.83 21.85 21.85 22.51 24.49 25.97 29.26 30.70 31.44 31.27 30.39 27.99 27.44 28.64 30.14 32.03 32.02 31.62 30.11 30.05 29.07 27.71
27.51 28.29 27.15 26.48 27.02 27.30 27.17 24.70 25.69 26.25 27.06 27.32 26.40 23.57 23.77 23.53 23.11 20.48 20.25 20.23 20.76 20.60 20.32 20.19 20.48 21.82 24.66 26.34 28.69 29.45 29.75 28.84 27.11 28.56 29.24 29.04 28.84 28.68 28.09 29.99 29.98 28.88 27.98
26.59 27.02 26.20 24.65 24.16 25.92 26.28 26.46 26.97 27.42 26.64 26.09 26.19 26.64 24.68 22.83 22.70 22.10 21.54 20.50 19.63 19.07 19.07 20.12 20.75 22.17 23.33 24.43 26.43 27.12 26.96 26.35 25.63 25.66 25.41 25.82 26.16 25.28 25.14 25.51 26.73 27.34 27.30
26.42 26.01 24.10 23.23 23.24 24.72 24.44 25.57 26.68 27.42 26.24 25.84 25.87 25.95 25.88 24.94 22.49 22.90 21.66 21.63 22.69 23.00 20.34 19.32 21.06 21.58 22.51 24.21 26.24 26.34 24.77 24.40 24.59 23.92 23.13 22.22 22.12 21.75 22.18 22.56 23.23 24.49 25.56
25.26 23.76 22.73 22.44 22.50 23.04 23.55 24.35 25.37 25.75 25.53 25.44 24.95 24.53 24.85 24.21 24.37 22.67 21.99 27.24 25.36 24.92 25.81 26.26 24.11 22.60 26.19 27.04 26.69 26.00 25.62 25.10 24.40 20.85 18.97 18.61 18.73 18.37 19.30 19.68 20.50 21.60 22.09

GFSMW_sfc_wetblb_120.txt.gz
Wetbulb
51.68 50.57 50.33 49.40 49.46 49.15 49.06 49.03 48.75 48.93 48.85 48.67 48.21 48.96 48.63 50.58 52.48 55.23 56.85 57.69 60.15 61.84 62.81 66.64 66.95 66.66 65.56 65.50 65.72 65.92 63.34 62.69 63.13 61.41 59.65 60.04 61.54 61.81 62.39 63.28 62.96 62.35 61.86
48.44 48.72 47.92 47.18 46.86 46.97 47.32 47.29 47.09 46.52 46.46 46.94 46.82 47.22 46.93 49.75 50.73 52.10 51.07 54.02 52.59 54.38 57.42 58.77 62.31 66.10 66.19 65.68 64.21 64.75 62.44 64.09 63.32 61.14 57.48 56.43 58.32 59.91 61.06 61.23 62.42 62.04 62.22
46.53 45.82 45.13 44.43 44.59 44.30 44.61 44.85 44.52 44.51 44.09 44.44 44.81 44.54 45.79 46.32 46.82 46.38 47.52 48.83 49.99 51.81 53.73 55.88 58.88 61.15 65.03 65.01 65.01 64.32 63.40 61.90 62.03 62.36 58.91 53.80 54.27 55.35 58.12 60.65 61.76 61.38 61.29
44.80 43.97 42.77 42.07 42.47 42.18 42.88 42.97 43.00 42.15 42.65 42.41 41.49 40.74 40.90 40.81 42.82 43.82 45.24 45.77 47.35 47.83 50.46 52.41 54.16 56.35 58.84 63.14 64.12 64.49 63.83 63.46 61.06 62.13 62.70 58.70 56.49 53.61 52.74 57.80 61.08 61.13 60.50
42.17 41.99 42.23 41.24 40.90 41.08 40.09 40.60 41.04 40.21 40.24 39.69 39.90 39.07 38.12 39.18 40.56 41.78 41.71 42.59 44.57 46.44 48.14 49.98 51.80 53.57 55.55 58.85 63.10 62.72 63.01 62.89 61.15 60.51 61.91 58.44 57.52 55.38 53.42 51.70 56.98 60.33 60.80
41.92 41.94 42.62 40.86 39.23 39.29 38.68 38.43 37.93 37.65 37.97 37.56 37.58 37.05 36.62 37.05 37.37 38.05 39.01 41.05 42.42 43.59 45.39 47.25 48.86 51.34 53.55 56.68 60.89 63.31 62.41 61.11 60.73 60.76 61.40 60.94 57.67 56.08 54.29 51.99 53.24 55.80 59.30
40.25 39.80 38.80 38.34 38.06 36.85 35.17 36.58 35.56 34.97 35.49 35.26 34.76 34.88 35.38 35.77 36.46 38.27 38.95 39.73 40.31 41.40 42.70 44.23 45.22 46.69 49.31 53.52 55.34 60.00 62.81 62.01 61.52 61.42 61.32 61.66 61.16 59.88 57.65 54.92 53.37 53.66 55.21
39.54 39.22 38.08 37.22 36.52 35.50 34.49 34.13 33.84 33.47 33.57 33.39 33.19 33.79 34.19 34.86 35.77 37.75 38.52 39.33 39.90 40.45 41.73 42.44 44.26 45.34 46.55 48.56 51.28 54.08 61.38 62.48 61.93 61.46 61.83 61.71 61.76 61.67 58.97 57.86 54.43 51.26 53.32
38.97 37.52 36.76 35.54 35.01 34.06 33.95 33.39 33.09 32.87 32.79 32.79 32.89 33.05 33.83 34.50 35.26 36.44 38.11 38.79 39.70 40.99 42.42 43.88 44.33 45.27 45.45 46.87 49.69 52.08 54.64 62.11 61.89 61.95 62.26 62.13 62.30 62.07 61.33 60.48 57.67 56.07 49.86
37.50 36.45 35.60 34.80 34.29 33.68 32.59 32.37 32.64 32.54 32.38 32.79 33.05 33.51 33.98 35.04 35.88 36.07 36.05 37.86 38.93 40.25 41.39 42.10 43.24 44.38 46.16 46.66 47.70 50.04 54.26 60.08 61.29 62.27 61.62 61.75 62.01 61.42 61.45 61.08 59.84 58.39 55.24
34.03 33.77 33.38 33.31 32.65 31.82 31.42 31.26 31.61 31.83 31.70 32.35 32.85 33.14 33.68 34.93 35.71 35.82 36.45 37.15 38.11 38.83 39.34 40.32 41.50 43.04 44.83 47.42 48.73 49.76 51.71 55.71 60.29 61.87 61.65 61.97 61.54 60.95 60.67 60.51 59.57 58.37 56.55
32.12 31.81 31.54 30.98 30.44 30.10 30.46 30.26 30.85 30.92 32.41 33.05 33.32 32.86 33.68 34.00 33.64 33.85 34.54 35.62 35.77 37.66 37.90 39.21 40.63 43.11 44.81 48.00 49.26 49.69 51.17 53.71 59.11 59.90 61.23 61.74 62.03 61.17 60.50 59.97 59.63 58.71 58.18
30.59 29.61 29.28 29.08 29.41 29.94 29.66 29.76 30.24 30.52 32.21 32.62 33.08 33.04 33.31 33.33 32.47 32.32 32.94 33.47 33.76 35.18 36.31 36.61 39.35 40.91 43.39 44.33 52.20 51.36 51.22 53.84 58.97 59.28 59.32 60.56 61.59 60.57 60.64 60.10 58.74 57.13 58.11
29.78 29.41 28.42 28.62 29.12 29.30 29.09 29.25 30.34 31.05 31.78 31.15 31.31 31.58 32.34 33.28 33.11 32.60 32.17 32.40 32.62 32.79 33.83 35.06 35.78 37.19 38.84 39.72 44.91 52.27 52.21 54.55 59.97 59.35 59.31 60.59 60.91 60.45 59.63 58.48 57.86 56.71 56.87
28.58 28.19 27.78 27.86 28.13 28.45 28.78 29.56 30.25 30.17 30.81 30.53 30.10 30.34 32.26 32.51 32.89 32.32 31.76 31.73 31.58 31.84 32.05 32.99 33.19 34.95 35.06 36.15 38.15 46.98 54.89 55.85 58.32 56.01 56.62 58.19 58.87 54.07 56.06 57.93 57.97 57.59 56.91
27.50 27.42 27.23 27.30 27.32 27.86 28.43 28.85 28.70 29.33 30.14 29.15 29.20 29.41 29.71 31.15 30.62 31.34 30.72 29.89 29.28 29.94 30.88 31.10 31.38 31.45 33.57 34.40 37.85 42.61 43.50 44.32 43.55 42.28 42.36 42.67 43.49 45.78 44.19 42.07 40.54 51.73 56.69
26.12 25.53 25.47 26.40 26.80 27.30 28.41 27.98 28.27 28.84 28.04 27.62 27.77 28.31 27.57 27.58 29.06 29.18 29.17 28.27 27.79 27.81 27.68 29.42 30.87 30.67 31.50 33.62 34.13 34.99 35.05 35.50 35.83 38.46 40.11 37.84 37.96 38.57 39.83 37.75 37.16 35.73 35.68
24.36 24.31 24.82 25.25 26.53 27.51 28.45 29.41 28.66 26.50 25.19 25.09 25.38 26.71 25.75 25.30 26.75 27.54 26.67 27.02 27.07 26.33 26.13 26.94 29.23 30.44 31.33 32.63 33.02 32.58 31.79 31.92 31.77 32.12 32.16 34.00 35.07 34.06 34.37 35.16 33.52 32.12 31.55
23.41 23.65 23.74 22.95 25.40 27.33 28.41 28.40 29.14 28.53 25.54 23.35 23.16 24.15 24.11 22.95 23.89 24.20 24.27 25.39 25.34 25.31 25.57 26.25 27.22 28.35 30.28 32.52 32.21 31.65 30.96 29.81 29.74 30.57 31.53 31.90 31.57 32.74 32.94 30.01 29.74 28.05 26.74
21.89 22.95 25.49 28.05 28.73 28.84 29.06 28.00 27.40 27.57 25.37 24.71 23.54 23.65 23.01 21.16 20.80 21.66 23.10 23.30 24.03 23.66 24.71 25.25 26.34 29.03 28.78 32.00 32.38 30.41 29.78 28.22 28.99 29.67 30.27 31.80 31.17 31.25 30.68 29.18 26.91 24.18 24.86
26.77 28.85 27.70 26.32 26.75 28.10 28.20 25.80 25.98 25.02 25.83 25.44 24.77 23.29 23.17 22.26 20.84 21.02 21.39 21.36 21.99 22.66 23.04 23.76 24.93 25.89 28.64 29.72 31.18 30.44 28.37 27.52 26.75 26.80 27.70 29.96 31.84 31.55 31.25 29.92 27.59 26.80 27.81
28.74 28.06 26.40 25.79 26.87 27.10 26.25 24.68 24.20 25.91 26.28 25.37 23.80 23.28 22.80 22.91 22.58 21.10 21.24 20.91 20.52 21.02 21.94 22.77 23.39 24.59 25.85 28.75 29.48 29.02 28.56 27.99 25.83 25.35 26.29 27.90 29.55 30.45 30.62 29.64 29.93 29.62 28.46
27.30 26.77 25.45 24.98 25.92 26.67 26.35 23.96 24.38 25.63 25.92 25.73 24.48 22.00 23.00 22.92 22.06 21.11 21.19 21.24 20.97 20.03 20.28 21.88 22.62 22.72 24.08 25.35 26.93 27.30 27.16 26.15 24.35 25.45 26.40 27.10 27.19 27.03 26.07 28.42 28.53 27.52 27.40
26.14 25.55 24.45 23.31 23.09 24.55 25.19 25.42 26.65 26.30 25.27 25.14 25.18 25.25 24.77 22.38 23.11 22.56 21.57 21.00 21.68 21.04 19.68 20.00 21.16 22.63 22.66 23.14 24.08 23.86 22.95 23.48 22.91 22.67 22.58 23.21 24.21 23.62 23.78 24.04 24.88 25.57 25.70
25.17 24.60 23.37 22.55 22.24 23.37 23.54 24.16 25.43 26.44 25.31 24.78 24.71 24.62 24.35 24.14 21.98 22.58 21.11 20.58 22.42 23.61 22.00 19.68 20.42 20.88 21.40 22.80 24.86 23.64 22.14 21.63 21.62 20.66 20.06 19.08 18.73 18.88 19.63 20.66 21.41 22.56 23.48
23.64 22.48 21.86 21.40 21.35 21.79 21.64 22.60 24.52 24.92 24.43 24.03 23.60 22.82 22.94 22.34 22.60 21.58 20.40 24.02 24.05 25.19 25.74 25.94 23.07 21.22 24.28 25.13 25.18 24.88 24.03 23.11 22.57 18.80 16.99 16.53 17.40 17.16 17.42 17.28 18.12 19.52 20.31

GFSMW_sfc_wetblb_123.txt.gz
Wetbulb
47.42 46.86 46.85 46.57 46.34 46.16 45.89 45.74 44.97 44.92 45.55 45.34 44.94 46.32 44.50 46.60 48.05 51.26 51.03 53.95 52.16 53.59 55.37 58.85 59.92 63.03 62.76 62.40 64.78 65.05 64.22 63.72 62.47 61.09 60.52 60.52 61.18 62.56 63.73 64.02 63.29 62.49 61.87
44.43 44.73 43.93 43.32 42.91 43.13 43.33 43.20 43.15 42.57 42.96 43.54 43.37 43.73 43.68 46.27 46.49 46.43 46.91 49.23 48.56 51.14 51.97 53.61 56.67 59.19 59.94 63.30 63.41 64.51 63.52 62.70 62.57 60.75 58.69 57.90 59.39 60.50 61.42 62.58 62.53 62.36 62.43
41.89 41.94 41.67 40.96 40.28 39.46 40.06 40.80 40.25 40.26 40.58 40.97 41.39 41.50 42.63 42.85 43.36 41.92 42.74 44.42 45.83 47.44 48.48 50.60 52.35 53.41 56.54 57.87 60.01 63.43 62.47 61.38 62.16 63.15 59.73 54.95 55.11 56.52 59.07 61.04 61.99 61.33 61.92
40.27 40.12 39.62 39.38 40.08 39.46 39.38 38.49 39.27 38.69 39.08 39.06 38.34 37.74 37.70 37.03 39.27 39.65 41.21 41.60 43.29 44.96 47.12 48.65 49.37 50.72 52.45 54.35 56.88 61.00 62.60 61.23 58.60 62.07 62.06 60.98 57.86 54.65 53.31 58.83 61.13 61.33 61.51
39.60 38.67 38.24 38.19 38.17 38.43 37.36 36.70 36.98 36.77 37.04 36.45 36.02 35.61 35.22 36.59 37.65 38.24 38.34 39.57 41.67 42.82 43.82 45.85 46.45 47.64 49.60 51.57 53.95 55.98 59.63 62.99 60.87 60.67 59.51 59.57 59.14 58.07 54.65 53.58 57.14 60.42 61.74
39.28 38.94 39.40 39.61 38.46 37.47 36.17 36.29 35.47 34.98 34.94 34.29 33.95 33.38 33.08 33.25 34.11 35.16 36.49 38.40 39.98 41.17 41.98 43.17 43.54 44.32 45.83 47.32 50.17 53.26 55.34 60.86 62.74 61.03 60.06 58.39 57.15 56.47 55.58 54.51 54.65 57.19 59.68
38.53 37.57 36.51 36.03 36.30 35.10 34.72 35.00 34.21 33.40 33.51 33.15 33.01 32.96 32.54 32.81 33.51 34.74 35.70 36.27 38.28 39.82 40.44 41.15 41.46 42.39 43.78 45.03 46.09 47.43 49.40 51.94 60.26 60.76 59.19 59.16 59.01 58.45 58.03 56.92 55.92 54.96 56.12
38.89 37.36 36.45 35.72 34.62 34.48 33.92 32.68 32.34 32.67 33.11 33.27 33.17 33.87 34.31 34.14 35.08 35.84 35.52 36.27 37.79 39.09 40.51 41.28 42.47 43.68 44.79 45.60 45.67 45.94 47.58 50.74 53.23 60.95 60.15 59.98 59.91 60.13 59.03 57.49 56.48 52.86 53.78
37.91 36.67 35.89 35.12 33.87 33.37 33.48 32.54 32.06 32.25 32.91 33.11 33.14 33.26 33.69 33.95 34.59 35.69 36.36 36.74 37.75 38.79 40.12 40.42 41.45 42.40 43.52 44.50 45.39 44.73 45.55 48.57 51.45 54.52 61.18 59.81 60.58 60.80 60.69 60.15 58.37 57.07 53.32
36.21 34.66 33.52 33.01 32.81 31.44 32.21 32.50 32.39 32.33 32.57 33.30 33.17 32.98 33.13 33.85 34.62 35.11 34.98 35.44 36.73 37.24 38.21 38.87 39.45 40.35 41.75 43.35 44.77 45.48 46.27 47.17 49.65 53.59 58.57 60.57 60.91 60.69 61.09 60.45 59.54 59.24 57.68
32.19 31.90 31.47 31.56 31.52 31.08 30.23 30.82 31.24 31.53 31.83 32.89 33.56 32.77 33.21 33.30 33.55 33.10 33.98 34.10 34.81 35.34 36.28 37.13 38.08 38.37 39.38 42.07 43.54 44.69 46.09 46.52 48.64 51.20 54.97 59.83 60.73 60.43 60.73 60.33 59.97 59.17 58.75
29.49 29.04 29.38 29.64 29.98 29.11 30.06 30.22 30.64 30.75 31.89 31.53 31.99 32.83 33.21 33.47 33.01 32.90 33.09 33.60 33.37 34.37 34.74 35.55 36.23 37.34 38.95 40.48 42.37 43.64 46.73 48.47 49.21 50.21 51.56 57.17 60.72 59.41 60.26 59.95 59.90 59.45 58.64
28.48 27.79 28.26 28.86 28.80 28.76 29.69 30.02 30.68 30.73 30.47 31.02 30.63 31.13 31.29 31.51 32.38 32.04 31.92 32.11 32.22 32.86 33.50 34.29 34.29 34.77 36.33 37.34 39.52 41.34 43.16 45.99 49.27 50.88 51.77 54.78 59.34 59.28 58.99 59.35 59.70 59.65 58.62
28.50 28.88 28.24 28.12 28.89 29.24 29.52 29.48 29.58 30.20 29.88 29.89 29.18 28.32 29.09 30.46 30.31 30.91 30.65 30.64 30.65 30.08 31.27 32.84 33.34 33.77 34.25 35.52 36.31 37.97 40.63 44.39 51.72 52.01 52.82 54.77 58.31 59.13 59.21 58.61 59.38 59.43 58.80
27.90 27.90 27.42 27.41 27.78 27.99 28.75 28.84 28.98 29.33 29.05 27.75 27.35 27.00 27.68 28.28 29.21 28.46 29.35 29.40 29.33 29.33 29.55 30.23 32.21 32.76 33.22 34.14 34.82 38.55 40.74 43.01 51.28 51.17 49.05 46.87 47.20 48.90 56.00 59.07 59.38 58.37 57.06
26.78 27.16 27.10 27.18 26.80 27.37 26.91 26.40 25.84 26.32 26.28 25.36 25.66 26.06 26.50 26.45 26.73 27.23 27.28 27.43 27.52 27.85 27.86 28.33 30.35 31.06 32.15 34.15 34.54 35.75 38.03 39.07 40.17 40.08 38.95 38.80 38.83 41.90 42.70 42.34 43.24 50.38 56.32
25.67 25.42 25.85 26.71 27.21 27.17 27.76 24.23 22.35 23.62 23.23 22.74 23.90 24.18 24.42 24.28 24.34 25.51 24.90 24.65 24.95 25.84 26.39 26.99 29.05 29.65 31.03 33.50 33.74 32.95 32.51 32.74 33.30 33.63 34.59 34.57 35.17 37.54 39.63 38.30 36.42 34.94 34.76
24.47 24.89 25.57 25.68 23.69 21.32 22.62 25.28 24.12 24.03 22.40 21.78 21.80 22.53 22.31 21.88 22.52 22.86 23.07 23.29 24.17 24.25 25.01 25.82 27.42 28.44 30.13 32.55 32.73 32.49 31.35 30.89 30.98 31.06 31.79 32.30 32.49 33.26 33.60 32.38 31.06 30.31 32.43
21.61 23.36 24.64 20.25 20.06 23.75 26.54 27.32 26.93 25.24 23.39 22.21 21.95 22.24 21.20 20.44 20.61 20.16 20.64 22.02 22.90 23.73 24.61 25.52 25.53 26.85 28.15 31.62 31.71 30.26 29.24 28.95 28.95 30.21 31.38 30.83 30.70 32.77 34.51 31.76 29.26 29.37 28.18
23.76 25.36 24.92 24.45 26.34 27.16 28.14 26.72 26.12 25.28 23.19 22.84 22.47 22.72 22.33 20.76 19.92 20.38 20.51 21.16 22.21 23.12 24.63 24.38 24.98 26.95 25.62 30.68 30.51 28.50 27.70 26.08 26.46 27.80 29.05 31.64 31.38 32.16 31.05 28.93 28.72 27.07 26.72
26.93 28.01 26.74 25.45 26.02 27.29 27.10 25.08 24.85 23.98 24.54 24.27 23.36 22.51 22.65 21.93 21.32 21.67 22.07 21.51 21.32 22.18 23.13 23.35 23.57 23.97 25.27 25.26 28.69 28.56 25.36 25.05 24.68 24.70 26.02 28.11 30.68 31.00 30.95 30.26 28.03 27.36 28.62
27.63 27.34 25.98 25.52 26.61 27.02 25.81 24.04 23.34 24.74 25.60 23.89 23.15 22.37 22.29 22.65 22.30 21.19 22.29 22.35 20.84 20.29 21.28 21.86 22.39 23.18 23.61 25.71 26.12 26.45 25.84 25.26 23.06 23.19 24.69 26.49 28.76 28.81 28.86 27.92 28.66 28.81 27.96
26.23 26.37 25.19 24.52 25.13 26.00 26.05 23.47 23.30 25.22 25.12 24.81 23.32 22.01 22.42 23.14 21.65 19.93 21.14 21.91 21.87 19.37 18.95 20.39 20.54 21.40 22.67 22.95 24.99 25.14 24.47 23.69 20.64 22.25 23.47 24.59 24.84 25.22 24.40 26.41 26.37 25.54 25.30
25.07 25.36 24.28 23.00 22.81 24.19 24.61 25.01 25.98 25.75 24.95 24.32 24.18 24.18 23.52 22.04 21.68 21.28 21.54 21.57 21.60 20.14 18.58 17.99 18.63 20.02 21.24 22.04 22.31 21.55 21.23 21.11 20.56 20.43 20.43 20.74 21.63 20.71 20.91 21.40 22.20 22.80 22.94
24.95 24.12 23.00 22.24 21.85 22.70 22.88 23.70 24.68 25.57 24.69 23.88 23.62 23.10 22.96 22.46 20.95 19.57 20.21 20.69 21.97 22.99 19.49 18.24 17.99 18.01 18.05 20.59 23.38 22.63 20.18 19.55 19.34 18.32 17.94 17.08 17.31 16.96 17.31 18.08 18.82 19.55 20.38
23.25 22.37 21.92 21.57 21.17 21.35 21.12 21.98 23.58 23.73 23.34 22.47 22.18 21.56 21.23 20.60 20.42 18.80 17.55 22.71 23.45 24.11 24.13 23.66 21.55 19.03 21.77 22.32 22.61 22.29 22.27 21.36 20.45 15.94 13.89 13.91 14.22 14.40 14.29 14.63 15.29 16.21 16.50

GFSMW_sfc_wetblb_129.txt.gz
Wetbulb
42.23 42.27 42.37 42.41 42.50 42.19 42.24 42.21 42.14 42.20 42.39 43.01 44.04 46.54 45.89 49.51 50.35 48.05 48.36 48.35 48.64 50.00 51.37 52.84 54.73 57.21 58.97 61.11 62.90 64.45 63.74 62.65 64.96 64.16 64.85 65.40 66.47 66.12 66.12 67.01 67.14 66.68 67.24
41.30 41.16 41.42 41.44 40.93 41.13 41.06 41.21 40.74 40.92 40.78 41.23 41.60 43.08 44.46 47.05 48.48 45.64 46.05 46.22 46.65 48.06 49.34 50.27 51.25 52.71 54.14 56.06 58.77 61.14 61.07 62.70 64.53 62.57 62.61 58.75 62.23 63.23 64.52 65.47 65.71 65.58 66.45
39.93 40.49 41.00 40.23 40.47 40.20 39.88 39.84 40.20 39.83 40.03 40.15 40.82 41.76 43.60 43.92 44.18 42.54 43.15 43.59 45.13 46.62 47.38 47.97 49.27 50.17 51.20 52.04 54.31 56.67 57.50 58.56 62.78 63.48 61.69 57.86 57.97 59.70 62.05 62.52 62.37 62.80 64.43
40.52 40.65 40.47 39.57 38.49 37.88 38.61 38.32 39.14 39.14 39.44 39.65 39.10 38.34 37.51 37.45 38.60 40.00 41.50 42.59 44.06 44.48 45.70 46.78 47.12 47.58 48.36 48.97 50.28 52.23 53.84 56.22 57.63 61.98 63.90 62.34 60.81 56.68 56.27 59.31 60.09 60.84 60.76
40.73 40.98 41.13 39.35 38.39 38.19 37.19 37.27 37.19 37.14 37.54 38.64 38.87 38.24 37.82 38.03 39.26 39.21 39.74 41.29 42.25 42.94 43.84 44.63 44.19 44.74 46.05 47.01 47.81 49.01 50.55 52.40 54.09 56.74 61.87 60.12 59.48 61.48 58.95 56.48 57.10 60.60 61.52
40.98 41.21 41.30 40.67 39.11 38.81 37.96 37.64 36.31 36.70 36.26 36.69 37.54 37.37 36.38 36.13 36.20 37.05 37.38 38.48 39.64 40.28 41.19 41.26 41.75 42.42 42.83 43.57 44.79 45.51 46.19 47.63 49.51 51.41 54.42 59.55 59.58 58.32 58.50 58.03 58.17 58.02 59.04
41.81 40.79 39.81 37.87 36.97 36.09 35.99 36.14 36.25 35.30 35.64 35.26 36.78 36.98 35.98 36.05 35.57 35.50 34.90 35.48 36.70 38.22 38.95 39.80 40.22 40.89 42.01 42.76 43.77 44.68 44.96 45.82 45.95 47.86 51.04 53.80 56.13 60.13 59.58 59.08 59.08 57.82 58.01
40.54 39.06 37.35 36.29 35.56 35.02 35.09 35.10 34.65 34.52 35.28 35.79 35.25 36.50 36.41 35.66 35.57 35.19 34.49 34.94 35.70 36.50 38.02 38.26 38.86 39.48 40.43 41.64 42.32 42.69 44.30 45.86 45.81 46.04 47.48 49.81 53.56 54.00 60.13 59.09 59.47 57.71 58.27
38.80 36.86 35.82 35.13 34.83 34.19 34.03 33.29 33.73 34.22 34.46 33.71 33.55 34.55 34.52 34.52 34.27 34.97 35.29 34.66 35.71 36.18 36.60 36.53 36.66 37.64 38.71 39.51 40.32 41.02 41.97 43.97 45.68 47.01 47.43 47.45 50.35 55.38 56.29 60.63 60.05 59.07 56.41
36.20 34.34 33.88 33.60 33.80 33.89 34.13 34.17 34.04 32.94 33.09 33.11 32.87 33.02 33.14 33.94 33.85 33.98 33.37 33.22 34.03 34.21 34.32 34.68 35.64 36.42 37.45 38.23 38.84 39.37 40.89 41.96 43.83 45.77 46.43 47.23 48.01 51.87 56.04 59.30 60.76 59.88 58.53
32.26 32.59 32.46 33.02 33.00 33.79 33.48 32.77 32.43 31.93 32.09 32.35 32.13 31.91 31.84 32.48 32.54 32.55 32.35 32.08 32.70 33.19 33.17 33.24 33.62 34.98 35.55 36.32 36.65 37.05 38.44 40.74 42.07 44.30 45.08 46.83 48.14 48.10 53.13 55.98 60.77 59.30 59.64
30.89 32.08 31.78 32.61 32.09 32.04 32.34 31.83 31.49 31.46 31.58 31.68 31.60 31.03 30.93 31.15 31.09 30.83 30.93 31.83 31.13 32.31 32.31 32.64 33.15 33.20 33.85 35.10 34.83 35.09 36.49 36.98 38.01 40.40 43.05 45.86 47.98 47.86 49.79 55.54 57.52 59.32 59.35
30.59 30.72 31.10 30.86 30.78 30.59 30.45 29.96 30.51 30.64 31.07 31.31 30.80 30.24 29.94 30.16 29.79 29.73 30.06 30.53 30.22 30.76 31.41 32.24 32.51 32.44 33.19 33.35 34.19 35.22 35.38 36.38 37.33 38.38 40.13 43.66 46.05 46.53 49.08 51.35 55.35 57.30 60.20
30.33 30.47 30.22 29.78 29.90 29.01 28.46 28.00 28.61 29.27 29.37 29.41 29.23 28.79 28.40 29.04 29.49 29.91 29.46 29.76 30.22 29.89 30.16 31.07 31.47 32.16 32.79 32.35 32.55 33.82 34.93 35.75 37.49 39.73 39.86 41.99 43.65 46.66 49.84 50.73 52.98 56.51 57.50
29.98 29.14 28.63 28.83 28.84 28.54 29.03 28.30 27.46 27.44 27.61 26.48 25.96 25.73 26.67 27.16 27.79 28.19 28.23 28.84 29.78 29.64 29.43 29.33 29.79 31.87 31.88 31.74 31.43 31.45 32.04 33.06 33.92 36.58 38.11 39.52 38.69 40.05 43.78 49.26 51.89 54.42 56.27
28.50 27.59 27.90 27.79 27.77 28.10 27.94 27.47 26.62 26.19 26.54 25.55 24.47 24.54 25.59 25.44 25.23 25.95 26.35 27.12 27.68 27.77 28.00 27.20 27.97 28.84 31.25 31.22 31.22 30.60 29.61 29.78 30.54 31.25 32.68 33.48 34.66 36.80 35.20 36.03 34.95 36.76 46.81
27.76 27.52 27.12 27.62 27.91 27.90 28.58 26.72 26.38 26.66 25.23 24.52 24.45 24.30 24.31 23.93 24.88 25.18 25.09 25.27 26.61 27.25 26.53 25.72 26.82 26.78 29.11 30.59 29.84 29.58 29.21 27.43 27.66 28.48 29.25 30.18 31.78 33.58 34.72 33.67 33.93 34.00 34.06
27.48 26.95 27.17 27.40 27.70 28.49 28.75 27.96 26.74 25.72 24.63 23.98 23.70 24.16 23.75 23.60 24.53 24.41 24.11 24.67 26.84 26.36 25.84 25.70 26.04 25.16 26.75 28.55 28.68 27.46 26.87 26.68 25.91 27.03 27.55 27.87 28.69 30.59 31.23 32.62 31.93 31.54 31.92
25.73 26.23 26.78 26.66 27.59 28.22 28.87 27.78 25.70 24.79 23.94 23.15 23.35 23.84 23.74 22.47 23.29 23.32 23.49 24.33 24.75 25.03 25.57 25.01 24.14 24.31 24.80 27.39 26.87 24.95 25.03 24.79 24.65 25.70 27.12 27.11 27.25 29.73 30.47 28.02 28.05 28.96 28.57
25.39 24.91 26.84 28.08 27.58 28.04 28.82 26.95 25.47 24.27 22.89 23.34 23.65 24.18 24.07 23.06 22.69 24.10 23.28 23.51 23.77 23.41 24.35 24.21 23.74 24.12 23.65 26.23 26.13 24.82 23.09 21.90 22.52 23.05 24.24 26.95 27.03 28.16 27.97 24.90 24.81 24.06 26.09
26.62 27.83 26.72 25.89 27.06 28.24 27.81 25.86 25.60 24.00 25.01 24.79 24.50 24.05 24.21 24.15 24.32 25.04 24.18 23.24 22.46 22.49 22.09 22.11 22.64 22.66 23.28 23.22 25.10 24.59 22.56 21.47 20.88 20.90 20.69 23.04 24.73 25.63 26.17 25.78 24.15 23.74 25.86
27.26 27.74 26.91 26.31 27.29 27.55 26.77 25.09 24.63 26.33 26.69 25.96 23.84 22.96 23.17 24.33 24.58 23.83 23.91 23.26 22.77 21.25 21.36 21.25 20.90 22.19 22.49 23.18 22.97 23.22 22.25 21.52 19.95 19.22 20.75 21.12 22.45 22.67 23.21 22.29 23.37 23.57 23.92
27.06 27.87 26.75 26.10 27.14 27.38 27.16 24.95 25.53 26.66 26.12 25.35 24.30 23.22 22.61 22.87 24.02 23.33 23.38 23.14 22.86 21.49 20.37 20.94 19.92 20.74 22.38 22.09 22.12 21.63 20.45 19.79 18.71 18.89 19.41 20.26 19.88 20.05 19.41 20.46 20.50 20.50 21.43
26.25 26.85 26.19 25.07 24.82 26.48 26.33 26.43 26.57 26.34 25.54 24.03 23.48 23.04 22.28 22.07 22.86 23.77 23.29 22.82 22.64 21.55 19.73 19.36 19.78 20.12 20.65 21.24 21.51 20.69 20.66 17.87 17.29 17.58 17.95 17.17 17.91 16.14 16.87 17.51 17.98 18.86 19.50
26.05 26.06 25.04 24.26 23.54 24.80 24.74 25.57 26.10 25.96 24.15 23.29 22.70 22.17 22.01 21.13 20.92 21.44 22.15 21.93 23.15 22.64 20.70 20.20 20.11 19.26 18.35 19.54 20.29 19.71 18.48 17.62 16.14 16.54 16.35 15.73 15.43 14.26 14.30 15.04 14.77 15.40 16.92
25.26 24.58 24.27 23.51 23.17 23.56 23.27 23.91 25.04 25.20 23.77 22.04 21.78 21.34 20.87 20.79 20.13 19.65 19.20 21.39 21.93 22.23 22.06 22.45 21.58 20.89 20.74 20.33 19.79 19.16 18.51 17.00 16.46 14.95 13.65 13.08 13.14 12.99 12.68 12.65 13.23 14.06 13.25

GFSMW_sfc_wetblb_132.txt.gz
Wetbulb
46.99 47.36 47.70 48.73 49.23 48.91 48.40 48.04 47.99 48.40 48.77 49.31 49.47 51.17 50.41 53.80 54.58 52.88 52.71 52.59 52.99 54.03 54.94 55.67 56.75 58.13 58.91 59.66 60.26 61.59 64.32 66.01 65.73 63.32 63.74 62.46 62.09 67.99 68.40 69.07 69.18 69.28 70.17
46.53 46.47 47.49 48.55 48.28 47.69 47.34 47.63 47.33 47.70 47.41 47.98 48.24 48.78 49.59 51.47 51.61 50.89 51.19 51.03 51.12 52.28 52.35 53.15 53.96 55.29 55.68 56.90 59.18 59.79 58.44 61.41 63.93 62.12 62.00 59.01 61.12 65.96 67.03 68.67 68.41 68.92 69.21
46.84 46.89 47.07 46.79 46.00 44.81 45.26 45.37 45.27 45.77 46.24 46.79 47.96 48.48 49.69 49.59 49.16 48.27 48.67 49.11 49.78 50.49 50.96 51.35 52.18 52.87 53.55 53.98 55.76 57.08 57.93 56.53 58.75 62.05 61.05 58.21 57.64 62.06 66.95 65.94 66.90 67.79 67.67
46.15 46.62 46.64 45.83 45.90 45.64 45.92 45.96 45.53 45.11 44.89 45.71 45.39 44.85 45.26 44.69 46.07 46.80 47.31 47.95 48.56 48.19 48.97 49.72 49.59 49.57 51.13 51.83 53.01 54.11 55.07 53.88 53.05 57.10 59.77 62.54 63.73 59.52 59.09 62.76 64.63 66.23 64.67
46.87 46.24 46.44 46.70 46.42 45.75 45.31 45.03 44.85 44.04 43.67 44.22 44.48 44.41 43.55 44.10 45.07 45.70 45.24 46.49 46.89 47.43 46.93 46.42 45.93 46.51 46.97 48.27 47.86 49.61 51.47 53.34 53.79 54.52 55.29 56.59 62.00 64.23 60.73 57.01 60.20 62.05 62.69
47.01 47.23 46.42 45.93 44.95 44.78 44.45 44.50 44.02 43.25 43.48 43.36 43.14 42.77 42.03 41.76 42.01 42.24 42.09 43.11 43.99 45.30 45.95 44.58 43.76 43.32 43.39 44.32 45.19 45.98 47.12 46.71 48.22 51.19 53.53 53.49 53.71 58.00 60.18 58.92 59.68 59.66 62.03
47.36 46.03 44.92 44.06 42.98 42.95 43.23 43.01 42.75 41.87 42.47 41.68 41.17 41.61 40.45 40.77 40.09 38.81 39.56 39.56 40.64 41.44 42.18 41.65 41.24 41.70 42.19 42.33 43.16 43.59 44.01 44.91 45.46 46.93 48.47 52.87 55.03 54.74 54.07 58.72 60.05 60.11 62.38
45.43 44.72 43.60 42.82 42.06 41.89 41.89 41.75 41.11 40.53 40.53 39.92 39.37 39.43 38.21 38.03 38.32 37.67 37.28 37.61 37.26 38.11 39.28 39.53 39.94 40.37 40.61 40.93 41.39 41.88 42.61 43.41 44.90 45.47 46.40 46.56 50.19 54.29 54.37 53.14 57.14 59.11 60.17
43.42 43.80 42.42 41.66 41.27 41.09 40.47 40.27 39.43 39.23 38.59 38.14 37.78 37.50 37.31 37.02 36.19 36.62 36.85 36.23 36.46 36.47 37.59 38.03 38.02 38.52 38.73 39.27 39.39 39.84 40.46 41.30 42.58 43.98 45.61 46.60 47.16 50.28 53.63 54.54 54.35 58.11 56.24
42.08 41.73 41.26 39.94 40.30 40.44 40.46 40.40 39.11 38.02 37.56 37.39 37.00 36.35 36.33 36.24 35.93 35.75 34.71 34.77 34.97 35.56 35.55 35.74 36.50 36.97 37.39 38.14 38.20 37.93 39.00 38.93 40.31 41.85 43.62 45.59 47.15 48.08 49.55 52.81 55.46 58.50 58.53
42.58 39.42 39.99 39.30 39.42 39.67 39.18 38.20 37.28 36.63 36.82 37.12 37.37 36.75 35.72 36.18 35.80 34.80 34.35 34.01 34.47 34.15 34.31 34.95 35.21 35.50 36.01 36.28 36.19 36.04 36.60 37.60 38.84 40.73 42.24 43.19 45.77 46.52 47.96 48.99 53.38 56.58 59.77
40.98 38.14 37.42 38.56 38.32 37.84 37.82 37.57 37.26 36.11 35.52 36.14 36.18 36.12 35.40 34.77 34.20 33.60 33.54 33.68 33.13 33.85 33.47 33.76 33.74 34.29 34.68 35.31 34.82 34.52 35.64 36.04 36.57 37.80 38.98 40.05 42.68 43.64 47.15 48.29 48.93 53.73 57.71
39.18 36.70 36.64 37.20 36.94 36.45 35.84 36.18 36.54 36.06 36.10 35.34 35.18 35.36 34.16 32.90 32.02 32.17 32.86 32.75 32.62 33.06 33.02 33.18 32.73 33.69 33.83 33.18 33.72 33.72 32.74 33.29 34.99 36.49 37.99 39.09 41.34 42.80 44.91 46.38 48.19 50.06 54.54
37.60 37.81 37.47 36.47 35.54 34.99 34.88 34.05 33.38 33.81 34.08 34.12 33.22 32.38 32.31 32.03 31.88 31.88 31.81 31.92 32.19 31.45 31.43 31.89 32.19 32.75 32.75 32.14 32.70 32.45 31.65 31.02 31.98 34.01 35.41 39.37 40.01 40.86 43.04 43.76 47.53 49.68 50.78
36.73 36.43 33.97 35.00 34.68 34.48 33.64 33.13 32.41 32.29 32.24 30.97 29.82 29.45 30.93 31.16 31.23 31.14 30.97 31.53 31.71 30.81 30.56 30.59 30.92 31.44 31.52 32.04 31.09 31.99 31.52 30.81 29.63 30.81 31.96 33.52 35.13 36.94 37.10 41.32 44.80 47.00 49.92
34.61 32.29 32.32 33.61 32.71 31.79 31.63 30.91 30.03 30.15 30.69 29.55 27.81 28.04 29.00 28.96 28.55 29.24 29.36 30.89 31.06 30.59 29.64 29.29 29.37 29.53 30.91 29.71 29.74 30.09 30.44 29.62 28.11 27.61 29.04 30.86 32.23 35.22 34.74 34.95 34.43 34.60 37.76
31.57 31.33 31.93 32.17 31.70 31.20 30.84 29.33 28.85 29.84 28.87 27.79 27.72 27.38 27.28 27.28 27.39 28.11 28.40 28.92 29.14 29.50 28.38 28.28 28.90 28.75 29.51 28.23 28.34 28.63 29.25 27.46 26.83 27.21 27.29 28.04 29.73 30.57 32.11 32.35 31.77 32.18 32.69
32.25 31.57 31.34 30.98 30.86 31.47 30.30 29.43 28.87 27.98 27.77 27.28 26.87 27.03 26.14 25.94 27.24 26.66 26.80 27.91 29.63 28.34 27.68 26.85 27.50 27.35 27.97 27.13 26.70 26.45 27.09 26.47 24.92 26.06 26.77 26.98 27.11 28.64 28.34 28.79 28.63 29.00 30.27
31.80 30.34 30.73 30.50 30.09 30.00 30.14 28.29 27.55 27.46 26.97 26.03 26.29 26.54 25.88 25.65 26.28 25.24 26.11 27.50 27.72 27.53 26.62 26.38 25.22 25.33 25.70 25.87 25.73 25.71 25.64 24.91 24.02 24.27 25.06 25.81 26.00 28.21 28.84 26.10 25.66 26.18 26.61
29.58 29.12 29.79 30.22 30.02 29.99 30.74 28.39 26.72 25.75 24.83 25.50 26.07 26.95 26.74 26.28 25.52 26.36 26.22 27.41 27.95 26.92 27.62 26.06 25.42 24.58 24.78 25.02 24.51 23.80 24.55 22.46 22.97 23.65 23.47 24.24 24.27 25.73 26.54 24.87 25.05 24.22 26.02
28.82 30.29 29.64 29.01 28.92 30.54 30.20 27.23 26.27 24.69 25.68 26.21 25.91 25.80 27.21 26.88 27.31 27.29 27.61 27.07 26.77 26.66 25.70 25.95 26.08 24.97 24.86 24.26 24.02 23.00 22.43 22.03 19.99 20.79 20.61 22.30 22.83 23.40 23.80 24.20 23.47 23.65 26.21
29.13 30.28 29.54 28.55 29.38 29.72 28.86 27.13 26.17 27.56 27.72 26.00 25.23 25.38 26.02 27.48 27.87 27.26 27.82 27.28 26.55 25.73 25.26 24.72 24.93 26.53 25.90 23.52 22.89 22.42 21.14 21.49 20.99 19.09 21.03 21.07 21.62 21.75 21.78 21.38 22.47 23.12 24.40
29.18 30.42 29.59 28.45 29.35 30.10 29.16 26.69 27.35 28.19 27.45 26.77 25.11 24.71 25.54 26.97 27.23 26.49 26.49 27.02 26.56 24.96 24.23 24.30 23.28 23.33 24.32 25.46 22.64 21.90 20.99 20.37 20.35 22.10 20.21 20.35 20.25 20.17 20.61 20.35 19.92 21.03 22.06
28.18 29.24 28.68 28.04 28.08 29.52 29.31 29.16 28.59 28.19 27.22 25.80 25.09 25.41 24.73 24.96 26.16 27.45 26.68 25.08 24.87 24.49 23.52 22.57 21.83 22.11 21.67 21.76 23.62 22.70 22.19 20.03 21.03 21.07 21.21 19.81 20.58 19.55 19.40 20.67 20.46 20.38 21.21
28.46 29.11 28.87 28.68 28.50 28.97 28.75 29.17 28.73 28.31 26.50 25.22 24.95 25.15 25.02 24.69 24.12 23.80 24.39 24.20 23.38 23.02 22.50 22.83 22.23 20.40 19.41 20.79 20.77 20.85 20.21 20.13 20.34 20.92 20.96 20.09 19.65 19.44 18.91 18.88 19.29 20.06 20.09
28.45 28.20 28.46 28.05 27.77 27.83 27.15 27.99 28.78 28.07 26.09 24.46 24.42 24.25 24.77 24.56 24.21 23.80 22.57 21.45 21.20 20.95 20.87 21.11 21.61 22.08 20.36 19.80 20.00 19.71 19.54 19.66 19.61 19.83 18.48 18.34 18.50 17.46 17.17 17.29 17.69 18.26 17.32

GFSMW_sfc_wetblb_138.txt.gz
Wetbulb
50.91 51.65 52.18 52.54 51.91 51.41 51.07 50.58 50.34 50.48 50.08 50.08 49.54 50.09 50.03 51.32 52.39 51.48 52.80 51.05 51.56 51.86 50.84 51.00 51.54 52.42 52.14 52.80 54.26 55.56 55.48 56.85 59.77 59.11 60.77 61.87 63.35 63.88 64.87 65.82 66.11 66.60 67.10
49.25 50.22 51.28 50.85 50.52 50.09 50.44 50.30 49.55 49.13 48.91 48.93 49.85 50.38 50.79 51.13 50.91 50.70 51.31 50.06 50.63 50.26 49.83 49.45 49.36 48.91 48.65 49.84 50.26 51.70 52.20 53.35 56.23 56.77 57.25 54.90 57.09 61.14 63.24 63.95 64.34 64.56 66.35
49.03 49.74 49.94 49.79 50.85 49.51 49.31 48.44 47.57 47.21 47.61 47.69 48.05 48.46 49.58 49.15 47.66 47.85 48.13 48.01 49.38 48.78 49.42 48.91 47.72 46.66 47.10 46.76 47.48 48.05 47.72 47.45 50.50 54.16 55.00 52.37 52.10 55.30 58.84 61.20 62.97 63.10 63.04
50.90 50.39 49.71 49.94 49.31 48.89 49.03 48.43 47.64 47.04 47.04 47.03 46.19 45.49 44.16 42.99 44.77 45.28 45.26 46.43 46.84 47.08 47.37 45.59 44.09 44.08 43.68 43.85 44.25 45.90 45.11 45.68 45.27 48.93 52.50 53.53 54.27 51.18 51.47 55.39 57.67 61.68 62.14
50.76 49.79 49.81 49.20 48.09 48.50 47.87 48.44 47.38 46.55 46.17 45.87 45.60 43.89 42.64 43.46 43.93 43.55 42.92 42.73 43.88 44.19 43.79 41.48 41.35 40.60 41.14 41.80 41.64 41.75 41.86 42.66 42.50 43.78 45.53 46.72 48.80 51.55 50.60 47.77 51.18 57.26 61.36
50.39 50.39 50.40 49.20 47.14 47.81 47.79 47.86 46.19 45.05 45.39 44.91 43.96 42.88 41.45 40.75 40.73 39.70 39.05 39.45 40.17 40.27 39.92 39.55 39.51 39.92 39.78 39.69 40.46 40.23 40.86 41.05 41.75 42.40 42.72 43.04 44.33 45.64 47.19 47.85 49.26 50.52 53.83
50.07 49.48 48.31 47.44 46.44 45.90 46.29 45.82 44.86 43.37 43.75 43.44 42.67 41.86 40.92 40.04 38.99 38.02 37.55 37.22 37.10 36.96 37.26 37.75 37.82 37.53 38.29 38.94 39.31 39.22 39.09 39.72 39.84 40.76 41.42 42.10 42.38 43.88 44.44 44.78 46.14 48.17 52.16
50.40 49.72 49.25 47.72 45.57 45.19 45.07 44.50 43.26 42.25 42.64 42.57 41.64 41.07 40.20 39.12 38.30 37.55 37.11 36.37 35.88 36.31 36.96 36.71 37.17 36.91 37.57 37.92 38.09 37.91 38.08 38.76 38.98 38.97 39.84 40.72 41.96 43.05 42.96 43.11 44.03 43.47 45.97
49.17 48.95 48.33 46.58 45.07 44.15 43.69 43.40 42.66 41.91 41.99 41.76 41.46 40.19 39.34 38.44 37.26 36.75 36.40 35.74 35.89 36.15 36.15 36.22 35.72 36.27 36.29 36.44 36.41 36.19 36.02 36.38 37.15 37.65 38.55 38.97 40.17 41.80 43.31 43.21 43.91 43.03 41.32
48.60 48.28 46.71 45.08 44.53 43.89 43.12 43.21 42.71 41.59 41.46 41.75 40.78 39.57 38.54 37.93 37.11 36.59 35.22 35.14 35.40 35.52 35.42 34.96 35.03 35.12 34.70 34.77 34.77 34.52 35.37 35.04 34.97 35.34 35.36 36.28 37.91 39.55 41.44 42.39 43.89 44.73 43.61
47.91 47.29 45.85 44.84 44.10 43.89 42.67 41.95 41.53 40.67 40.48 40.97 39.71 38.81 37.57 37.18 36.10 35.34 35.17 34.73 35.03 34.69 34.30 34.08 33.85 33.83 32.97 32.72 32.52 33.53 33.66 33.20 33.20 33.66 32.77 33.73 34.59 37.62 36.92 39.97 41.84 43.65 45.00
47.91 46.65 45.07 43.56 42.84 42.89 42.30 41.53 41.05 39.49 39.57 39.85 39.32 38.02 37.69 36.47 35.14 34.13 34.31 34.61 33.66 34.02 33.55 33.56 32.64 32.76 31.78 31.42 31.25 32.23 32.17 31.01 30.84 31.51 31.32 31.46 33.26 33.02 34.55 37.27 39.01 41.57 43.42
47.15 46.10 44.02 42.74 42.45 41.55 41.08 39.99 39.25 38.48 38.64 37.89 36.80 35.80 34.97 34.54 33.80 33.37 34.09 34.20 33.23 32.42 32.60 32.15 30.95 30.94 29.77 29.89 29.99 31.80 30.25 29.62 29.54 29.93 30.32 30.15 30.41 30.90 34.01 36.28 38.42 41.00 42.98
45.51 43.52 42.59 42.47 41.51 40.39 39.21 37.39 36.30 37.06 36.44 35.07 34.23 33.24 32.80 32.75 32.57 33.16 33.11 33.01 32.41 30.38 30.13 30.78 29.75 29.09 27.80 28.56 29.09 30.37 29.22 27.85 27.46 28.13 28.76 29.17 29.31 30.80 31.90 33.28 32.93 35.74 38.22
42.55 42.07 41.73 40.63 39.27 38.11 36.80 35.73 35.28 35.17 34.55 31.86 31.07 31.63 31.69 31.59 31.68 31.91 31.85 31.58 31.20 29.61 28.97 28.87 28.49 27.06 26.79 27.25 27.95 28.62 28.28 26.41 25.10 25.55 25.83 27.47 29.62 31.43 31.79 31.31 30.31 31.16 31.94
42.93 42.19 40.95 39.53 38.44 36.19 34.39 33.72 33.43 33.20 32.97 30.30 28.03 28.58 29.39 29.52 29.36 29.98 29.53 29.70 29.28 28.74 27.09 26.62 26.93 25.01 26.23 27.42 28.46 27.75 26.51 25.00 23.35 22.91 23.29 25.12 26.95 27.86 29.46 31.06 30.99 30.59 29.48
41.90 40.01 38.43 36.15 34.80 33.66 33.73 31.89 31.97 32.03 29.84 28.64 28.40 27.71 27.41 26.73 25.47 28.76 28.58 27.49 26.87 26.87 25.81 24.79 24.77 23.82 23.90 26.80 27.47 26.83 23.82 22.55 21.27 21.07 21.90 22.70 24.62 26.32 25.61 27.72 29.35 29.03 31.06
38.64 36.54 34.95 33.80 33.23 33.15 31.91 31.79 30.94 29.96 28.80 27.23 26.23 27.84 26.40 23.61 26.85 24.74 27.34 25.39 27.16 26.14 25.46 23.91 23.18 22.95 23.42 26.24 26.12 26.27 22.18 21.27 21.31 20.61 21.90 21.81 22.52 24.47 24.46 23.95 24.23 25.26 26.74
33.89 33.84 33.25 32.61 31.21 30.59 30.60 30.09 28.94 28.67 27.54 25.15 24.88 24.59 22.83 22.35 24.59 22.91 25.29 26.48 27.18 26.64 25.58 24.53 22.60 20.84 21.25 26.09 25.55 23.25 22.45 21.45 20.18 20.94 21.50 21.73 22.20 25.40 25.78 21.51 21.48 22.24 23.45
32.06 31.00 31.91 31.23 30.01 29.78 30.01 27.19 26.14 25.97 23.82 24.30 25.28 26.14 25.38 23.29 24.04 26.60 26.21 27.58 28.22 27.00 27.26 24.54 22.62 24.14 20.10 25.40 25.57 23.33 21.69 19.97 19.27 19.85 20.66 24.05 22.95 24.46 24.34 20.32 19.96 19.13 20.82
30.98 31.70 30.88 29.79 30.37 31.60 29.77 26.79 25.74 24.83 24.58 25.53 26.70 26.70 28.67 28.19 28.40 28.16 28.25 28.37 28.03 27.23 24.83 24.90 23.15 21.16 21.77 21.35 25.27 25.03 21.14 20.93 19.68 18.98 18.83 20.09 23.69 23.98 23.75 23.20 20.28 19.92 21.57
30.64 30.52 29.77 29.61 31.00 31.43 28.64 25.88 24.20 26.29 27.26 26.53 26.48 26.59 27.59 28.78 29.05 28.45 28.84 27.94 26.97 24.70 24.24 23.75 22.44 21.93 20.73 23.38 23.45 24.25 23.77 23.46 20.46 18.72 19.47 20.15 23.28 22.92 23.11 20.76 22.23 22.17 20.00
30.24 30.78 29.60 29.19 30.31 29.89 29.05 25.94 26.23 27.53 27.24 26.58 26.11 26.77 28.35 28.50 27.56 25.51 24.67 24.23 25.29 24.20 23.57 21.20 19.70 18.67 18.59 19.32 22.63 22.47 23.20 22.91 21.51 21.92 22.20 23.19 22.86 22.50 20.70 21.80 20.79 18.79 17.91
30.89 31.05 29.71 28.94 29.21 30.56 29.87 28.78 29.00 29.34 27.70 26.52 26.54 26.60 25.81 24.88 26.11 24.81 22.61 20.56 19.64 19.97 19.56 20.49 16.56 16.49 16.62 17.67 19.39 19.52 18.90 20.79 21.19 20.45 19.72 19.05 21.28 18.65 18.02 18.71 18.33 17.38 17.15
32.65 30.83 30.13 30.34 30.06 30.70 29.68 30.05 29.96 29.31 27.32 26.48 25.75 25.65 24.99 22.92 21.63 21.15 21.51 19.53 18.86 19.01 16.88 16.80 17.74 14.38 13.67 16.46 20.60 20.37 18.19 18.81 19.65 18.20 17.30 15.69 15.47 14.78 14.92 15.67 16.64 16.30 15.94
30.82 30.38 30.43 30.83 30.88 30.52 29.96 30.47 30.88 29.59 27.23 26.01 26.03 26.05 25.57 25.55 22.82 21.27 18.84 21.67 20.92 20.78 20.37 20.03 18.63 17.47 19.21 20.12 20.68 21.56 21.24 20.82 20.81 15.93 13.47 12.15 12.00 12.05 12.51 12.42 12.68 14.34 14.13

GFSMW_sfc_wetblb_141.txt.gz
Wetbulb
47.51 47.93 47.73 46.63 46.36 46.05 45.72 45.70 45.16 44.91 44.91 44.45 44.43 44.98 45.25 46.33 46.79 47.93 47.23 47.82 47.95 47.84 47.26 47.64 46.65 46.51 46.48 47.20 47.80 47.96 48.20 50.58 51.75 54.79 56.49 58.91 61.31 61.97 63.56 64.52 64.75 64.93 65.81
46.07 47.43 46.34 45.44 45.12 44.77 44.63 43.56 43.37 43.50 43.36 43.26 43.19 44.12 44.51 45.27 44.69 45.62 45.01 46.17 45.74 46.33 44.62 43.09 43.35 43.40 43.24 43.70 43.72 44.56 44.27 47.20 47.81 48.88 50.98 51.30 54.59 57.58 60.71 62.52 63.89 64.16 64.96
45.19 46.36 46.21 44.45 44.05 43.34 42.35 42.69 42.31 42.40 42.79 42.74 42.87 42.34 42.69 42.54 42.55 41.75 42.38 42.23 43.61 42.07 40.99 40.75 40.37 40.28 40.98 40.58 40.97 40.92 41.19 40.74 44.03 44.22 47.24 47.82 48.65 50.63 54.72 56.02 58.99 61.40 61.70
46.56 46.50 45.42 43.90 42.99 42.16 42.53 42.21 42.48 41.72 42.43 42.14 40.56 39.24 38.37 37.55 39.32 39.30 39.73 40.03 40.78 40.06 39.35 39.10 38.47 38.51 39.11 38.84 39.43 40.67 40.55 40.64 39.28 42.30 45.70 45.08 46.25 48.47 47.82 52.37 53.14 54.19 56.85
45.84 45.29 44.73 43.54 42.76 42.20 41.31 40.78 41.50 41.50 41.01 40.29 39.71 38.10 37.06 37.52 37.83 37.70 36.89 37.33 37.86 38.04 37.81 37.67 37.13 37.25 38.10 38.37 38.91 38.25 38.99 39.91 39.94 40.21 40.35 40.91 42.15 44.84 46.89 45.53 48.17 50.72 53.43
45.61 45.80 44.37 43.45 41.50 41.12 40.91 39.84 40.42 40.17 40.32 39.47 38.54 37.13 35.55 35.69 34.99 34.69 34.61 34.89 35.78 36.14 36.59 37.29 37.30 37.25 37.38 37.47 37.74 38.32 38.23 38.14 38.75 39.77 40.50 40.13 39.93 40.61 41.32 41.77 42.36 42.76 47.26
45.23 44.18 42.49 41.46 41.01 39.94 39.43 39.64 39.65 39.02 39.27 38.37 37.47 36.82 36.09 35.24 34.32 33.72 33.29 33.19 33.53 34.04 34.25 35.27 35.61 35.99 36.59 36.69 36.76 36.78 36.92 37.22 37.10 37.85 38.36 39.66 40.17 41.61 41.66 40.27 40.17 40.88 43.71
45.35 44.45 42.99 40.98 40.49 40.08 38.90 38.62 38.87 38.73 38.87 38.02 37.26 36.78 35.92 35.32 34.33 33.13 32.72 33.21 33.32 33.65 34.07 34.01 34.51 35.10 35.14 34.69 35.20 35.84 35.61 36.12 36.13 35.91 36.63 37.63 38.97 40.33 40.60 39.97 39.33 37.87 39.46
44.98 44.37 42.38 40.54 39.43 38.87 38.59 37.88 38.41 38.68 38.63 37.93 36.79 35.56 35.33 34.40 33.39 33.10 32.93 33.99 33.38 34.64 33.24 33.24 33.10 32.60 32.51 32.09 33.38 33.95 34.16 34.17 34.33 34.24 34.25 33.78 35.79 37.55 38.54 40.40 40.86 39.45 36.13
45.98 43.54 42.08 40.93 39.85 39.38 38.74 38.32 38.38 38.04 38.02 37.10 36.39 35.57 35.00 35.84 35.49 33.46 33.18 33.36 33.16 33.01 33.63 32.31 32.59 31.01 31.22 30.67 31.23 32.95 32.30 31.65 31.93 32.16 32.14 32.15 32.87 33.93 35.03 37.99 39.17 39.98 38.89
47.05 44.08 41.77 41.19 40.33 39.59 39.07 38.06 37.59 37.40 36.70 36.50 35.80 34.77 34.01 34.48 34.23 34.05 33.85 32.53 32.49 33.38 32.78 31.05 30.93 28.89 29.30 29.52 29.48 31.06 29.15 28.64 28.50 29.42 30.30 30.44 31.02 30.88 32.31 33.92 34.87 36.16 37.57
47.09 43.36 42.22 40.88 39.88 39.03 38.61 37.83 36.35 35.94 35.98 36.08 34.93 33.95 33.54 32.62 31.26 31.26 31.60 31.17 29.94 31.05 30.85 29.51 28.83 27.27 27.83 28.72 28.43 29.67 27.65 26.32 25.71 25.73 27.05 28.08 29.20 29.00 32.28 33.87 35.73 35.88 38.05
44.84 43.39 41.41 40.56 40.57 39.38 38.38 37.00 36.02 34.96 33.93 33.48 32.13 31.44 31.01 30.41 29.80 29.97 30.48 29.95 28.58 28.55 29.46 27.68 26.58 26.12 26.25 27.48 28.29 29.68 26.91 25.18 25.35 24.71 24.62 25.39 27.40 28.68 30.01 32.04 30.97 32.44 33.05
44.93 41.73 40.65 40.73 39.04 38.08 35.39 34.41 33.37 33.02 32.84 32.21 30.99 29.50 29.12 29.18 29.29 29.88 29.47 29.00 27.63 26.88 27.53 26.25 25.55 26.11 26.08 27.27 27.02 26.86 24.55 23.50 23.89 24.69 24.71 25.40 27.40 28.09 28.55 29.95 29.33 29.79 30.41
41.95 40.72 39.82 39.33 38.03 34.89 33.53 33.06 32.69 31.53 31.01 29.41 28.20 27.63 27.99 28.66 28.80 28.54 28.20 28.25 26.88 26.25 26.35 26.07 24.61 25.34 26.02 27.20 25.13 24.48 22.80 21.77 21.44 23.21 23.41 25.22 28.22 29.09 28.72 28.82 28.20 28.12 29.00
40.46 39.77 40.57 38.07 35.60 33.10 31.65 31.88 30.90 30.84 29.86 26.56 25.05 24.03 27.06 26.23 25.35 25.75 25.67 26.39 25.79 24.57 23.66 23.70 23.28 23.25 25.84 27.71 27.37 24.06 22.16 21.69 20.66 20.66 21.57 23.99 25.96 25.52 26.78 28.21 28.66 28.06 27.37
40.64 40.75 38.10 34.54 31.73 30.60 31.21 30.73 29.92 29.57 26.87 25.87 26.18 23.58 23.36 22.49 18.49 24.26 24.52 20.72 19.67 20.84 22.09 19.49 20.59 20.48 23.33 26.54 26.71 25.85 20.77 19.40 18.21 19.78 19.86 22.19 23.73 24.14 22.75 24.66 25.83 26.10 27.41
37.78 32.94 31.14 30.15 29.97 30.19 30.78 29.87 29.00 27.00 25.44 23.43 23.49 25.38 21.94 17.23 21.16 16.33 14.11 15.33 16.05 14.06 13.91 18.25 18.74 18.99 22.54 26.65 25.41 24.56 14.79 14.31 16.42 19.03 19.67 19.65 20.81 23.24 21.92 20.97 21.24 22.01 22.83
31.04 29.56 28.97 28.99 28.65 29.74 29.91 28.29 26.66 25.93 24.41 19.40 18.01 15.79 15.91 14.59 15.49 13.53 13.93 15.06 19.38 18.74 20.52 14.01 15.39 17.44 17.64 26.55 25.72 20.10 16.98 12.54 14.59 17.91 19.78 20.63 20.69 24.57 24.51 19.60 18.59 18.69 19.97
30.23 29.41 29.20 28.00 28.91 28.92 28.41 25.64 23.64 22.72 19.93 19.67 19.70 20.63 19.01 17.19 15.49 15.64 18.44 18.83 18.84 20.82 22.16 19.94 18.20 22.22 14.36 24.86 26.02 21.05 13.93 17.27 16.98 16.85 19.12 24.35 22.66 23.84 23.66 18.38 17.72 15.90 17.25
29.71 29.37 27.80 27.48 28.11 28.42 26.86 23.55 22.22 19.76 19.38 24.08 24.67 23.12 26.67 25.15 20.67 20.90 20.72 21.50 21.59 23.91 20.76 18.87 17.62 16.35 19.36 16.66 24.65 25.28 18.86 18.22 16.28 17.63 17.77 20.24 23.80 23.92 22.84 21.87 18.05 17.34 18.00
29.88 29.29 28.23 27.34 28.59 27.23 25.82 23.41 22.08 22.94 24.82 23.67 24.51 24.24 23.30 27.54 26.37 24.63 23.20 24.36 23.46 20.52 18.77 18.14 16.35 16.10 14.76 21.75 22.46 23.56 23.53 23.34 19.28 17.11 19.42 19.76 22.52 22.28 22.62 19.25 20.44 20.38 16.46
29.27 29.56 28.11 28.67 28.82 27.97 26.08 22.22 22.80 26.06 25.96 25.92 24.64 22.35 26.49 25.30 22.76 20.73 19.33 20.01 20.46 19.33 17.89 15.15 13.20 13.12 14.98 14.31 21.59 22.33 22.48 22.07 17.36 17.96 19.35 20.73 19.96 19.38 18.28 20.32 18.97 16.17 14.97
28.38 28.56 28.37 28.57 27.65 28.32 27.17 25.34 26.39 26.72 25.74 25.12 24.95 24.14 23.08 23.25 21.23 20.05 19.76 18.10 16.56 15.55 16.95 14.26 12.03 9.08 13.28 14.47 15.31 15.05 14.89 17.10 17.24 15.28 14.22 13.47 17.11 13.72 13.63 14.49 15.44 14.58 14.35
29.78 28.75 27.81 27.60 28.15 28.87 27.57 28.31 28.06 27.26 25.38 24.37 23.21 22.65 22.19 20.48 19.50 18.94 17.93 17.88 12.70 15.78 13.46 9.92 9.23 6.39 7.91 16.00 20.98 19.44 16.72 16.09 16.52 13.11 12.60 11.02 10.64 9.89 10.44 11.13 12.24 12.81 12.42
29.41 28.65 29.05 28.86 28.53 27.71 26.90 27.73 27.95 26.80 24.49 23.60 23.20 22.49 21.32 19.98 19.05 18.41 17.84 21.82 21.19 21.18 21.02 20.66 17.08 15.01 20.04 20.91 21.24 20.69 19.80 18.67 17.78 11.83 8.51 6.99 6.86 7.23 8.02 8.15 8.97 9.90 9.23